<?xml version="1.0" encoding="UTF-8" standalone="no" ?>
<gpx xmlns="http://www.topografix.com/GPX/1/1" xmlns:xsi="http://www.w3.org/2001/XMLSchema-instance" xsi:schemaLocation="http://www.topografix.com/GPX/1/1 http://www.topografix.com/GPX/1/1/gpx.xsd" version="1.1" creator="VisuGPX - https://www.visugpx.com">
  <metadata>
    <name>J9 Monfalcone - Cervignano</name>
  </metadata>
  <trk>
    <name><![CDATA[J9 Monfalcone - Cervignano]]></name>
    <trkseg>
      <trkpt lat="45.80736" lon="13.54331">
        <ele>25.832093</ele>
        <time>2026-07-15T09:20:41.000Z</time>
      </trkpt>
      <trkpt lat="45.80736" lon="13.54331">
        <ele>25.832093</ele>
        <time>2026-07-15T09:20:42.000Z</time>
      </trkpt>
      <trkpt lat="45.80732" lon="13.54336">
        <ele>25.832093</ele>
        <time>2026-07-15T09:25:44.000Z</time>
      </trkpt>
      <trkpt lat="45.80733" lon="13.54334">
        <ele>25.832093</ele>
        <time>2026-07-15T09:25:45.000Z</time>
      </trkpt>
      <trkpt lat="45.80734" lon="13.54331">
        <ele>25.832093</ele>
        <time>2026-07-15T09:25:46.000Z</time>
      </trkpt>
      <trkpt lat="45.80738" lon="13.54317">
        <ele>25.832093</ele>
        <time>2026-07-15T09:25:52.000Z</time>
      </trkpt>
      <trkpt lat="45.8074" lon="13.54303">
        <ele>25.832093</ele>
        <time>2026-07-15T09:25:58.000Z</time>
      </trkpt>
      <trkpt lat="45.80737" lon="13.54301">
        <ele>25.832093</ele>
        <time>2026-07-15T09:26:01.000Z</time>
      </trkpt>
      <trkpt lat="45.80733" lon="13.54297">
        <ele>25.832093</ele>
        <time>2026-07-15T09:27:32.000Z</time>
      </trkpt>
      <trkpt lat="45.80731" lon="13.54294">
        <ele>25.832093</ele>
        <time>2026-07-15T09:27:33.000Z</time>
      </trkpt>
      <trkpt lat="45.80726" lon="13.54274">
        <ele>25.832093</ele>
        <time>2026-07-15T09:27:37.000Z</time>
      </trkpt>
      <trkpt lat="45.8072" lon="13.54248">
        <ele>25.832093</ele>
        <time>2026-07-15T09:27:41.000Z</time>
      </trkpt>
      <trkpt lat="45.80719" lon="13.54241">
        <ele>25.832093</ele>
        <time>2026-07-15T09:27:42.000Z</time>
      </trkpt>
      <trkpt lat="45.80715" lon="13.54214">
        <ele>25.298683</ele>
        <time>2026-07-15T09:27:45.000Z</time>
      </trkpt>
      <trkpt lat="45.80711" lon="13.54189">
        <ele>24.120478</ele>
        <time>2026-07-15T09:27:48.000Z</time>
      </trkpt>
      <trkpt lat="45.80706" lon="13.54149">
        <ele>22.309743</ele>
        <time>2026-07-15T09:27:52.000Z</time>
      </trkpt>
      <trkpt lat="45.80704" lon="13.54129">
        <ele>21.383797</ele>
        <time>2026-07-15T09:27:54.000Z</time>
      </trkpt>
      <trkpt lat="45.80703" lon="13.54119">
        <ele>20.92395</ele>
        <time>2026-07-15T09:27:55.000Z</time>
      </trkpt>
      <trkpt lat="45.80699" lon="13.5408">
        <ele>19.162909</ele>
        <time>2026-07-15T09:27:59.000Z</time>
      </trkpt>
      <trkpt lat="45.80698" lon="13.54074">
        <ele>18.884824</ele>
        <time>2026-07-15T09:28:00.000Z</time>
      </trkpt>
      <trkpt lat="45.80697" lon="13.54067">
        <ele>18.571382</ele>
        <time>2026-07-15T09:28:01.000Z</time>
      </trkpt>
      <trkpt lat="45.80692" lon="13.54051">
        <ele>17.790331</ele>
        <time>2026-07-15T09:28:05.000Z</time>
      </trkpt>
      <trkpt lat="45.80691" lon="13.54051">
        <ele>17.729735</ele>
        <time>2026-07-15T09:28:07.000Z</time>
      </trkpt>
      <trkpt lat="45.80687" lon="13.54053">
        <ele>17.408609</ele>
        <time>2026-07-15T09:28:10.000Z</time>
      </trkpt>
      <trkpt lat="45.80685" lon="13.54055">
        <ele>17.234986</ele>
        <time>2026-07-15T09:28:11.000Z</time>
      </trkpt>
      <trkpt lat="45.80674" lon="13.54077">
        <ele>16.066367</ele>
        <time>2026-07-15T09:28:16.000Z</time>
      </trkpt>
      <trkpt lat="45.80672" lon="13.54082">
        <ele>15.796014</ele>
        <time>2026-07-15T09:28:17.000Z</time>
      </trkpt>
      <trkpt lat="45.80664" lon="13.54101">
        <ele>14.791572</ele>
        <time>2026-07-15T09:28:21.000Z</time>
      </trkpt>
      <trkpt lat="45.80659" lon="13.54111">
        <ele>14.21099</ele>
        <time>2026-07-15T09:28:24.000Z</time>
      </trkpt>
      <trkpt lat="45.80657" lon="13.54114">
        <ele>14.140818</ele>
        <time>2026-07-15T09:28:25.000Z</time>
      </trkpt>
      <trkpt lat="45.80653" lon="13.54115">
        <ele>14.058835</ele>
        <time>2026-07-15T09:28:26.000Z</time>
      </trkpt>
      <trkpt lat="45.80649" lon="13.54112">
        <ele>13.938368</ele>
        <time>2026-07-15T09:28:28.000Z</time>
      </trkpt>
      <trkpt lat="45.80647" lon="13.54107">
        <ele>13.847033</ele>
        <time>2026-07-15T09:28:29.000Z</time>
      </trkpt>
      <trkpt lat="45.80644" lon="13.54099">
        <ele>13.699746</ele>
        <time>2026-07-15T09:28:30.000Z</time>
      </trkpt>
      <trkpt lat="45.80638" lon="13.54077">
        <ele>13.305644</ele>
        <time>2026-07-15T09:28:33.000Z</time>
      </trkpt>
      <trkpt lat="45.80635" lon="13.5407">
        <ele>13.168193</ele>
        <time>2026-07-15T09:28:34.000Z</time>
      </trkpt>
      <trkpt lat="45.80625" lon="13.54045">
        <ele>12.695343</ele>
        <time>2026-07-15T09:28:38.000Z</time>
      </trkpt>
      <trkpt lat="45.80621" lon="13.54032">
        <ele>12.455646</ele>
        <time>2026-07-15T09:28:40.000Z</time>
      </trkpt>
      <trkpt lat="45.80615" lon="13.54009">
        <ele>12.06012</ele>
        <time>2026-07-15T09:28:44.000Z</time>
      </trkpt>
      <trkpt lat="45.80611" lon="13.53981">
        <ele>11.580682</ele>
        <time>2026-07-15T09:28:50.000Z</time>
      </trkpt>
      <trkpt lat="45.80611" lon="13.53969">
        <ele>11.386557</ele>
        <time>2026-07-15T09:28:52.000Z</time>
      </trkpt>
      <trkpt lat="45.80614" lon="13.53957">
        <ele>11.167666</ele>
        <time>2026-07-15T09:28:54.000Z</time>
      </trkpt>
      <trkpt lat="45.80619" lon="13.53936">
        <ele>10.803125</ele>
        <time>2026-07-15T09:28:57.000Z</time>
      </trkpt>
      <trkpt lat="45.80624" lon="13.53921">
        <ele>10.521801</ele>
        <time>2026-07-15T09:28:59.000Z</time>
      </trkpt>
      <trkpt lat="45.80626" lon="13.53914">
        <ele>10.397852</ele>
        <time>2026-07-15T09:29:00.000Z</time>
      </trkpt>
      <trkpt lat="45.80637" lon="13.53871">
        <ele>9.754822</ele>
        <time>2026-07-15T09:29:06.000Z</time>
      </trkpt>
      <trkpt lat="45.80641" lon="13.53859">
        <ele>9.615482</ele>
        <time>2026-07-15T09:29:08.000Z</time>
      </trkpt>
      <trkpt lat="45.80644" lon="13.53846">
        <ele>9.478742</ele>
        <time>2026-07-15T09:29:10.000Z</time>
      </trkpt>
      <trkpt lat="45.80646" lon="13.53835">
        <ele>9.368685</ele>
        <time>2026-07-15T09:29:12.000Z</time>
      </trkpt>
      <trkpt lat="45.80641" lon="13.53827">
        <ele>9.262129</ele>
        <time>2026-07-15T09:29:14.000Z</time>
      </trkpt>
      <trkpt lat="45.80637" lon="13.53825">
        <ele>9.197278</ele>
        <time>2026-07-15T09:29:15.000Z</time>
      </trkpt>
      <trkpt lat="45.80613" lon="13.53809">
        <ele>8.820736</ele>
        <time>2026-07-15T09:29:20.000Z</time>
      </trkpt>
      <trkpt lat="45.80578" lon="13.53783">
        <ele>8.247041</ele>
        <time>2026-07-15T09:29:28.000Z</time>
      </trkpt>
      <trkpt lat="45.80574" lon="13.5378">
        <ele>8.181725</ele>
        <time>2026-07-15T09:29:29.000Z</time>
      </trkpt>
      <trkpt lat="45.80552" lon="13.53764">
        <ele>7.833253</ele>
        <time>2026-07-15T09:29:34.000Z</time>
      </trkpt>
      <trkpt lat="45.8054" lon="13.53754">
        <ele>7.624054</ele>
        <time>2026-07-15T09:29:39.000Z</time>
      </trkpt>
      <trkpt lat="45.80538" lon="13.53751">
        <ele>7.585951</ele>
        <time>2026-07-15T09:29:41.000Z</time>
      </trkpt>
      <trkpt lat="45.80532" lon="13.53747">
        <ele>7.487469</ele>
        <time>2026-07-15T09:29:44.000Z</time>
      </trkpt>
      <trkpt lat="45.80517" lon="13.53736">
        <ele>7.256</ele>
        <time>2026-07-15T09:29:48.000Z</time>
      </trkpt>
      <trkpt lat="45.80509" lon="13.5373">
        <ele>7.109556</ele>
        <time>2026-07-15T09:29:50.000Z</time>
      </trkpt>
      <trkpt lat="45.80491" lon="13.53719">
        <ele>6.823727</ele>
        <time>2026-07-15T09:29:54.000Z</time>
      </trkpt>
      <trkpt lat="45.80457" lon="13.53693">
        <ele>6.246925</ele>
        <time>2026-07-15T09:30:03.000Z</time>
      </trkpt>
      <trkpt lat="45.80424" lon="13.5367">
        <ele>5.712989</ele>
        <time>2026-07-15T09:30:11.000Z</time>
      </trkpt>
      <trkpt lat="45.80421" lon="13.53667">
        <ele>5.661229</ele>
        <time>2026-07-15T09:30:12.000Z</time>
      </trkpt>
      <trkpt lat="45.80404" lon="13.53654">
        <ele>5.36344</ele>
        <time>2026-07-15T09:30:17.000Z</time>
      </trkpt>
      <trkpt lat="45.80396" lon="13.53647">
        <ele>5.222118</ele>
        <time>2026-07-15T09:30:20.000Z</time>
      </trkpt>
      <trkpt lat="45.80393" lon="13.53644">
        <ele>5.178164</ele>
        <time>2026-07-15T09:30:24.000Z</time>
      </trkpt>
      <trkpt lat="45.80394" lon="13.53636">
        <ele>5.097182</ele>
        <time>2026-07-15T09:30:28.000Z</time>
      </trkpt>
      <trkpt lat="45.80395" lon="13.53632">
        <ele>5.05216</ele>
        <time>2026-07-15T09:30:29.000Z</time>
      </trkpt>
      <trkpt lat="45.80397" lon="13.53627">
        <ele>5.00015</ele>
        <time>2026-07-15T09:30:30.000Z</time>
      </trkpt>
      <trkpt lat="45.80406" lon="13.53602">
        <ele>4.703978</ele>
        <time>2026-07-15T09:30:35.000Z</time>
      </trkpt>
      <trkpt lat="45.80408" lon="13.53597">
        <ele>4.667631</ele>
        <time>2026-07-15T09:30:36.000Z</time>
      </trkpt>
      <trkpt lat="45.80423" lon="13.53557">
        <ele>4.900811</ele>
        <time>2026-07-15T09:30:43.000Z</time>
      </trkpt>
      <trkpt lat="45.80435" lon="13.53528">
        <ele>5.071046</ele>
        <time>2026-07-15T09:30:48.000Z</time>
      </trkpt>
      <trkpt lat="45.80437" lon="13.53524">
        <ele>5.095417</ele>
        <time>2026-07-15T09:30:49.000Z</time>
      </trkpt>
      <trkpt lat="45.80438" lon="13.53517">
        <ele>5.133358</ele>
        <time>2026-07-15T09:30:52.000Z</time>
      </trkpt>
      <trkpt lat="45.80438" lon="13.53517">
        <ele>5.133358</ele>
        <time>2026-07-15T09:30:53.000Z</time>
      </trkpt>
      <trkpt lat="45.8044" lon="13.53511">
        <ele>5.165259</ele>
        <time>2026-07-15T09:31:20.000Z</time>
      </trkpt>
      <trkpt lat="45.80441" lon="13.53507">
        <ele>5.189413</ele>
        <time>2026-07-15T09:31:21.000Z</time>
      </trkpt>
      <trkpt lat="45.80443" lon="13.53502">
        <ele>5.217887</ele>
        <time>2026-07-15T09:31:22.000Z</time>
      </trkpt>
      <trkpt lat="45.80449" lon="13.53485">
        <ele>5.315828</ele>
        <time>2026-07-15T09:31:25.000Z</time>
      </trkpt>
      <trkpt lat="45.80454" lon="13.53472">
        <ele>5.389079</ele>
        <time>2026-07-15T09:31:27.000Z</time>
      </trkpt>
      <trkpt lat="45.80463" lon="13.53446">
        <ele>5.53899</ele>
        <time>2026-07-15T09:31:31.000Z</time>
      </trkpt>
      <trkpt lat="45.80478" lon="13.53405">
        <ele>5.777586</ele>
        <time>2026-07-15T09:31:37.000Z</time>
      </trkpt>
      <trkpt lat="45.80483" lon="13.5339">
        <ele>5.859284</ele>
        <time>2026-07-15T09:31:39.000Z</time>
      </trkpt>
      <trkpt lat="45.80498" lon="13.5335">
        <ele>6.069427</ele>
        <time>2026-07-15T09:31:45.000Z</time>
      </trkpt>
      <trkpt lat="45.80501" lon="13.53344">
        <ele>6.098994</ele>
        <time>2026-07-15T09:31:46.000Z</time>
      </trkpt>
      <trkpt lat="45.80508" lon="13.53332">
        <ele>6.159043</ele>
        <time>2026-07-15T09:31:48.000Z</time>
      </trkpt>
      <trkpt lat="45.80511" lon="13.53318">
        <ele>6.215469</ele>
        <time>2026-07-15T09:31:50.000Z</time>
      </trkpt>
      <trkpt lat="45.80507" lon="13.53305">
        <ele>6.270427</ele>
        <time>2026-07-15T09:31:52.000Z</time>
      </trkpt>
      <trkpt lat="45.80503" lon="13.53301">
        <ele>6.297807</ele>
        <time>2026-07-15T09:31:53.000Z</time>
      </trkpt>
      <trkpt lat="45.80499" lon="13.53298">
        <ele>6.326341</ele>
        <time>2026-07-15T09:31:54.000Z</time>
      </trkpt>
      <trkpt lat="45.80483" lon="13.53292">
        <ele>6.419834</ele>
        <time>2026-07-15T09:31:57.000Z</time>
      </trkpt>
      <trkpt lat="45.80462" lon="13.53279">
        <ele>6.543348</ele>
        <time>2026-07-15T09:32:01.000Z</time>
      </trkpt>
      <trkpt lat="45.80453" lon="13.5327">
        <ele>6.608208</ele>
        <time>2026-07-15T09:32:03.000Z</time>
      </trkpt>
      <trkpt lat="45.80448" lon="13.53266">
        <ele>6.639297</ele>
        <time>2026-07-15T09:32:04.000Z</time>
      </trkpt>
      <trkpt lat="45.80438" lon="13.53259">
        <ele>6.701351</ele>
        <time>2026-07-15T09:32:06.000Z</time>
      </trkpt>
      <trkpt lat="45.80429" lon="13.53253">
        <ele>6.757773</ele>
        <time>2026-07-15T09:32:08.000Z</time>
      </trkpt>
      <trkpt lat="45.80425" lon="13.5325">
        <ele>6.779405</ele>
        <time>2026-07-15T09:32:09.000Z</time>
      </trkpt>
      <trkpt lat="45.80419" lon="13.53247">
        <ele>6.817458</ele>
        <time>2026-07-15T09:32:12.000Z</time>
      </trkpt>
      <trkpt lat="45.80417" lon="13.53254">
        <ele>6.847893</ele>
        <time>2026-07-15T09:32:15.000Z</time>
      </trkpt>
      <trkpt lat="45.80412" lon="13.53268">
        <ele>6.90847</ele>
        <time>2026-07-15T09:32:19.000Z</time>
      </trkpt>
      <trkpt lat="45.80407" lon="13.53268">
        <ele>6.936542</ele>
        <time>2026-07-15T09:32:21.000Z</time>
      </trkpt>
      <trkpt lat="45.80403" lon="13.53263">
        <ele>6.96855</ele>
        <time>2026-07-15T09:32:23.000Z</time>
      </trkpt>
      <trkpt lat="45.80386" lon="13.53253">
        <ele>7.102439</ele>
        <time>2026-07-15T09:32:29.000Z</time>
      </trkpt>
      <trkpt lat="45.80371" lon="13.53243">
        <ele>7.232063</ele>
        <time>2026-07-15T09:32:34.000Z</time>
      </trkpt>
      <trkpt lat="45.80364" lon="13.53236">
        <ele>7.301464</ele>
        <time>2026-07-15T09:32:37.000Z</time>
      </trkpt>
      <trkpt lat="45.80362" lon="13.53232">
        <ele>7.332391</ele>
        <time>2026-07-15T09:32:39.000Z</time>
      </trkpt>
      <trkpt lat="45.80361" lon="13.53231">
        <ele>7.336078</ele>
        <time>2026-07-15T09:32:41.000Z</time>
      </trkpt>
      <trkpt lat="45.80364" lon="13.53225">
        <ele>7.377969</ele>
        <time>2026-07-15T09:32:46.000Z</time>
      </trkpt>
      <trkpt lat="45.80365" lon="13.53221">
        <ele>7.397918</ele>
        <time>2026-07-15T09:32:47.000Z</time>
      </trkpt>
      <trkpt lat="45.80366" lon="13.53218">
        <ele>7.418062</ele>
        <time>2026-07-15T09:32:48.000Z</time>
      </trkpt>
      <trkpt lat="45.8037" lon="13.53206">
        <ele>7.48981</ele>
        <time>2026-07-15T09:32:52.000Z</time>
      </trkpt>
      <trkpt lat="45.80369" lon="13.53204">
        <ele>7.505903</ele>
        <time>2026-07-15T09:32:53.000Z</time>
      </trkpt>
      <trkpt lat="45.80363" lon="13.53197">
        <ele>7.564159</ele>
        <time>2026-07-15T09:32:56.000Z</time>
      </trkpt>
      <trkpt lat="45.80348" lon="13.53187">
        <ele>7.693563</ele>
        <time>2026-07-15T09:33:00.000Z</time>
      </trkpt>
      <trkpt lat="45.80344" lon="13.53183">
        <ele>7.738502</ele>
        <time>2026-07-15T09:33:01.000Z</time>
      </trkpt>
      <trkpt lat="45.8034" lon="13.53178">
        <ele>7.77937</ele>
        <time>2026-07-15T09:33:02.000Z</time>
      </trkpt>
      <trkpt lat="45.80327" lon="13.53167">
        <ele>7.898017</ele>
        <time>2026-07-15T09:33:05.000Z</time>
      </trkpt>
      <trkpt lat="45.80322" lon="13.53163">
        <ele>7.944785</ele>
        <time>2026-07-15T09:33:06.000Z</time>
      </trkpt>
      <trkpt lat="45.8031" lon="13.53151">
        <ele>8.055959</ele>
        <time>2026-07-15T09:33:09.000Z</time>
      </trkpt>
      <trkpt lat="45.80307" lon="13.53148">
        <ele>8.08949</ele>
        <time>2026-07-15T09:33:10.000Z</time>
      </trkpt>
      <trkpt lat="45.80274" lon="13.53124">
        <ele>8.380447</ele>
        <time>2026-07-15T09:33:17.000Z</time>
      </trkpt>
      <trkpt lat="45.80269" lon="13.53121">
        <ele>8.405547</ele>
        <time>2026-07-15T09:33:18.000Z</time>
      </trkpt>
      <trkpt lat="45.80249" lon="13.53103">
        <ele>7.978794</ele>
        <time>2026-07-15T09:33:24.000Z</time>
      </trkpt>
      <trkpt lat="45.80236" lon="13.53097">
        <ele>7.72708</ele>
        <time>2026-07-15T09:33:29.000Z</time>
      </trkpt>
      <trkpt lat="45.80222" lon="13.53086">
        <ele>7.421383</ele>
        <time>2026-07-15T09:33:33.000Z</time>
      </trkpt>
      <trkpt lat="45.80217" lon="13.53083">
        <ele>7.335006</ele>
        <time>2026-07-15T09:33:34.000Z</time>
      </trkpt>
      <trkpt lat="45.80197" lon="13.53068">
        <ele>6.914141</ele>
        <time>2026-07-15T09:33:39.000Z</time>
      </trkpt>
      <trkpt lat="45.80186" lon="13.53059">
        <ele>6.683549</ele>
        <time>2026-07-15T09:33:42.000Z</time>
      </trkpt>
      <trkpt lat="45.80177" lon="13.5305">
        <ele>6.486706</ele>
        <time>2026-07-15T09:33:44.000Z</time>
      </trkpt>
      <trkpt lat="45.80161" lon="13.53038">
        <ele>6.150888</ele>
        <time>2026-07-15T09:33:49.000Z</time>
      </trkpt>
      <trkpt lat="45.8016" lon="13.53036">
        <ele>6.112658</ele>
        <time>2026-07-15T09:33:50.000Z</time>
      </trkpt>
      <trkpt lat="45.80158" lon="13.53026">
        <ele>5.983525</ele>
        <time>2026-07-15T09:33:52.000Z</time>
      </trkpt>
      <trkpt lat="45.80145" lon="13.53012">
        <ele>5.691416</ele>
        <time>2026-07-15T09:33:57.000Z</time>
      </trkpt>
      <trkpt lat="45.80131" lon="13.5301">
        <ele>5.423474</ele>
        <time>2026-07-15T09:34:00.000Z</time>
      </trkpt>
      <trkpt lat="45.80121" lon="13.53008">
        <ele>5.237767</ele>
        <time>2026-07-15T09:34:03.000Z</time>
      </trkpt>
      <trkpt lat="45.80113" lon="13.52998">
        <ele>5.122929</ele>
        <time>2026-07-15T09:34:05.000Z</time>
      </trkpt>
      <trkpt lat="45.80106" lon="13.52988">
        <ele>5.156813</ele>
        <time>2026-07-15T09:34:08.000Z</time>
      </trkpt>
      <trkpt lat="45.80098" lon="13.52977">
        <ele>5.197334</ele>
        <time>2026-07-15T09:34:11.000Z</time>
      </trkpt>
      <trkpt lat="45.80088" lon="13.5296">
        <ele>5.251877</ele>
        <time>2026-07-15T09:34:16.000Z</time>
      </trkpt>
      <trkpt lat="45.80078" lon="13.52948">
        <ele>5.300171</ele>
        <time>2026-07-15T09:34:19.000Z</time>
      </trkpt>
      <trkpt lat="45.80072" lon="13.52939">
        <ele>5.3316</ele>
        <time>2026-07-15T09:34:21.000Z</time>
      </trkpt>
      <trkpt lat="45.80055" lon="13.52914">
        <ele>5.418362</ele>
        <time>2026-07-15T09:34:27.000Z</time>
      </trkpt>
      <trkpt lat="45.80042" lon="13.52903">
        <ele>5.473372</ele>
        <time>2026-07-15T09:34:31.000Z</time>
      </trkpt>
      <trkpt lat="45.80039" lon="13.529">
        <ele>5.487073</ele>
        <time>2026-07-15T09:34:32.000Z</time>
      </trkpt>
      <trkpt lat="45.80023" lon="13.52879">
        <ele>5.564682</ele>
        <time>2026-07-15T09:34:38.000Z</time>
      </trkpt>
      <trkpt lat="45.80015" lon="13.52872">
        <ele>5.599012</ele>
        <time>2026-07-15T09:34:41.000Z</time>
      </trkpt>
      <trkpt lat="45.80012" lon="13.52867">
        <ele>5.61528</ele>
        <time>2026-07-15T09:34:43.000Z</time>
      </trkpt>
      <trkpt lat="45.80009" lon="13.52866">
        <ele>5.62735</ele>
        <time>2026-07-15T09:34:44.000Z</time>
      </trkpt>
      <trkpt lat="45.79998" lon="13.52874">
        <ele>5.672494</ele>
        <time>2026-07-15T09:34:48.000Z</time>
      </trkpt>
      <trkpt lat="45.79995" lon="13.52875">
        <ele>5.680974</ele>
        <time>2026-07-15T09:34:49.000Z</time>
      </trkpt>
      <trkpt lat="45.79993" lon="13.52874">
        <ele>5.688792</ele>
        <time>2026-07-15T09:34:51.000Z</time>
      </trkpt>
      <trkpt lat="45.79993" lon="13.52874">
        <ele>5.689985</ele>
        <time>2026-07-15T09:34:52.000Z</time>
      </trkpt>
      <trkpt lat="45.79997" lon="13.52866">
        <ele>5.712892</ele>
        <time>2026-07-15T09:34:56.000Z</time>
      </trkpt>
      <trkpt lat="45.8" lon="13.5286">
        <ele>5.731045</ele>
        <time>2026-07-15T09:34:58.000Z</time>
      </trkpt>
      <trkpt lat="45.8" lon="13.52859">
        <ele>5.735585</ele>
        <time>2026-07-15T09:34:59.000Z</time>
      </trkpt>
      <trkpt lat="45.8" lon="13.52857">
        <ele>5.738624</ele>
        <time>2026-07-15T09:35:01.000Z</time>
      </trkpt>
      <trkpt lat="45.79999" lon="13.52852">
        <ele>5.752928</ele>
        <time>2026-07-15T09:35:03.000Z</time>
      </trkpt>
      <trkpt lat="45.79997" lon="13.52849">
        <ele>5.742202</ele>
        <time>2026-07-15T09:35:04.000Z</time>
      </trkpt>
      <trkpt lat="45.79995" lon="13.5285">
        <ele>5.717205</ele>
        <time>2026-07-15T09:35:05.000Z</time>
      </trkpt>
      <trkpt lat="45.7999" lon="13.52854">
        <ele>5.658903</ele>
        <time>2026-07-15T09:35:07.000Z</time>
      </trkpt>
      <trkpt lat="45.79987" lon="13.52858">
        <ele>5.62114</ele>
        <time>2026-07-15T09:35:08.000Z</time>
      </trkpt>
      <trkpt lat="45.79978" lon="13.5287">
        <ele>5.495566</ele>
        <time>2026-07-15T09:35:12.000Z</time>
      </trkpt>
      <trkpt lat="45.79975" lon="13.52872">
        <ele>5.468401</ele>
        <time>2026-07-15T09:35:13.000Z</time>
      </trkpt>
      <trkpt lat="45.79965" lon="13.52879">
        <ele>5.354726</ele>
        <time>2026-07-15T09:35:18.000Z</time>
      </trkpt>
      <trkpt lat="45.79962" lon="13.52877">
        <ele>5.320437</ele>
        <time>2026-07-15T09:35:20.000Z</time>
      </trkpt>
      <trkpt lat="45.7996" lon="13.52874">
        <ele>5.293644</ele>
        <time>2026-07-15T09:35:22.000Z</time>
      </trkpt>
      <trkpt lat="45.7996" lon="13.52873">
        <ele>5.286805</ele>
        <time>2026-07-15T09:35:25.000Z</time>
      </trkpt>
      <trkpt lat="45.79955" lon="13.52874">
        <ele>5.237741</ele>
        <time>2026-07-15T09:35:36.000Z</time>
      </trkpt>
      <trkpt lat="45.79951" lon="13.52876">
        <ele>5.195757</ele>
        <time>2026-07-15T09:35:39.000Z</time>
      </trkpt>
      <trkpt lat="45.79945" lon="13.52876">
        <ele>5.14394</ele>
        <time>2026-07-15T09:35:41.000Z</time>
      </trkpt>
      <trkpt lat="45.79932" lon="13.52874">
        <ele>5.008639</ele>
        <time>2026-07-15T09:35:45.000Z</time>
      </trkpt>
      <trkpt lat="45.79912" lon="13.52882">
        <ele>4.803258</ele>
        <time>2026-07-15T09:35:50.000Z</time>
      </trkpt>
      <trkpt lat="45.79887" lon="13.52871">
        <ele>4.540926</ele>
        <time>2026-07-15T09:35:56.000Z</time>
      </trkpt>
      <trkpt lat="45.79865" lon="13.52845">
        <ele>4.255358</ele>
        <time>2026-07-15T09:36:02.000Z</time>
      </trkpt>
      <trkpt lat="45.79854" lon="13.5283">
        <ele>4.100048</ele>
        <time>2026-07-15T09:36:05.000Z</time>
      </trkpt>
      <trkpt lat="45.79835" lon="13.52805">
        <ele>3.765856</ele>
        <time>2026-07-15T09:36:10.000Z</time>
      </trkpt>
      <trkpt lat="45.79832" lon="13.528">
        <ele>3.682485</ele>
        <time>2026-07-15T09:36:11.000Z</time>
      </trkpt>
      <trkpt lat="45.79822" lon="13.52784">
        <ele>3.420247</ele>
        <time>2026-07-15T09:36:14.000Z</time>
      </trkpt>
      <trkpt lat="45.79803" lon="13.52759">
        <ele>2.975429</ele>
        <time>2026-07-15T09:36:19.000Z</time>
      </trkpt>
      <trkpt lat="45.79763" lon="13.52729">
        <ele>2.199293</ele>
        <time>2026-07-15T09:36:27.000Z</time>
      </trkpt>
      <trkpt lat="45.79722" lon="13.52705">
        <ele>1.430174</ele>
        <time>2026-07-15T09:36:35.000Z</time>
      </trkpt>
      <trkpt lat="45.79717" lon="13.52702">
        <ele>1.325022</ele>
        <time>2026-07-15T09:36:36.000Z</time>
      </trkpt>
      <trkpt lat="45.79712" lon="13.52699">
        <ele>1.226745</ele>
        <time>2026-07-15T09:36:37.000Z</time>
      </trkpt>
      <trkpt lat="45.79702" lon="13.52692">
        <ele>1.039218</ele>
        <time>2026-07-15T09:36:39.000Z</time>
      </trkpt>
      <trkpt lat="45.79683" lon="13.5268">
        <ele>0.716184</ele>
        <time>2026-07-15T09:36:43.000Z</time>
      </trkpt>
      <trkpt lat="45.79652" lon="13.52665">
        <ele>0.290376</ele>
        <time>2026-07-15T09:36:50.000Z</time>
      </trkpt>
      <trkpt lat="45.79637" lon="13.5266">
        <ele>0.1008</ele>
        <time>2026-07-15T09:36:53.000Z</time>
      </trkpt>
      <trkpt lat="45.79601" lon="13.52648">
        <ele>-0.387991</ele>
        <time>2026-07-15T09:37:00.000Z</time>
      </trkpt>
      <trkpt lat="45.7956" lon="13.52635">
        <ele>-0.926489</ele>
        <time>2026-07-15T09:37:08.000Z</time>
      </trkpt>
      <trkpt lat="45.79556" lon="13.52633">
        <ele>-0.987345</ele>
        <time>2026-07-15T09:37:09.000Z</time>
      </trkpt>
      <trkpt lat="45.79545" lon="13.5263">
        <ele>-1.124365</ele>
        <time>2026-07-15T09:37:11.000Z</time>
      </trkpt>
      <trkpt lat="45.79516" lon="13.5262">
        <ele>-1.472883</ele>
        <time>2026-07-15T09:37:17.000Z</time>
      </trkpt>
      <trkpt lat="45.79478" lon="13.52608">
        <ele>-0.881477</ele>
        <time>2026-07-15T09:37:25.000Z</time>
      </trkpt>
      <trkpt lat="45.79474" lon="13.52606">
        <ele>-0.812813</ele>
        <time>2026-07-15T09:37:26.000Z</time>
      </trkpt>
      <trkpt lat="45.79429" lon="13.52592">
        <ele>-0.122936</ele>
        <time>2026-07-15T09:37:35.000Z</time>
      </trkpt>
      <trkpt lat="45.79404" lon="13.52584">
        <ele>0.260023</ele>
        <time>2026-07-15T09:37:40.000Z</time>
      </trkpt>
      <trkpt lat="45.7939" lon="13.5258">
        <ele>0.48335</ele>
        <time>2026-07-15T09:37:43.000Z</time>
      </trkpt>
      <trkpt lat="45.79367" lon="13.52574">
        <ele>0.830266</ele>
        <time>2026-07-15T09:37:48.000Z</time>
      </trkpt>
      <trkpt lat="45.79359" lon="13.52571">
        <ele>0.951424</ele>
        <time>2026-07-15T09:37:50.000Z</time>
      </trkpt>
      <trkpt lat="45.79346" lon="13.52567">
        <ele>1.148177</ele>
        <time>2026-07-15T09:37:53.000Z</time>
      </trkpt>
      <trkpt lat="45.79342" lon="13.52566">
        <ele>1.217258</ele>
        <time>2026-07-15T09:37:54.000Z</time>
      </trkpt>
      <trkpt lat="45.79333" lon="13.52563">
        <ele>1.322468</ele>
        <time>2026-07-15T09:37:56.000Z</time>
      </trkpt>
      <trkpt lat="45.79326" lon="13.52561">
        <ele>1.413087</ele>
        <time>2026-07-15T09:37:58.000Z</time>
      </trkpt>
      <trkpt lat="45.79295" lon="13.52551">
        <ele>1.779248</ele>
        <time>2026-07-15T09:38:06.000Z</time>
      </trkpt>
      <trkpt lat="45.79275" lon="13.52544">
        <ele>2.021259</ele>
        <time>2026-07-15T09:38:11.000Z</time>
      </trkpt>
      <trkpt lat="45.7925" lon="13.52536">
        <ele>2.329066</ele>
        <time>2026-07-15T09:38:17.000Z</time>
      </trkpt>
      <trkpt lat="45.79242" lon="13.52533">
        <ele>2.4228</ele>
        <time>2026-07-15T09:38:19.000Z</time>
      </trkpt>
      <trkpt lat="45.79234" lon="13.52531">
        <ele>2.515211</ele>
        <time>2026-07-15T09:38:21.000Z</time>
      </trkpt>
      <trkpt lat="45.79227" lon="13.52528">
        <ele>2.59734</ele>
        <time>2026-07-15T09:38:23.000Z</time>
      </trkpt>
      <trkpt lat="45.79222" lon="13.52523">
        <ele>2.67415</ele>
        <time>2026-07-15T09:38:25.000Z</time>
      </trkpt>
      <trkpt lat="45.79216" lon="13.52508">
        <ele>2.816178</ele>
        <time>2026-07-15T09:38:29.000Z</time>
      </trkpt>
      <trkpt lat="45.79214" lon="13.52488">
        <ele>2.977689</ele>
        <time>2026-07-15T09:38:33.000Z</time>
      </trkpt>
      <trkpt lat="45.79211" lon="13.52486">
        <ele>3.022966</ele>
        <time>2026-07-15T09:38:35.000Z</time>
      </trkpt>
      <trkpt lat="45.79205" lon="13.525">
        <ele>3.15543</ele>
        <time>2026-07-15T09:38:38.000Z</time>
      </trkpt>
      <trkpt lat="45.79202" lon="13.52505">
        <ele>3.205782</ele>
        <time>2026-07-15T09:38:39.000Z</time>
      </trkpt>
      <trkpt lat="45.79196" lon="13.52511">
        <ele>3.300843</ele>
        <time>2026-07-15T09:38:41.000Z</time>
      </trkpt>
      <trkpt lat="45.7918" lon="13.5251">
        <ele>3.34395</ele>
        <time>2026-07-15T09:38:45.000Z</time>
      </trkpt>
      <trkpt lat="45.7917" lon="13.52506">
        <ele>3.358188</ele>
        <time>2026-07-15T09:38:50.000Z</time>
      </trkpt>
      <trkpt lat="45.79155" lon="13.52503">
        <ele>3.378396</ele>
        <time>2026-07-15T09:38:55.000Z</time>
      </trkpt>
      <trkpt lat="45.79135" lon="13.52497">
        <ele>3.404933</ele>
        <time>2026-07-15T09:39:00.000Z</time>
      </trkpt>
      <trkpt lat="45.7912" lon="13.52496">
        <ele>3.424749</ele>
        <time>2026-07-15T09:39:03.000Z</time>
      </trkpt>
      <trkpt lat="45.79116" lon="13.52495">
        <ele>3.430668</ele>
        <time>2026-07-15T09:39:04.000Z</time>
      </trkpt>
      <trkpt lat="45.79071" lon="13.52482">
        <ele>3.491328</ele>
        <time>2026-07-15T09:39:12.000Z</time>
      </trkpt>
      <trkpt lat="45.79066" lon="13.5248">
        <ele>3.49889</ele>
        <time>2026-07-15T09:39:13.000Z</time>
      </trkpt>
      <trkpt lat="45.79032" lon="13.52461">
        <ele>3.547376</ele>
        <time>2026-07-15T09:39:20.000Z</time>
      </trkpt>
      <trkpt lat="45.79028" lon="13.52458">
        <ele>3.553171</ele>
        <time>2026-07-15T09:39:21.000Z</time>
      </trkpt>
      <trkpt lat="45.79023" lon="13.52452">
        <ele>3.562015</ele>
        <time>2026-07-15T09:39:23.000Z</time>
      </trkpt>
      <trkpt lat="45.79023" lon="13.52448">
        <ele>3.565493</ele>
        <time>2026-07-15T09:39:24.000Z</time>
      </trkpt>
      <trkpt lat="45.79027" lon="13.5244">
        <ele>3.578769</ele>
        <time>2026-07-15T09:39:27.000Z</time>
      </trkpt>
      <trkpt lat="45.79031" lon="13.52437">
        <ele>3.586091</ele>
        <time>2026-07-15T09:39:29.000Z</time>
      </trkpt>
      <trkpt lat="45.79032" lon="13.52434">
        <ele>3.589672</ele>
        <time>2026-07-15T09:39:31.000Z</time>
      </trkpt>
      <trkpt lat="45.79032" lon="13.52432">
        <ele>3.592626</ele>
        <time>2026-07-15T09:39:32.000Z</time>
      </trkpt>
      <trkpt lat="45.7903" lon="13.52428">
        <ele>3.598833</ele>
        <time>2026-07-15T09:39:34.000Z</time>
      </trkpt>
      <trkpt lat="45.79017" lon="13.52435">
        <ele>3.623581</ele>
        <time>2026-07-15T09:39:38.000Z</time>
      </trkpt>
      <trkpt lat="45.78997" lon="13.52462">
        <ele>3.674396</ele>
        <time>2026-07-15T09:39:44.000Z</time>
      </trkpt>
      <trkpt lat="45.78975" lon="13.5249">
        <ele>3.728223</ele>
        <time>2026-07-15T09:39:50.000Z</time>
      </trkpt>
      <trkpt lat="45.78952" lon="13.52518">
        <ele>3.784291</ele>
        <time>2026-07-15T09:39:55.000Z</time>
      </trkpt>
      <trkpt lat="45.78943" lon="13.52529">
        <ele>3.805169</ele>
        <time>2026-07-15T09:39:57.000Z</time>
      </trkpt>
      <trkpt lat="45.78935" lon="13.5254">
        <ele>3.826085</ele>
        <time>2026-07-15T09:39:59.000Z</time>
      </trkpt>
      <trkpt lat="45.78927" lon="13.52551">
        <ele>3.84671</ele>
        <time>2026-07-15T09:40:01.000Z</time>
      </trkpt>
      <trkpt lat="45.78902" lon="13.52584">
        <ele>3.793081</ele>
        <time>2026-07-15T09:40:07.000Z</time>
      </trkpt>
      <trkpt lat="45.7889" lon="13.52599">
        <ele>3.546838</ele>
        <time>2026-07-15T09:40:10.000Z</time>
      </trkpt>
      <trkpt lat="45.78852" lon="13.52649">
        <ele>2.76975</ele>
        <time>2026-07-15T09:40:20.000Z</time>
      </trkpt>
      <trkpt lat="45.78829" lon="13.5268">
        <ele>2.300638</ele>
        <time>2026-07-15T09:40:27.000Z</time>
      </trkpt>
      <trkpt lat="45.78818" lon="13.52693">
        <ele>2.081853</ele>
        <time>2026-07-15T09:40:30.000Z</time>
      </trkpt>
      <trkpt lat="45.78804" lon="13.52711">
        <ele>1.808673</ele>
        <time>2026-07-15T09:40:34.000Z</time>
      </trkpt>
      <trkpt lat="45.78784" lon="13.52735">
        <ele>1.410246</ele>
        <time>2026-07-15T09:40:39.000Z</time>
      </trkpt>
      <trkpt lat="45.78774" lon="13.52747">
        <ele>1.210418</ele>
        <time>2026-07-15T09:40:42.000Z</time>
      </trkpt>
      <trkpt lat="45.78768" lon="13.52756">
        <ele>1.204341</ele>
        <time>2026-07-15T09:40:44.000Z</time>
      </trkpt>
      <trkpt lat="45.78762" lon="13.52765">
        <ele>1.214794</ele>
        <time>2026-07-15T09:40:46.000Z</time>
      </trkpt>
      <trkpt lat="45.78758" lon="13.52769">
        <ele>1.220834</ele>
        <time>2026-07-15T09:40:47.000Z</time>
      </trkpt>
      <trkpt lat="45.78748" lon="13.52783">
        <ele>1.238531</ele>
        <time>2026-07-15T09:40:50.000Z</time>
      </trkpt>
      <trkpt lat="45.78736" lon="13.52799">
        <ele>1.257393</ele>
        <time>2026-07-15T09:40:53.000Z</time>
      </trkpt>
      <trkpt lat="45.7873" lon="13.52806">
        <ele>1.267009</ele>
        <time>2026-07-15T09:40:55.000Z</time>
      </trkpt>
      <trkpt lat="45.78727" lon="13.52811">
        <ele>1.273151</ele>
        <time>2026-07-15T09:40:56.000Z</time>
      </trkpt>
      <trkpt lat="45.78716" lon="13.52822">
        <ele>1.288712</ele>
        <time>2026-07-15T09:40:59.000Z</time>
      </trkpt>
      <trkpt lat="45.78713" lon="13.52825">
        <ele>1.293425</ele>
        <time>2026-07-15T09:41:00.000Z</time>
      </trkpt>
      <trkpt lat="45.78695" lon="13.52854">
        <ele>1.326024</ele>
        <time>2026-07-15T09:41:06.000Z</time>
      </trkpt>
      <trkpt lat="45.78691" lon="13.52859">
        <ele>1.33176</ele>
        <time>2026-07-15T09:41:07.000Z</time>
      </trkpt>
      <trkpt lat="45.78663" lon="13.52889">
        <ele>1.374323</ele>
        <time>2026-07-15T09:41:14.000Z</time>
      </trkpt>
      <trkpt lat="45.78647" lon="13.52911">
        <ele>1.401173</ele>
        <time>2026-07-15T09:41:19.000Z</time>
      </trkpt>
      <trkpt lat="45.78644" lon="13.52916">
        <ele>1.407141</ele>
        <time>2026-07-15T09:41:20.000Z</time>
      </trkpt>
      <trkpt lat="45.78622" lon="13.52942">
        <ele>1.672861</ele>
        <time>2026-07-15T09:41:27.000Z</time>
      </trkpt>
      <trkpt lat="45.78611" lon="13.52957">
        <ele>1.833876</ele>
        <time>2026-07-15T09:41:32.000Z</time>
      </trkpt>
      <trkpt lat="45.78602" lon="13.52963">
        <ele>1.946667</ele>
        <time>2026-07-15T09:41:36.000Z</time>
      </trkpt>
      <trkpt lat="45.786" lon="13.52973">
        <ele>2.026766</ele>
        <time>2026-07-15T09:41:39.000Z</time>
      </trkpt>
      <trkpt lat="45.78598" lon="13.52976">
        <ele>2.058984</ele>
        <time>2026-07-15T09:41:40.000Z</time>
      </trkpt>
      <trkpt lat="45.7858" lon="13.52989">
        <ele>2.281738</ele>
        <time>2026-07-15T09:41:45.000Z</time>
      </trkpt>
      <trkpt lat="45.78567" lon="13.52998">
        <ele>2.433957</ele>
        <time>2026-07-15T09:41:49.000Z</time>
      </trkpt>
      <trkpt lat="45.78562" lon="13.52997">
        <ele>2.493929</ele>
        <time>2026-07-15T09:41:51.000Z</time>
      </trkpt>
      <trkpt lat="45.78558" lon="13.5299">
        <ele>2.562462</ele>
        <time>2026-07-15T09:41:53.000Z</time>
      </trkpt>
      <trkpt lat="45.78555" lon="13.52981">
        <ele>2.642161</ele>
        <time>2026-07-15T09:41:55.000Z</time>
      </trkpt>
      <trkpt lat="45.78544" lon="13.52971">
        <ele>2.773213</ele>
        <time>2026-07-15T09:41:59.000Z</time>
      </trkpt>
      <trkpt lat="45.78543" lon="13.52969">
        <ele>2.796714</ele>
        <time>2026-07-15T09:42:00.000Z</time>
      </trkpt>
      <trkpt lat="45.78541" lon="13.52961">
        <ele>2.867064</ele>
        <time>2026-07-15T09:42:02.000Z</time>
      </trkpt>
      <trkpt lat="45.78536" lon="13.5294">
        <ele>3.029525</ele>
        <time>2026-07-15T09:42:06.000Z</time>
      </trkpt>
      <trkpt lat="45.78531" lon="13.52919">
        <ele>3.203778</ele>
        <time>2026-07-15T09:42:10.000Z</time>
      </trkpt>
      <trkpt lat="45.78517" lon="13.52872">
        <ele>3.527383</ele>
        <time>2026-07-15T09:42:18.000Z</time>
      </trkpt>
      <trkpt lat="45.78515" lon="13.52866">
        <ele>3.5616</ele>
        <time>2026-07-15T09:42:19.000Z</time>
      </trkpt>
      <trkpt lat="45.7851" lon="13.52854">
        <ele>3.630583</ele>
        <time>2026-07-15T09:42:21.000Z</time>
      </trkpt>
      <trkpt lat="45.78506" lon="13.52843">
        <ele>3.698694</ele>
        <time>2026-07-15T09:42:23.000Z</time>
      </trkpt>
      <trkpt lat="45.78495" lon="13.52806">
        <ele>3.906805</ele>
        <time>2026-07-15T09:42:29.000Z</time>
      </trkpt>
      <trkpt lat="45.78492" lon="13.528">
        <ele>3.943651</ele>
        <time>2026-07-15T09:42:30.000Z</time>
      </trkpt>
      <trkpt lat="45.78473" lon="13.52741">
        <ele>4.287351</ele>
        <time>2026-07-15T09:42:39.000Z</time>
      </trkpt>
      <trkpt lat="45.78466" lon="13.52722">
        <ele>4.39701</ele>
        <time>2026-07-15T09:42:42.000Z</time>
      </trkpt>
      <trkpt lat="45.78457" lon="13.52697">
        <ele>4.54261</ele>
        <time>2026-07-15T09:42:46.000Z</time>
      </trkpt>
      <trkpt lat="45.78445" lon="13.52664">
        <ele>4.736456</ele>
        <time>2026-07-15T09:42:51.000Z</time>
      </trkpt>
      <trkpt lat="45.78442" lon="13.52651">
        <ele>4.827026</ele>
        <time>2026-07-15T09:42:53.000Z</time>
      </trkpt>
      <trkpt lat="45.7844" lon="13.52644">
        <ele>4.872594</ele>
        <time>2026-07-15T09:42:54.000Z</time>
      </trkpt>
      <trkpt lat="45.78429" lon="13.52608">
        <ele>5.115435</ele>
        <time>2026-07-15T09:43:00.000Z</time>
      </trkpt>
      <trkpt lat="45.78427" lon="13.52603">
        <ele>5.152607</ele>
        <time>2026-07-15T09:43:01.000Z</time>
      </trkpt>
      <trkpt lat="45.78422" lon="13.52585">
        <ele>5.273475</ele>
        <time>2026-07-15T09:43:04.000Z</time>
      </trkpt>
      <trkpt lat="45.78416" lon="13.52565">
        <ele>5.409159</ele>
        <time>2026-07-15T09:43:08.000Z</time>
      </trkpt>
      <trkpt lat="45.78413" lon="13.52562">
        <ele>5.440849</ele>
        <time>2026-07-15T09:43:09.000Z</time>
      </trkpt>
      <trkpt lat="45.7841" lon="13.5256">
        <ele>5.472489</ele>
        <time>2026-07-15T09:43:10.000Z</time>
      </trkpt>
      <trkpt lat="45.78405" lon="13.5256">
        <ele>5.519004</ele>
        <time>2026-07-15T09:43:12.000Z</time>
      </trkpt>
      <trkpt lat="45.78398" lon="13.52559">
        <ele>5.583838</ele>
        <time>2026-07-15T09:43:15.000Z</time>
      </trkpt>
      <trkpt lat="45.78395" lon="13.52559">
        <ele>5.606338</ele>
        <time>2026-07-15T09:43:16.000Z</time>
      </trkpt>
      <trkpt lat="45.78392" lon="13.52555">
        <ele>5.638755</ele>
        <time>2026-07-15T09:43:18.000Z</time>
      </trkpt>
      <trkpt lat="45.78391" lon="13.52554">
        <ele>5.64857</ele>
        <time>2026-07-15T09:43:21.000Z</time>
      </trkpt>
      <trkpt lat="45.78388" lon="13.52552">
        <ele>5.686229</ele>
        <time>2026-07-15T09:43:35.000Z</time>
      </trkpt>
      <trkpt lat="45.78387" lon="13.52552">
        <ele>5.687124</ele>
        <time>2026-07-15T09:43:37.000Z</time>
      </trkpt>
      <trkpt lat="45.78391" lon="13.52558">
        <ele>5.737366</ele>
        <time>2026-07-15T09:45:53.000Z</time>
      </trkpt>
      <trkpt lat="45.7839" lon="13.52558">
        <ele>5.74631</ele>
        <time>2026-07-15T09:45:54.000Z</time>
      </trkpt>
      <trkpt lat="45.78389" lon="13.52558">
        <ele>5.750953</ele>
        <time>2026-07-15T09:45:56.000Z</time>
      </trkpt>
      <trkpt lat="45.78395" lon="13.52557">
        <ele>5.798946</ele>
        <time>2026-07-15T09:46:14.000Z</time>
      </trkpt>
      <trkpt lat="45.78397" lon="13.52556">
        <ele>5.817776</ele>
        <time>2026-07-15T09:46:15.000Z</time>
      </trkpt>
      <trkpt lat="45.784" lon="13.52552">
        <ele>5.858896</ele>
        <time>2026-07-15T09:46:17.000Z</time>
      </trkpt>
      <trkpt lat="45.78404" lon="13.52547">
        <ele>5.900281</ele>
        <time>2026-07-15T09:46:19.000Z</time>
      </trkpt>
      <trkpt lat="45.78405" lon="13.52544">
        <ele>5.921586</ele>
        <time>2026-07-15T09:46:20.000Z</time>
      </trkpt>
      <trkpt lat="45.78401" lon="13.52527">
        <ele>6.03346</ele>
        <time>2026-07-15T09:46:24.000Z</time>
      </trkpt>
      <trkpt lat="45.78391" lon="13.52495">
        <ele>6.250469</ele>
        <time>2026-07-15T09:46:30.000Z</time>
      </trkpt>
      <trkpt lat="45.78378" lon="13.52452">
        <ele>6.105958</ele>
        <time>2026-07-15T09:46:38.000Z</time>
      </trkpt>
      <trkpt lat="45.78373" lon="13.52436">
        <ele>5.986444</ele>
        <time>2026-07-15T09:46:41.000Z</time>
      </trkpt>
      <trkpt lat="45.78371" lon="13.52431">
        <ele>5.947948</ele>
        <time>2026-07-15T09:46:42.000Z</time>
      </trkpt>
      <trkpt lat="45.78366" lon="13.52414">
        <ele>5.822303</ele>
        <time>2026-07-15T09:46:45.000Z</time>
      </trkpt>
      <trkpt lat="45.78365" lon="13.52409">
        <ele>5.779827</ele>
        <time>2026-07-15T09:46:46.000Z</time>
      </trkpt>
      <trkpt lat="45.78358" lon="13.52385">
        <ele>5.604314</ele>
        <time>2026-07-15T09:46:50.000Z</time>
      </trkpt>
      <trkpt lat="45.78353" lon="13.52374">
        <ele>5.514444</ele>
        <time>2026-07-15T09:46:52.000Z</time>
      </trkpt>
      <trkpt lat="45.78351" lon="13.52369">
        <ele>5.468869</ele>
        <time>2026-07-15T09:46:53.000Z</time>
      </trkpt>
      <trkpt lat="45.78346" lon="13.52358">
        <ele>5.384167</ele>
        <time>2026-07-15T09:46:55.000Z</time>
      </trkpt>
      <trkpt lat="45.78341" lon="13.52351">
        <ele>5.309692</ele>
        <time>2026-07-15T09:46:57.000Z</time>
      </trkpt>
      <trkpt lat="45.7833" lon="13.52344">
        <ele>5.193855</ele>
        <time>2026-07-15T09:47:01.000Z</time>
      </trkpt>
      <trkpt lat="45.78328" lon="13.52342">
        <ele>5.170827</ele>
        <time>2026-07-15T09:47:02.000Z</time>
      </trkpt>
      <trkpt lat="45.78327" lon="13.52336">
        <ele>5.130956</ele>
        <time>2026-07-15T09:47:04.000Z</time>
      </trkpt>
      <trkpt lat="45.78326" lon="13.5233">
        <ele>5.085277</ele>
        <time>2026-07-15T09:47:06.000Z</time>
      </trkpt>
      <trkpt lat="45.78317" lon="13.52326">
        <ele>4.994397</ele>
        <time>2026-07-15T09:47:09.000Z</time>
      </trkpt>
      <trkpt lat="45.78291" lon="13.52323">
        <ele>4.729763</ele>
        <time>2026-07-15T09:47:15.000Z</time>
      </trkpt>
      <trkpt lat="45.78246" lon="13.52321">
        <ele>4.462138</ele>
        <time>2026-07-15T09:47:24.000Z</time>
      </trkpt>
      <trkpt lat="45.78208" lon="13.5232">
        <ele>4.330157</ele>
        <time>2026-07-15T09:47:31.000Z</time>
      </trkpt>
      <trkpt lat="45.78163" lon="13.52317">
        <ele>4.177674</ele>
        <time>2026-07-15T09:47:39.000Z</time>
      </trkpt>
      <trkpt lat="45.78123" lon="13.52314">
        <ele>4.042856</ele>
        <time>2026-07-15T09:47:46.000Z</time>
      </trkpt>
      <trkpt lat="45.78076" lon="13.52314">
        <ele>3.73903</ele>
        <time>2026-07-15T09:47:55.000Z</time>
      </trkpt>
      <trkpt lat="45.78049" lon="13.52314">
        <ele>3.415922</ele>
        <time>2026-07-15T09:48:00.000Z</time>
      </trkpt>
      <trkpt lat="45.78039" lon="13.52318">
        <ele>3.294885</ele>
        <time>2026-07-15T09:48:02.000Z</time>
      </trkpt>
      <trkpt lat="45.78034" lon="13.52321">
        <ele>3.22919</ele>
        <time>2026-07-15T09:48:03.000Z</time>
      </trkpt>
      <trkpt lat="45.78018" lon="13.52332">
        <ele>3.01769</ele>
        <time>2026-07-15T09:48:06.000Z</time>
      </trkpt>
      <trkpt lat="45.78013" lon="13.52335">
        <ele>2.951955</ele>
        <time>2026-07-15T09:48:07.000Z</time>
      </trkpt>
      <trkpt lat="45.77994" lon="13.52351">
        <ele>2.691656</ele>
        <time>2026-07-15T09:48:11.000Z</time>
      </trkpt>
      <trkpt lat="45.7798" lon="13.52365">
        <ele>2.489268</ele>
        <time>2026-07-15T09:48:14.000Z</time>
      </trkpt>
      <trkpt lat="45.77961" lon="13.52383">
        <ele>2.215003</ele>
        <time>2026-07-15T09:48:18.000Z</time>
      </trkpt>
      <trkpt lat="45.77947" lon="13.52397">
        <ele>2.013698</ele>
        <time>2026-07-15T09:48:21.000Z</time>
      </trkpt>
      <trkpt lat="45.77924" lon="13.52419">
        <ele>1.953135</ele>
        <time>2026-07-15T09:48:26.000Z</time>
      </trkpt>
      <trkpt lat="45.77916" lon="13.52428">
        <ele>2.117083</ele>
        <time>2026-07-15T09:48:28.000Z</time>
      </trkpt>
      <trkpt lat="45.77903" lon="13.52441">
        <ele>2.360733</ele>
        <time>2026-07-15T09:48:31.000Z</time>
      </trkpt>
      <trkpt lat="45.77878" lon="13.52468">
        <ele>2.854326</ele>
        <time>2026-07-15T09:48:37.000Z</time>
      </trkpt>
      <trkpt lat="45.77864" lon="13.52481">
        <ele>3.116558</ele>
        <time>2026-07-15T09:48:40.000Z</time>
      </trkpt>
      <trkpt lat="45.77837" lon="13.52506">
        <ele>3.616945</ele>
        <time>2026-07-15T09:48:46.000Z</time>
      </trkpt>
      <trkpt lat="45.77804" lon="13.52533">
        <ele>4.204591</ele>
        <time>2026-07-15T09:48:53.000Z</time>
      </trkpt>
      <trkpt lat="45.77795" lon="13.5254">
        <ele>4.363893</ele>
        <time>2026-07-15T09:48:55.000Z</time>
      </trkpt>
      <trkpt lat="45.77791" lon="13.52544">
        <ele>4.439849</ele>
        <time>2026-07-15T09:48:56.000Z</time>
      </trkpt>
      <trkpt lat="45.77779" lon="13.52556">
        <ele>4.669449</ele>
        <time>2026-07-15T09:48:59.000Z</time>
      </trkpt>
      <trkpt lat="45.77774" lon="13.5256">
        <ele>4.745422</ele>
        <time>2026-07-15T09:49:00.000Z</time>
      </trkpt>
      <trkpt lat="45.77754" lon="13.52576">
        <ele>5.083172</ele>
        <time>2026-07-15T09:49:05.000Z</time>
      </trkpt>
      <trkpt lat="45.7775" lon="13.5258">
        <ele>5.148391</ele>
        <time>2026-07-15T09:49:06.000Z</time>
      </trkpt>
      <trkpt lat="45.77747" lon="13.52582">
        <ele>5.206736</ele>
        <time>2026-07-15T09:49:07.000Z</time>
      </trkpt>
      <trkpt lat="45.77743" lon="13.52586">
        <ele>5.268181</ele>
        <time>2026-07-15T09:49:08.000Z</time>
      </trkpt>
      <trkpt lat="45.7774" lon="13.52589">
        <ele>5.3334</ele>
        <time>2026-07-15T09:49:09.000Z</time>
      </trkpt>
      <trkpt lat="45.77732" lon="13.52596">
        <ele>5.467886</ele>
        <time>2026-07-15T09:49:11.000Z</time>
      </trkpt>
      <trkpt lat="45.77703" lon="13.52622">
        <ele>5.969836</ele>
        <time>2026-07-15T09:49:19.000Z</time>
      </trkpt>
      <trkpt lat="45.7769" lon="13.52632">
        <ele>6.177918</ele>
        <time>2026-07-15T09:49:22.000Z</time>
      </trkpt>
      <trkpt lat="45.77675" lon="13.52645">
        <ele>6.448152</ele>
        <time>2026-07-15T09:49:26.000Z</time>
      </trkpt>
      <trkpt lat="45.77664" lon="13.52655">
        <ele>6.631662</ele>
        <time>2026-07-15T09:49:29.000Z</time>
      </trkpt>
      <trkpt lat="45.7766" lon="13.52658">
        <ele>6.692788</ele>
        <time>2026-07-15T09:49:30.000Z</time>
      </trkpt>
      <trkpt lat="45.77645" lon="13.52671">
        <ele>6.955137</ele>
        <time>2026-07-15T09:49:34.000Z</time>
      </trkpt>
      <trkpt lat="45.77633" lon="13.5268">
        <ele>7.151006</ele>
        <time>2026-07-15T09:49:37.000Z</time>
      </trkpt>
      <trkpt lat="45.7763" lon="13.52683">
        <ele>7.214688</ele>
        <time>2026-07-15T09:49:38.000Z</time>
      </trkpt>
      <trkpt lat="45.77614" lon="13.52696">
        <ele>7.531923</ele>
        <time>2026-07-15T09:49:42.000Z</time>
      </trkpt>
      <trkpt lat="45.77602" lon="13.52706">
        <ele>7.774161</ele>
        <time>2026-07-15T09:49:45.000Z</time>
      </trkpt>
      <trkpt lat="45.77579" lon="13.52726">
        <ele>8.260819</ele>
        <time>2026-07-15T09:49:52.000Z</time>
      </trkpt>
      <trkpt lat="45.77557" lon="13.52746">
        <ele>8.728132</ele>
        <time>2026-07-15T09:49:59.000Z</time>
      </trkpt>
      <trkpt lat="45.77531" lon="13.52767">
        <ele>9.256184</ele>
        <time>2026-07-15T09:50:06.000Z</time>
      </trkpt>
      <trkpt lat="45.77527" lon="13.52769">
        <ele>9.33386</ele>
        <time>2026-07-15T09:50:07.000Z</time>
      </trkpt>
      <trkpt lat="45.77515" lon="13.52777">
        <ele>9.569302</ele>
        <time>2026-07-15T09:50:10.000Z</time>
      </trkpt>
      <trkpt lat="45.77506" lon="13.52785">
        <ele>9.76889</ele>
        <time>2026-07-15T09:50:13.000Z</time>
      </trkpt>
      <trkpt lat="45.77498" lon="13.52791">
        <ele>9.925156</ele>
        <time>2026-07-15T09:50:15.000Z</time>
      </trkpt>
      <trkpt lat="45.77491" lon="13.52799">
        <ele>10.083335</ele>
        <time>2026-07-15T09:50:17.000Z</time>
      </trkpt>
      <trkpt lat="45.77488" lon="13.52803">
        <ele>10.163629</ele>
        <time>2026-07-15T09:50:18.000Z</time>
      </trkpt>
      <trkpt lat="45.77485" lon="13.52808">
        <ele>10.240179</ele>
        <time>2026-07-15T09:50:19.000Z</time>
      </trkpt>
      <trkpt lat="45.77478" lon="13.52816">
        <ele>10.405876</ele>
        <time>2026-07-15T09:50:21.000Z</time>
      </trkpt>
      <trkpt lat="45.77474" lon="13.5282">
        <ele>10.439768</ele>
        <time>2026-07-15T09:50:22.000Z</time>
      </trkpt>
      <trkpt lat="45.77441" lon="13.52856">
        <ele>9.503562</ele>
        <time>2026-07-15T09:50:31.000Z</time>
      </trkpt>
      <trkpt lat="45.77422" lon="13.52873">
        <ele>9.000259</ele>
        <time>2026-07-15T09:50:37.000Z</time>
      </trkpt>
      <trkpt lat="45.77404" lon="13.52876">
        <ele>8.590762</ele>
        <time>2026-07-15T09:50:42.000Z</time>
      </trkpt>
      <trkpt lat="45.77387" lon="13.5287">
        <ele>8.198345</ele>
        <time>2026-07-15T09:50:47.000Z</time>
      </trkpt>
      <trkpt lat="45.77365" lon="13.52843">
        <ele>7.529166</ele>
        <time>2026-07-15T09:50:54.000Z</time>
      </trkpt>
      <trkpt lat="45.77353" lon="13.52826">
        <ele>7.145549</ele>
        <time>2026-07-15T09:50:58.000Z</time>
      </trkpt>
      <trkpt lat="45.77347" lon="13.52818">
        <ele>6.96929</ele>
        <time>2026-07-15T09:51:00.000Z</time>
      </trkpt>
      <trkpt lat="45.77336" lon="13.52804">
        <ele>6.641054</ele>
        <time>2026-07-15T09:51:05.000Z</time>
      </trkpt>
      <trkpt lat="45.77326" lon="13.52796">
        <ele>6.371217</ele>
        <time>2026-07-15T09:51:11.000Z</time>
      </trkpt>
      <trkpt lat="45.77325" lon="13.52796">
        <ele>6.362091</ele>
        <time>2026-07-15T09:51:13.000Z</time>
      </trkpt>
      <trkpt lat="45.77321" lon="13.52787">
        <ele>6.229566</ele>
        <time>2026-07-15T09:52:07.000Z</time>
      </trkpt>
      <trkpt lat="45.77319" lon="13.52784">
        <ele>6.1816</ele>
        <time>2026-07-15T09:52:08.000Z</time>
      </trkpt>
      <trkpt lat="45.77304" lon="13.52765">
        <ele>5.809347</ele>
        <time>2026-07-15T09:52:14.000Z</time>
      </trkpt>
      <trkpt lat="45.77283" lon="13.52738">
        <ele>5.302561</ele>
        <time>2026-07-15T09:52:21.000Z</time>
      </trkpt>
      <trkpt lat="45.77272" lon="13.52729">
        <ele>5.079896</ele>
        <time>2026-07-15T09:52:24.000Z</time>
      </trkpt>
      <trkpt lat="45.77266" lon="13.52721">
        <ele>4.929976</ele>
        <time>2026-07-15T09:52:26.000Z</time>
      </trkpt>
      <trkpt lat="45.77235" lon="13.52683">
        <ele>4.192352</ele>
        <time>2026-07-15T09:52:35.000Z</time>
      </trkpt>
      <trkpt lat="45.77229" lon="13.52675">
        <ele>4.038312</ele>
        <time>2026-07-15T09:52:36.000Z</time>
      </trkpt>
      <trkpt lat="45.77225" lon="13.52672">
        <ele>3.967432</ele>
        <time>2026-07-15T09:52:38.000Z</time>
      </trkpt>
      <trkpt lat="45.77222" lon="13.52669">
        <ele>3.895413</ele>
        <time>2026-07-15T09:52:39.000Z</time>
      </trkpt>
      <trkpt lat="45.77212" lon="13.52657">
        <ele>3.657482</ele>
        <time>2026-07-15T09:52:42.000Z</time>
      </trkpt>
      <trkpt lat="45.77194" lon="13.52633">
        <ele>3.221766</ele>
        <time>2026-07-15T09:52:47.000Z</time>
      </trkpt>
      <trkpt lat="45.77156" lon="13.52591">
        <ele>2.575926</ele>
        <time>2026-07-15T09:52:57.000Z</time>
      </trkpt>
      <trkpt lat="45.77117" lon="13.5255">
        <ele>1.949643</ele>
        <time>2026-07-15T09:53:07.000Z</time>
      </trkpt>
      <trkpt lat="45.77098" lon="13.5253">
        <ele>1.639673</ele>
        <time>2026-07-15T09:53:12.000Z</time>
      </trkpt>
      <trkpt lat="45.77091" lon="13.52522">
        <ele>1.516972</ele>
        <time>2026-07-15T09:53:14.000Z</time>
      </trkpt>
      <trkpt lat="45.77055" lon="13.52483">
        <ele>0.937054</ele>
        <time>2026-07-15T09:53:23.000Z</time>
      </trkpt>
      <trkpt lat="45.77021" lon="13.52457">
        <ele>1.1289</ele>
        <time>2026-07-15T09:53:31.000Z</time>
      </trkpt>
      <trkpt lat="45.76996" lon="13.5244">
        <ele>1.450096</ele>
        <time>2026-07-15T09:53:37.000Z</time>
      </trkpt>
      <trkpt lat="45.76992" lon="13.52438">
        <ele>1.500457</ele>
        <time>2026-07-15T09:53:38.000Z</time>
      </trkpt>
      <trkpt lat="45.76978" lon="13.52429">
        <ele>1.665011</ele>
        <time>2026-07-15T09:53:41.000Z</time>
      </trkpt>
      <trkpt lat="45.76966" lon="13.5242">
        <ele>1.829921</ele>
        <time>2026-07-15T09:53:44.000Z</time>
      </trkpt>
      <trkpt lat="45.7694" lon="13.524">
        <ele>2.171175</ele>
        <time>2026-07-15T09:53:50.000Z</time>
      </trkpt>
      <trkpt lat="45.76935" lon="13.52397">
        <ele>2.223802</ele>
        <time>2026-07-15T09:53:51.000Z</time>
      </trkpt>
      <trkpt lat="45.76919" lon="13.52384">
        <ele>2.442044</ele>
        <time>2026-07-15T09:53:55.000Z</time>
      </trkpt>
      <trkpt lat="45.76907" lon="13.52373">
        <ele>2.59948</ele>
        <time>2026-07-15T09:53:58.000Z</time>
      </trkpt>
      <trkpt lat="45.76883" lon="13.52352">
        <ele>2.866946</ele>
        <time>2026-07-15T09:54:04.000Z</time>
      </trkpt>
      <trkpt lat="45.76867" lon="13.52337">
        <ele>2.874184</ele>
        <time>2026-07-15T09:54:08.000Z</time>
      </trkpt>
      <trkpt lat="45.76835" lon="13.52306">
        <ele>2.888893</ele>
        <time>2026-07-15T09:54:16.000Z</time>
      </trkpt>
      <trkpt lat="45.7681" lon="13.52285">
        <ele>2.899877</ele>
        <time>2026-07-15T09:54:22.000Z</time>
      </trkpt>
      <trkpt lat="45.76789" lon="13.52267">
        <ele>2.909022</ele>
        <time>2026-07-15T09:54:27.000Z</time>
      </trkpt>
      <trkpt lat="45.76781" lon="13.5226">
        <ele>2.912651</ele>
        <time>2026-07-15T09:54:29.000Z</time>
      </trkpt>
      <trkpt lat="45.76773" lon="13.52252">
        <ele>2.916293</ele>
        <time>2026-07-15T09:54:31.000Z</time>
      </trkpt>
      <trkpt lat="45.76761" lon="13.5224">
        <ele>2.921927</ele>
        <time>2026-07-15T09:54:34.000Z</time>
      </trkpt>
      <trkpt lat="45.76753" lon="13.52231">
        <ele>2.925646</ele>
        <time>2026-07-15T09:54:36.000Z</time>
      </trkpt>
      <trkpt lat="45.76725" lon="13.52203">
        <ele>2.900564</ele>
        <time>2026-07-15T09:54:43.000Z</time>
      </trkpt>
      <trkpt lat="45.76681" lon="13.52165">
        <ele>2.787722</ele>
        <time>2026-07-15T09:54:53.000Z</time>
      </trkpt>
      <trkpt lat="45.76643" lon="13.52138">
        <ele>2.69603</ele>
        <time>2026-07-15T09:55:01.000Z</time>
      </trkpt>
      <trkpt lat="45.76629" lon="13.52128">
        <ele>2.662415</ele>
        <time>2026-07-15T09:55:04.000Z</time>
      </trkpt>
      <trkpt lat="45.76625" lon="13.52124">
        <ele>2.651189</ele>
        <time>2026-07-15T09:55:05.000Z</time>
      </trkpt>
      <trkpt lat="45.76613" lon="13.52111">
        <ele>2.618789</ele>
        <time>2026-07-15T09:55:08.000Z</time>
      </trkpt>
      <trkpt lat="45.76595" lon="13.52095">
        <ele>2.57175</ele>
        <time>2026-07-15T09:55:12.000Z</time>
      </trkpt>
      <trkpt lat="45.76579" lon="13.52077">
        <ele>2.593137</ele>
        <time>2026-07-15T09:55:16.000Z</time>
      </trkpt>
      <trkpt lat="45.76565" lon="13.52064">
        <ele>2.752563</ele>
        <time>2026-07-15T09:55:19.000Z</time>
      </trkpt>
      <trkpt lat="45.7655" lon="13.52053">
        <ele>2.907955</ele>
        <time>2026-07-15T09:55:22.000Z</time>
      </trkpt>
      <trkpt lat="45.76545" lon="13.52051">
        <ele>2.957876</ele>
        <time>2026-07-15T09:55:23.000Z</time>
      </trkpt>
      <trkpt lat="45.76534" lon="13.52046">
        <ele>3.065563</ele>
        <time>2026-07-15T09:55:25.000Z</time>
      </trkpt>
      <trkpt lat="45.76529" lon="13.52045">
        <ele>3.117748</ele>
        <time>2026-07-15T09:55:26.000Z</time>
      </trkpt>
      <trkpt lat="45.76519" lon="13.52045">
        <ele>3.215707</ele>
        <time>2026-07-15T09:55:28.000Z</time>
      </trkpt>
      <trkpt lat="45.76503" lon="13.52048">
        <ele>3.361804</ele>
        <time>2026-07-15T09:55:31.000Z</time>
      </trkpt>
      <trkpt lat="45.76493" lon="13.52048">
        <ele>3.462661</ele>
        <time>2026-07-15T09:55:33.000Z</time>
      </trkpt>
      <trkpt lat="45.76456" lon="13.5205">
        <ele>3.815719</ele>
        <time>2026-07-15T09:55:40.000Z</time>
      </trkpt>
      <trkpt lat="45.76401" lon="13.5205">
        <ele>4.311569</ele>
        <time>2026-07-15T09:55:50.000Z</time>
      </trkpt>
      <trkpt lat="45.76369" lon="13.52051">
        <ele>4.538645</ele>
        <time>2026-07-15T09:55:56.000Z</time>
      </trkpt>
      <trkpt lat="45.76358" lon="13.52052">
        <ele>4.609899</ele>
        <time>2026-07-15T09:55:58.000Z</time>
      </trkpt>
      <trkpt lat="45.76349" lon="13.52053">
        <ele>4.677099</ele>
        <time>2026-07-15T09:56:00.000Z</time>
      </trkpt>
      <trkpt lat="45.76339" lon="13.52053">
        <ele>4.747647</ele>
        <time>2026-07-15T09:56:02.000Z</time>
      </trkpt>
      <trkpt lat="45.76319" lon="13.52053">
        <ele>4.887402</ele>
        <time>2026-07-15T09:56:06.000Z</time>
      </trkpt>
      <trkpt lat="45.76307" lon="13.52053">
        <ele>4.969827</ele>
        <time>2026-07-15T09:56:08.000Z</time>
      </trkpt>
      <trkpt lat="45.76296" lon="13.52054">
        <ele>5.04948</ele>
        <time>2026-07-15T09:56:10.000Z</time>
      </trkpt>
      <trkpt lat="45.76279" lon="13.52053">
        <ele>5.164044</ele>
        <time>2026-07-15T09:56:13.000Z</time>
      </trkpt>
      <trkpt lat="45.76236" lon="13.52054">
        <ele>5.465829</ele>
        <time>2026-07-15T09:56:21.000Z</time>
      </trkpt>
      <trkpt lat="45.76226" lon="13.52054">
        <ele>5.478239</ele>
        <time>2026-07-15T09:56:23.000Z</time>
      </trkpt>
      <trkpt lat="45.76217" lon="13.52054">
        <ele>5.419291</ele>
        <time>2026-07-15T09:56:25.000Z</time>
      </trkpt>
      <trkpt lat="45.76212" lon="13.52054">
        <ele>5.389479</ele>
        <time>2026-07-15T09:56:26.000Z</time>
      </trkpt>
      <trkpt lat="45.76208" lon="13.52054">
        <ele>5.362213</ele>
        <time>2026-07-15T09:56:27.000Z</time>
      </trkpt>
      <trkpt lat="45.762" lon="13.52054">
        <ele>5.307732</ele>
        <time>2026-07-15T09:56:29.000Z</time>
      </trkpt>
      <trkpt lat="45.76192" lon="13.52053">
        <ele>5.257779</ele>
        <time>2026-07-15T09:56:32.000Z</time>
      </trkpt>
      <trkpt lat="45.76192" lon="13.52053">
        <ele>5.254855</ele>
        <time>2026-07-15T09:56:34.000Z</time>
      </trkpt>
      <trkpt lat="45.76191" lon="13.52061">
        <ele>5.220739</ele>
        <time>2026-07-15T09:56:46.000Z</time>
      </trkpt>
      <trkpt lat="45.76192" lon="13.52062">
        <ele>5.212776</ele>
        <time>2026-07-15T09:56:47.000Z</time>
      </trkpt>
      <trkpt lat="45.76192" lon="13.52063">
        <ele>5.208328</ele>
        <time>2026-07-15T09:56:48.000Z</time>
      </trkpt>
      <trkpt lat="45.76193" lon="13.52064">
        <ele>5.20248</ele>
        <time>2026-07-15T09:56:49.000Z</time>
      </trkpt>
      <trkpt lat="45.76199" lon="13.52062">
        <ele>5.164939</ele>
        <time>2026-07-15T09:57:25.000Z</time>
      </trkpt>
      <trkpt lat="45.76198" lon="13.52063">
        <ele>5.15773</ele>
        <time>2026-07-15T09:57:26.000Z</time>
      </trkpt>
      <trkpt lat="45.76197" lon="13.52063">
        <ele>5.154806</ele>
        <time>2026-07-15T09:57:28.000Z</time>
      </trkpt>
      <trkpt lat="45.76192" lon="13.52053">
        <ele>5.097727</ele>
        <time>2026-07-15T09:57:45.000Z</time>
      </trkpt>
      <trkpt lat="45.76192" lon="13.52051">
        <ele>5.087308</ele>
        <time>2026-07-15T09:57:46.000Z</time>
      </trkpt>
      <trkpt lat="45.76191" lon="13.5205">
        <ele>5.08387</ele>
        <time>2026-07-15T09:57:48.000Z</time>
      </trkpt>
      <trkpt lat="45.76185" lon="13.52052">
        <ele>5.044795</ele>
        <time>2026-07-15T09:57:59.000Z</time>
      </trkpt>
      <trkpt lat="45.76183" lon="13.52052">
        <ele>5.029869</ele>
        <time>2026-07-15T09:58:00.000Z</time>
      </trkpt>
      <trkpt lat="45.76176" lon="13.52053">
        <ele>4.983841</ele>
        <time>2026-07-15T09:58:03.000Z</time>
      </trkpt>
      <trkpt lat="45.76174" lon="13.52052">
        <ele>4.969583</ele>
        <time>2026-07-15T09:58:04.000Z</time>
      </trkpt>
      <trkpt lat="45.76161" lon="13.52055">
        <ele>4.887359</ele>
        <time>2026-07-15T09:58:10.000Z</time>
      </trkpt>
      <trkpt lat="45.76156" lon="13.52055">
        <ele>4.85683</ele>
        <time>2026-07-15T09:58:14.000Z</time>
      </trkpt>
      <trkpt lat="45.76156" lon="13.52055">
        <ele>4.85683</ele>
        <time>2026-07-15T09:58:15.000Z</time>
      </trkpt>
      <trkpt lat="45.76143" lon="13.52056">
        <ele>4.772541</ele>
        <time>2026-07-15T09:58:30.000Z</time>
      </trkpt>
      <trkpt lat="45.76142" lon="13.52056">
        <ele>4.760846</ele>
        <time>2026-07-15T09:58:31.000Z</time>
      </trkpt>
      <trkpt lat="45.76134" lon="13.52056">
        <ele>4.709016</ele>
        <time>2026-07-15T09:58:36.000Z</time>
      </trkpt>
      <trkpt lat="45.76121" lon="13.52056">
        <ele>4.626746</ele>
        <time>2026-07-15T09:58:42.000Z</time>
      </trkpt>
      <trkpt lat="45.76113" lon="13.52056">
        <ele>4.575554</ele>
        <time>2026-07-15T09:58:45.000Z</time>
      </trkpt>
      <trkpt lat="45.76092" lon="13.52057">
        <ele>4.442721</ele>
        <time>2026-07-15T09:58:52.000Z</time>
      </trkpt>
      <trkpt lat="45.76086" lon="13.52057">
        <ele>4.398672</ele>
        <time>2026-07-15T09:58:54.000Z</time>
      </trkpt>
      <trkpt lat="45.76067" lon="13.52057">
        <ele>4.372487</ele>
        <time>2026-07-15T09:58:59.000Z</time>
      </trkpt>
      <trkpt lat="45.76064" lon="13.52057">
        <ele>4.384483</ele>
        <time>2026-07-15T09:59:00.000Z</time>
      </trkpt>
      <trkpt lat="45.76042" lon="13.52057">
        <ele>4.461268</ele>
        <time>2026-07-15T09:59:07.000Z</time>
      </trkpt>
      <trkpt lat="45.76012" lon="13.52056">
        <ele>4.562053</ele>
        <time>2026-07-15T09:59:15.000Z</time>
      </trkpt>
      <trkpt lat="45.75977" lon="13.52057">
        <ele>4.681341</ele>
        <time>2026-07-15T09:59:24.000Z</time>
      </trkpt>
      <trkpt lat="45.7597" lon="13.52057">
        <ele>4.707389</ele>
        <time>2026-07-15T09:59:26.000Z</time>
      </trkpt>
      <trkpt lat="45.75962" lon="13.52057">
        <ele>4.734809</ele>
        <time>2026-07-15T09:59:28.000Z</time>
      </trkpt>
      <trkpt lat="45.75946" lon="13.52057">
        <ele>4.788622</ele>
        <time>2026-07-15T09:59:32.000Z</time>
      </trkpt>
      <trkpt lat="45.75942" lon="13.52057">
        <ele>4.802043</ele>
        <time>2026-07-15T09:59:33.000Z</time>
      </trkpt>
      <trkpt lat="45.75902" lon="13.52057">
        <ele>4.939827</ele>
        <time>2026-07-15T09:59:43.000Z</time>
      </trkpt>
      <trkpt lat="45.75877" lon="13.52057">
        <ele>5.117399</ele>
        <time>2026-07-15T09:59:49.000Z</time>
      </trkpt>
      <trkpt lat="45.7584" lon="13.52057">
        <ele>5.416441</ele>
        <time>2026-07-15T09:59:58.000Z</time>
      </trkpt>
      <trkpt lat="45.75806" lon="13.52057">
        <ele>5.691374</ele>
        <time>2026-07-15T10:00:06.000Z</time>
      </trkpt>
      <trkpt lat="45.75764" lon="13.52057">
        <ele>6.022586</ele>
        <time>2026-07-15T10:00:16.000Z</time>
      </trkpt>
      <trkpt lat="45.75743" lon="13.52058">
        <ele>6.192315</ele>
        <time>2026-07-15T10:00:21.000Z</time>
      </trkpt>
      <trkpt lat="45.75735" lon="13.52059">
        <ele>6.259989</ele>
        <time>2026-07-15T10:00:23.000Z</time>
      </trkpt>
      <trkpt lat="45.75719" lon="13.52061">
        <ele>6.391653</ele>
        <time>2026-07-15T10:00:27.000Z</time>
      </trkpt>
      <trkpt lat="45.75702" lon="13.52065">
        <ele>6.439588</ele>
        <time>2026-07-15T10:00:31.000Z</time>
      </trkpt>
      <trkpt lat="45.7567" lon="13.52074">
        <ele>6.520271</ele>
        <time>2026-07-15T10:00:39.000Z</time>
      </trkpt>
      <trkpt lat="45.75666" lon="13.52075">
        <ele>6.530704</ele>
        <time>2026-07-15T10:00:40.000Z</time>
      </trkpt>
      <trkpt lat="45.75653" lon="13.52078">
        <ele>6.561417</ele>
        <time>2026-07-15T10:00:43.000Z</time>
      </trkpt>
      <trkpt lat="45.75637" lon="13.52084">
        <ele>6.603015</ele>
        <time>2026-07-15T10:00:47.000Z</time>
      </trkpt>
      <trkpt lat="45.75596" lon="13.52096">
        <ele>6.706202</ele>
        <time>2026-07-15T10:00:57.000Z</time>
      </trkpt>
      <trkpt lat="45.75552" lon="13.52112">
        <ele>6.816845</ele>
        <time>2026-07-15T10:01:08.000Z</time>
      </trkpt>
      <trkpt lat="45.75515" lon="13.52125">
        <ele>6.775673</ele>
        <time>2026-07-15T10:01:17.000Z</time>
      </trkpt>
      <trkpt lat="45.7548" lon="13.52134">
        <ele>6.688319</ele>
        <time>2026-07-15T10:01:25.000Z</time>
      </trkpt>
      <trkpt lat="45.75462" lon="13.52141">
        <ele>6.644202</ele>
        <time>2026-07-15T10:01:29.000Z</time>
      </trkpt>
      <trkpt lat="45.7545" lon="13.52146">
        <ele>6.614267</ele>
        <time>2026-07-15T10:01:32.000Z</time>
      </trkpt>
      <trkpt lat="45.7542" lon="13.52156">
        <ele>6.538436</ele>
        <time>2026-07-15T10:01:39.000Z</time>
      </trkpt>
      <trkpt lat="45.75415" lon="13.52157">
        <ele>6.526825</ele>
        <time>2026-07-15T10:01:40.000Z</time>
      </trkpt>
      <trkpt lat="45.75399" lon="13.52162">
        <ele>6.484512</ele>
        <time>2026-07-15T10:01:44.000Z</time>
      </trkpt>
      <trkpt lat="45.75389" lon="13.52162">
        <ele>6.462028</ele>
        <time>2026-07-15T10:01:46.000Z</time>
      </trkpt>
      <trkpt lat="45.75381" lon="13.52161">
        <ele>6.441624</ele>
        <time>2026-07-15T10:01:48.000Z</time>
      </trkpt>
      <trkpt lat="45.75373" lon="13.52157">
        <ele>6.42085</ele>
        <time>2026-07-15T10:01:50.000Z</time>
      </trkpt>
      <trkpt lat="45.75369" lon="13.52154">
        <ele>6.410625</ele>
        <time>2026-07-15T10:01:51.000Z</time>
      </trkpt>
      <trkpt lat="45.75366" lon="13.52151">
        <ele>6.385917</ele>
        <time>2026-07-15T10:01:52.000Z</time>
      </trkpt>
      <trkpt lat="45.7536" lon="13.52143">
        <ele>6.246387</ele>
        <time>2026-07-15T10:01:54.000Z</time>
      </trkpt>
      <trkpt lat="45.75356" lon="13.52134">
        <ele>6.106618</ele>
        <time>2026-07-15T10:01:56.000Z</time>
      </trkpt>
      <trkpt lat="45.75346" lon="13.52108">
        <ele>5.730224</ele>
        <time>2026-07-15T10:02:02.000Z</time>
      </trkpt>
      <trkpt lat="45.75346" lon="13.52094">
        <ele>5.549699</ele>
        <time>2026-07-15T10:02:05.000Z</time>
      </trkpt>
      <trkpt lat="45.75347" lon="13.5208">
        <ele>5.380835</ele>
        <time>2026-07-15T10:02:08.000Z</time>
      </trkpt>
      <trkpt lat="45.75348" lon="13.52072">
        <ele>5.281957</ele>
        <time>2026-07-15T10:02:11.000Z</time>
      </trkpt>
      <trkpt lat="45.75347" lon="13.52072">
        <ele>5.264944</ele>
        <time>2026-07-15T10:02:12.000Z</time>
      </trkpt>
      <trkpt lat="45.75348" lon="13.52071">
        <ele>5.255137</ele>
        <time>2026-07-15T10:02:13.000Z</time>
      </trkpt>
      <trkpt lat="45.7535" lon="13.52064">
        <ele>5.153063</ele>
        <time>2026-07-15T10:02:16.000Z</time>
      </trkpt>
      <trkpt lat="45.75351" lon="13.52057">
        <ele>5.057914</ele>
        <time>2026-07-15T10:02:18.000Z</time>
      </trkpt>
      <trkpt lat="45.75357" lon="13.52036">
        <ele>4.781839</ele>
        <time>2026-07-15T10:02:23.000Z</time>
      </trkpt>
      <trkpt lat="45.75359" lon="13.52025">
        <ele>4.638089</ele>
        <time>2026-07-15T10:02:25.000Z</time>
      </trkpt>
      <trkpt lat="45.7536" lon="13.52019">
        <ele>4.559778</ele>
        <time>2026-07-15T10:02:26.000Z</time>
      </trkpt>
      <trkpt lat="45.75367" lon="13.51987">
        <ele>4.135919</ele>
        <time>2026-07-15T10:02:31.000Z</time>
      </trkpt>
      <trkpt lat="45.75372" lon="13.51962">
        <ele>3.808333</ele>
        <time>2026-07-15T10:02:35.000Z</time>
      </trkpt>
      <trkpt lat="45.75376" lon="13.51945">
        <ele>3.574023</ele>
        <time>2026-07-15T10:02:38.000Z</time>
      </trkpt>
      <trkpt lat="45.75378" lon="13.51933">
        <ele>3.420078</ele>
        <time>2026-07-15T10:02:40.000Z</time>
      </trkpt>
      <trkpt lat="45.75379" lon="13.51927">
        <ele>3.343712</ele>
        <time>2026-07-15T10:02:41.000Z</time>
      </trkpt>
      <trkpt lat="45.75381" lon="13.51915">
        <ele>3.190424</ele>
        <time>2026-07-15T10:02:43.000Z</time>
      </trkpt>
      <trkpt lat="45.75386" lon="13.51892">
        <ele>2.970864</ele>
        <time>2026-07-15T10:02:47.000Z</time>
      </trkpt>
      <trkpt lat="45.75388" lon="13.51881">
        <ele>2.873608</ele>
        <time>2026-07-15T10:02:49.000Z</time>
      </trkpt>
      <trkpt lat="45.7539" lon="13.5187">
        <ele>2.773342</ele>
        <time>2026-07-15T10:02:51.000Z</time>
      </trkpt>
      <trkpt lat="45.75394" lon="13.51853">
        <ele>2.617746</ele>
        <time>2026-07-15T10:02:54.000Z</time>
      </trkpt>
      <trkpt lat="45.75395" lon="13.51847">
        <ele>2.566881</ele>
        <time>2026-07-15T10:02:55.000Z</time>
      </trkpt>
      <trkpt lat="45.75397" lon="13.51836">
        <ele>2.470215</ele>
        <time>2026-07-15T10:02:57.000Z</time>
      </trkpt>
      <trkpt lat="45.754" lon="13.5182">
        <ele>2.325836</ele>
        <time>2026-07-15T10:03:00.000Z</time>
      </trkpt>
      <trkpt lat="45.75401" lon="13.51809">
        <ele>2.226702</ele>
        <time>2026-07-15T10:03:02.000Z</time>
      </trkpt>
      <trkpt lat="45.75403" lon="13.51803">
        <ele>2.174671</ele>
        <time>2026-07-15T10:03:03.000Z</time>
      </trkpt>
      <trkpt lat="45.75404" lon="13.51797">
        <ele>2.121615</ele>
        <time>2026-07-15T10:03:04.000Z</time>
      </trkpt>
      <trkpt lat="45.75408" lon="13.51779">
        <ele>1.960331</ele>
        <time>2026-07-15T10:03:07.000Z</time>
      </trkpt>
      <trkpt lat="45.75409" lon="13.51773">
        <ele>1.904163</ele>
        <time>2026-07-15T10:03:08.000Z</time>
      </trkpt>
      <trkpt lat="45.75414" lon="13.51748">
        <ele>1.680969</ele>
        <time>2026-07-15T10:03:12.000Z</time>
      </trkpt>
      <trkpt lat="45.75418" lon="13.51727">
        <ele>1.500517</ele>
        <time>2026-07-15T10:03:15.000Z</time>
      </trkpt>
      <trkpt lat="45.75424" lon="13.51694">
        <ele>1.205934</ele>
        <time>2026-07-15T10:03:20.000Z</time>
      </trkpt>
      <trkpt lat="45.75429" lon="13.51669">
        <ele>0.976957</ele>
        <time>2026-07-15T10:03:24.000Z</time>
      </trkpt>
      <trkpt lat="45.7544" lon="13.51612">
        <ele>1.13492</ele>
        <time>2026-07-15T10:03:33.000Z</time>
      </trkpt>
      <trkpt lat="45.75449" lon="13.51568">
        <ele>1.307146</ele>
        <time>2026-07-15T10:03:40.000Z</time>
      </trkpt>
      <trkpt lat="45.75459" lon="13.51518">
        <ele>1.504061</ele>
        <time>2026-07-15T10:03:48.000Z</time>
      </trkpt>
      <trkpt lat="45.75463" lon="13.51498">
        <ele>1.581274</ele>
        <time>2026-07-15T10:03:51.000Z</time>
      </trkpt>
      <trkpt lat="45.75476" lon="13.51428">
        <ele>1.85495</ele>
        <time>2026-07-15T10:04:02.000Z</time>
      </trkpt>
      <trkpt lat="45.75488" lon="13.51362">
        <ele>1.867453</ele>
        <time>2026-07-15T10:04:12.000Z</time>
      </trkpt>
      <trkpt lat="45.75493" lon="13.51336">
        <ele>1.849375</ele>
        <time>2026-07-15T10:04:16.000Z</time>
      </trkpt>
      <trkpt lat="45.75494" lon="13.51329">
        <ele>1.844857</ele>
        <time>2026-07-15T10:04:17.000Z</time>
      </trkpt>
      <trkpt lat="45.755" lon="13.51303">
        <ele>1.826935</ele>
        <time>2026-07-15T10:04:21.000Z</time>
      </trkpt>
      <trkpt lat="45.75512" lon="13.51245">
        <ele>1.786695</ele>
        <time>2026-07-15T10:04:30.000Z</time>
      </trkpt>
      <trkpt lat="45.75524" lon="13.51185">
        <ele>1.745988</ele>
        <time>2026-07-15T10:04:39.000Z</time>
      </trkpt>
      <trkpt lat="45.75534" lon="13.51135">
        <ele>1.690143</ele>
        <time>2026-07-15T10:04:47.000Z</time>
      </trkpt>
      <trkpt lat="45.75537" lon="13.51123">
        <ele>1.673741</ele>
        <time>2026-07-15T10:04:49.000Z</time>
      </trkpt>
      <trkpt lat="45.75543" lon="13.51092">
        <ele>1.632505</ele>
        <time>2026-07-15T10:04:54.000Z</time>
      </trkpt>
      <trkpt lat="45.75548" lon="13.51066">
        <ele>1.598195</ele>
        <time>2026-07-15T10:04:58.000Z</time>
      </trkpt>
      <trkpt lat="45.75559" lon="13.51008">
        <ele>1.520998</ele>
        <time>2026-07-15T10:05:08.000Z</time>
      </trkpt>
      <trkpt lat="45.75563" lon="13.50994">
        <ele>1.5022</ele>
        <time>2026-07-15T10:05:11.000Z</time>
      </trkpt>
      <trkpt lat="45.75567" lon="13.50984">
        <ele>1.48655</ele>
        <time>2026-07-15T10:05:14.000Z</time>
      </trkpt>
      <trkpt lat="45.75569" lon="13.5098">
        <ele>1.480669</ele>
        <time>2026-07-15T10:05:16.000Z</time>
      </trkpt>
      <trkpt lat="45.75569" lon="13.50979">
        <ele>1.479724</ele>
        <time>2026-07-15T10:05:17.000Z</time>
      </trkpt>
      <trkpt lat="45.7557" lon="13.50979">
        <ele>1.479173</ele>
        <time>2026-07-15T10:05:18.000Z</time>
      </trkpt>
      <trkpt lat="45.75573" lon="13.50978">
        <ele>1.472646</ele>
        <time>2026-07-15T10:06:35.000Z</time>
      </trkpt>
      <trkpt lat="45.75577" lon="13.50975">
        <ele>1.464035</ele>
        <time>2026-07-15T10:06:37.000Z</time>
      </trkpt>
      <trkpt lat="45.75596" lon="13.50963">
        <ele>1.426775</ele>
        <time>2026-07-15T10:06:43.000Z</time>
      </trkpt>
      <trkpt lat="45.75609" lon="13.50942">
        <ele>1.363992</ele>
        <time>2026-07-15T10:06:49.000Z</time>
      </trkpt>
      <trkpt lat="45.75613" lon="13.50932">
        <ele>1.317211</ele>
        <time>2026-07-15T10:06:52.000Z</time>
      </trkpt>
      <trkpt lat="45.75614" lon="13.50928">
        <ele>1.304124</ele>
        <time>2026-07-15T10:06:55.000Z</time>
      </trkpt>
      <trkpt lat="45.75614" lon="13.50928">
        <ele>1.304124</ele>
        <time>2026-07-15T10:06:56.000Z</time>
      </trkpt>
      <trkpt lat="45.7562" lon="13.50927">
        <ele>1.268161</ele>
        <time>2026-07-15T10:08:19.000Z</time>
      </trkpt>
      <trkpt lat="45.75622" lon="13.50925">
        <ele>1.257912</ele>
        <time>2026-07-15T10:08:20.000Z</time>
      </trkpt>
      <trkpt lat="45.75624" lon="13.50923">
        <ele>1.2454</ele>
        <time>2026-07-15T10:08:21.000Z</time>
      </trkpt>
      <trkpt lat="45.75631" lon="13.50918">
        <ele>1.201042</ele>
        <time>2026-07-15T10:08:24.000Z</time>
      </trkpt>
      <trkpt lat="45.7564" lon="13.50914">
        <ele>1.149766</ele>
        <time>2026-07-15T10:08:27.000Z</time>
      </trkpt>
      <trkpt lat="45.75661" lon="13.509">
        <ele>1.016798</ele>
        <time>2026-07-15T10:08:34.000Z</time>
      </trkpt>
      <trkpt lat="45.75671" lon="13.50886">
        <ele>0.93911</ele>
        <time>2026-07-15T10:08:38.000Z</time>
      </trkpt>
      <trkpt lat="45.75682" lon="13.50876">
        <ele>0.86744</ele>
        <time>2026-07-15T10:08:42.000Z</time>
      </trkpt>
      <trkpt lat="45.75701" lon="13.50877">
        <ele>0.760153</ele>
        <time>2026-07-15T10:08:47.000Z</time>
      </trkpt>
      <trkpt lat="45.75725" lon="13.50878">
        <ele>0.627707</ele>
        <time>2026-07-15T10:08:53.000Z</time>
      </trkpt>
      <trkpt lat="45.75733" lon="13.50865">
        <ele>0.559778</ele>
        <time>2026-07-15T10:08:57.000Z</time>
      </trkpt>
      <trkpt lat="45.75731" lon="13.50846">
        <ele>0.486057</ele>
        <time>2026-07-15T10:09:01.000Z</time>
      </trkpt>
      <trkpt lat="45.7573" lon="13.50841">
        <ele>0.465411</ele>
        <time>2026-07-15T10:09:02.000Z</time>
      </trkpt>
      <trkpt lat="45.75733" lon="13.50816">
        <ele>0.454188</ele>
        <time>2026-07-15T10:09:07.000Z</time>
      </trkpt>
      <trkpt lat="45.75746" lon="13.50799">
        <ele>0.604208</ele>
        <time>2026-07-15T10:09:12.000Z</time>
      </trkpt>
      <trkpt lat="45.75755" lon="13.50791">
        <ele>0.698308</ele>
        <time>2026-07-15T10:09:15.000Z</time>
      </trkpt>
      <trkpt lat="45.75765" lon="13.50784">
        <ele>0.799107</ele>
        <time>2026-07-15T10:09:18.000Z</time>
      </trkpt>
      <trkpt lat="45.75772" lon="13.50778">
        <ele>0.868127</ele>
        <time>2026-07-15T10:09:20.000Z</time>
      </trkpt>
      <trkpt lat="45.75776" lon="13.50776">
        <ele>0.901389</ele>
        <time>2026-07-15T10:09:21.000Z</time>
      </trkpt>
      <trkpt lat="45.7579" lon="13.50766">
        <ele>1.03779</ele>
        <time>2026-07-15T10:09:25.000Z</time>
      </trkpt>
      <trkpt lat="45.75796" lon="13.50763">
        <ele>1.093543</ele>
        <time>2026-07-15T10:09:27.000Z</time>
      </trkpt>
      <trkpt lat="45.75801" lon="13.5076">
        <ele>1.146428</ele>
        <time>2026-07-15T10:09:30.000Z</time>
      </trkpt>
      <trkpt lat="45.75802" lon="13.50758">
        <ele>1.159063</ele>
        <time>2026-07-15T10:09:31.000Z</time>
      </trkpt>
      <trkpt lat="45.75794" lon="13.50742">
        <ele>1.273123</ele>
        <time>2026-07-15T10:09:36.000Z</time>
      </trkpt>
      <trkpt lat="45.75785" lon="13.50721">
        <ele>1.42599</ele>
        <time>2026-07-15T10:09:41.000Z</time>
      </trkpt>
      <trkpt lat="45.75781" lon="13.50712">
        <ele>1.491761</ele>
        <time>2026-07-15T10:09:43.000Z</time>
      </trkpt>
      <trkpt lat="45.75779" lon="13.50708">
        <ele>1.522162</ele>
        <time>2026-07-15T10:09:44.000Z</time>
      </trkpt>
      <trkpt lat="45.75773" lon="13.50695">
        <ele>1.615532</ele>
        <time>2026-07-15T10:09:47.000Z</time>
      </trkpt>
      <trkpt lat="45.75765" lon="13.50676">
        <ele>1.751622</ele>
        <time>2026-07-15T10:09:51.000Z</time>
      </trkpt>
      <trkpt lat="45.75758" lon="13.5066">
        <ele>1.863014</ele>
        <time>2026-07-15T10:09:54.000Z</time>
      </trkpt>
      <trkpt lat="45.75751" lon="13.5063">
        <ele>1.899749</ele>
        <time>2026-07-15T10:10:00.000Z</time>
      </trkpt>
      <trkpt lat="45.75752" lon="13.50621">
        <ele>1.85626</ele>
        <time>2026-07-15T10:10:02.000Z</time>
      </trkpt>
      <trkpt lat="45.75753" lon="13.50616">
        <ele>1.832784</ele>
        <time>2026-07-15T10:10:03.000Z</time>
      </trkpt>
      <trkpt lat="45.75755" lon="13.50611">
        <ele>1.809719</ele>
        <time>2026-07-15T10:10:04.000Z</time>
      </trkpt>
      <trkpt lat="45.75762" lon="13.50591">
        <ele>1.710702</ele>
        <time>2026-07-15T10:10:08.000Z</time>
      </trkpt>
      <trkpt lat="45.75769" lon="13.50575">
        <ele>1.628433</ele>
        <time>2026-07-15T10:10:11.000Z</time>
      </trkpt>
      <trkpt lat="45.75779" lon="13.50556">
        <ele>1.526314</ele>
        <time>2026-07-15T10:10:15.000Z</time>
      </trkpt>
      <trkpt lat="45.75785" lon="13.50549">
        <ele>1.474001</ele>
        <time>2026-07-15T10:10:17.000Z</time>
      </trkpt>
      <trkpt lat="45.75788" lon="13.50545">
        <ele>1.448626</ele>
        <time>2026-07-15T10:10:18.000Z</time>
      </trkpt>
      <trkpt lat="45.75792" lon="13.50542">
        <ele>1.421682</ele>
        <time>2026-07-15T10:10:19.000Z</time>
      </trkpt>
      <trkpt lat="45.758" lon="13.50538">
        <ele>1.366028</ele>
        <time>2026-07-15T10:10:21.000Z</time>
      </trkpt>
      <trkpt lat="45.75804" lon="13.50536">
        <ele>1.339087</ele>
        <time>2026-07-15T10:10:22.000Z</time>
      </trkpt>
      <trkpt lat="45.75809" lon="13.50534">
        <ele>1.309843</ele>
        <time>2026-07-15T10:10:23.000Z</time>
      </trkpt>
      <trkpt lat="45.75831" lon="13.50522">
        <ele>1.160093</ele>
        <time>2026-07-15T10:10:28.000Z</time>
      </trkpt>
      <trkpt lat="45.75844" lon="13.50514">
        <ele>1.072255</ele>
        <time>2026-07-15T10:10:31.000Z</time>
      </trkpt>
      <trkpt lat="45.75865" lon="13.50499">
        <ele>0.925263</ele>
        <time>2026-07-15T10:10:36.000Z</time>
      </trkpt>
      <trkpt lat="45.75881" lon="13.50489">
        <ele>0.840676</ele>
        <time>2026-07-15T10:10:40.000Z</time>
      </trkpt>
      <trkpt lat="45.75885" lon="13.50486">
        <ele>0.85534</ele>
        <time>2026-07-15T10:10:41.000Z</time>
      </trkpt>
      <trkpt lat="45.75897" lon="13.50478">
        <ele>0.900438</ele>
        <time>2026-07-15T10:10:44.000Z</time>
      </trkpt>
      <trkpt lat="45.75922" lon="13.50465">
        <ele>0.990163</ele>
        <time>2026-07-15T10:10:50.000Z</time>
      </trkpt>
      <trkpt lat="45.75972" lon="13.50442">
        <ele>1.165529</ele>
        <time>2026-07-15T10:11:01.000Z</time>
      </trkpt>
      <trkpt lat="45.76004" lon="13.50426">
        <ele>1.278912</ele>
        <time>2026-07-15T10:11:08.000Z</time>
      </trkpt>
      <trkpt lat="45.76013" lon="13.50422">
        <ele>1.311488</ele>
        <time>2026-07-15T10:11:10.000Z</time>
      </trkpt>
      <trkpt lat="45.76054" lon="13.504">
        <ele>1.479038</ele>
        <time>2026-07-15T10:11:19.000Z</time>
      </trkpt>
      <trkpt lat="45.76084" lon="13.50383">
        <ele>1.683649</ele>
        <time>2026-07-15T10:11:26.000Z</time>
      </trkpt>
      <trkpt lat="45.76098" lon="13.50377">
        <ele>1.775447</ele>
        <time>2026-07-15T10:11:29.000Z</time>
      </trkpt>
      <trkpt lat="45.76123" lon="13.50363">
        <ele>1.945233</ele>
        <time>2026-07-15T10:11:35.000Z</time>
      </trkpt>
      <trkpt lat="45.76131" lon="13.5036">
        <ele>1.997592</ele>
        <time>2026-07-15T10:11:37.000Z</time>
      </trkpt>
      <trkpt lat="45.76144" lon="13.50359">
        <ele>2.08068</ele>
        <time>2026-07-15T10:11:40.000Z</time>
      </trkpt>
      <trkpt lat="45.76148" lon="13.50359">
        <ele>2.108666</ele>
        <time>2026-07-15T10:11:41.000Z</time>
      </trkpt>
      <trkpt lat="45.76157" lon="13.50361">
        <ele>2.166036</ele>
        <time>2026-07-15T10:11:43.000Z</time>
      </trkpt>
      <trkpt lat="45.76175" lon="13.50359">
        <ele>2.275863</ele>
        <time>2026-07-15T10:11:48.000Z</time>
      </trkpt>
      <trkpt lat="45.76186" lon="13.50356">
        <ele>2.346681</ele>
        <time>2026-07-15T10:11:53.000Z</time>
      </trkpt>
      <trkpt lat="45.76187" lon="13.50357">
        <ele>2.35829</ele>
        <time>2026-07-15T10:11:54.000Z</time>
      </trkpt>
      <trkpt lat="45.76191" lon="13.50358">
        <ele>2.38447</ele>
        <time>2026-07-15T10:11:56.000Z</time>
      </trkpt>
      <trkpt lat="45.76196" lon="13.50359">
        <ele>2.414977</ele>
        <time>2026-07-15T10:11:58.000Z</time>
      </trkpt>
      <trkpt lat="45.76199" lon="13.50359">
        <ele>2.42978</ele>
        <time>2026-07-15T10:11:59.000Z</time>
      </trkpt>
      <trkpt lat="45.76204" lon="13.50361">
        <ele>2.466397</ele>
        <time>2026-07-15T10:12:02.000Z</time>
      </trkpt>
      <trkpt lat="45.76206" lon="13.5036">
        <ele>2.476301</ele>
        <time>2026-07-15T10:12:05.000Z</time>
      </trkpt>
      <trkpt lat="45.7621" lon="13.50362">
        <ele>2.506737</ele>
        <time>2026-07-15T10:12:22.000Z</time>
      </trkpt>
      <trkpt lat="45.7623" lon="13.50366">
        <ele>2.640159</ele>
        <time>2026-07-15T10:12:29.000Z</time>
      </trkpt>
      <trkpt lat="45.76248" lon="13.50367">
        <ele>2.758264</ele>
        <time>2026-07-15T10:12:35.000Z</time>
      </trkpt>
      <trkpt lat="45.76254" lon="13.50369">
        <ele>2.805925</ele>
        <time>2026-07-15T10:12:37.000Z</time>
      </trkpt>
      <trkpt lat="45.76266" lon="13.50369">
        <ele>2.885401</ele>
        <time>2026-07-15T10:12:40.000Z</time>
      </trkpt>
      <trkpt lat="45.76271" lon="13.5037">
        <ele>2.918015</ele>
        <time>2026-07-15T10:12:41.000Z</time>
      </trkpt>
      <trkpt lat="45.76304" lon="13.50377">
        <ele>3.15108</ele>
        <time>2026-07-15T10:12:49.000Z</time>
      </trkpt>
      <trkpt lat="45.76334" lon="13.50381">
        <ele>3.355418</ele>
        <time>2026-07-15T10:12:56.000Z</time>
      </trkpt>
      <trkpt lat="45.76338" lon="13.50382">
        <ele>3.385055</ele>
        <time>2026-07-15T10:12:57.000Z</time>
      </trkpt>
      <trkpt lat="45.76368" lon="13.50386">
        <ele>3.588029</ele>
        <time>2026-07-15T10:13:04.000Z</time>
      </trkpt>
      <trkpt lat="45.76391" lon="13.5039">
        <ele>3.746639</ele>
        <time>2026-07-15T10:13:09.000Z</time>
      </trkpt>
      <trkpt lat="45.76405" lon="13.50389">
        <ele>3.752143</ele>
        <time>2026-07-15T10:13:12.000Z</time>
      </trkpt>
      <trkpt lat="45.76424" lon="13.50384">
        <ele>3.561098</ele>
        <time>2026-07-15T10:13:16.000Z</time>
      </trkpt>
      <trkpt lat="45.76433" lon="13.50379">
        <ele>3.467134</ele>
        <time>2026-07-15T10:13:18.000Z</time>
      </trkpt>
      <trkpt lat="45.7645" lon="13.50369">
        <ele>3.282891</ele>
        <time>2026-07-15T10:13:22.000Z</time>
      </trkpt>
      <trkpt lat="45.76462" lon="13.5036">
        <ele>3.141596</ele>
        <time>2026-07-15T10:13:25.000Z</time>
      </trkpt>
      <trkpt lat="45.76475" lon="13.50351">
        <ele>3.002395</ele>
        <time>2026-07-15T10:13:28.000Z</time>
      </trkpt>
      <trkpt lat="45.76479" lon="13.50348">
        <ele>2.955054</ele>
        <time>2026-07-15T10:13:29.000Z</time>
      </trkpt>
      <trkpt lat="45.76487" lon="13.5034">
        <ele>2.857968</ele>
        <time>2026-07-15T10:13:31.000Z</time>
      </trkpt>
      <trkpt lat="45.76495" lon="13.50331">
        <ele>2.75896</ele>
        <time>2026-07-15T10:13:33.000Z</time>
      </trkpt>
      <trkpt lat="45.76506" lon="13.50317">
        <ele>2.614673</ele>
        <time>2026-07-15T10:13:36.000Z</time>
      </trkpt>
      <trkpt lat="45.76518" lon="13.50298">
        <ele>2.435882</ele>
        <time>2026-07-15T10:13:40.000Z</time>
      </trkpt>
      <trkpt lat="45.76535" lon="13.50252">
        <ele>2.070903</ele>
        <time>2026-07-15T10:13:48.000Z</time>
      </trkpt>
      <trkpt lat="45.76549" lon="13.50209">
        <ele>2.116748</ele>
        <time>2026-07-15T10:13:55.000Z</time>
      </trkpt>
      <trkpt lat="45.76566" lon="13.50155">
        <ele>2.270132</ele>
        <time>2026-07-15T10:14:04.000Z</time>
      </trkpt>
      <trkpt lat="45.7657" lon="13.50145">
        <ele>2.300159</ele>
        <time>2026-07-15T10:14:06.000Z</time>
      </trkpt>
      <trkpt lat="45.76576" lon="13.50123">
        <ele>2.360255</ele>
        <time>2026-07-15T10:14:10.000Z</time>
      </trkpt>
      <trkpt lat="45.76593" lon="13.50075">
        <ele>2.499775</ele>
        <time>2026-07-15T10:14:18.000Z</time>
      </trkpt>
      <trkpt lat="45.76596" lon="13.50063">
        <ele>2.535029</ele>
        <time>2026-07-15T10:14:20.000Z</time>
      </trkpt>
      <trkpt lat="45.76608" lon="13.50033">
        <ele>2.622076</ele>
        <time>2026-07-15T10:14:25.000Z</time>
      </trkpt>
      <trkpt lat="45.76618" lon="13.50003">
        <ele>2.706858</ele>
        <time>2026-07-15T10:14:31.000Z</time>
      </trkpt>
      <trkpt lat="45.7662" lon="13.49999">
        <ele>2.719541</ele>
        <time>2026-07-15T10:14:32.000Z</time>
      </trkpt>
      <trkpt lat="45.76624" lon="13.49987">
        <ele>2.74871</ele>
        <time>2026-07-15T10:14:34.000Z</time>
      </trkpt>
      <trkpt lat="45.76629" lon="13.49971">
        <ele>2.792358</ele>
        <time>2026-07-15T10:14:37.000Z</time>
      </trkpt>
      <trkpt lat="45.7664" lon="13.49939">
        <ele>2.87622</ele>
        <time>2026-07-15T10:14:43.000Z</time>
      </trkpt>
      <trkpt lat="45.76645" lon="13.49925">
        <ele>2.914732</ele>
        <time>2026-07-15T10:14:46.000Z</time>
      </trkpt>
      <trkpt lat="45.76655" lon="13.49909">
        <ele>2.964116</ele>
        <time>2026-07-15T10:14:51.000Z</time>
      </trkpt>
      <trkpt lat="45.76668" lon="13.49904">
        <ele>3.009636</ele>
        <time>2026-07-15T10:14:55.000Z</time>
      </trkpt>
      <trkpt lat="45.76684" lon="13.49903">
        <ele>3.065942</ele>
        <time>2026-07-15T10:14:59.000Z</time>
      </trkpt>
      <trkpt lat="45.76689" lon="13.49903">
        <ele>3.081542</ele>
        <time>2026-07-15T10:15:00.000Z</time>
      </trkpt>
      <trkpt lat="45.76694" lon="13.49903">
        <ele>3.097818</ele>
        <time>2026-07-15T10:15:01.000Z</time>
      </trkpt>
      <trkpt lat="45.76699" lon="13.49903">
        <ele>3.113756</ele>
        <time>2026-07-15T10:15:02.000Z</time>
      </trkpt>
      <trkpt lat="45.76708" lon="13.49903">
        <ele>3.145634</ele>
        <time>2026-07-15T10:15:04.000Z</time>
      </trkpt>
      <trkpt lat="45.76718" lon="13.49904">
        <ele>3.178865</ele>
        <time>2026-07-15T10:15:06.000Z</time>
      </trkpt>
      <trkpt lat="45.7675" lon="13.49903">
        <ele>3.288066</ele>
        <time>2026-07-15T10:15:13.000Z</time>
      </trkpt>
      <trkpt lat="45.76764" lon="13.49902">
        <ele>3.285457</ele>
        <time>2026-07-15T10:15:16.000Z</time>
      </trkpt>
      <trkpt lat="45.76769" lon="13.49902">
        <ele>3.282404</ele>
        <time>2026-07-15T10:15:17.000Z</time>
      </trkpt>
      <trkpt lat="45.76783" lon="13.49902">
        <ele>3.273052</ele>
        <time>2026-07-15T10:15:20.000Z</time>
      </trkpt>
      <trkpt lat="45.76793" lon="13.49902">
        <ele>3.266816</ele>
        <time>2026-07-15T10:15:22.000Z</time>
      </trkpt>
      <trkpt lat="45.76812" lon="13.49902">
        <ele>3.254672</ele>
        <time>2026-07-15T10:15:26.000Z</time>
      </trkpt>
      <trkpt lat="45.76831" lon="13.49902">
        <ele>3.242266</ele>
        <time>2026-07-15T10:15:30.000Z</time>
      </trkpt>
      <trkpt lat="45.7685" lon="13.49897">
        <ele>3.22988</ele>
        <time>2026-07-15T10:15:34.000Z</time>
      </trkpt>
      <trkpt lat="45.76854" lon="13.49895">
        <ele>3.226857</ele>
        <time>2026-07-15T10:15:35.000Z</time>
      </trkpt>
      <trkpt lat="45.76871" lon="13.49885">
        <ele>3.214958</ele>
        <time>2026-07-15T10:15:39.000Z</time>
      </trkpt>
      <trkpt lat="45.76875" lon="13.49882">
        <ele>3.211794</ele>
        <time>2026-07-15T10:15:40.000Z</time>
      </trkpt>
      <trkpt lat="45.76888" lon="13.49872">
        <ele>3.202418</ele>
        <time>2026-07-15T10:15:43.000Z</time>
      </trkpt>
      <trkpt lat="45.76902" lon="13.49856">
        <ele>3.190648</ele>
        <time>2026-07-15T10:15:47.000Z</time>
      </trkpt>
      <trkpt lat="45.76909" lon="13.49847">
        <ele>3.18467</ele>
        <time>2026-07-15T10:15:49.000Z</time>
      </trkpt>
      <trkpt lat="45.76924" lon="13.49821">
        <ele>3.201178</ele>
        <time>2026-07-15T10:15:54.000Z</time>
      </trkpt>
      <trkpt lat="45.76931" lon="13.49805">
        <ele>3.231255</ele>
        <time>2026-07-15T10:15:57.000Z</time>
      </trkpt>
      <trkpt lat="45.76936" lon="13.49787">
        <ele>3.261589</ele>
        <time>2026-07-15T10:16:00.000Z</time>
      </trkpt>
      <trkpt lat="45.76941" lon="13.49768">
        <ele>3.291531</ele>
        <time>2026-07-15T10:16:03.000Z</time>
      </trkpt>
      <trkpt lat="45.76942" lon="13.49756">
        <ele>3.310259</ele>
        <time>2026-07-15T10:16:05.000Z</time>
      </trkpt>
      <trkpt lat="45.76943" lon="13.4975">
        <ele>3.319894</ele>
        <time>2026-07-15T10:16:06.000Z</time>
      </trkpt>
      <trkpt lat="45.76942" lon="13.49711">
        <ele>3.379773</ele>
        <time>2026-07-15T10:16:12.000Z</time>
      </trkpt>
      <trkpt lat="45.76942" lon="13.49698">
        <ele>3.400405</ele>
        <time>2026-07-15T10:16:14.000Z</time>
      </trkpt>
      <trkpt lat="45.76942" lon="13.49691">
        <ele>3.411342</ele>
        <time>2026-07-15T10:16:15.000Z</time>
      </trkpt>
      <trkpt lat="45.76945" lon="13.49671">
        <ele>3.441822</ele>
        <time>2026-07-15T10:16:18.000Z</time>
      </trkpt>
      <trkpt lat="45.76945" lon="13.49664">
        <ele>3.452526</ele>
        <time>2026-07-15T10:16:19.000Z</time>
      </trkpt>
      <trkpt lat="45.76946" lon="13.49657">
        <ele>3.463167</ele>
        <time>2026-07-15T10:16:20.000Z</time>
      </trkpt>
      <trkpt lat="45.76945" lon="13.4963">
        <ele>3.50582</ele>
        <time>2026-07-15T10:16:24.000Z</time>
      </trkpt>
      <trkpt lat="45.76946" lon="13.4961">
        <ele>3.536952</ele>
        <time>2026-07-15T10:16:27.000Z</time>
      </trkpt>
      <trkpt lat="45.76945" lon="13.49596">
        <ele>3.558069</ele>
        <time>2026-07-15T10:16:29.000Z</time>
      </trkpt>
      <trkpt lat="45.76945" lon="13.49589">
        <ele>3.56842</ele>
        <time>2026-07-15T10:16:30.000Z</time>
      </trkpt>
      <trkpt lat="45.76944" lon="13.49569">
        <ele>3.753288</ele>
        <time>2026-07-15T10:16:33.000Z</time>
      </trkpt>
      <trkpt lat="45.76943" lon="13.49555">
        <ele>3.908111</ele>
        <time>2026-07-15T10:16:35.000Z</time>
      </trkpt>
      <trkpt lat="45.76942" lon="13.49547">
        <ele>3.991734</ele>
        <time>2026-07-15T10:16:36.000Z</time>
      </trkpt>
      <trkpt lat="45.76937" lon="13.49515">
        <ele>4.356619</ele>
        <time>2026-07-15T10:16:41.000Z</time>
      </trkpt>
      <trkpt lat="45.76937" lon="13.49501">
        <ele>4.500115</ele>
        <time>2026-07-15T10:16:43.000Z</time>
      </trkpt>
      <trkpt lat="45.76929" lon="13.49462">
        <ele>4.939847</ele>
        <time>2026-07-15T10:16:49.000Z</time>
      </trkpt>
      <trkpt lat="45.76928" lon="13.49456">
        <ele>5.007822</ele>
        <time>2026-07-15T10:16:50.000Z</time>
      </trkpt>
      <trkpt lat="45.76925" lon="13.49437">
        <ele>5.222666</ele>
        <time>2026-07-15T10:16:53.000Z</time>
      </trkpt>
      <trkpt lat="45.76921" lon="13.49416">
        <ele>5.455799</ele>
        <time>2026-07-15T10:16:56.000Z</time>
      </trkpt>
      <trkpt lat="45.76919" lon="13.49402">
        <ele>5.609714</ele>
        <time>2026-07-15T10:16:58.000Z</time>
      </trkpt>
      <trkpt lat="45.76914" lon="13.49374">
        <ele>5.924302</ele>
        <time>2026-07-15T10:17:02.000Z</time>
      </trkpt>
      <trkpt lat="45.76911" lon="13.49348">
        <ele>6.213393</ele>
        <time>2026-07-15T10:17:06.000Z</time>
      </trkpt>
      <trkpt lat="45.76906" lon="13.49323">
        <ele>6.43542</ele>
        <time>2026-07-15T10:17:10.000Z</time>
      </trkpt>
      <trkpt lat="45.76903" lon="13.49304">
        <ele>6.552653</ele>
        <time>2026-07-15T10:17:13.000Z</time>
      </trkpt>
      <trkpt lat="45.76901" lon="13.4929">
        <ele>6.637766</ele>
        <time>2026-07-15T10:17:15.000Z</time>
      </trkpt>
      <trkpt lat="45.76898" lon="13.49283">
        <ele>6.6801</ele>
        <time>2026-07-15T10:17:16.000Z</time>
      </trkpt>
      <trkpt lat="45.76892" lon="13.49257">
        <ele>6.844165</ele>
        <time>2026-07-15T10:17:20.000Z</time>
      </trkpt>
      <trkpt lat="45.76889" lon="13.49243">
        <ele>6.926011</ele>
        <time>2026-07-15T10:17:22.000Z</time>
      </trkpt>
      <trkpt lat="45.76883" lon="13.49197">
        <ele>7.206201</ele>
        <time>2026-07-15T10:17:29.000Z</time>
      </trkpt>
      <trkpt lat="45.76883" lon="13.4919">
        <ele>7.247219</ele>
        <time>2026-07-15T10:17:30.000Z</time>
      </trkpt>
      <trkpt lat="45.76882" lon="13.49163">
        <ele>7.404853</ele>
        <time>2026-07-15T10:17:34.000Z</time>
      </trkpt>
      <trkpt lat="45.76883" lon="13.49136">
        <ele>7.559695</ele>
        <time>2026-07-15T10:17:38.000Z</time>
      </trkpt>
      <trkpt lat="45.76885" lon="13.49123">
        <ele>7.640955</ele>
        <time>2026-07-15T10:17:40.000Z</time>
      </trkpt>
      <trkpt lat="45.76885" lon="13.49116">
        <ele>7.682007</ele>
        <time>2026-07-15T10:17:41.000Z</time>
      </trkpt>
      <trkpt lat="45.76886" lon="13.49067">
        <ele>7.833732</ele>
        <time>2026-07-15T10:17:48.000Z</time>
      </trkpt>
      <trkpt lat="45.76887" lon="13.49004">
        <ele>7.633178</ele>
        <time>2026-07-15T10:17:57.000Z</time>
      </trkpt>
      <trkpt lat="45.76894" lon="13.48956">
        <ele>7.473895</ele>
        <time>2026-07-15T10:18:04.000Z</time>
      </trkpt>
      <trkpt lat="45.76906" lon="13.48916">
        <ele>7.335987</ele>
        <time>2026-07-15T10:18:10.000Z</time>
      </trkpt>
      <trkpt lat="45.76909" lon="13.48903">
        <ele>7.290241</ele>
        <time>2026-07-15T10:18:12.000Z</time>
      </trkpt>
      <trkpt lat="45.76911" lon="13.48896">
        <ele>7.267593</ele>
        <time>2026-07-15T10:18:13.000Z</time>
      </trkpt>
      <trkpt lat="45.76914" lon="13.48883">
        <ele>7.220935</ele>
        <time>2026-07-15T10:18:15.000Z</time>
      </trkpt>
      <trkpt lat="45.76916" lon="13.48869">
        <ele>7.175887</ele>
        <time>2026-07-15T10:18:17.000Z</time>
      </trkpt>
      <trkpt lat="45.76919" lon="13.48842">
        <ele>7.087483</ele>
        <time>2026-07-15T10:18:21.000Z</time>
      </trkpt>
      <trkpt lat="45.76919" lon="13.48828">
        <ele>7.059738</ele>
        <time>2026-07-15T10:18:23.000Z</time>
      </trkpt>
      <trkpt lat="45.76918" lon="13.48807">
        <ele>7.110575</ele>
        <time>2026-07-15T10:18:26.000Z</time>
      </trkpt>
      <trkpt lat="45.76916" lon="13.48789">
        <ele>7.157434</ele>
        <time>2026-07-15T10:18:29.000Z</time>
      </trkpt>
      <trkpt lat="45.76908" lon="13.48751">
        <ele>7.254238</ele>
        <time>2026-07-15T10:18:36.000Z</time>
      </trkpt>
      <trkpt lat="45.76893" lon="13.48721">
        <ele>7.344529</ele>
        <time>2026-07-15T10:18:42.000Z</time>
      </trkpt>
      <trkpt lat="45.76877" lon="13.48688">
        <ele>7.445373</ele>
        <time>2026-07-15T10:18:48.000Z</time>
      </trkpt>
      <trkpt lat="45.76854" lon="13.48644">
        <ele>7.580799</ele>
        <time>2026-07-15T10:18:56.000Z</time>
      </trkpt>
      <trkpt lat="45.76851" lon="13.48639">
        <ele>7.597855</ele>
        <time>2026-07-15T10:18:57.000Z</time>
      </trkpt>
      <trkpt lat="45.7684" lon="13.48614">
        <ele>7.670749</ele>
        <time>2026-07-15T10:19:01.000Z</time>
      </trkpt>
      <trkpt lat="45.76838" lon="13.48607">
        <ele>7.688324</ele>
        <time>2026-07-15T10:19:02.000Z</time>
      </trkpt>
      <trkpt lat="45.76835" lon="13.48595">
        <ele>7.661361</ele>
        <time>2026-07-15T10:19:04.000Z</time>
      </trkpt>
      <trkpt lat="45.7683" lon="13.4857">
        <ele>7.605738</ele>
        <time>2026-07-15T10:19:09.000Z</time>
      </trkpt>
      <trkpt lat="45.76828" lon="13.4856">
        <ele>7.5819</ele>
        <time>2026-07-15T10:19:13.000Z</time>
      </trkpt>
      <trkpt lat="45.76827" lon="13.48558">
        <ele>7.578486</ele>
        <time>2026-07-15T10:19:14.000Z</time>
      </trkpt>
      <trkpt lat="45.76827" lon="13.48558">
        <ele>7.576498</ele>
        <time>2026-07-15T10:19:15.000Z</time>
      </trkpt>
      <trkpt lat="45.76826" lon="13.48558">
        <ele>7.575463</ele>
        <time>2026-07-15T10:19:16.000Z</time>
      </trkpt>
      <trkpt lat="45.76831" lon="13.48556">
        <ele>7.560958</ele>
        <time>2026-07-15T10:19:33.000Z</time>
      </trkpt>
      <trkpt lat="45.76831" lon="13.48556">
        <ele>7.559378</ele>
        <time>2026-07-15T10:19:34.000Z</time>
      </trkpt>
      <trkpt lat="45.76834" lon="13.4855">
        <ele>7.543804</ele>
        <time>2026-07-15T10:19:39.000Z</time>
      </trkpt>
      <trkpt lat="45.76836" lon="13.48546">
        <ele>7.533051</ele>
        <time>2026-07-15T10:19:40.000Z</time>
      </trkpt>
      <trkpt lat="45.76842" lon="13.48523">
        <ele>7.478573</ele>
        <time>2026-07-15T10:19:44.000Z</time>
      </trkpt>
      <trkpt lat="45.76844" lon="13.48517">
        <ele>7.464719</ele>
        <time>2026-07-15T10:19:45.000Z</time>
      </trkpt>
      <trkpt lat="45.76855" lon="13.48476">
        <ele>7.369778</ele>
        <time>2026-07-15T10:19:52.000Z</time>
      </trkpt>
      <trkpt lat="45.76857" lon="13.4847">
        <ele>7.355725</ele>
        <time>2026-07-15T10:19:53.000Z</time>
      </trkpt>
      <trkpt lat="45.76865" lon="13.48435">
        <ele>7.273684</ele>
        <time>2026-07-15T10:19:59.000Z</time>
      </trkpt>
      <trkpt lat="45.76869" lon="13.48417">
        <ele>7.232342</ele>
        <time>2026-07-15T10:20:02.000Z</time>
      </trkpt>
      <trkpt lat="45.76882" lon="13.48359">
        <ele>7.119157</ele>
        <time>2026-07-15T10:20:11.000Z</time>
      </trkpt>
      <trkpt lat="45.76892" lon="13.48308">
        <ele>7.084174</ele>
        <time>2026-07-15T10:20:19.000Z</time>
      </trkpt>
      <trkpt lat="45.76907" lon="13.48239">
        <ele>7.037022</ele>
        <time>2026-07-15T10:20:30.000Z</time>
      </trkpt>
      <trkpt lat="45.76917" lon="13.48195">
        <ele>7.006944</ele>
        <time>2026-07-15T10:20:37.000Z</time>
      </trkpt>
      <trkpt lat="45.76918" lon="13.48189">
        <ele>7.002534</ele>
        <time>2026-07-15T10:20:38.000Z</time>
      </trkpt>
      <trkpt lat="45.76926" lon="13.4815">
        <ele>6.976538</ele>
        <time>2026-07-15T10:20:45.000Z</time>
      </trkpt>
      <trkpt lat="45.76933" lon="13.48121">
        <ele>6.930934</ele>
        <time>2026-07-15T10:20:50.000Z</time>
      </trkpt>
      <trkpt lat="45.76935" lon="13.48107">
        <ele>6.836853</ele>
        <time>2026-07-15T10:20:52.000Z</time>
      </trkpt>
      <trkpt lat="45.76939" lon="13.48095">
        <ele>6.74413</ele>
        <time>2026-07-15T10:20:54.000Z</time>
      </trkpt>
      <trkpt lat="45.76945" lon="13.48063">
        <ele>6.514046</ele>
        <time>2026-07-15T10:20:59.000Z</time>
      </trkpt>
      <trkpt lat="45.7695" lon="13.48036">
        <ele>6.321691</ele>
        <time>2026-07-15T10:21:03.000Z</time>
      </trkpt>
      <trkpt lat="45.76957" lon="13.48005">
        <ele>6.095062</ele>
        <time>2026-07-15T10:21:08.000Z</time>
      </trkpt>
      <trkpt lat="45.76964" lon="13.47975">
        <ele>5.878202</ele>
        <time>2026-07-15T10:21:13.000Z</time>
      </trkpt>
      <trkpt lat="45.76969" lon="13.47958">
        <ele>5.752665</ele>
        <time>2026-07-15T10:21:16.000Z</time>
      </trkpt>
      <trkpt lat="45.76971" lon="13.47947">
        <ele>5.673391</ele>
        <time>2026-07-15T10:21:18.000Z</time>
      </trkpt>
      <trkpt lat="45.76975" lon="13.47929">
        <ele>5.544735</ele>
        <time>2026-07-15T10:21:21.000Z</time>
      </trkpt>
      <trkpt lat="45.76978" lon="13.47917">
        <ele>5.454897</ele>
        <time>2026-07-15T10:21:23.000Z</time>
      </trkpt>
      <trkpt lat="45.76987" lon="13.47874">
        <ele>5.212911</ele>
        <time>2026-07-15T10:21:30.000Z</time>
      </trkpt>
      <trkpt lat="45.76999" lon="13.47811">
        <ele>5.696126</ele>
        <time>2026-07-15T10:21:40.000Z</time>
      </trkpt>
      <trkpt lat="45.77007" lon="13.47779">
        <ele>5.945993</ele>
        <time>2026-07-15T10:21:45.000Z</time>
      </trkpt>
      <trkpt lat="45.77011" lon="13.4776">
        <ele>6.090976</ele>
        <time>2026-07-15T10:21:48.000Z</time>
      </trkpt>
      <trkpt lat="45.77027" lon="13.47682">
        <ele>6.692437</ele>
        <time>2026-07-15T10:22:00.000Z</time>
      </trkpt>
      <trkpt lat="45.77038" lon="13.47626">
        <ele>7.114422</ele>
        <time>2026-07-15T10:22:09.000Z</time>
      </trkpt>
      <trkpt lat="45.77045" lon="13.47578">
        <ele>7.36324</ele>
        <time>2026-07-15T10:22:17.000Z</time>
      </trkpt>
      <trkpt lat="45.77055" lon="13.4753">
        <ele>7.621778</ele>
        <time>2026-07-15T10:22:25.000Z</time>
      </trkpt>
      <trkpt lat="45.77069" lon="13.47463">
        <ele>7.981441</ele>
        <time>2026-07-15T10:22:36.000Z</time>
      </trkpt>
      <trkpt lat="45.77084" lon="13.47395">
        <ele>8.343975</ele>
        <time>2026-07-15T10:22:47.000Z</time>
      </trkpt>
      <trkpt lat="45.77087" lon="13.47376">
        <ele>8.442065</ele>
        <time>2026-07-15T10:22:50.000Z</time>
      </trkpt>
      <trkpt lat="45.77091" lon="13.4736">
        <ele>8.528508</ele>
        <time>2026-07-15T10:22:53.000Z</time>
      </trkpt>
      <trkpt lat="45.77101" lon="13.47325">
        <ele>8.723014</ele>
        <time>2026-07-15T10:23:00.000Z</time>
      </trkpt>
      <trkpt lat="45.77107" lon="13.47313">
        <ele>8.79458</ele>
        <time>2026-07-15T10:23:04.000Z</time>
      </trkpt>
      <trkpt lat="45.77107" lon="13.47312">
        <ele>8.797623</ele>
        <time>2026-07-15T10:23:05.000Z</time>
      </trkpt>
      <trkpt lat="45.77107" lon="13.47312">
        <ele>8.797623</ele>
        <time>2026-07-15T10:23:06.000Z</time>
      </trkpt>
      <trkpt lat="45.77105" lon="13.47305">
        <ele>8.833378</ele>
        <time>2026-07-15T10:23:15.000Z</time>
      </trkpt>
      <trkpt lat="45.771" lon="13.47303">
        <ele>8.87419</ele>
        <time>2026-07-15T10:23:17.000Z</time>
      </trkpt>
      <trkpt lat="45.77079" lon="13.473">
        <ele>9.026944</ele>
        <time>2026-07-15T10:23:23.000Z</time>
      </trkpt>
      <trkpt lat="45.77052" lon="13.47294">
        <ele>9.228301</ele>
        <time>2026-07-15T10:23:30.000Z</time>
      </trkpt>
      <trkpt lat="45.77016" lon="13.47288">
        <ele>9.488419</ele>
        <time>2026-07-15T10:23:39.000Z</time>
      </trkpt>
      <trkpt lat="45.76996" lon="13.47285">
        <ele>9.638178</ele>
        <time>2026-07-15T10:23:44.000Z</time>
      </trkpt>
      <trkpt lat="45.76992" lon="13.47284">
        <ele>9.666644</ele>
        <time>2026-07-15T10:23:45.000Z</time>
      </trkpt>
      <trkpt lat="45.76976" lon="13.47282">
        <ele>9.687039</ele>
        <time>2026-07-15T10:23:49.000Z</time>
      </trkpt>
      <trkpt lat="45.76965" lon="13.4728">
        <ele>9.656628</ele>
        <time>2026-07-15T10:23:52.000Z</time>
      </trkpt>
      <trkpt lat="45.76961" lon="13.47279">
        <ele>9.64682</ele>
        <time>2026-07-15T10:23:53.000Z</time>
      </trkpt>
      <trkpt lat="45.76951" lon="13.47278">
        <ele>9.61786</ele>
        <time>2026-07-15T10:23:56.000Z</time>
      </trkpt>
      <trkpt lat="45.76911" lon="13.47271">
        <ele>9.511403</ele>
        <time>2026-07-15T10:24:06.000Z</time>
      </trkpt>
      <trkpt lat="45.76877" lon="13.47266">
        <ele>9.418576</ele>
        <time>2026-07-15T10:24:14.000Z</time>
      </trkpt>
      <trkpt lat="45.76845" lon="13.47259">
        <ele>9.333982</ele>
        <time>2026-07-15T10:24:21.000Z</time>
      </trkpt>
      <trkpt lat="45.76836" lon="13.47257">
        <ele>9.308591</ele>
        <time>2026-07-15T10:24:23.000Z</time>
      </trkpt>
      <trkpt lat="45.76818" lon="13.47255">
        <ele>9.259455</ele>
        <time>2026-07-15T10:24:27.000Z</time>
      </trkpt>
      <trkpt lat="45.76804" lon="13.47252">
        <ele>9.205409</ele>
        <time>2026-07-15T10:24:30.000Z</time>
      </trkpt>
      <trkpt lat="45.76751" lon="13.47244">
        <ele>8.798232</ele>
        <time>2026-07-15T10:24:41.000Z</time>
      </trkpt>
      <trkpt lat="45.7673" lon="13.47239">
        <ele>8.628733</ele>
        <time>2026-07-15T10:24:47.000Z</time>
      </trkpt>
      <trkpt lat="45.76728" lon="13.47238">
        <ele>8.616066</ele>
        <time>2026-07-15T10:24:50.000Z</time>
      </trkpt>
      <trkpt lat="45.76729" lon="13.47243">
        <ele>8.586563</ele>
        <time>2026-07-15T10:24:53.000Z</time>
      </trkpt>
      <trkpt lat="45.76732" lon="13.4725">
        <ele>8.545843</ele>
        <time>2026-07-15T10:24:55.000Z</time>
      </trkpt>
      <trkpt lat="45.76729" lon="13.47269">
        <ele>8.439321</ele>
        <time>2026-07-15T10:24:59.000Z</time>
      </trkpt>
      <trkpt lat="45.76726" lon="13.47288">
        <ele>8.330532</ele>
        <time>2026-07-15T10:25:02.000Z</time>
      </trkpt>
      <trkpt lat="45.76724" lon="13.47301">
        <ele>8.262542</ele>
        <time>2026-07-15T10:25:04.000Z</time>
      </trkpt>
      <trkpt lat="45.76713" lon="13.47351">
        <ele>7.978876</ele>
        <time>2026-07-15T10:25:12.000Z</time>
      </trkpt>
      <trkpt lat="45.76705" lon="13.47374">
        <ele>7.839974</ele>
        <time>2026-07-15T10:25:16.000Z</time>
      </trkpt>
      <trkpt lat="45.767" lon="13.47388">
        <ele>7.736082</ele>
        <time>2026-07-15T10:25:18.000Z</time>
      </trkpt>
      <trkpt lat="45.76689" lon="13.47443">
        <ele>7.360346</ele>
        <time>2026-07-15T10:25:25.000Z</time>
      </trkpt>
      <trkpt lat="45.76685" lon="13.47465">
        <ele>7.214654</ele>
        <time>2026-07-15T10:25:28.000Z</time>
      </trkpt>
      <trkpt lat="45.76673" lon="13.4753">
        <ele>6.767967</ele>
        <time>2026-07-15T10:25:37.000Z</time>
      </trkpt>
      <trkpt lat="45.76656" lon="13.47609">
        <ele>6.230002</ele>
        <time>2026-07-15T10:25:48.000Z</time>
      </trkpt>
      <trkpt lat="45.76653" lon="13.47623">
        <ele>6.130011</ele>
        <time>2026-07-15T10:25:50.000Z</time>
      </trkpt>
      <trkpt lat="45.7665" lon="13.47638">
        <ele>6.024295</ele>
        <time>2026-07-15T10:25:52.000Z</time>
      </trkpt>
      <trkpt lat="45.76643" lon="13.47673">
        <ele>5.763924</ele>
        <time>2026-07-15T10:25:57.000Z</time>
      </trkpt>
      <trkpt lat="45.76637" lon="13.47702">
        <ele>5.551214</ele>
        <time>2026-07-15T10:26:01.000Z</time>
      </trkpt>
      <trkpt lat="45.76627" lon="13.47752">
        <ele>5.185722</ele>
        <time>2026-07-15T10:26:08.000Z</time>
      </trkpt>
      <trkpt lat="45.76621" lon="13.4778">
        <ele>4.981674</ele>
        <time>2026-07-15T10:26:12.000Z</time>
      </trkpt>
      <trkpt lat="45.7661" lon="13.47839">
        <ele>4.55414</ele>
        <time>2026-07-15T10:26:20.000Z</time>
      </trkpt>
      <trkpt lat="45.76594" lon="13.47917">
        <ele>4.2621</ele>
        <time>2026-07-15T10:26:31.000Z</time>
      </trkpt>
      <trkpt lat="45.7659" lon="13.47932">
        <ele>4.240896</ele>
        <time>2026-07-15T10:26:33.000Z</time>
      </trkpt>
      <trkpt lat="45.76575" lon="13.48007">
        <ele>4.130677</ele>
        <time>2026-07-15T10:26:43.000Z</time>
      </trkpt>
      <trkpt lat="45.76574" lon="13.48014">
        <ele>4.119661</ele>
        <time>2026-07-15T10:26:44.000Z</time>
      </trkpt>
      <trkpt lat="45.76561" lon="13.4808">
        <ele>4.023519</ele>
        <time>2026-07-15T10:26:53.000Z</time>
      </trkpt>
      <trkpt lat="45.76559" lon="13.48095">
        <ele>4.002339</ele>
        <time>2026-07-15T10:26:55.000Z</time>
      </trkpt>
      <trkpt lat="45.76552" lon="13.4813">
        <ele>3.948871</ele>
        <time>2026-07-15T10:27:00.000Z</time>
      </trkpt>
      <trkpt lat="45.76548" lon="13.48152">
        <ele>3.914284</ele>
        <time>2026-07-15T10:27:03.000Z</time>
      </trkpt>
      <trkpt lat="45.76542" lon="13.48181">
        <ele>3.86727</ele>
        <time>2026-07-15T10:27:07.000Z</time>
      </trkpt>
      <trkpt lat="45.76535" lon="13.48221">
        <ele>3.804517</ele>
        <time>2026-07-15T10:27:13.000Z</time>
      </trkpt>
      <trkpt lat="45.76515" lon="13.48285">
        <ele>3.696217</ele>
        <time>2026-07-15T10:27:22.000Z</time>
      </trkpt>
      <trkpt lat="45.76501" lon="13.48337">
        <ele>3.61069</ele>
        <time>2026-07-15T10:27:28.000Z</time>
      </trkpt>
      <trkpt lat="45.76499" lon="13.48344">
        <ele>3.598257</ele>
        <time>2026-07-15T10:27:29.000Z</time>
      </trkpt>
      <trkpt lat="45.76492" lon="13.48352">
        <ele>3.579067</ele>
        <time>2026-07-15T10:27:31.000Z</time>
      </trkpt>
      <trkpt lat="45.76483" lon="13.48351">
        <ele>3.426362</ele>
        <time>2026-07-15T10:27:33.000Z</time>
      </trkpt>
      <trkpt lat="45.76478" lon="13.48349">
        <ele>3.335042</ele>
        <time>2026-07-15T10:27:34.000Z</time>
      </trkpt>
      <trkpt lat="45.7646" lon="13.48338">
        <ele>2.922002</ele>
        <time>2026-07-15T10:27:38.000Z</time>
      </trkpt>
      <trkpt lat="45.76451" lon="13.48333">
        <ele>2.715764</ele>
        <time>2026-07-15T10:27:40.000Z</time>
      </trkpt>
      <trkpt lat="45.76446" lon="13.4833">
        <ele>2.610182</ele>
        <time>2026-07-15T10:27:41.000Z</time>
      </trkpt>
      <trkpt lat="45.76409" lon="13.48308">
        <ele>1.775739</ele>
        <time>2026-07-15T10:27:49.000Z</time>
      </trkpt>
      <trkpt lat="45.76359" lon="13.48281">
        <ele>0.683014</ele>
        <time>2026-07-15T10:27:59.000Z</time>
      </trkpt>
      <trkpt lat="45.76305" lon="13.48253">
        <ele>-0.26884</ele>
        <time>2026-07-15T10:28:10.000Z</time>
      </trkpt>
      <trkpt lat="45.7625" lon="13.48223">
        <ele>-0.715903</ele>
        <time>2026-07-15T10:28:21.000Z</time>
      </trkpt>
      <trkpt lat="45.76221" lon="13.48208">
        <ele>-0.951705</ele>
        <time>2026-07-15T10:28:27.000Z</time>
      </trkpt>
      <trkpt lat="45.76212" lon="13.48204">
        <ele>-1.026811</ele>
        <time>2026-07-15T10:28:29.000Z</time>
      </trkpt>
      <trkpt lat="45.76166" lon="13.48177">
        <ele>-1.401015</ele>
        <time>2026-07-15T10:28:39.000Z</time>
      </trkpt>
      <trkpt lat="45.76115" lon="13.4815">
        <ele>-1.152401</ele>
        <time>2026-07-15T10:28:49.000Z</time>
      </trkpt>
      <trkpt lat="45.76064" lon="13.48122">
        <ele>-0.690886</ele>
        <time>2026-07-15T10:28:59.000Z</time>
      </trkpt>
      <trkpt lat="45.76059" lon="13.48119">
        <ele>-0.644981</ele>
        <time>2026-07-15T10:29:00.000Z</time>
      </trkpt>
      <trkpt lat="45.76015" lon="13.48094">
        <ele>-0.242345</ele>
        <time>2026-07-15T10:29:09.000Z</time>
      </trkpt>
      <trkpt lat="45.75978" lon="13.48073">
        <ele>0.165596</ele>
        <time>2026-07-15T10:29:17.000Z</time>
      </trkpt>
      <trkpt lat="45.75949" lon="13.48058">
        <ele>0.653509</ele>
        <time>2026-07-15T10:29:23.000Z</time>
      </trkpt>
      <trkpt lat="45.75939" lon="13.48052">
        <ele>0.827422</ele>
        <time>2026-07-15T10:29:25.000Z</time>
      </trkpt>
      <trkpt lat="45.75934" lon="13.48049">
        <ele>0.914026</ele>
        <time>2026-07-15T10:29:26.000Z</time>
      </trkpt>
      <trkpt lat="45.75921" lon="13.48043">
        <ele>1.144613</ele>
        <time>2026-07-15T10:29:29.000Z</time>
      </trkpt>
      <trkpt lat="45.75915" lon="13.48041">
        <ele>1.245111</ele>
        <time>2026-07-15T10:29:30.000Z</time>
      </trkpt>
      <trkpt lat="45.75896" lon="13.48031">
        <ele>1.568628</ele>
        <time>2026-07-15T10:29:34.000Z</time>
      </trkpt>
      <trkpt lat="45.75885" lon="13.48025">
        <ele>1.759236</ele>
        <time>2026-07-15T10:29:36.000Z</time>
      </trkpt>
      <trkpt lat="45.75864" lon="13.48014">
        <ele>2.119216</ele>
        <time>2026-07-15T10:29:40.000Z</time>
      </trkpt>
      <trkpt lat="45.75859" lon="13.48011">
        <ele>2.210077</ele>
        <time>2026-07-15T10:29:41.000Z</time>
      </trkpt>
      <trkpt lat="45.75811" lon="13.47983">
        <ele>2.808006</ele>
        <time>2026-07-15T10:29:50.000Z</time>
      </trkpt>
      <trkpt lat="45.75784" lon="13.47968">
        <ele>2.306636</ele>
        <time>2026-07-15T10:29:55.000Z</time>
      </trkpt>
      <trkpt lat="45.75758" lon="13.47954">
        <ele>1.821189</ele>
        <time>2026-07-15T10:30:00.000Z</time>
      </trkpt>
      <trkpt lat="45.75705" lon="13.47925">
        <ele>0.85419</ele>
        <time>2026-07-15T10:30:10.000Z</time>
      </trkpt>
      <trkpt lat="45.757" lon="13.47922">
        <ele>0.758365</ele>
        <time>2026-07-15T10:30:11.000Z</time>
      </trkpt>
      <trkpt lat="45.75664" lon="13.47903">
        <ele>0.09548</ele>
        <time>2026-07-15T10:30:18.000Z</time>
      </trkpt>
      <trkpt lat="45.75613" lon="13.47876">
        <ele>-0.19653</ele>
        <time>2026-07-15T10:30:28.000Z</time>
      </trkpt>
      <trkpt lat="45.75603" lon="13.47871">
        <ele>-0.205504</ele>
        <time>2026-07-15T10:30:30.000Z</time>
      </trkpt>
      <trkpt lat="45.75557" lon="13.47846">
        <ele>-0.246241</ele>
        <time>2026-07-15T10:30:40.000Z</time>
      </trkpt>
      <trkpt lat="45.75522" lon="13.47828">
        <ele>-0.277531</ele>
        <time>2026-07-15T10:30:48.000Z</time>
      </trkpt>
      <trkpt lat="45.75514" lon="13.47823">
        <ele>-0.284312</ele>
        <time>2026-07-15T10:30:50.000Z</time>
      </trkpt>
      <trkpt lat="45.75498" lon="13.47814">
        <ele>-0.298311</ele>
        <time>2026-07-15T10:30:55.000Z</time>
      </trkpt>
      <trkpt lat="45.75489" lon="13.47809">
        <ele>-0.306389</ele>
        <time>2026-07-15T10:30:58.000Z</time>
      </trkpt>
      <trkpt lat="45.75472" lon="13.478">
        <ele>0.013246</ele>
        <time>2026-07-15T10:31:03.000Z</time>
      </trkpt>
      <trkpt lat="45.75443" lon="13.47782">
        <ele>1.044979</ele>
        <time>2026-07-15T10:31:11.000Z</time>
      </trkpt>
      <trkpt lat="45.75435" lon="13.47776">
        <ele>1.351186</ele>
        <time>2026-07-15T10:31:15.000Z</time>
      </trkpt>
      <trkpt lat="45.75435" lon="13.47776">
        <ele>1.369929</ele>
        <time>2026-07-15T10:31:18.000Z</time>
      </trkpt>
      <trkpt lat="45.75436" lon="13.47781">
        <ele>1.506106</ele>
        <time>2026-07-15T10:31:35.000Z</time>
      </trkpt>
      <trkpt lat="45.75438" lon="13.47782">
        <ele>1.571718</ele>
        <time>2026-07-15T10:31:36.000Z</time>
      </trkpt>
      <trkpt lat="45.75453" lon="13.47792">
        <ele>2.110703</ele>
        <time>2026-07-15T10:31:42.000Z</time>
      </trkpt>
      <trkpt lat="45.75463" lon="13.47798">
        <ele>2.481739</ele>
        <time>2026-07-15T10:31:47.000Z</time>
      </trkpt>
      <trkpt lat="45.75465" lon="13.47798">
        <ele>2.532638</ele>
        <time>2026-07-15T10:31:48.000Z</time>
      </trkpt>
      <trkpt lat="45.75465" lon="13.47797">
        <ele>2.546181</ele>
        <time>2026-07-15T10:31:49.000Z</time>
      </trkpt>
      <trkpt lat="45.7547" lon="13.478">
        <ele>2.725375</ele>
        <time>2026-07-15T10:32:00.000Z</time>
      </trkpt>
      <trkpt lat="45.75474" lon="13.47803">
        <ele>2.870457</ele>
        <time>2026-07-15T10:32:02.000Z</time>
      </trkpt>
      <trkpt lat="45.75491" lon="13.47813">
        <ele>3.49484</ele>
        <time>2026-07-15T10:32:09.000Z</time>
      </trkpt>
      <trkpt lat="45.75493" lon="13.47812">
        <ele>3.554737</ele>
        <time>2026-07-15T10:32:10.000Z</time>
      </trkpt>
      <trkpt lat="45.75495" lon="13.47808">
        <ele>3.690914</ele>
        <time>2026-07-15T10:32:12.000Z</time>
      </trkpt>
      <trkpt lat="45.75499" lon="13.478">
        <ele>3.903</ele>
        <time>2026-07-15T10:32:17.000Z</time>
      </trkpt>
      <trkpt lat="45.75498" lon="13.4781">
        <ele>4.128654</ele>
        <time>2026-07-15T10:32:24.000Z</time>
      </trkpt>
      <trkpt lat="45.75488" lon="13.47808">
        <ele>4.464022</ele>
        <time>2026-07-15T10:32:27.000Z</time>
      </trkpt>
      <trkpt lat="45.75463" lon="13.47795">
        <ele>5.339179</ele>
        <time>2026-07-15T10:32:33.000Z</time>
      </trkpt>
      <trkpt lat="45.7543" lon="13.47776">
        <ele>5.283546</ele>
        <time>2026-07-15T10:32:42.000Z</time>
      </trkpt>
      <trkpt lat="45.75405" lon="13.47763">
        <ele>4.935279</ele>
        <time>2026-07-15T10:32:48.000Z</time>
      </trkpt>
      <trkpt lat="45.7538" lon="13.47747">
        <ele>4.572808</ele>
        <time>2026-07-15T10:32:54.000Z</time>
      </trkpt>
      <trkpt lat="45.75373" lon="13.47743">
        <ele>4.465896</ele>
        <time>2026-07-15T10:32:56.000Z</time>
      </trkpt>
      <trkpt lat="45.75357" lon="13.47735">
        <ele>4.245246</ele>
        <time>2026-07-15T10:33:00.000Z</time>
      </trkpt>
      <trkpt lat="45.75344" lon="13.47726">
        <ele>4.057497</ele>
        <time>2026-07-15T10:33:03.000Z</time>
      </trkpt>
      <trkpt lat="45.7534" lon="13.47724">
        <ele>3.997627</ele>
        <time>2026-07-15T10:33:04.000Z</time>
      </trkpt>
      <trkpt lat="45.75336" lon="13.4772">
        <ele>3.936168</ele>
        <time>2026-07-15T10:33:05.000Z</time>
      </trkpt>
      <trkpt lat="45.75324" lon="13.47713">
        <ele>3.767334</ele>
        <time>2026-07-15T10:33:07.000Z</time>
      </trkpt>
      <trkpt lat="45.75308" lon="13.47708">
        <ele>3.552008</ele>
        <time>2026-07-15T10:33:11.000Z</time>
      </trkpt>
      <trkpt lat="45.75294" lon="13.477">
        <ele>3.359694</ele>
        <time>2026-07-15T10:33:14.000Z</time>
      </trkpt>
      <trkpt lat="45.75282" lon="13.47693">
        <ele>3.296972</ele>
        <time>2026-07-15T10:33:17.000Z</time>
      </trkpt>
      <trkpt lat="45.7525" lon="13.4768">
        <ele>3.508808</ele>
        <time>2026-07-15T10:33:25.000Z</time>
      </trkpt>
      <trkpt lat="45.75231" lon="13.47673">
        <ele>3.630913</ele>
        <time>2026-07-15T10:33:31.000Z</time>
      </trkpt>
      <trkpt lat="45.7523" lon="13.47672">
        <ele>3.639463</ele>
        <time>2026-07-15T10:33:32.000Z</time>
      </trkpt>
      <trkpt lat="45.75231" lon="13.47669">
        <ele>3.65266</ele>
        <time>2026-07-15T10:33:34.000Z</time>
      </trkpt>
      <trkpt lat="45.75235" lon="13.47671">
        <ele>3.6788</ele>
        <time>2026-07-15T10:33:36.000Z</time>
      </trkpt>
      <trkpt lat="45.75241" lon="13.47673">
        <ele>3.714018</ele>
        <time>2026-07-15T10:33:38.000Z</time>
      </trkpt>
      <trkpt lat="45.75255" lon="13.47672">
        <ele>3.801792</ele>
        <time>2026-07-15T10:33:43.000Z</time>
      </trkpt>
      <trkpt lat="45.75257" lon="13.4767">
        <ele>3.81597</ele>
        <time>2026-07-15T10:33:44.000Z</time>
      </trkpt>
      <trkpt lat="45.7526" lon="13.47663">
        <ele>3.854743</ele>
        <time>2026-07-15T10:33:47.000Z</time>
      </trkpt>
      <trkpt lat="45.75262" lon="13.47648">
        <ele>3.92132</ele>
        <time>2026-07-15T10:33:51.000Z</time>
      </trkpt>
      <trkpt lat="45.7526" lon="13.47645">
        <ele>3.936638</ele>
        <time>2026-07-15T10:33:52.000Z</time>
      </trkpt>
      <trkpt lat="45.75248" lon="13.47636">
        <ele>4.019406</ele>
        <time>2026-07-15T10:33:57.000Z</time>
      </trkpt>
      <trkpt lat="45.75226" lon="13.47623">
        <ele>4.17248</ele>
        <time>2026-07-15T10:34:04.000Z</time>
      </trkpt>
      <trkpt lat="45.75208" lon="13.47612">
        <ele>4.291896</ele>
        <time>2026-07-15T10:34:09.000Z</time>
      </trkpt>
      <trkpt lat="45.75197" lon="13.47607">
        <ele>4.364419</ele>
        <time>2026-07-15T10:34:12.000Z</time>
      </trkpt>
      <trkpt lat="45.75187" lon="13.47597">
        <ele>4.357448</ele>
        <time>2026-07-15T10:34:16.000Z</time>
      </trkpt>
      <trkpt lat="45.75186" lon="13.47593">
        <ele>4.34962</ele>
        <time>2026-07-15T10:34:17.000Z</time>
      </trkpt>
      <trkpt lat="45.75191" lon="13.47569">
        <ele>4.304689</ele>
        <time>2026-07-15T10:34:22.000Z</time>
      </trkpt>
      <trkpt lat="45.75202" lon="13.47521">
        <ele>4.21104</ele>
        <time>2026-07-15T10:34:31.000Z</time>
      </trkpt>
      <trkpt lat="45.75216" lon="13.47454">
        <ele>4.081533</ele>
        <time>2026-07-15T10:34:42.000Z</time>
      </trkpt>
      <trkpt lat="45.75227" lon="13.47404">
        <ele>3.984559</ele>
        <time>2026-07-15T10:34:50.000Z</time>
      </trkpt>
      <trkpt lat="45.75238" lon="13.47353">
        <ele>3.955665</ele>
        <time>2026-07-15T10:34:58.000Z</time>
      </trkpt>
      <trkpt lat="45.75251" lon="13.47297">
        <ele>4.222958</ele>
        <time>2026-07-15T10:35:07.000Z</time>
      </trkpt>
      <trkpt lat="45.75262" lon="13.47248">
        <ele>4.455262</ele>
        <time>2026-07-15T10:35:15.000Z</time>
      </trkpt>
      <trkpt lat="45.75272" lon="13.47205">
        <ele>4.663354</ele>
        <time>2026-07-15T10:35:22.000Z</time>
      </trkpt>
      <trkpt lat="45.75285" lon="13.47142">
        <ele>4.959144</ele>
        <time>2026-07-15T10:35:32.000Z</time>
      </trkpt>
      <trkpt lat="45.75289" lon="13.47124">
        <ele>5.047569</ele>
        <time>2026-07-15T10:35:35.000Z</time>
      </trkpt>
      <trkpt lat="45.75297" lon="13.47086">
        <ele>4.737924</ele>
        <time>2026-07-15T10:35:41.000Z</time>
      </trkpt>
      <trkpt lat="45.75301" lon="13.47076">
        <ele>4.616391</ele>
        <time>2026-07-15T10:35:43.000Z</time>
      </trkpt>
      <trkpt lat="45.75316" lon="13.47039">
        <ele>4.18402</ele>
        <time>2026-07-15T10:35:49.000Z</time>
      </trkpt>
      <trkpt lat="45.75335" lon="13.4699">
        <ele>3.605497</ele>
        <time>2026-07-15T10:35:56.000Z</time>
      </trkpt>
      <trkpt lat="45.75358" lon="13.46933">
        <ele>2.935971</ele>
        <time>2026-07-15T10:36:05.000Z</time>
      </trkpt>
      <trkpt lat="45.75379" lon="13.46883">
        <ele>2.365151</ele>
        <time>2026-07-15T10:36:13.000Z</time>
      </trkpt>
      <trkpt lat="45.75397" lon="13.46839">
        <ele>1.967604</ele>
        <time>2026-07-15T10:36:20.000Z</time>
      </trkpt>
      <trkpt lat="45.75422" lon="13.46781">
        <ele>1.448859</ele>
        <time>2026-07-15T10:36:29.000Z</time>
      </trkpt>
      <trkpt lat="45.75446" lon="13.46724">
        <ele>0.941689</ele>
        <time>2026-07-15T10:36:38.000Z</time>
      </trkpt>
      <trkpt lat="45.75468" lon="13.46673">
        <ele>0.481963</ele>
        <time>2026-07-15T10:36:46.000Z</time>
      </trkpt>
      <trkpt lat="45.75472" lon="13.46661">
        <ele>0.481408</ele>
        <time>2026-07-15T10:36:48.000Z</time>
      </trkpt>
      <trkpt lat="45.75475" lon="13.46644">
        <ele>0.51117</ele>
        <time>2026-07-15T10:36:51.000Z</time>
      </trkpt>
      <trkpt lat="45.75472" lon="13.46625">
        <ele>0.544904</ele>
        <time>2026-07-15T10:36:55.000Z</time>
      </trkpt>
      <trkpt lat="45.75467" lon="13.46617">
        <ele>0.56176</ele>
        <time>2026-07-15T10:36:57.000Z</time>
      </trkpt>
      <trkpt lat="45.75464" lon="13.46615">
        <ele>0.57065</ele>
        <time>2026-07-15T10:36:58.000Z</time>
      </trkpt>
      <trkpt lat="45.75449" lon="13.46607">
        <ele>0.609191</ele>
        <time>2026-07-15T10:37:02.000Z</time>
      </trkpt>
      <trkpt lat="45.75445" lon="13.46605">
        <ele>0.618801</ele>
        <time>2026-07-15T10:37:03.000Z</time>
      </trkpt>
      <trkpt lat="45.7543" lon="13.46598">
        <ele>0.656439</ele>
        <time>2026-07-15T10:37:07.000Z</time>
      </trkpt>
      <trkpt lat="45.75414" lon="13.4659">
        <ele>0.697422</ele>
        <time>2026-07-15T10:37:12.000Z</time>
      </trkpt>
      <trkpt lat="45.7541" lon="13.4659">
        <ele>0.706068</ele>
        <time>2026-07-15T10:37:13.000Z</time>
      </trkpt>
      <trkpt lat="45.75407" lon="13.46592">
        <ele>0.714607</ele>
        <time>2026-07-15T10:37:14.000Z</time>
      </trkpt>
      <trkpt lat="45.75401" lon="13.46603">
        <ele>0.736604</ele>
        <time>2026-07-15T10:37:16.000Z</time>
      </trkpt>
      <trkpt lat="45.75397" lon="13.46617">
        <ele>0.762581</ele>
        <time>2026-07-15T10:37:18.000Z</time>
      </trkpt>
      <trkpt lat="45.75383" lon="13.46663">
        <ele>0.846567</ele>
        <time>2026-07-15T10:37:24.000Z</time>
      </trkpt>
      <trkpt lat="45.75366" lon="13.46716">
        <ele>0.978032</ele>
        <time>2026-07-15T10:37:32.000Z</time>
      </trkpt>
      <trkpt lat="45.7535" lon="13.46758">
        <ele>1.10997</ele>
        <time>2026-07-15T10:37:39.000Z</time>
      </trkpt>
      <trkpt lat="45.75342" lon="13.46777">
        <ele>1.169009</ele>
        <time>2026-07-15T10:37:42.000Z</time>
      </trkpt>
      <trkpt lat="45.7532" lon="13.46834">
        <ele>1.350533</ele>
        <time>2026-07-15T10:37:51.000Z</time>
      </trkpt>
      <trkpt lat="45.75295" lon="13.46892">
        <ele>1.536737</ele>
        <time>2026-07-15T10:38:00.000Z</time>
      </trkpt>
      <trkpt lat="45.75272" lon="13.46948">
        <ele>1.672332</ele>
        <time>2026-07-15T10:38:09.000Z</time>
      </trkpt>
      <trkpt lat="45.75253" lon="13.46999">
        <ele>1.766079</ele>
        <time>2026-07-15T10:38:17.000Z</time>
      </trkpt>
      <trkpt lat="45.7523" lon="13.47065">
        <ele>1.884069</ele>
        <time>2026-07-15T10:38:27.000Z</time>
      </trkpt>
      <trkpt lat="45.75214" lon="13.47127">
        <ele>1.991717</ele>
        <time>2026-07-15T10:38:36.000Z</time>
      </trkpt>
      <trkpt lat="45.75197" lon="13.47207">
        <ele>1.999055</ele>
        <time>2026-07-15T10:38:47.000Z</time>
      </trkpt>
      <trkpt lat="45.75181" lon="13.47278">
        <ele>1.969936</ele>
        <time>2026-07-15T10:38:57.000Z</time>
      </trkpt>
      <trkpt lat="45.75166" lon="13.47351">
        <ele>1.939815</ele>
        <time>2026-07-15T10:39:07.000Z</time>
      </trkpt>
      <trkpt lat="45.75151" lon="13.47417">
        <ele>1.946619</ele>
        <time>2026-07-15T10:39:16.000Z</time>
      </trkpt>
      <trkpt lat="45.75134" lon="13.47491">
        <ele>2.017761</ele>
        <time>2026-07-15T10:39:26.000Z</time>
      </trkpt>
      <trkpt lat="45.7513" lon="13.47506">
        <ele>2.03228</ele>
        <time>2026-07-15T10:39:28.000Z</time>
      </trkpt>
      <trkpt lat="45.75109" lon="13.4758">
        <ele>2.104656</ele>
        <time>2026-07-15T10:39:38.000Z</time>
      </trkpt>
      <trkpt lat="45.75094" lon="13.4763">
        <ele>2.154075</ele>
        <time>2026-07-15T10:39:45.000Z</time>
      </trkpt>
      <trkpt lat="45.75074" lon="13.47682">
        <ele>2.299574</ele>
        <time>2026-07-15T10:39:53.000Z</time>
      </trkpt>
      <trkpt lat="45.75055" lon="13.47735">
        <ele>2.452349</ele>
        <time>2026-07-15T10:40:01.000Z</time>
      </trkpt>
      <trkpt lat="45.75042" lon="13.47767">
        <ele>2.547274</ele>
        <time>2026-07-15T10:40:06.000Z</time>
      </trkpt>
      <trkpt lat="45.7503" lon="13.47793">
        <ele>2.624405</ele>
        <time>2026-07-15T10:40:10.000Z</time>
      </trkpt>
      <trkpt lat="45.75024" lon="13.47805">
        <ele>2.663553</ele>
        <time>2026-07-15T10:40:12.000Z</time>
      </trkpt>
      <trkpt lat="45.75014" lon="13.47823">
        <ele>2.722864</ele>
        <time>2026-07-15T10:40:15.000Z</time>
      </trkpt>
      <trkpt lat="45.75002" lon="13.47849">
        <ele>2.801368</ele>
        <time>2026-07-15T10:40:19.000Z</time>
      </trkpt>
      <trkpt lat="45.74974" lon="13.47903">
        <ele>3.26499</ele>
        <time>2026-07-15T10:40:28.000Z</time>
      </trkpt>
      <trkpt lat="45.74939" lon="13.47971">
        <ele>3.875895</ele>
        <time>2026-07-15T10:40:39.000Z</time>
      </trkpt>
      <trkpt lat="45.74926" lon="13.47997">
        <ele>4.100542</ele>
        <time>2026-07-15T10:40:43.000Z</time>
      </trkpt>
      <trkpt lat="45.74903" lon="13.4804">
        <ele>4.492694</ele>
        <time>2026-07-15T10:40:50.000Z</time>
      </trkpt>
      <trkpt lat="45.74876" lon="13.48091">
        <ele>4.574525</ele>
        <time>2026-07-15T10:40:58.000Z</time>
      </trkpt>
      <trkpt lat="45.74858" lon="13.48122">
        <ele>4.473488</ele>
        <time>2026-07-15T10:41:03.000Z</time>
      </trkpt>
      <trkpt lat="45.74833" lon="13.48165">
        <ele>4.332371</ele>
        <time>2026-07-15T10:41:10.000Z</time>
      </trkpt>
      <trkpt lat="45.74818" lon="13.48189">
        <ele>4.250983</ele>
        <time>2026-07-15T10:41:14.000Z</time>
      </trkpt>
      <trkpt lat="45.74804" lon="13.48213">
        <ele>4.170724</ele>
        <time>2026-07-15T10:41:18.000Z</time>
      </trkpt>
      <trkpt lat="45.7479" lon="13.48238">
        <ele>4.088932</ele>
        <time>2026-07-15T10:41:22.000Z</time>
      </trkpt>
      <trkpt lat="45.74758" lon="13.48292">
        <ele>4.001846</ele>
        <time>2026-07-15T10:41:31.000Z</time>
      </trkpt>
      <trkpt lat="45.74751" lon="13.48302">
        <ele>3.99544</ele>
        <time>2026-07-15T10:41:33.000Z</time>
      </trkpt>
      <trkpt lat="45.74734" lon="13.48331">
        <ele>3.977683</ele>
        <time>2026-07-15T10:41:39.000Z</time>
      </trkpt>
      <trkpt lat="45.74729" lon="13.4834">
        <ele>3.972225</ele>
        <time>2026-07-15T10:41:41.000Z</time>
      </trkpt>
      <trkpt lat="45.74726" lon="13.48344">
        <ele>3.969583</ele>
        <time>2026-07-15T10:41:42.000Z</time>
      </trkpt>
      <trkpt lat="45.74713" lon="13.48367">
        <ele>3.956007</ele>
        <time>2026-07-15T10:41:47.000Z</time>
      </trkpt>
      <trkpt lat="45.74688" lon="13.48408">
        <ele>3.930577</ele>
        <time>2026-07-15T10:41:56.000Z</time>
      </trkpt>
      <trkpt lat="45.74686" lon="13.48413">
        <ele>3.927948</ele>
        <time>2026-07-15T10:41:57.000Z</time>
      </trkpt>
      <trkpt lat="45.74681" lon="13.48422">
        <ele>3.922841</ele>
        <time>2026-07-15T10:41:59.000Z</time>
      </trkpt>
      <trkpt lat="45.74673" lon="13.48433">
        <ele>3.915349</ele>
        <time>2026-07-15T10:42:02.000Z</time>
      </trkpt>
      <trkpt lat="45.74647" lon="13.48465">
        <ele>3.97885</ele>
        <time>2026-07-15T10:42:10.000Z</time>
      </trkpt>
      <trkpt lat="45.74644" lon="13.4847">
        <ele>4.001797</ele>
        <time>2026-07-15T10:42:11.000Z</time>
      </trkpt>
      <trkpt lat="45.74615" lon="13.48504">
        <ele>4.188591</ele>
        <time>2026-07-15T10:42:19.000Z</time>
      </trkpt>
      <trkpt lat="45.74592" lon="13.48533">
        <ele>4.343873</ele>
        <time>2026-07-15T10:42:26.000Z</time>
      </trkpt>
      <trkpt lat="45.74589" lon="13.48537">
        <ele>4.36485</ele>
        <time>2026-07-15T10:42:27.000Z</time>
      </trkpt>
      <trkpt lat="45.74572" lon="13.48556">
        <ele>4.471601</ele>
        <time>2026-07-15T10:42:32.000Z</time>
      </trkpt>
      <trkpt lat="45.74545" lon="13.48592">
        <ele>4.659307</ele>
        <time>2026-07-15T10:42:40.000Z</time>
      </trkpt>
      <trkpt lat="45.74503" lon="13.48643">
        <ele>4.937075</ele>
        <time>2026-07-15T10:42:52.000Z</time>
      </trkpt>
      <trkpt lat="45.74478" lon="13.48675">
        <ele>5.113471</ele>
        <time>2026-07-15T10:43:00.000Z</time>
      </trkpt>
      <trkpt lat="45.74448" lon="13.4871">
        <ele>5.311978</ele>
        <time>2026-07-15T10:43:08.000Z</time>
      </trkpt>
      <trkpt lat="45.74413" lon="13.48753">
        <ele>5.550406</ele>
        <time>2026-07-15T10:43:17.000Z</time>
      </trkpt>
      <trkpt lat="45.74368" lon="13.48808">
        <ele>5.723269</ele>
        <time>2026-07-15T10:43:28.000Z</time>
      </trkpt>
      <trkpt lat="45.74364" lon="13.48813">
        <ele>5.719689</ele>
        <time>2026-07-15T10:43:29.000Z</time>
      </trkpt>
      <trkpt lat="45.74338" lon="13.48842">
        <ele>5.698351</ele>
        <time>2026-07-15T10:43:35.000Z</time>
      </trkpt>
      <trkpt lat="45.74317" lon="13.48867">
        <ele>5.680623</ele>
        <time>2026-07-15T10:43:40.000Z</time>
      </trkpt>
      <trkpt lat="45.74276" lon="13.48918">
        <ele>5.645147</ele>
        <time>2026-07-15T10:43:50.000Z</time>
      </trkpt>
      <trkpt lat="45.74272" lon="13.48923">
        <ele>5.641535</ele>
        <time>2026-07-15T10:43:51.000Z</time>
      </trkpt>
      <trkpt lat="45.74241" lon="13.4896">
        <ele>5.656561</ele>
        <time>2026-07-15T10:43:58.000Z</time>
      </trkpt>
      <trkpt lat="45.74205" lon="13.49006">
        <ele>5.861387</ele>
        <time>2026-07-15T10:44:07.000Z</time>
      </trkpt>
      <trkpt lat="45.74163" lon="13.49058">
        <ele>6.092274</ele>
        <time>2026-07-15T10:44:17.000Z</time>
      </trkpt>
      <trkpt lat="45.74155" lon="13.49068">
        <ele>6.137742</ele>
        <time>2026-07-15T10:44:19.000Z</time>
      </trkpt>
      <trkpt lat="45.74111" lon="13.49124">
        <ele>6.349294</ele>
        <time>2026-07-15T10:44:30.000Z</time>
      </trkpt>
      <trkpt lat="45.74073" lon="13.49168">
        <ele>5.806216</ele>
        <time>2026-07-15T10:44:39.000Z</time>
      </trkpt>
      <trkpt lat="45.74034" lon="13.49208">
        <ele>5.263566</ele>
        <time>2026-07-15T10:44:48.000Z</time>
      </trkpt>
      <trkpt lat="45.73987" lon="13.49249">
        <ele>4.655242</ele>
        <time>2026-07-15T10:44:58.000Z</time>
      </trkpt>
      <trkpt lat="45.73944" lon="13.49285">
        <ele>4.177357</ele>
        <time>2026-07-15T10:45:07.000Z</time>
      </trkpt>
      <trkpt lat="45.73898" lon="13.49327">
        <ele>3.743338</ele>
        <time>2026-07-15T10:45:17.000Z</time>
      </trkpt>
      <trkpt lat="45.73864" lon="13.49354">
        <ele>3.441136</ele>
        <time>2026-07-15T10:45:24.000Z</time>
      </trkpt>
      <trkpt lat="45.7383" lon="13.49381">
        <ele>3.135609</ele>
        <time>2026-07-15T10:45:31.000Z</time>
      </trkpt>
      <trkpt lat="45.73826" lon="13.49384">
        <ele>3.091642</ele>
        <time>2026-07-15T10:45:32.000Z</time>
      </trkpt>
      <trkpt lat="45.73782" lon="13.4942">
        <ele>2.879645</ele>
        <time>2026-07-15T10:45:41.000Z</time>
      </trkpt>
      <trkpt lat="45.73762" lon="13.49435">
        <ele>2.834515</ele>
        <time>2026-07-15T10:45:45.000Z</time>
      </trkpt>
      <trkpt lat="45.73757" lon="13.49439">
        <ele>2.823105</ele>
        <time>2026-07-15T10:45:46.000Z</time>
      </trkpt>
      <trkpt lat="45.73708" lon="13.49477">
        <ele>2.708149</ele>
        <time>2026-07-15T10:45:56.000Z</time>
      </trkpt>
      <trkpt lat="45.73703" lon="13.49481">
        <ele>2.696806</ele>
        <time>2026-07-15T10:45:57.000Z</time>
      </trkpt>
      <trkpt lat="45.73655" lon="13.49519">
        <ele>2.584263</ele>
        <time>2026-07-15T10:46:07.000Z</time>
      </trkpt>
      <trkpt lat="45.73635" lon="13.49534">
        <ele>2.694627</ele>
        <time>2026-07-15T10:46:11.000Z</time>
      </trkpt>
      <trkpt lat="45.73586" lon="13.49572">
        <ele>3.052943</ele>
        <time>2026-07-15T10:46:21.000Z</time>
      </trkpt>
      <trkpt lat="45.73576" lon="13.4958">
        <ele>3.119822</ele>
        <time>2026-07-15T10:46:23.000Z</time>
      </trkpt>
      <trkpt lat="45.73528" lon="13.49618">
        <ele>3.473412</ele>
        <time>2026-07-15T10:46:33.000Z</time>
      </trkpt>
      <trkpt lat="45.73488" lon="13.4965">
        <ele>3.760861</ele>
        <time>2026-07-15T10:46:41.000Z</time>
      </trkpt>
      <trkpt lat="45.73456" lon="13.4968">
        <ele>4.006197</ele>
        <time>2026-07-15T10:46:48.000Z</time>
      </trkpt>
      <trkpt lat="45.7344" lon="13.497">
        <ele>4.144501</ele>
        <time>2026-07-15T10:46:53.000Z</time>
      </trkpt>
      <trkpt lat="45.73417" lon="13.49726">
        <ele>4.330978</ele>
        <time>2026-07-15T10:47:00.000Z</time>
      </trkpt>
      <trkpt lat="45.73408" lon="13.49741">
        <ele>4.423624</ele>
        <time>2026-07-15T10:47:03.000Z</time>
      </trkpt>
      <trkpt lat="45.73402" lon="13.49754">
        <ele>4.490926</ele>
        <time>2026-07-15T10:47:05.000Z</time>
      </trkpt>
      <trkpt lat="45.73389" lon="13.49786">
        <ele>4.659082</ele>
        <time>2026-07-15T10:47:10.000Z</time>
      </trkpt>
      <trkpt lat="45.73384" lon="13.49801">
        <ele>4.730775</ele>
        <time>2026-07-15T10:47:12.000Z</time>
      </trkpt>
      <trkpt lat="45.73372" lon="13.49859">
        <ele>4.908969</ele>
        <time>2026-07-15T10:47:20.000Z</time>
      </trkpt>
      <trkpt lat="45.73368" lon="13.49905">
        <ele>4.96312</ele>
        <time>2026-07-15T10:47:26.000Z</time>
      </trkpt>
      <trkpt lat="45.73372" lon="13.49975">
        <ele>5.045548</ele>
        <time>2026-07-15T10:47:35.000Z</time>
      </trkpt>
      <trkpt lat="45.73379" lon="13.50018">
        <ele>5.097597</ele>
        <time>2026-07-15T10:47:41.000Z</time>
      </trkpt>
      <trkpt lat="45.7338" lon="13.50025">
        <ele>5.106285</ele>
        <time>2026-07-15T10:47:42.000Z</time>
      </trkpt>
      <trkpt lat="45.73393" lon="13.50103">
        <ele>5.162739</ele>
        <time>2026-07-15T10:47:53.000Z</time>
      </trkpt>
      <trkpt lat="45.734" lon="13.50122">
        <ele>5.145391</ele>
        <time>2026-07-15T10:47:56.000Z</time>
      </trkpt>
      <trkpt lat="45.73411" lon="13.5014">
        <ele>5.127441</ele>
        <time>2026-07-15T10:47:59.000Z</time>
      </trkpt>
      <trkpt lat="45.73419" lon="13.50151">
        <ele>5.114925</ele>
        <time>2026-07-15T10:48:01.000Z</time>
      </trkpt>
      <trkpt lat="45.73436" lon="13.50167">
        <ele>5.091242</ele>
        <time>2026-07-15T10:48:05.000Z</time>
      </trkpt>
      <trkpt lat="45.73482" lon="13.50208">
        <ele>5.030814</ele>
        <time>2026-07-15T10:48:15.000Z</time>
      </trkpt>
      <trkpt lat="45.73517" lon="13.50242">
        <ele>4.982455</ele>
        <time>2026-07-15T10:48:23.000Z</time>
      </trkpt>
      <trkpt lat="45.73547" lon="13.50287">
        <ele>5.192319</ele>
        <time>2026-07-15T10:48:32.000Z</time>
      </trkpt>
      <trkpt lat="45.7356" lon="13.50312">
        <ele>5.325936</ele>
        <time>2026-07-15T10:48:37.000Z</time>
      </trkpt>
      <trkpt lat="45.73569" lon="13.50329">
        <ele>5.411979</ele>
        <time>2026-07-15T10:48:40.000Z</time>
      </trkpt>
      <trkpt lat="45.73591" lon="13.50374">
        <ele>5.646645</ele>
        <time>2026-07-15T10:48:48.000Z</time>
      </trkpt>
      <trkpt lat="45.73617" lon="13.50427">
        <ele>5.916728</ele>
        <time>2026-07-15T10:48:57.000Z</time>
      </trkpt>
      <trkpt lat="45.73647" lon="13.50491">
        <ele>6.02643</ele>
        <time>2026-07-15T10:49:08.000Z</time>
      </trkpt>
      <trkpt lat="45.73651" lon="13.50504">
        <ele>6.017181</ele>
        <time>2026-07-15T10:49:10.000Z</time>
      </trkpt>
      <trkpt lat="45.73658" lon="13.50537">
        <ele>5.99338</ele>
        <time>2026-07-15T10:49:15.000Z</time>
      </trkpt>
      <trkpt lat="45.73669" lon="13.50602">
        <ele>5.947689</ele>
        <time>2026-07-15T10:49:25.000Z</time>
      </trkpt>
      <trkpt lat="45.73678" lon="13.50656">
        <ele>5.909871</ele>
        <time>2026-07-15T10:49:33.000Z</time>
      </trkpt>
      <trkpt lat="45.7368" lon="13.50706">
        <ele>5.847607</ele>
        <time>2026-07-15T10:49:40.000Z</time>
      </trkpt>
      <trkpt lat="45.73674" lon="13.50772">
        <ele>5.559818</ele>
        <time>2026-07-15T10:49:49.000Z</time>
      </trkpt>
      <trkpt lat="45.73668" lon="13.50838">
        <ele>5.267526</ele>
        <time>2026-07-15T10:49:58.000Z</time>
      </trkpt>
      <trkpt lat="45.73659" lon="13.50911">
        <ele>4.944049</ele>
        <time>2026-07-15T10:50:08.000Z</time>
      </trkpt>
      <trkpt lat="45.73652" lon="13.50984">
        <ele>4.913005</ele>
        <time>2026-07-15T10:50:18.000Z</time>
      </trkpt>
      <trkpt lat="45.73646" lon="13.51045">
        <ele>5.231742</ele>
        <time>2026-07-15T10:50:26.000Z</time>
      </trkpt>
      <trkpt lat="45.73638" lon="13.51107">
        <ele>5.552942</ele>
        <time>2026-07-15T10:50:34.000Z</time>
      </trkpt>
      <trkpt lat="45.73631" lon="13.51185">
        <ele>5.962959</ele>
        <time>2026-07-15T10:50:44.000Z</time>
      </trkpt>
      <trkpt lat="45.73626" lon="13.51237">
        <ele>6.171712</ele>
        <time>2026-07-15T10:50:51.000Z</time>
      </trkpt>
      <trkpt lat="45.73621" lon="13.51291">
        <ele>6.334514</ele>
        <time>2026-07-15T10:50:58.000Z</time>
      </trkpt>
      <trkpt lat="45.73608" lon="13.51369">
        <ele>6.578802</ele>
        <time>2026-07-15T10:51:08.000Z</time>
      </trkpt>
      <trkpt lat="45.73589" lon="13.51447">
        <ele>6.826581</ele>
        <time>2026-07-15T10:51:18.000Z</time>
      </trkpt>
      <trkpt lat="45.73583" lon="13.51469">
        <ele>6.902361</ele>
        <time>2026-07-15T10:51:21.000Z</time>
      </trkpt>
      <trkpt lat="45.73564" lon="13.51534">
        <ele>7.141437</ele>
        <time>2026-07-15T10:51:30.000Z</time>
      </trkpt>
      <trkpt lat="45.7354" lon="13.51607">
        <ele>7.412977</ele>
        <time>2026-07-15T10:51:40.000Z</time>
      </trkpt>
      <trkpt lat="45.73538" lon="13.51614">
        <ele>7.439825</ele>
        <time>2026-07-15T10:51:41.000Z</time>
      </trkpt>
      <trkpt lat="45.73516" lon="13.51677">
        <ele>7.677732</ele>
        <time>2026-07-15T10:51:50.000Z</time>
      </trkpt>
      <trkpt lat="45.73485" lon="13.51749">
        <ele>7.261381</ele>
        <time>2026-07-15T10:52:01.000Z</time>
      </trkpt>
      <trkpt lat="45.73462" lon="13.51806">
        <ele>6.803876</ele>
        <time>2026-07-15T10:52:09.000Z</time>
      </trkpt>
      <trkpt lat="45.73445" lon="13.51848">
        <ele>6.465777</ele>
        <time>2026-07-15T10:52:15.000Z</time>
      </trkpt>
      <trkpt lat="45.73437" lon="13.51869">
        <ele>6.296947</ele>
        <time>2026-07-15T10:52:18.000Z</time>
      </trkpt>
      <trkpt lat="45.73408" lon="13.51937">
        <ele>5.905091</ele>
        <time>2026-07-15T10:52:28.000Z</time>
      </trkpt>
      <trkpt lat="45.73397" lon="13.51963">
        <ele>5.866004</ele>
        <time>2026-07-15T10:52:32.000Z</time>
      </trkpt>
      <trkpt lat="45.73388" lon="13.51982">
        <ele>5.837055</ele>
        <time>2026-07-15T10:52:35.000Z</time>
      </trkpt>
      <trkpt lat="45.73363" lon="13.52033">
        <ele>5.75735</ele>
        <time>2026-07-15T10:52:43.000Z</time>
      </trkpt>
      <trkpt lat="45.73358" lon="13.52047">
        <ele>5.737034</ele>
        <time>2026-07-15T10:52:45.000Z</time>
      </trkpt>
      <trkpt lat="45.73332" lon="13.52101">
        <ele>5.653533</ele>
        <time>2026-07-15T10:52:53.000Z</time>
      </trkpt>
      <trkpt lat="45.73317" lon="13.52134">
        <ele>5.587527</ele>
        <time>2026-07-15T10:52:58.000Z</time>
      </trkpt>
      <trkpt lat="45.73295" lon="13.52181">
        <ele>5.403941</ele>
        <time>2026-07-15T10:53:05.000Z</time>
      </trkpt>
      <trkpt lat="45.73265" lon="13.52247">
        <ele>5.142569</ele>
        <time>2026-07-15T10:53:15.000Z</time>
      </trkpt>
      <trkpt lat="45.73235" lon="13.52314">
        <ele>4.8835</ele>
        <time>2026-07-15T10:53:25.000Z</time>
      </trkpt>
      <trkpt lat="45.73232" lon="13.5232">
        <ele>4.857299</ele>
        <time>2026-07-15T10:53:26.000Z</time>
      </trkpt>
      <trkpt lat="45.73205" lon="13.52389">
        <ele>4.69309</ele>
        <time>2026-07-15T10:53:36.000Z</time>
      </trkpt>
      <trkpt lat="45.732" lon="13.52403">
        <ele>4.670631</ele>
        <time>2026-07-15T10:53:38.000Z</time>
      </trkpt>
      <trkpt lat="45.73176" lon="13.52476">
        <ele>4.558851</ele>
        <time>2026-07-15T10:53:48.000Z</time>
      </trkpt>
      <trkpt lat="45.73171" lon="13.5249">
        <ele>4.536487</ele>
        <time>2026-07-15T10:53:50.000Z</time>
      </trkpt>
      <trkpt lat="45.73146" lon="13.52553">
        <ele>4.436299</ele>
        <time>2026-07-15T10:53:59.000Z</time>
      </trkpt>
      <trkpt lat="45.73125" lon="13.5262">
        <ele>4.555875</ele>
        <time>2026-07-15T10:54:08.000Z</time>
      </trkpt>
      <trkpt lat="45.73125" lon="13.52628">
        <ele>4.579784</ele>
        <time>2026-07-15T10:54:09.000Z</time>
      </trkpt>
      <trkpt lat="45.73125" lon="13.52636">
        <ele>4.603805</ele>
        <time>2026-07-15T10:54:10.000Z</time>
      </trkpt>
      <trkpt lat="45.73128" lon="13.52669">
        <ele>4.702497</ele>
        <time>2026-07-15T10:54:14.000Z</time>
      </trkpt>
      <trkpt lat="45.73141" lon="13.5274">
        <ele>4.917947</ele>
        <time>2026-07-15T10:54:23.000Z</time>
      </trkpt>
      <trkpt lat="45.73143" lon="13.52764">
        <ele>4.989971</ele>
        <time>2026-07-15T10:54:26.000Z</time>
      </trkpt>
      <trkpt lat="45.73142" lon="13.5278">
        <ele>5.037313</ele>
        <time>2026-07-15T10:54:28.000Z</time>
      </trkpt>
      <trkpt lat="45.73141" lon="13.52787">
        <ele>5.061253</ele>
        <time>2026-07-15T10:54:29.000Z</time>
      </trkpt>
      <trkpt lat="45.7312" lon="13.52851">
        <ele>5.007204</ele>
        <time>2026-07-15T10:54:38.000Z</time>
      </trkpt>
      <trkpt lat="45.73097" lon="13.52922">
        <ele>4.629653</ele>
        <time>2026-07-15T10:54:48.000Z</time>
      </trkpt>
      <trkpt lat="45.73094" lon="13.52929">
        <ele>4.590672</ele>
        <time>2026-07-15T10:54:49.000Z</time>
      </trkpt>
      <trkpt lat="45.73072" lon="13.53">
        <ele>4.216895</ele>
        <time>2026-07-15T10:54:59.000Z</time>
      </trkpt>
      <trkpt lat="45.73067" lon="13.53014">
        <ele>4.142186</ele>
        <time>2026-07-15T10:55:01.000Z</time>
      </trkpt>
      <trkpt lat="45.73044" lon="13.53084">
        <ele>3.689368</ele>
        <time>2026-07-15T10:55:11.000Z</time>
      </trkpt>
      <trkpt lat="45.73042" lon="13.53091">
        <ele>3.634158</ele>
        <time>2026-07-15T10:55:12.000Z</time>
      </trkpt>
      <trkpt lat="45.73021" lon="13.53154">
        <ele>3.125711</ele>
        <time>2026-07-15T10:55:21.000Z</time>
      </trkpt>
      <trkpt lat="45.73001" lon="13.53217">
        <ele>2.624478</ele>
        <time>2026-07-15T10:55:30.000Z</time>
      </trkpt>
      <trkpt lat="45.72983" lon="13.53274">
        <ele>2.168573</ele>
        <time>2026-07-15T10:55:38.000Z</time>
      </trkpt>
      <trkpt lat="45.72959" lon="13.53346">
        <ele>2.18494</ele>
        <time>2026-07-15T10:55:48.000Z</time>
      </trkpt>
      <trkpt lat="45.72957" lon="13.53353">
        <ele>2.19963</ele>
        <time>2026-07-15T10:55:49.000Z</time>
      </trkpt>
      <trkpt lat="45.72941" lon="13.53403">
        <ele>2.302903</ele>
        <time>2026-07-15T10:55:56.000Z</time>
      </trkpt>
      <trkpt lat="45.72921" lon="13.53467">
        <ele>2.436128</ele>
        <time>2026-07-15T10:56:05.000Z</time>
      </trkpt>
      <trkpt lat="45.72905" lon="13.53509">
        <ele>2.527313</ele>
        <time>2026-07-15T10:56:11.000Z</time>
      </trkpt>
      <trkpt lat="45.72901" lon="13.53515">
        <ele>2.54155</ele>
        <time>2026-07-15T10:56:12.000Z</time>
      </trkpt>
      <trkpt lat="45.72897" lon="13.53519">
        <ele>2.590394</ele>
        <time>2026-07-15T10:56:13.000Z</time>
      </trkpt>
      <trkpt lat="45.72882" lon="13.53528">
        <ele>2.906574</ele>
        <time>2026-07-15T10:56:16.000Z</time>
      </trkpt>
      <trkpt lat="45.72838" lon="13.53552">
        <ele>3.804307</ele>
        <time>2026-07-15T10:56:25.000Z</time>
      </trkpt>
      <trkpt lat="45.72821" lon="13.53563">
        <ele>4.152553</ele>
        <time>2026-07-15T10:56:29.000Z</time>
      </trkpt>
      <trkpt lat="45.72818" lon="13.53566">
        <ele>4.225851</ele>
        <time>2026-07-15T10:56:30.000Z</time>
      </trkpt>
      <trkpt lat="45.72817" lon="13.5357">
        <ele>4.285411</ele>
        <time>2026-07-15T10:56:31.000Z</time>
      </trkpt>
      <trkpt lat="45.72817" lon="13.53578">
        <ele>4.392571</ele>
        <time>2026-07-15T10:56:33.000Z</time>
      </trkpt>
      <trkpt lat="45.72818" lon="13.53587">
        <ele>4.50655</ele>
        <time>2026-07-15T10:56:37.000Z</time>
      </trkpt>
      <trkpt lat="45.72818" lon="13.53587">
        <ele>4.507887</ele>
        <time>2026-07-15T10:56:38.000Z</time>
      </trkpt>
      <trkpt lat="45.72815" lon="13.53596">
        <ele>4.635703</ele>
        <time>2026-07-15T10:57:04.000Z</time>
      </trkpt>
      <trkpt lat="45.72815" lon="13.53597">
        <ele>4.654527</ele>
        <time>2026-07-15T10:57:05.000Z</time>
      </trkpt>
      <trkpt lat="45.72815" lon="13.53599">
        <ele>4.676014</ele>
        <time>2026-07-15T10:57:06.000Z</time>
      </trkpt>
      <trkpt lat="45.72815" lon="13.5364">
        <ele>5.232446</ele>
        <time>2026-07-15T10:57:46.000Z</time>
      </trkpt>
      <trkpt lat="45.72815" lon="13.53642">
        <ele>5.255505</ele>
        <time>2026-07-15T10:57:47.000Z</time>
      </trkpt>
      <trkpt lat="45.72817" lon="13.53646">
        <ele>5.322207</ele>
        <time>2026-07-15T10:57:50.000Z</time>
      </trkpt>
      <trkpt lat="45.72817" lon="13.53647">
        <ele>5.333304</ele>
        <time>2026-07-15T10:57:51.000Z</time>
      </trkpt>
      <trkpt lat="45.72818" lon="13.53648">
        <ele>5.355251</ele>
        <time>2026-07-15T10:57:54.000Z</time>
      </trkpt>
      <trkpt lat="45.72814" lon="13.5363">
        <ele>5.600883</ele>
        <time>2026-07-15T10:59:36.000Z</time>
      </trkpt>
      <trkpt lat="45.72814" lon="13.53628">
        <ele>5.630558</ele>
        <time>2026-07-15T10:59:37.000Z</time>
      </trkpt>
      <trkpt lat="45.72815" lon="13.53623">
        <ele>5.706654</ele>
        <time>2026-07-15T10:59:40.000Z</time>
      </trkpt>
      <trkpt lat="45.72816" lon="13.53618">
        <ele>5.775094</ele>
        <time>2026-07-15T10:59:43.000Z</time>
      </trkpt>
      <trkpt lat="45.72818" lon="13.53616">
        <ele>5.816928</ele>
        <time>2026-07-15T10:59:45.000Z</time>
      </trkpt>
      <trkpt lat="45.72819" lon="13.53616">
        <ele>5.840077</ele>
        <time>2026-07-15T10:59:47.000Z</time>
      </trkpt>
      <trkpt lat="45.72821" lon="13.53618">
        <ele>5.889069</ele>
        <time>2026-07-15T10:59:49.000Z</time>
      </trkpt>
      <trkpt lat="45.72824" lon="13.5362">
        <ele>5.953243</ele>
        <time>2026-07-15T10:59:52.000Z</time>
      </trkpt>
      <trkpt lat="45.72824" lon="13.53619">
        <ele>5.9602</ele>
        <time>2026-07-15T10:59:53.000Z</time>
      </trkpt>
      <trkpt lat="45.72839" lon="13.53619">
        <ele>5.926685</ele>
        <time>2026-07-15T11:07:37.000Z</time>
      </trkpt>
      <trkpt lat="45.72839" lon="13.53619">
        <ele>5.926685</ele>
        <time>2026-07-15T11:07:39.000Z</time>
      </trkpt>
      <trkpt lat="45.72833" lon="13.53618">
        <ele>5.894767</ele>
        <time>2026-07-15T11:15:20.000Z</time>
      </trkpt>
      <trkpt lat="45.72833" lon="13.53618">
        <ele>5.894767</ele>
        <time>2026-07-15T11:15:22.000Z</time>
      </trkpt>
      <trkpt lat="45.72836" lon="13.53618">
        <ele>5.879443</ele>
        <time>2026-07-15T11:17:01.000Z</time>
      </trkpt>
      <trkpt lat="45.72836" lon="13.53618">
        <ele>5.878301</ele>
        <time>2026-07-15T11:17:02.000Z</time>
      </trkpt>
      <trkpt lat="45.72836" lon="13.53618">
        <ele>5.877643</ele>
        <time>2026-07-15T11:17:04.000Z</time>
      </trkpt>
      <trkpt lat="45.72834" lon="13.53618">
        <ele>5.866166</ele>
        <time>2026-07-15T11:43:49.000Z</time>
      </trkpt>
      <trkpt lat="45.72834" lon="13.53618">
        <ele>5.864382</ele>
        <time>2026-07-15T11:43:51.000Z</time>
      </trkpt>
      <trkpt lat="45.72834" lon="13.53618">
        <ele>5.864006</ele>
        <time>2026-07-15T11:43:52.000Z</time>
      </trkpt>
      <trkpt lat="45.72836" lon="13.53617">
        <ele>5.850809</ele>
        <time>2026-07-15T11:45:31.000Z</time>
      </trkpt>
      <trkpt lat="45.72836" lon="13.53617">
        <ele>5.850809</ele>
        <time>2026-07-15T11:45:33.000Z</time>
      </trkpt>
      <trkpt lat="45.72841" lon="13.53615">
        <ele>5.827472</ele>
        <time>2026-07-15T11:45:45.000Z</time>
      </trkpt>
      <trkpt lat="45.72841" lon="13.53616">
        <ele>5.825967</ele>
        <time>2026-07-15T11:45:47.000Z</time>
      </trkpt>
      <trkpt lat="45.72839" lon="13.53614">
        <ele>5.81591</ele>
        <time>2026-07-15T11:46:04.000Z</time>
      </trkpt>
      <trkpt lat="45.72839" lon="13.53614">
        <ele>5.813721</ele>
        <time>2026-07-15T11:46:08.000Z</time>
      </trkpt>
      <trkpt lat="45.72844" lon="13.53618">
        <ele>5.786869</ele>
        <time>2026-07-15T11:46:25.000Z</time>
      </trkpt>
      <trkpt lat="45.72847" lon="13.53617">
        <ele>5.767761</ele>
        <time>2026-07-15T11:46:28.000Z</time>
      </trkpt>
      <trkpt lat="45.72848" lon="13.53613">
        <ele>5.752241</ele>
        <time>2026-07-15T11:46:31.000Z</time>
      </trkpt>
      <trkpt lat="45.7285" lon="13.53615">
        <ele>5.737557</ele>
        <time>2026-07-15T11:46:33.000Z</time>
      </trkpt>
      <trkpt lat="45.72847" lon="13.53614">
        <ele>5.720143</ele>
        <time>2026-07-15T11:46:34.000Z</time>
      </trkpt>
      <trkpt lat="45.72846" lon="13.53616">
        <ele>5.71013</ele>
        <time>2026-07-15T11:46:36.000Z</time>
      </trkpt>
      <trkpt lat="45.72849" lon="13.53618">
        <ele>5.692438</ele>
        <time>2026-07-15T11:46:37.000Z</time>
      </trkpt>
      <trkpt lat="45.72845" lon="13.53621">
        <ele>5.671162</ele>
        <time>2026-07-15T11:46:40.000Z</time>
      </trkpt>
      <trkpt lat="45.72845" lon="13.53621">
        <ele>5.671162</ele>
        <time>2026-07-15T11:46:42.000Z</time>
      </trkpt>
      <trkpt lat="45.7284" lon="13.53621">
        <ele>5.641357</ele>
        <time>2026-07-15T11:50:45.000Z</time>
      </trkpt>
      <trkpt lat="45.72839" lon="13.5362">
        <ele>5.636491</ele>
        <time>2026-07-15T11:50:47.000Z</time>
      </trkpt>
      <trkpt lat="45.72832" lon="13.53616">
        <ele>5.596263</ele>
        <time>2026-07-15T11:53:10.000Z</time>
      </trkpt>
      <trkpt lat="45.72831" lon="13.53615">
        <ele>5.591865</ele>
        <time>2026-07-15T11:53:29.000Z</time>
      </trkpt>
      <trkpt lat="45.72832" lon="13.53615">
        <ele>5.590248</ele>
        <time>2026-07-15T11:53:30.000Z</time>
      </trkpt>
      <trkpt lat="45.72831" lon="13.53616">
        <ele>5.586455</ele>
        <time>2026-07-15T11:53:31.000Z</time>
      </trkpt>
      <trkpt lat="45.72816" lon="13.53616">
        <ele>5.503946</ele>
        <time>2026-07-15T11:54:07.000Z</time>
      </trkpt>
      <trkpt lat="45.72816" lon="13.53618">
        <ele>5.496342</ele>
        <time>2026-07-15T11:54:09.000Z</time>
      </trkpt>
      <trkpt lat="45.72818" lon="13.53655">
        <ele>5.357505</ele>
        <time>2026-07-15T11:55:16.000Z</time>
      </trkpt>
      <trkpt lat="45.72818" lon="13.53657">
        <ele>5.349155</ele>
        <time>2026-07-15T11:55:17.000Z</time>
      </trkpt>
      <trkpt lat="45.72819" lon="13.53661">
        <ele>5.334763</ele>
        <time>2026-07-15T11:55:19.000Z</time>
      </trkpt>
      <trkpt lat="45.72819" lon="13.53661">
        <ele>5.332791</ele>
        <time>2026-07-15T11:55:21.000Z</time>
      </trkpt>
      <trkpt lat="45.72818" lon="13.53654">
        <ele>5.307206</ele>
        <time>2026-07-15T11:55:51.000Z</time>
      </trkpt>
      <trkpt lat="45.72817" lon="13.53652">
        <ele>5.298286</ele>
        <time>2026-07-15T11:55:52.000Z</time>
      </trkpt>
      <trkpt lat="45.72817" lon="13.53649">
        <ele>5.28623</ele>
        <time>2026-07-15T11:55:54.000Z</time>
      </trkpt>
      <trkpt lat="45.72817" lon="13.53648">
        <ele>5.280934</ele>
        <time>2026-07-15T11:55:55.000Z</time>
      </trkpt>
      <trkpt lat="45.72819" lon="13.53646">
        <ele>5.270622</ele>
        <time>2026-07-15T11:55:58.000Z</time>
      </trkpt>
      <trkpt lat="45.72813" lon="13.53639">
        <ele>5.229181</ele>
        <time>2026-07-15T11:59:10.000Z</time>
      </trkpt>
      <trkpt lat="45.72813" lon="13.53636">
        <ele>5.218055</ele>
        <time>2026-07-15T11:59:11.000Z</time>
      </trkpt>
      <trkpt lat="45.72816" lon="13.53615">
        <ele>5.134801</ele>
        <time>2026-07-15T11:59:16.000Z</time>
      </trkpt>
      <trkpt lat="45.72819" lon="13.5358">
        <ele>4.999267</ele>
        <time>2026-07-15T11:59:23.000Z</time>
      </trkpt>
      <trkpt lat="45.72817" lon="13.53572">
        <ele>4.955746</ele>
        <time>2026-07-15T11:59:27.000Z</time>
      </trkpt>
      <trkpt lat="45.72816" lon="13.5357">
        <ele>4.945162</ele>
        <time>2026-07-15T11:59:28.000Z</time>
      </trkpt>
      <trkpt lat="45.72804" lon="13.53561">
        <ele>4.856977</ele>
        <time>2026-07-15T11:59:33.000Z</time>
      </trkpt>
      <trkpt lat="45.72784" lon="13.53541">
        <ele>4.688186</ele>
        <time>2026-07-15T11:59:40.000Z</time>
      </trkpt>
      <trkpt lat="45.72754" lon="13.5351">
        <ele>4.434653</ele>
        <time>2026-07-15T11:59:50.000Z</time>
      </trkpt>
      <trkpt lat="45.72743" lon="13.535">
        <ele>4.346787</ele>
        <time>2026-07-15T11:59:53.000Z</time>
      </trkpt>
      <trkpt lat="45.72732" lon="13.53489">
        <ele>4.253373</ele>
        <time>2026-07-15T11:59:56.000Z</time>
      </trkpt>
      <trkpt lat="45.72728" lon="13.53485">
        <ele>4.222791</ele>
        <time>2026-07-15T11:59:57.000Z</time>
      </trkpt>
      <trkpt lat="45.72691" lon="13.53446">
        <ele>3.905595</ele>
        <time>2026-07-15T12:00:07.000Z</time>
      </trkpt>
      <trkpt lat="45.72658" lon="13.53413">
        <ele>3.648332</ele>
        <time>2026-07-15T12:00:16.000Z</time>
      </trkpt>
      <trkpt lat="45.72651" lon="13.53405">
        <ele>3.594405</ele>
        <time>2026-07-15T12:00:18.000Z</time>
      </trkpt>
      <trkpt lat="45.7263" lon="13.53383">
        <ele>3.43634</ele>
        <time>2026-07-15T12:00:24.000Z</time>
      </trkpt>
      <trkpt lat="45.726" lon="13.5335">
        <ele>3.202272</ele>
        <time>2026-07-15T12:00:32.000Z</time>
      </trkpt>
      <trkpt lat="45.72574" lon="13.53324">
        <ele>3.009984</ele>
        <time>2026-07-15T12:00:39.000Z</time>
      </trkpt>
      <trkpt lat="45.7256" lon="13.53309">
        <ele>2.904147</ele>
        <time>2026-07-15T12:00:43.000Z</time>
      </trkpt>
      <trkpt lat="45.7255" lon="13.53298">
        <ele>2.825295</ele>
        <time>2026-07-15T12:00:46.000Z</time>
      </trkpt>
      <trkpt lat="45.72546" lon="13.53294">
        <ele>2.798704</ele>
        <time>2026-07-15T12:00:47.000Z</time>
      </trkpt>
      <trkpt lat="45.72536" lon="13.53284">
        <ele>2.720388</ele>
        <time>2026-07-15T12:00:50.000Z</time>
      </trkpt>
      <trkpt lat="45.72519" lon="13.53267">
        <ele>2.611611</ele>
        <time>2026-07-15T12:00:55.000Z</time>
      </trkpt>
      <trkpt lat="45.72516" lon="13.53264">
        <ele>2.588439</ele>
        <time>2026-07-15T12:00:56.000Z</time>
      </trkpt>
      <trkpt lat="45.72488" lon="13.53235">
        <ele>2.406732</ele>
        <time>2026-07-15T12:01:04.000Z</time>
      </trkpt>
      <trkpt lat="45.72472" lon="13.53219">
        <ele>2.303022</ele>
        <time>2026-07-15T12:01:09.000Z</time>
      </trkpt>
      <trkpt lat="45.72458" lon="13.53205">
        <ele>2.214097</ele>
        <time>2026-07-15T12:01:13.000Z</time>
      </trkpt>
      <trkpt lat="45.72447" lon="13.53194">
        <ele>2.14357</ele>
        <time>2026-07-15T12:01:16.000Z</time>
      </trkpt>
      <trkpt lat="45.72425" lon="13.5317">
        <ele>1.999529</ele>
        <time>2026-07-15T12:01:22.000Z</time>
      </trkpt>
      <trkpt lat="45.72417" lon="13.53163">
        <ele>1.95088</ele>
        <time>2026-07-15T12:01:24.000Z</time>
      </trkpt>
      <trkpt lat="45.72395" lon="13.53138">
        <ele>1.7993</ele>
        <time>2026-07-15T12:01:30.000Z</time>
      </trkpt>
      <trkpt lat="45.72389" lon="13.53126">
        <ele>1.752879</ele>
        <time>2026-07-15T12:01:32.000Z</time>
      </trkpt>
      <trkpt lat="45.72369" lon="13.53076">
        <ele>2.00979</ele>
        <time>2026-07-15T12:01:40.000Z</time>
      </trkpt>
      <trkpt lat="45.72354" lon="13.53038">
        <ele>2.202222</ele>
        <time>2026-07-15T12:01:46.000Z</time>
      </trkpt>
      <trkpt lat="45.72347" lon="13.53019">
        <ele>2.300348</ele>
        <time>2026-07-15T12:01:49.000Z</time>
      </trkpt>
      <trkpt lat="45.72339" lon="13.53001">
        <ele>2.396734</ele>
        <time>2026-07-15T12:01:52.000Z</time>
      </trkpt>
      <trkpt lat="45.72324" lon="13.52962">
        <ele>2.594382</ele>
        <time>2026-07-15T12:01:58.000Z</time>
      </trkpt>
      <trkpt lat="45.72297" lon="13.52891">
        <ele>2.900916</ele>
        <time>2026-07-15T12:02:09.000Z</time>
      </trkpt>
      <trkpt lat="45.72275" lon="13.52832">
        <ele>2.920455</ele>
        <time>2026-07-15T12:02:18.000Z</time>
      </trkpt>
      <trkpt lat="45.7227" lon="13.5282">
        <ele>2.92463</ele>
        <time>2026-07-15T12:02:20.000Z</time>
      </trkpt>
      <trkpt lat="45.72248" lon="13.52763">
        <ele>2.943812</ele>
        <time>2026-07-15T12:02:29.000Z</time>
      </trkpt>
      <trkpt lat="45.72228" lon="13.5271">
        <ele>2.961293</ele>
        <time>2026-07-15T12:02:37.000Z</time>
      </trkpt>
      <trkpt lat="45.72225" lon="13.52704">
        <ele>2.963481</ele>
        <time>2026-07-15T12:02:38.000Z</time>
      </trkpt>
      <trkpt lat="45.72215" lon="13.52678">
        <ele>2.972245</ele>
        <time>2026-07-15T12:02:42.000Z</time>
      </trkpt>
      <trkpt lat="45.72208" lon="13.52658">
        <ele>3.124565</ele>
        <time>2026-07-15T12:02:45.000Z</time>
      </trkpt>
      <trkpt lat="45.72203" lon="13.52646">
        <ele>3.22939</ele>
        <time>2026-07-15T12:02:47.000Z</time>
      </trkpt>
      <trkpt lat="45.7218" lon="13.52587">
        <ele>3.717675</ele>
        <time>2026-07-15T12:02:56.000Z</time>
      </trkpt>
      <trkpt lat="45.72155" lon="13.52523">
        <ele>4.253508</ele>
        <time>2026-07-15T12:03:06.000Z</time>
      </trkpt>
      <trkpt lat="45.72133" lon="13.52463">
        <ele>4.753225</ele>
        <time>2026-07-15T12:03:15.000Z</time>
      </trkpt>
      <trkpt lat="45.72128" lon="13.5245">
        <ele>4.857674</ele>
        <time>2026-07-15T12:03:17.000Z</time>
      </trkpt>
      <trkpt lat="45.72125" lon="13.52443">
        <ele>4.850799</ele>
        <time>2026-07-15T12:03:18.000Z</time>
      </trkpt>
      <trkpt lat="45.72111" lon="13.52409">
        <ele>4.814917</ele>
        <time>2026-07-15T12:03:23.000Z</time>
      </trkpt>
      <trkpt lat="45.72109" lon="13.52402">
        <ele>4.807728</ele>
        <time>2026-07-15T12:03:24.000Z</time>
      </trkpt>
      <trkpt lat="45.72098" lon="13.52375">
        <ele>4.779158</ele>
        <time>2026-07-15T12:03:28.000Z</time>
      </trkpt>
      <trkpt lat="45.72087" lon="13.52347">
        <ele>4.750545</ele>
        <time>2026-07-15T12:03:32.000Z</time>
      </trkpt>
      <trkpt lat="45.72082" lon="13.52333">
        <ele>4.735588</ele>
        <time>2026-07-15T12:03:34.000Z</time>
      </trkpt>
      <trkpt lat="45.72059" lon="13.52276">
        <ele>4.676692</ele>
        <time>2026-07-15T12:03:42.000Z</time>
      </trkpt>
      <trkpt lat="45.72036" lon="13.52214">
        <ele>4.746052</ele>
        <time>2026-07-15T12:03:51.000Z</time>
      </trkpt>
      <trkpt lat="45.72011" lon="13.52152">
        <ele>5.373843</ele>
        <time>2026-07-15T12:04:00.000Z</time>
      </trkpt>
      <trkpt lat="45.71992" lon="13.52101">
        <ele>5.895658</ele>
        <time>2026-07-15T12:04:08.000Z</time>
      </trkpt>
      <trkpt lat="45.71967" lon="13.52039">
        <ele>6.525217</ele>
        <time>2026-07-15T12:04:18.000Z</time>
      </trkpt>
      <trkpt lat="45.71951" lon="13.51999">
        <ele>6.913718</ele>
        <time>2026-07-15T12:04:24.000Z</time>
      </trkpt>
      <trkpt lat="45.71946" lon="13.51985">
        <ele>6.914165</ele>
        <time>2026-07-15T12:04:26.000Z</time>
      </trkpt>
      <trkpt lat="45.71941" lon="13.51971">
        <ele>6.914614</ele>
        <time>2026-07-15T12:04:28.000Z</time>
      </trkpt>
      <trkpt lat="45.71938" lon="13.51964">
        <ele>6.914841</ele>
        <time>2026-07-15T12:04:29.000Z</time>
      </trkpt>
      <trkpt lat="45.71927" lon="13.51937">
        <ele>6.915702</ele>
        <time>2026-07-15T12:04:33.000Z</time>
      </trkpt>
      <trkpt lat="45.71917" lon="13.5191">
        <ele>6.916551</ele>
        <time>2026-07-15T12:04:37.000Z</time>
      </trkpt>
      <trkpt lat="45.71892" lon="13.51846">
        <ele>6.918623</ele>
        <time>2026-07-15T12:04:47.000Z</time>
      </trkpt>
      <trkpt lat="45.71887" lon="13.51833">
        <ele>6.919039</ele>
        <time>2026-07-15T12:04:49.000Z</time>
      </trkpt>
      <trkpt lat="45.71877" lon="13.51807">
        <ele>6.919881</ele>
        <time>2026-07-15T12:04:53.000Z</time>
      </trkpt>
      <trkpt lat="45.71872" lon="13.51794">
        <ele>6.920286</ele>
        <time>2026-07-15T12:04:55.000Z</time>
      </trkpt>
      <trkpt lat="45.71865" lon="13.51775">
        <ele>6.91631</ele>
        <time>2026-07-15T12:04:58.000Z</time>
      </trkpt>
      <trkpt lat="45.71837" lon="13.51702">
        <ele>6.406017</ele>
        <time>2026-07-15T12:05:09.000Z</time>
      </trkpt>
      <trkpt lat="45.71817" lon="13.51653">
        <ele>6.056121</ele>
        <time>2026-07-15T12:05:17.000Z</time>
      </trkpt>
      <trkpt lat="45.7179" lon="13.51583">
        <ele>5.561806</ele>
        <time>2026-07-15T12:05:27.000Z</time>
      </trkpt>
      <trkpt lat="45.71767" lon="13.51523">
        <ele>5.153149</ele>
        <time>2026-07-15T12:05:36.000Z</time>
      </trkpt>
      <trkpt lat="45.7174" lon="13.51454">
        <ele>4.684924</ele>
        <time>2026-07-15T12:05:46.000Z</time>
      </trkpt>
      <trkpt lat="45.71724" lon="13.51412">
        <ele>4.401719</ele>
        <time>2026-07-15T12:05:52.000Z</time>
      </trkpt>
      <trkpt lat="45.71713" lon="13.51384">
        <ele>4.210186</ele>
        <time>2026-07-15T12:05:56.000Z</time>
      </trkpt>
      <trkpt lat="45.71686" lon="13.51315">
        <ele>3.918075</ele>
        <time>2026-07-15T12:06:06.000Z</time>
      </trkpt>
      <trkpt lat="45.71684" lon="13.51308">
        <ele>3.983549</ele>
        <time>2026-07-15T12:06:07.000Z</time>
      </trkpt>
      <trkpt lat="45.71666" lon="13.51253">
        <ele>4.505223</ele>
        <time>2026-07-15T12:06:15.000Z</time>
      </trkpt>
      <trkpt lat="45.71655" lon="13.51216">
        <ele>4.846594</ele>
        <time>2026-07-15T12:06:20.000Z</time>
      </trkpt>
      <trkpt lat="45.71649" lon="13.51203">
        <ele>4.98107</ele>
        <time>2026-07-15T12:06:22.000Z</time>
      </trkpt>
      <trkpt lat="45.71645" lon="13.51197">
        <ele>5.048387</ele>
        <time>2026-07-15T12:06:23.000Z</time>
      </trkpt>
      <trkpt lat="45.71626" lon="13.51172">
        <ele>5.367213</ele>
        <time>2026-07-15T12:06:28.000Z</time>
      </trkpt>
      <trkpt lat="45.71605" lon="13.51139">
        <ele>5.74716</ele>
        <time>2026-07-15T12:06:34.000Z</time>
      </trkpt>
      <trkpt lat="45.71602" lon="13.51133">
        <ele>5.806224</ele>
        <time>2026-07-15T12:06:35.000Z</time>
      </trkpt>
      <trkpt lat="45.71596" lon="13.51115">
        <ele>5.982918</ele>
        <time>2026-07-15T12:06:38.000Z</time>
      </trkpt>
      <trkpt lat="45.71586" lon="13.51096">
        <ele>5.928669</ele>
        <time>2026-07-15T12:06:41.000Z</time>
      </trkpt>
      <trkpt lat="45.71583" lon="13.5109">
        <ele>5.892707</ele>
        <time>2026-07-15T12:06:42.000Z</time>
      </trkpt>
      <trkpt lat="45.71563" lon="13.51063">
        <ele>5.718392</ele>
        <time>2026-07-15T12:06:47.000Z</time>
      </trkpt>
      <trkpt lat="45.71559" lon="13.51058">
        <ele>5.683294</ele>
        <time>2026-07-15T12:06:48.000Z</time>
      </trkpt>
      <trkpt lat="45.71521" lon="13.51011">
        <ele>5.363277</ele>
        <time>2026-07-15T12:06:57.000Z</time>
      </trkpt>
      <trkpt lat="45.71486" lon="13.50968">
        <ele>5.072622</ele>
        <time>2026-07-15T12:07:05.000Z</time>
      </trkpt>
      <trkpt lat="45.71457" lon="13.50931">
        <ele>4.793783</ele>
        <time>2026-07-15T12:07:12.000Z</time>
      </trkpt>
      <trkpt lat="45.71416" lon="13.5088">
        <ele>4.219256</ele>
        <time>2026-07-15T12:07:22.000Z</time>
      </trkpt>
      <trkpt lat="45.71412" lon="13.50875">
        <ele>4.160166</ele>
        <time>2026-07-15T12:07:23.000Z</time>
      </trkpt>
      <trkpt lat="45.71371" lon="13.50822">
        <ele>3.582324</ele>
        <time>2026-07-15T12:07:33.000Z</time>
      </trkpt>
      <trkpt lat="45.71367" lon="13.50817">
        <ele>3.524998</ele>
        <time>2026-07-15T12:07:34.000Z</time>
      </trkpt>
      <trkpt lat="45.71351" lon="13.50796">
        <ele>3.296897</ele>
        <time>2026-07-15T12:07:38.000Z</time>
      </trkpt>
      <trkpt lat="45.71336" lon="13.50776">
        <ele>3.082555</ele>
        <time>2026-07-15T12:07:42.000Z</time>
      </trkpt>
      <trkpt lat="45.71295" lon="13.50725">
        <ele>2.757515</ele>
        <time>2026-07-15T12:07:52.000Z</time>
      </trkpt>
      <trkpt lat="45.71287" lon="13.50715">
        <ele>2.705382</ele>
        <time>2026-07-15T12:07:54.000Z</time>
      </trkpt>
      <trkpt lat="45.71281" lon="13.50702">
        <ele>2.652564</ele>
        <time>2026-07-15T12:07:56.000Z</time>
      </trkpt>
      <trkpt lat="45.71274" lon="13.50688">
        <ele>2.599454</ele>
        <time>2026-07-15T12:07:58.000Z</time>
      </trkpt>
      <trkpt lat="45.71248" lon="13.5062">
        <ele>2.33723</ele>
        <time>2026-07-15T12:08:08.000Z</time>
      </trkpt>
      <trkpt lat="45.71232" lon="13.50578">
        <ele>2.176427</ele>
        <time>2026-07-15T12:08:14.000Z</time>
      </trkpt>
      <trkpt lat="45.71224" lon="13.50556">
        <ele>2.126943</ele>
        <time>2026-07-15T12:08:17.000Z</time>
      </trkpt>
      <trkpt lat="45.71217" lon="13.50534">
        <ele>2.306271</ele>
        <time>2026-07-15T12:08:20.000Z</time>
      </trkpt>
      <trkpt lat="45.71214" lon="13.50527">
        <ele>2.36508</ele>
        <time>2026-07-15T12:08:21.000Z</time>
      </trkpt>
      <trkpt lat="45.71206" lon="13.50505">
        <ele>2.540254</ele>
        <time>2026-07-15T12:08:24.000Z</time>
      </trkpt>
      <trkpt lat="45.71184" lon="13.50442">
        <ele>3.053278</ele>
        <time>2026-07-15T12:08:33.000Z</time>
      </trkpt>
      <trkpt lat="45.71159" lon="13.5037">
        <ele>3.644524</ele>
        <time>2026-07-15T12:08:43.000Z</time>
      </trkpt>
      <trkpt lat="45.71137" lon="13.50306">
        <ele>3.955688</ele>
        <time>2026-07-15T12:08:52.000Z</time>
      </trkpt>
      <trkpt lat="45.71115" lon="13.5025">
        <ele>3.889844</ele>
        <time>2026-07-15T12:09:00.000Z</time>
      </trkpt>
      <trkpt lat="45.71087" lon="13.50178">
        <ele>3.804902</ele>
        <time>2026-07-15T12:09:10.000Z</time>
      </trkpt>
      <trkpt lat="45.71061" lon="13.50106">
        <ele>3.72086</ele>
        <time>2026-07-15T12:09:20.000Z</time>
      </trkpt>
      <trkpt lat="45.71058" lon="13.50099">
        <ele>3.72264</ele>
        <time>2026-07-15T12:09:21.000Z</time>
      </trkpt>
      <trkpt lat="45.71038" lon="13.50041">
        <ele>3.850405</ele>
        <time>2026-07-15T12:09:29.000Z</time>
      </trkpt>
      <trkpt lat="45.7101" lon="13.49967">
        <ele>4.017515</ele>
        <time>2026-07-15T12:09:40.000Z</time>
      </trkpt>
      <trkpt lat="45.71008" lon="13.4996">
        <ele>4.033278</ele>
        <time>2026-07-15T12:09:41.000Z</time>
      </trkpt>
      <trkpt lat="45.70981" lon="13.49889">
        <ele>4.192879</ele>
        <time>2026-07-15T12:09:51.000Z</time>
      </trkpt>
      <trkpt lat="45.70978" lon="13.49882">
        <ele>4.209256</ele>
        <time>2026-07-15T12:09:52.000Z</time>
      </trkpt>
      <trkpt lat="45.70951" lon="13.4981">
        <ele>4.188751</ele>
        <time>2026-07-15T12:10:02.000Z</time>
      </trkpt>
      <trkpt lat="45.70948" lon="13.49804">
        <ele>4.184641</ele>
        <time>2026-07-15T12:10:03.000Z</time>
      </trkpt>
      <trkpt lat="45.70919" lon="13.49736">
        <ele>4.142938</ele>
        <time>2026-07-15T12:10:13.000Z</time>
      </trkpt>
      <trkpt lat="45.70889" lon="13.49666">
        <ele>4.100332</ele>
        <time>2026-07-15T12:10:23.000Z</time>
      </trkpt>
      <trkpt lat="45.70884" lon="13.49652">
        <ele>4.097606</ele>
        <time>2026-07-15T12:10:25.000Z</time>
      </trkpt>
      <trkpt lat="45.70857" lon="13.4959">
        <ele>4.558005</ele>
        <time>2026-07-15T12:10:34.000Z</time>
      </trkpt>
      <trkpt lat="45.70835" lon="13.49535">
        <ele>4.962627</ele>
        <time>2026-07-15T12:10:42.000Z</time>
      </trkpt>
      <trkpt lat="45.70814" lon="13.49488">
        <ele>5.319015</ele>
        <time>2026-07-15T12:10:49.000Z</time>
      </trkpt>
      <trkpt lat="45.7079" lon="13.49433">
        <ele>5.729013</ele>
        <time>2026-07-15T12:10:57.000Z</time>
      </trkpt>
      <trkpt lat="45.70765" lon="13.4937">
        <ele>5.819521</ele>
        <time>2026-07-15T12:11:06.000Z</time>
      </trkpt>
      <trkpt lat="45.70742" lon="13.49297">
        <ele>5.918669</ele>
        <time>2026-07-15T12:11:16.000Z</time>
      </trkpt>
      <trkpt lat="45.70718" lon="13.49225">
        <ele>6.017485</ele>
        <time>2026-07-15T12:11:26.000Z</time>
      </trkpt>
      <trkpt lat="45.70713" lon="13.49211">
        <ele>6.037372</ele>
        <time>2026-07-15T12:11:28.000Z</time>
      </trkpt>
      <trkpt lat="45.7069" lon="13.49139">
        <ele>5.990501</ele>
        <time>2026-07-15T12:11:38.000Z</time>
      </trkpt>
      <trkpt lat="45.70681" lon="13.4911">
        <ele>5.964352</ele>
        <time>2026-07-15T12:11:42.000Z</time>
      </trkpt>
      <trkpt lat="45.70659" lon="13.49038">
        <ele>5.897297</ele>
        <time>2026-07-15T12:11:52.000Z</time>
      </trkpt>
      <trkpt lat="45.70636" lon="13.48971">
        <ele>5.833731</ele>
        <time>2026-07-15T12:12:02.000Z</time>
      </trkpt>
      <trkpt lat="45.70633" lon="13.48959">
        <ele>5.648996</ele>
        <time>2026-07-15T12:12:04.000Z</time>
      </trkpt>
      <trkpt lat="45.70631" lon="13.48947">
        <ele>5.419607</ele>
        <time>2026-07-15T12:12:06.000Z</time>
      </trkpt>
      <trkpt lat="45.70628" lon="13.48935">
        <ele>5.173446</ele>
        <time>2026-07-15T12:12:08.000Z</time>
      </trkpt>
      <trkpt lat="45.70614" lon="13.48893">
        <ele>4.26086</ele>
        <time>2026-07-15T12:12:15.000Z</time>
      </trkpt>
      <trkpt lat="45.70612" lon="13.48889">
        <ele>4.166852</ele>
        <time>2026-07-15T12:12:16.000Z</time>
      </trkpt>
      <trkpt lat="45.70612" lon="13.48885">
        <ele>4.094575</ele>
        <time>2026-07-15T12:12:17.000Z</time>
      </trkpt>
      <trkpt lat="45.70614" lon="13.48877">
        <ele>3.930654</ele>
        <time>2026-07-15T12:12:19.000Z</time>
      </trkpt>
      <trkpt lat="45.70629" lon="13.48858">
        <ele>3.38604</ele>
        <time>2026-07-15T12:12:24.000Z</time>
      </trkpt>
      <trkpt lat="45.70656" lon="13.48827">
        <ele>2.437068</ele>
        <time>2026-07-15T12:12:33.000Z</time>
      </trkpt>
      <trkpt lat="45.70685" lon="13.48792">
        <ele>1.3634</ele>
        <time>2026-07-15T12:12:41.000Z</time>
      </trkpt>
      <trkpt lat="45.70719" lon="13.48753">
        <ele>0.612722</ele>
        <time>2026-07-15T12:12:49.000Z</time>
      </trkpt>
      <trkpt lat="45.70744" lon="13.48726">
        <ele>0.307214</ele>
        <time>2026-07-15T12:12:55.000Z</time>
      </trkpt>
      <trkpt lat="45.70747" lon="13.48721">
        <ele>0.260817</ele>
        <time>2026-07-15T12:12:56.000Z</time>
      </trkpt>
      <trkpt lat="45.70777" lon="13.48684">
        <ele>-0.129576</ele>
        <time>2026-07-15T12:13:04.000Z</time>
      </trkpt>
      <trkpt lat="45.70813" lon="13.48642">
        <ele>-0.588392</ele>
        <time>2026-07-15T12:13:13.000Z</time>
      </trkpt>
      <trkpt lat="45.70845" lon="13.48605">
        <ele>-0.925315</ele>
        <time>2026-07-15T12:13:21.000Z</time>
      </trkpt>
      <trkpt lat="45.70869" lon="13.48575">
        <ele>-0.967856</ele>
        <time>2026-07-15T12:13:27.000Z</time>
      </trkpt>
      <trkpt lat="45.70872" lon="13.48568">
        <ele>-0.974617</ele>
        <time>2026-07-15T12:13:28.000Z</time>
      </trkpt>
      <trkpt lat="45.70873" lon="13.48562">
        <ele>-0.980994</ele>
        <time>2026-07-15T12:13:29.000Z</time>
      </trkpt>
      <trkpt lat="45.7087" lon="13.4855">
        <ele>-0.992542</ele>
        <time>2026-07-15T12:13:31.000Z</time>
      </trkpt>
      <trkpt lat="45.70861" lon="13.48534">
        <ele>-1.011412</ele>
        <time>2026-07-15T12:13:34.000Z</time>
      </trkpt>
      <trkpt lat="45.70857" lon="13.48521">
        <ele>-1.024171</ele>
        <time>2026-07-15T12:13:36.000Z</time>
      </trkpt>
      <trkpt lat="45.70858" lon="13.48514">
        <ele>-1.030491</ele>
        <time>2026-07-15T12:13:37.000Z</time>
      </trkpt>
      <trkpt lat="45.70859" lon="13.48508">
        <ele>-1.037109</ele>
        <time>2026-07-15T12:13:38.000Z</time>
      </trkpt>
      <trkpt lat="45.70868" lon="13.4849">
        <ele>-1.057069</ele>
        <time>2026-07-15T12:13:41.000Z</time>
      </trkpt>
      <trkpt lat="45.70895" lon="13.48445">
        <ele>-1.11201</ele>
        <time>2026-07-15T12:13:49.000Z</time>
      </trkpt>
      <trkpt lat="45.70928" lon="13.4839">
        <ele>-1.222426</ele>
        <time>2026-07-15T12:13:59.000Z</time>
      </trkpt>
      <trkpt lat="45.70955" lon="13.48343">
        <ele>-1.369831</ele>
        <time>2026-07-15T12:14:07.000Z</time>
      </trkpt>
      <trkpt lat="45.70982" lon="13.48296">
        <ele>-1.516317</ele>
        <time>2026-07-15T12:14:15.000Z</time>
      </trkpt>
      <trkpt lat="45.71005" lon="13.48255">
        <ele>-1.645213</ele>
        <time>2026-07-15T12:14:22.000Z</time>
      </trkpt>
      <trkpt lat="45.71009" lon="13.48249">
        <ele>-1.663969</ele>
        <time>2026-07-15T12:14:23.000Z</time>
      </trkpt>
      <trkpt lat="45.71043" lon="13.48188">
        <ele>-1.717424</ele>
        <time>2026-07-15T12:14:33.000Z</time>
      </trkpt>
      <trkpt lat="45.71047" lon="13.48181">
        <ele>-1.702381</ele>
        <time>2026-07-15T12:14:34.000Z</time>
      </trkpt>
      <trkpt lat="45.71085" lon="13.48119">
        <ele>-1.544915</ele>
        <time>2026-07-15T12:14:44.000Z</time>
      </trkpt>
      <trkpt lat="45.71115" lon="13.48077">
        <ele>-1.429461</ele>
        <time>2026-07-15T12:14:52.000Z</time>
      </trkpt>
      <trkpt lat="45.71142" lon="13.4804">
        <ele>-1.32769</ele>
        <time>2026-07-15T12:14:59.000Z</time>
      </trkpt>
      <trkpt lat="45.7115" lon="13.48029">
        <ele>-1.297608</ele>
        <time>2026-07-15T12:15:01.000Z</time>
      </trkpt>
      <trkpt lat="45.7119" lon="13.47973">
        <ele>-1.060128</ele>
        <time>2026-07-15T12:15:11.000Z</time>
      </trkpt>
      <trkpt lat="45.71194" lon="13.47967">
        <ele>-1.035204</ele>
        <time>2026-07-15T12:15:12.000Z</time>
      </trkpt>
      <trkpt lat="45.71226" lon="13.47924">
        <ele>-0.840373</ele>
        <time>2026-07-15T12:15:20.000Z</time>
      </trkpt>
      <trkpt lat="45.71266" lon="13.47868">
        <ele>-0.595168</ele>
        <time>2026-07-15T12:15:30.000Z</time>
      </trkpt>
      <trkpt lat="45.71294" lon="13.47829">
        <ele>-0.421509</ele>
        <time>2026-07-15T12:15:37.000Z</time>
      </trkpt>
      <trkpt lat="45.71331" lon="13.47779">
        <ele>-0.183277</ele>
        <time>2026-07-15T12:15:46.000Z</time>
      </trkpt>
      <trkpt lat="45.71353" lon="13.47739">
        <ele>-0.016694</ele>
        <time>2026-07-15T12:15:52.000Z</time>
      </trkpt>
      <trkpt lat="45.71357" lon="13.47732">
        <ele>0.009978</ele>
        <time>2026-07-15T12:15:53.000Z</time>
      </trkpt>
      <trkpt lat="45.71378" lon="13.47691">
        <ele>0.177524</ele>
        <time>2026-07-15T12:15:59.000Z</time>
      </trkpt>
      <trkpt lat="45.71393" lon="13.47663">
        <ele>0.291463</ele>
        <time>2026-07-15T12:16:03.000Z</time>
      </trkpt>
      <trkpt lat="45.714" lon="13.47651">
        <ele>0.343391</ele>
        <time>2026-07-15T12:16:05.000Z</time>
      </trkpt>
      <trkpt lat="45.7141" lon="13.4764">
        <ele>0.424981</ele>
        <time>2026-07-15T12:16:07.000Z</time>
      </trkpt>
      <trkpt lat="45.71422" lon="13.47635">
        <ele>0.499057</ele>
        <time>2026-07-15T12:16:09.000Z</time>
      </trkpt>
      <trkpt lat="45.71433" lon="13.47638">
        <ele>0.571904</ele>
        <time>2026-07-15T12:16:11.000Z</time>
      </trkpt>
      <trkpt lat="45.71442" lon="13.47648">
        <ele>0.64614</ele>
        <time>2026-07-15T12:16:13.000Z</time>
      </trkpt>
      <trkpt lat="45.71446" lon="13.47655">
        <ele>0.683666</ele>
        <time>2026-07-15T12:16:14.000Z</time>
      </trkpt>
      <trkpt lat="45.71449" lon="13.47662">
        <ele>0.722238</ele>
        <time>2026-07-15T12:16:15.000Z</time>
      </trkpt>
      <trkpt lat="45.71456" lon="13.47687">
        <ele>0.83731</ele>
        <time>2026-07-15T12:16:18.000Z</time>
      </trkpt>
      <trkpt lat="45.7147" lon="13.47754">
        <ele>1.145621</ele>
        <time>2026-07-15T12:16:26.000Z</time>
      </trkpt>
      <trkpt lat="45.71484" lon="13.47812">
        <ele>1.41438</ele>
        <time>2026-07-15T12:16:33.000Z</time>
      </trkpt>
      <trkpt lat="45.71494" lon="13.47853">
        <ele>1.339141</ele>
        <time>2026-07-15T12:16:38.000Z</time>
      </trkpt>
      <trkpt lat="45.71503" lon="13.47884">
        <ele>1.197037</ele>
        <time>2026-07-15T12:16:42.000Z</time>
      </trkpt>
      <trkpt lat="45.71524" lon="13.47935">
        <ele>0.949373</ele>
        <time>2026-07-15T12:16:49.000Z</time>
      </trkpt>
      <trkpt lat="45.71555" lon="13.47985">
        <ele>0.671755</ele>
        <time>2026-07-15T12:16:57.000Z</time>
      </trkpt>
      <trkpt lat="45.71582" lon="13.48013">
        <ele>0.4679</ele>
        <time>2026-07-15T12:17:03.000Z</time>
      </trkpt>
      <trkpt lat="45.71598" lon="13.48022">
        <ele>0.396511</ele>
        <time>2026-07-15T12:17:06.000Z</time>
      </trkpt>
      <trkpt lat="45.71614" lon="13.48026">
        <ele>0.430884</ele>
        <time>2026-07-15T12:17:09.000Z</time>
      </trkpt>
      <trkpt lat="45.71648" lon="13.48023">
        <ele>0.502109</ele>
        <time>2026-07-15T12:17:15.000Z</time>
      </trkpt>
      <trkpt lat="45.7166" lon="13.4802">
        <ele>0.525812</ele>
        <time>2026-07-15T12:17:17.000Z</time>
      </trkpt>
      <trkpt lat="45.71681" lon="13.4801">
        <ele>0.57231</ele>
        <time>2026-07-15T12:17:21.000Z</time>
      </trkpt>
      <trkpt lat="45.71714" lon="13.47985">
        <ele>0.648227</ele>
        <time>2026-07-15T12:17:27.000Z</time>
      </trkpt>
      <trkpt lat="45.71744" lon="13.47946">
        <ele>0.73278</ele>
        <time>2026-07-15T12:17:34.000Z</time>
      </trkpt>
      <trkpt lat="45.71781" lon="13.4789">
        <ele>0.797932</ele>
        <time>2026-07-15T12:17:43.000Z</time>
      </trkpt>
      <trkpt lat="45.71823" lon="13.47829">
        <ele>0.853256</ele>
        <time>2026-07-15T12:17:53.000Z</time>
      </trkpt>
      <trkpt lat="45.71864" lon="13.47769">
        <ele>0.907161</ele>
        <time>2026-07-15T12:18:03.000Z</time>
      </trkpt>
      <trkpt lat="45.71872" lon="13.47756">
        <ele>0.918123</ele>
        <time>2026-07-15T12:18:05.000Z</time>
      </trkpt>
      <trkpt lat="45.71914" lon="13.47696">
        <ele>1.255023</ele>
        <time>2026-07-15T12:18:15.000Z</time>
      </trkpt>
      <trkpt lat="45.71927" lon="13.47677">
        <ele>1.37503</ele>
        <time>2026-07-15T12:18:18.000Z</time>
      </trkpt>
      <trkpt lat="45.71967" lon="13.47623">
        <ele>1.734914</ele>
        <time>2026-07-15T12:18:27.000Z</time>
      </trkpt>
      <trkpt lat="45.71973" lon="13.47619">
        <ele>1.774531</ele>
        <time>2026-07-15T12:18:28.000Z</time>
      </trkpt>
      <trkpt lat="45.71995" lon="13.47608">
        <ele>1.929561</ele>
        <time>2026-07-15T12:18:32.000Z</time>
      </trkpt>
      <trkpt lat="45.72044" lon="13.47591">
        <ele>2.166857</ele>
        <time>2026-07-15T12:18:41.000Z</time>
      </trkpt>
      <trkpt lat="45.72072" lon="13.47584">
        <ele>2.244335</ele>
        <time>2026-07-15T12:18:47.000Z</time>
      </trkpt>
      <trkpt lat="45.72088" lon="13.4758">
        <ele>2.287525</ele>
        <time>2026-07-15T12:18:51.000Z</time>
      </trkpt>
      <trkpt lat="45.72093" lon="13.47579">
        <ele>2.301467</ele>
        <time>2026-07-15T12:18:53.000Z</time>
      </trkpt>
      <trkpt lat="45.72095" lon="13.47577">
        <ele>2.306687</ele>
        <time>2026-07-15T12:18:56.000Z</time>
      </trkpt>
      <trkpt lat="45.72094" lon="13.47571">
        <ele>2.318704</ele>
        <time>2026-07-15T12:19:15.000Z</time>
      </trkpt>
      <trkpt lat="45.72089" lon="13.47552">
        <ele>2.357236</ele>
        <time>2026-07-15T12:19:21.000Z</time>
      </trkpt>
      <trkpt lat="45.72083" lon="13.47524">
        <ele>2.414283</ele>
        <time>2026-07-15T12:19:28.000Z</time>
      </trkpt>
      <trkpt lat="45.72073" lon="13.47487">
        <ele>2.488466</ele>
        <time>2026-07-15T12:19:35.000Z</time>
      </trkpt>
      <trkpt lat="45.72062" lon="13.4744">
        <ele>2.583754</ele>
        <time>2026-07-15T12:19:43.000Z</time>
      </trkpt>
      <trkpt lat="45.72059" lon="13.47427">
        <ele>2.586898</ele>
        <time>2026-07-15T12:19:45.000Z</time>
      </trkpt>
      <trkpt lat="45.72055" lon="13.47415">
        <ele>2.58178</ele>
        <time>2026-07-15T12:19:47.000Z</time>
      </trkpt>
      <trkpt lat="45.72051" lon="13.47402">
        <ele>2.576429</ele>
        <time>2026-07-15T12:19:49.000Z</time>
      </trkpt>
      <trkpt lat="45.72039" lon="13.47352">
        <ele>2.556524</ele>
        <time>2026-07-15T12:19:56.000Z</time>
      </trkpt>
      <trkpt lat="45.72029" lon="13.47307">
        <ele>2.538707</ele>
        <time>2026-07-15T12:20:02.000Z</time>
      </trkpt>
      <trkpt lat="45.72016" lon="13.47259">
        <ele>2.519429</ele>
        <time>2026-07-15T12:20:09.000Z</time>
      </trkpt>
      <trkpt lat="45.72" lon="13.47189">
        <ele>2.505532</ele>
        <time>2026-07-15T12:20:18.000Z</time>
      </trkpt>
      <trkpt lat="45.71981" lon="13.47114">
        <ele>2.677456</ele>
        <time>2026-07-15T12:20:28.000Z</time>
      </trkpt>
      <trkpt lat="45.71979" lon="13.47107">
        <ele>2.694838</ele>
        <time>2026-07-15T12:20:29.000Z</time>
      </trkpt>
      <trkpt lat="45.71964" lon="13.47037">
        <ele>2.854259</ele>
        <time>2026-07-15T12:20:38.000Z</time>
      </trkpt>
      <trkpt lat="45.71947" lon="13.46966">
        <ele>3.017166</ele>
        <time>2026-07-15T12:20:47.000Z</time>
      </trkpt>
      <trkpt lat="45.71929" lon="13.46889">
        <ele>3.093125</ele>
        <time>2026-07-15T12:20:57.000Z</time>
      </trkpt>
      <trkpt lat="45.71928" lon="13.46882">
        <ele>3.09818</ele>
        <time>2026-07-15T12:20:58.000Z</time>
      </trkpt>
      <trkpt lat="45.71911" lon="13.46805">
        <ele>3.149191</ele>
        <time>2026-07-15T12:21:08.000Z</time>
      </trkpt>
      <trkpt lat="45.71909" lon="13.46797">
        <ele>3.154394</ele>
        <time>2026-07-15T12:21:09.000Z</time>
      </trkpt>
      <trkpt lat="45.71889" lon="13.46719">
        <ele>3.206664</ele>
        <time>2026-07-15T12:21:19.000Z</time>
      </trkpt>
      <trkpt lat="45.71873" lon="13.46648">
        <ele>3.03586</ele>
        <time>2026-07-15T12:21:28.000Z</time>
      </trkpt>
      <trkpt lat="45.71855" lon="13.46577">
        <ele>2.813795</ele>
        <time>2026-07-15T12:21:37.000Z</time>
      </trkpt>
      <trkpt lat="45.71837" lon="13.46504">
        <ele>2.582686</ele>
        <time>2026-07-15T12:21:47.000Z</time>
      </trkpt>
      <trkpt lat="45.71828" lon="13.46484">
        <ele>2.511646</ele>
        <time>2026-07-15T12:21:50.000Z</time>
      </trkpt>
      <trkpt lat="45.7182" lon="13.46462">
        <ele>2.425931</ele>
        <time>2026-07-15T12:21:53.000Z</time>
      </trkpt>
      <trkpt lat="45.71805" lon="13.46403">
        <ele>2.040822</ele>
        <time>2026-07-15T12:22:01.000Z</time>
      </trkpt>
      <trkpt lat="45.71793" lon="13.46349">
        <ele>1.698321</ele>
        <time>2026-07-15T12:22:08.000Z</time>
      </trkpt>
      <trkpt lat="45.71791" lon="13.46334">
        <ele>1.599794</ele>
        <time>2026-07-15T12:22:10.000Z</time>
      </trkpt>
      <trkpt lat="45.7178" lon="13.46296">
        <ele>1.347811</ele>
        <time>2026-07-15T12:22:15.000Z</time>
      </trkpt>
      <trkpt lat="45.71774" lon="13.46272">
        <ele>1.195038</ele>
        <time>2026-07-15T12:22:18.000Z</time>
      </trkpt>
      <trkpt lat="45.71766" lon="13.46239">
        <ele>0.983977</ele>
        <time>2026-07-15T12:22:22.000Z</time>
      </trkpt>
      <trkpt lat="45.71755" lon="13.46191">
        <ele>0.970837</ele>
        <time>2026-07-15T12:22:28.000Z</time>
      </trkpt>
      <trkpt lat="45.71742" lon="13.46128">
        <ele>1.147191</ele>
        <time>2026-07-15T12:22:36.000Z</time>
      </trkpt>
      <trkpt lat="45.71728" lon="13.46062">
        <ele>1.330617</ele>
        <time>2026-07-15T12:22:44.000Z</time>
      </trkpt>
      <trkpt lat="45.7172" lon="13.46029">
        <ele>1.422078</ele>
        <time>2026-07-15T12:22:48.000Z</time>
      </trkpt>
      <trkpt lat="45.71716" lon="13.46014">
        <ele>1.466884</ele>
        <time>2026-07-15T12:22:50.000Z</time>
      </trkpt>
      <trkpt lat="45.71699" lon="13.45945">
        <ele>1.769187</ele>
        <time>2026-07-15T12:22:59.000Z</time>
      </trkpt>
      <trkpt lat="45.71695" lon="13.45932">
        <ele>1.85219</ele>
        <time>2026-07-15T12:23:01.000Z</time>
      </trkpt>
      <trkpt lat="45.71691" lon="13.45914">
        <ele>1.964983</ele>
        <time>2026-07-15T12:23:04.000Z</time>
      </trkpt>
      <trkpt lat="45.71682" lon="13.45891">
        <ele>2.113812</ele>
        <time>2026-07-15T12:23:09.000Z</time>
      </trkpt>
      <trkpt lat="45.71673" lon="13.45893">
        <ele>2.183517</ele>
        <time>2026-07-15T12:23:11.000Z</time>
      </trkpt>
      <trkpt lat="45.71669" lon="13.45896">
        <ele>2.22495</ele>
        <time>2026-07-15T12:23:12.000Z</time>
      </trkpt>
      <trkpt lat="45.71646" lon="13.45903">
        <ele>2.413673</ele>
        <time>2026-07-15T12:23:16.000Z</time>
      </trkpt>
      <trkpt lat="45.716" lon="13.45923">
        <ele>2.819512</ele>
        <time>2026-07-15T12:23:24.000Z</time>
      </trkpt>
      <trkpt lat="45.71549" lon="13.45947">
        <ele>2.894328</ele>
        <time>2026-07-15T12:23:33.000Z</time>
      </trkpt>
      <trkpt lat="45.715" lon="13.45968">
        <ele>2.549589</ele>
        <time>2026-07-15T12:23:42.000Z</time>
      </trkpt>
      <trkpt lat="45.71444" lon="13.45992">
        <ele>2.155484</ele>
        <time>2026-07-15T12:23:52.000Z</time>
      </trkpt>
      <trkpt lat="45.71433" lon="13.45997">
        <ele>2.076822</ele>
        <time>2026-07-15T12:23:54.000Z</time>
      </trkpt>
      <trkpt lat="45.71376" lon="13.46022">
        <ele>1.900404</ele>
        <time>2026-07-15T12:24:04.000Z</time>
      </trkpt>
      <trkpt lat="45.71365" lon="13.46026">
        <ele>1.926226</ele>
        <time>2026-07-15T12:24:06.000Z</time>
      </trkpt>
      <trkpt lat="45.71314" lon="13.46047">
        <ele>2.046427</ele>
        <time>2026-07-15T12:24:15.000Z</time>
      </trkpt>
      <trkpt lat="45.71257" lon="13.46071">
        <ele>2.180318</ele>
        <time>2026-07-15T12:24:25.000Z</time>
      </trkpt>
      <trkpt lat="45.712" lon="13.46095">
        <ele>2.803056</ele>
        <time>2026-07-15T12:24:35.000Z</time>
      </trkpt>
      <trkpt lat="45.71194" lon="13.46097">
        <ele>2.917974</ele>
        <time>2026-07-15T12:24:36.000Z</time>
      </trkpt>
      <trkpt lat="45.71148" lon="13.46109">
        <ele>3.803211</ele>
        <time>2026-07-15T12:24:45.000Z</time>
      </trkpt>
      <trkpt lat="45.71131" lon="13.46114">
        <ele>4.143735</ele>
        <time>2026-07-15T12:24:49.000Z</time>
      </trkpt>
      <trkpt lat="45.71118" lon="13.46118">
        <ele>4.396682</ele>
        <time>2026-07-15T12:24:52.000Z</time>
      </trkpt>
      <trkpt lat="45.71097" lon="13.46127">
        <ele>4.817511</ele>
        <time>2026-07-15T12:24:58.000Z</time>
      </trkpt>
      <trkpt lat="45.71061" lon="13.46142">
        <ele>5.544657</ele>
        <time>2026-07-15T12:25:07.000Z</time>
      </trkpt>
      <trkpt lat="45.71012" lon="13.46161">
        <ele>5.257768</ele>
        <time>2026-07-15T12:25:18.000Z</time>
      </trkpt>
      <trkpt lat="45.70968" lon="13.46179">
        <ele>4.778518</ele>
        <time>2026-07-15T12:25:27.000Z</time>
      </trkpt>
      <trkpt lat="45.70923" lon="13.46201">
        <ele>4.277848</ele>
        <time>2026-07-15T12:25:36.000Z</time>
      </trkpt>
      <trkpt lat="45.70903" lon="13.4621">
        <ele>4.059021</ele>
        <time>2026-07-15T12:25:40.000Z</time>
      </trkpt>
      <trkpt lat="45.70893" lon="13.46215">
        <ele>3.947323</ele>
        <time>2026-07-15T12:25:42.000Z</time>
      </trkpt>
      <trkpt lat="45.70888" lon="13.46217">
        <ele>3.894389</ele>
        <time>2026-07-15T12:25:43.000Z</time>
      </trkpt>
      <trkpt lat="45.7084" lon="13.46237">
        <ele>3.902523</ele>
        <time>2026-07-15T12:25:52.000Z</time>
      </trkpt>
      <trkpt lat="45.7081" lon="13.4625">
        <ele>3.967185</ele>
        <time>2026-07-15T12:25:58.000Z</time>
      </trkpt>
      <trkpt lat="45.708" lon="13.46258">
        <ele>3.989138</ele>
        <time>2026-07-15T12:26:00.000Z</time>
      </trkpt>
      <trkpt lat="45.70792" lon="13.46274">
        <ele>4.017432</ele>
        <time>2026-07-15T12:26:03.000Z</time>
      </trkpt>
      <trkpt lat="45.70783" lon="13.46276">
        <ele>4.037544</ele>
        <time>2026-07-15T12:26:06.000Z</time>
      </trkpt>
      <trkpt lat="45.70772" lon="13.46264">
        <ele>4.065333</ele>
        <time>2026-07-15T12:26:10.000Z</time>
      </trkpt>
      <trkpt lat="45.70768" lon="13.46263">
        <ele>4.072919</ele>
        <time>2026-07-15T12:26:11.000Z</time>
      </trkpt>
      <trkpt lat="45.7076" lon="13.46266">
        <ele>4.089969</ele>
        <time>2026-07-15T12:26:13.000Z</time>
      </trkpt>
      <trkpt lat="45.7073" lon="13.46277">
        <ele>4.153324</ele>
        <time>2026-07-15T12:26:19.000Z</time>
      </trkpt>
      <trkpt lat="45.7069" lon="13.46293">
        <ele>4.258251</ele>
        <time>2026-07-15T12:26:27.000Z</time>
      </trkpt>
      <trkpt lat="45.70643" lon="13.46314">
        <ele>4.396136</ele>
        <time>2026-07-15T12:26:36.000Z</time>
      </trkpt>
      <trkpt lat="45.70596" lon="13.46333">
        <ele>4.532665</ele>
        <time>2026-07-15T12:26:45.000Z</time>
      </trkpt>
      <trkpt lat="45.70569" lon="13.46344">
        <ele>4.609166</ele>
        <time>2026-07-15T12:26:50.000Z</time>
      </trkpt>
      <trkpt lat="45.70553" lon="13.4635">
        <ele>4.655853</ele>
        <time>2026-07-15T12:26:53.000Z</time>
      </trkpt>
      <trkpt lat="45.70537" lon="13.46354">
        <ele>4.631913</ele>
        <time>2026-07-15T12:26:56.000Z</time>
      </trkpt>
      <trkpt lat="45.70517" lon="13.46359">
        <ele>4.450708</ele>
        <time>2026-07-15T12:27:00.000Z</time>
      </trkpt>
      <trkpt lat="45.70513" lon="13.4636">
        <ele>4.412639</ele>
        <time>2026-07-15T12:27:01.000Z</time>
      </trkpt>
      <trkpt lat="45.70508" lon="13.46366">
        <ele>4.350013</ele>
        <time>2026-07-15T12:27:03.000Z</time>
      </trkpt>
      <trkpt lat="45.70506" lon="13.46375">
        <ele>4.291797</ele>
        <time>2026-07-15T12:27:05.000Z</time>
      </trkpt>
      <trkpt lat="45.705" lon="13.46382">
        <ele>4.227008</ele>
        <time>2026-07-15T12:27:07.000Z</time>
      </trkpt>
      <trkpt lat="45.70488" lon="13.46397">
        <ele>4.079825</ele>
        <time>2026-07-15T12:27:12.000Z</time>
      </trkpt>
      <trkpt lat="45.70484" lon="13.46399">
        <ele>4.044983</ele>
        <time>2026-07-15T12:27:14.000Z</time>
      </trkpt>
      <trkpt lat="45.70476" lon="13.46386">
        <ele>3.936931</ele>
        <time>2026-07-15T12:27:18.000Z</time>
      </trkpt>
      <trkpt lat="45.70473" lon="13.46382">
        <ele>3.899304</ele>
        <time>2026-07-15T12:27:19.000Z</time>
      </trkpt>
      <trkpt lat="45.70466" lon="13.46375">
        <ele>3.820692</ele>
        <time>2026-07-15T12:27:21.000Z</time>
      </trkpt>
      <trkpt lat="45.70461" lon="13.46373">
        <ele>3.778861</ele>
        <time>2026-07-15T12:27:22.000Z</time>
      </trkpt>
      <trkpt lat="45.70434" lon="13.46369">
        <ele>3.533695</ele>
        <time>2026-07-15T12:27:27.000Z</time>
      </trkpt>
      <trkpt lat="45.70386" lon="13.46364">
        <ele>3.104879</ele>
        <time>2026-07-15T12:27:36.000Z</time>
      </trkpt>
      <trkpt lat="45.70336" lon="13.46356">
        <ele>3.955495</ele>
        <time>2026-07-15T12:27:45.000Z</time>
      </trkpt>
      <trkpt lat="45.70298" lon="13.46344">
        <ele>4.681539</ele>
        <time>2026-07-15T12:27:52.000Z</time>
      </trkpt>
      <trkpt lat="45.7025" lon="13.46322">
        <ele>5.634494</ele>
        <time>2026-07-15T12:28:01.000Z</time>
      </trkpt>
      <trkpt lat="45.70213" lon="13.46302">
        <ele>6.37681</ele>
        <time>2026-07-15T12:28:08.000Z</time>
      </trkpt>
      <trkpt lat="45.70166" lon="13.46271">
        <ele>5.145097</ele>
        <time>2026-07-15T12:28:17.000Z</time>
      </trkpt>
      <trkpt lat="45.70122" lon="13.46232">
        <ele>3.774153</ele>
        <time>2026-07-15T12:28:26.000Z</time>
      </trkpt>
      <trkpt lat="45.70081" lon="13.46196">
        <ele>2.504683</ele>
        <time>2026-07-15T12:28:34.000Z</time>
      </trkpt>
      <trkpt lat="45.70034" lon="13.46155">
        <ele>1.198833</ele>
        <time>2026-07-15T12:28:43.000Z</time>
      </trkpt>
      <trkpt lat="45.69987" lon="13.46113">
        <ele>0.090156</ele>
        <time>2026-07-15T12:28:52.000Z</time>
      </trkpt>
      <trkpt lat="45.69951" lon="13.46077">
        <ele>-0.77308</ele>
        <time>2026-07-15T12:28:59.000Z</time>
      </trkpt>
      <trkpt lat="45.69909" lon="13.4602">
        <ele>-1.912398</ele>
        <time>2026-07-15T12:29:08.000Z</time>
      </trkpt>
      <trkpt lat="45.69872" lon="13.45956">
        <ele>-1.133043</ele>
        <time>2026-07-15T12:29:17.000Z</time>
      </trkpt>
      <trkpt lat="45.69865" lon="13.45942">
        <ele>-0.962713</ele>
        <time>2026-07-15T12:29:19.000Z</time>
      </trkpt>
      <trkpt lat="45.69832" lon="13.45873">
        <ele>-0.175225</ele>
        <time>2026-07-15T12:29:28.000Z</time>
      </trkpt>
      <trkpt lat="45.69803" lon="13.4581">
        <ele>0.50538</ele>
        <time>2026-07-15T12:29:36.000Z</time>
      </trkpt>
      <trkpt lat="45.69796" lon="13.45795">
        <ele>0.503357</ele>
        <time>2026-07-15T12:29:38.000Z</time>
      </trkpt>
      <trkpt lat="45.69782" lon="13.45778">
        <ele>0.500443</ele>
        <time>2026-07-15T12:29:41.000Z</time>
      </trkpt>
      <trkpt lat="45.69773" lon="13.45776">
        <ele>0.498962</ele>
        <time>2026-07-15T12:29:43.000Z</time>
      </trkpt>
      <trkpt lat="45.69769" lon="13.4578">
        <ele>0.498236</ele>
        <time>2026-07-15T12:29:44.000Z</time>
      </trkpt>
      <trkpt lat="45.69765" lon="13.45782">
        <ele>0.497558</ele>
        <time>2026-07-15T12:29:45.000Z</time>
      </trkpt>
      <trkpt lat="45.69759" lon="13.45781">
        <ele>0.496539</ele>
        <time>2026-07-15T12:29:47.000Z</time>
      </trkpt>
      <trkpt lat="45.69759" lon="13.45773">
        <ele>0.495612</ele>
        <time>2026-07-15T12:29:49.000Z</time>
      </trkpt>
      <trkpt lat="45.69768" lon="13.45752">
        <ele>0.492904</ele>
        <time>2026-07-15T12:29:53.000Z</time>
      </trkpt>
      <trkpt lat="45.69767" lon="13.45739">
        <ele>0.491414</ele>
        <time>2026-07-15T12:29:55.000Z</time>
      </trkpt>
      <trkpt lat="45.69764" lon="13.45733">
        <ele>0.490578</ele>
        <time>2026-07-15T12:29:56.000Z</time>
      </trkpt>
      <trkpt lat="45.69746" lon="13.45693">
        <ele>0.485259</ele>
        <time>2026-07-15T12:30:02.000Z</time>
      </trkpt>
      <trkpt lat="45.69721" lon="13.45636">
        <ele>0.477785</ele>
        <time>2026-07-15T12:30:10.000Z</time>
      </trkpt>
      <trkpt lat="45.6969" lon="13.45569">
        <ele>1.220879</ele>
        <time>2026-07-15T12:30:20.000Z</time>
      </trkpt>
      <trkpt lat="45.69683" lon="13.45558">
        <ele>1.371629</ele>
        <time>2026-07-15T12:30:22.000Z</time>
      </trkpt>
      <trkpt lat="45.69675" lon="13.45552">
        <ele>1.510104</ele>
        <time>2026-07-15T12:30:24.000Z</time>
      </trkpt>
      <trkpt lat="45.69665" lon="13.45551">
        <ele>1.654316</ele>
        <time>2026-07-15T12:30:26.000Z</time>
      </trkpt>
      <trkpt lat="45.69656" lon="13.45546">
        <ele>1.802106</ele>
        <time>2026-07-15T12:30:28.000Z</time>
      </trkpt>
      <trkpt lat="45.69652" lon="13.45542">
        <ele>1.873839</ele>
        <time>2026-07-15T12:30:29.000Z</time>
      </trkpt>
      <trkpt lat="45.69649" lon="13.45537">
        <ele>1.932799</ele>
        <time>2026-07-15T12:30:30.000Z</time>
      </trkpt>
      <trkpt lat="45.69649" lon="13.45532">
        <ele>1.987224</ele>
        <time>2026-07-15T12:30:31.000Z</time>
      </trkpt>
      <trkpt lat="45.69652" lon="13.4552">
        <ele>2.119188</ele>
        <time>2026-07-15T12:30:33.000Z</time>
      </trkpt>
      <trkpt lat="45.69652" lon="13.45506">
        <ele>2.256861</ele>
        <time>2026-07-15T12:30:35.000Z</time>
      </trkpt>
      <trkpt lat="45.69651" lon="13.45499">
        <ele>2.330539</ele>
        <time>2026-07-15T12:30:36.000Z</time>
      </trkpt>
      <trkpt lat="45.69649" lon="13.45493">
        <ele>2.404795</ele>
        <time>2026-07-15T12:30:37.000Z</time>
      </trkpt>
      <trkpt lat="45.69636" lon="13.45459">
        <ele>2.796194</ele>
        <time>2026-07-15T12:30:42.000Z</time>
      </trkpt>
      <trkpt lat="45.69614" lon="13.45414">
        <ele>3.06673</ele>
        <time>2026-07-15T12:30:49.000Z</time>
      </trkpt>
      <trkpt lat="45.69611" lon="13.45408">
        <ele>3.047107</ele>
        <time>2026-07-15T12:30:50.000Z</time>
      </trkpt>
      <trkpt lat="45.6959" lon="13.45369">
        <ele>2.928645</ele>
        <time>2026-07-15T12:30:56.000Z</time>
      </trkpt>
      <trkpt lat="45.69582" lon="13.45346">
        <ele>2.869785</ele>
        <time>2026-07-15T12:30:59.000Z</time>
      </trkpt>
      <trkpt lat="45.69573" lon="13.45325">
        <ele>2.810672</ele>
        <time>2026-07-15T12:31:02.000Z</time>
      </trkpt>
      <trkpt lat="45.69543" lon="13.4526">
        <ele>2.622837</ele>
        <time>2026-07-15T12:31:12.000Z</time>
      </trkpt>
      <trkpt lat="45.6954" lon="13.45254">
        <ele>2.605769</ele>
        <time>2026-07-15T12:31:13.000Z</time>
      </trkpt>
      <trkpt lat="45.69535" lon="13.45242">
        <ele>2.572787</ele>
        <time>2026-07-15T12:31:15.000Z</time>
      </trkpt>
      <trkpt lat="45.69523" lon="13.45223">
        <ele>2.511006</ele>
        <time>2026-07-15T12:31:19.000Z</time>
      </trkpt>
      <trkpt lat="45.69515" lon="13.45218">
        <ele>2.549535</ele>
        <time>2026-07-15T12:31:21.000Z</time>
      </trkpt>
      <trkpt lat="45.69511" lon="13.45218">
        <ele>2.577162</ele>
        <time>2026-07-15T12:31:22.000Z</time>
      </trkpt>
      <trkpt lat="45.69495" lon="13.45221">
        <ele>2.676347</ele>
        <time>2026-07-15T12:31:26.000Z</time>
      </trkpt>
      <trkpt lat="45.69494" lon="13.45218">
        <ele>2.692582</ele>
        <time>2026-07-15T12:31:27.000Z</time>
      </trkpt>
      <trkpt lat="45.69489" lon="13.45198">
        <ele>2.78305</ele>
        <time>2026-07-15T12:31:31.000Z</time>
      </trkpt>
      <trkpt lat="45.69478" lon="13.4519">
        <ele>2.858358</ele>
        <time>2026-07-15T12:31:34.000Z</time>
      </trkpt>
      <trkpt lat="45.69476" lon="13.45187">
        <ele>2.876552</ele>
        <time>2026-07-15T12:31:35.000Z</time>
      </trkpt>
      <trkpt lat="45.69476" lon="13.45179">
        <ele>2.91129</ele>
        <time>2026-07-15T12:31:37.000Z</time>
      </trkpt>
      <trkpt lat="45.69474" lon="13.45143">
        <ele>3.07142</ele>
        <time>2026-07-15T12:31:43.000Z</time>
      </trkpt>
      <trkpt lat="45.69456" lon="13.45114">
        <ele>3.241748</ele>
        <time>2026-07-15T12:31:48.000Z</time>
      </trkpt>
      <trkpt lat="45.69426" lon="13.45067">
        <ele>3.520977</ele>
        <time>2026-07-15T12:31:56.000Z</time>
      </trkpt>
      <trkpt lat="45.69386" lon="13.45007">
        <ele>3.086191</ele>
        <time>2026-07-15T12:32:06.000Z</time>
      </trkpt>
      <trkpt lat="45.6935" lon="13.44947">
        <ele>2.304829</ele>
        <time>2026-07-15T12:32:16.000Z</time>
      </trkpt>
      <trkpt lat="45.69346" lon="13.44941">
        <ele>2.224587</ele>
        <time>2026-07-15T12:32:17.000Z</time>
      </trkpt>
      <trkpt lat="45.6932" lon="13.44901">
        <ele>1.692268</ele>
        <time>2026-07-15T12:32:24.000Z</time>
      </trkpt>
      <trkpt lat="45.69293" lon="13.44861">
        <ele>1.144747</ele>
        <time>2026-07-15T12:32:31.000Z</time>
      </trkpt>
      <trkpt lat="45.69266" lon="13.44819">
        <ele>1.36301</ele>
        <time>2026-07-15T12:32:38.000Z</time>
      </trkpt>
      <trkpt lat="45.69244" lon="13.44781">
        <ele>1.591313</ele>
        <time>2026-07-15T12:32:44.000Z</time>
      </trkpt>
      <trkpt lat="45.69241" lon="13.44775">
        <ele>1.628817</ele>
        <time>2026-07-15T12:32:45.000Z</time>
      </trkpt>
      <trkpt lat="45.6921" lon="13.44732">
        <ele>1.909702</ele>
        <time>2026-07-15T12:32:52.000Z</time>
      </trkpt>
      <trkpt lat="45.69206" lon="13.44726">
        <ele>1.947589</ele>
        <time>2026-07-15T12:32:53.000Z</time>
      </trkpt>
      <trkpt lat="45.69187" lon="13.44705">
        <ele>2.108614</ele>
        <time>2026-07-15T12:32:57.000Z</time>
      </trkpt>
      <trkpt lat="45.6915" lon="13.44679">
        <ele>2.376309</ele>
        <time>2026-07-15T12:33:04.000Z</time>
      </trkpt>
      <trkpt lat="45.69127" lon="13.44663">
        <ele>2.536082</ele>
        <time>2026-07-15T12:33:09.000Z</time>
      </trkpt>
      <trkpt lat="45.69122" lon="13.44659">
        <ele>2.566557</ele>
        <time>2026-07-15T12:33:10.000Z</time>
      </trkpt>
      <trkpt lat="45.69106" lon="13.44648">
        <ele>2.680548</ele>
        <time>2026-07-15T12:33:14.000Z</time>
      </trkpt>
      <trkpt lat="45.69101" lon="13.44645">
        <ele>2.709308</ele>
        <time>2026-07-15T12:33:15.000Z</time>
      </trkpt>
      <trkpt lat="45.69081" lon="13.44634">
        <ele>2.844548</ele>
        <time>2026-07-15T12:33:20.000Z</time>
      </trkpt>
      <trkpt lat="45.69076" lon="13.44634">
        <ele>2.874787</ele>
        <time>2026-07-15T12:33:21.000Z</time>
      </trkpt>
      <trkpt lat="45.69071" lon="13.44637">
        <ele>2.90539</ele>
        <time>2026-07-15T12:33:22.000Z</time>
      </trkpt>
      <trkpt lat="45.69064" lon="13.44641">
        <ele>2.956438</ele>
        <time>2026-07-15T12:33:24.000Z</time>
      </trkpt>
      <trkpt lat="45.6906" lon="13.44641">
        <ele>2.980501</ele>
        <time>2026-07-15T12:33:25.000Z</time>
      </trkpt>
      <trkpt lat="45.69056" lon="13.44639">
        <ele>3.005872</ele>
        <time>2026-07-15T12:33:26.000Z</time>
      </trkpt>
      <trkpt lat="45.69043" lon="13.44632">
        <ele>3.093122</ele>
        <time>2026-07-15T12:33:29.000Z</time>
      </trkpt>
      <trkpt lat="45.69039" lon="13.44629">
        <ele>3.121146</ele>
        <time>2026-07-15T12:33:30.000Z</time>
      </trkpt>
      <trkpt lat="45.69022" lon="13.44613">
        <ele>3.242976</ele>
        <time>2026-07-15T12:33:34.000Z</time>
      </trkpt>
      <trkpt lat="45.69014" lon="13.44602">
        <ele>3.313408</ele>
        <time>2026-07-15T12:33:36.000Z</time>
      </trkpt>
      <trkpt lat="45.69011" lon="13.44596">
        <ele>3.346927</ele>
        <time>2026-07-15T12:33:37.000Z</time>
      </trkpt>
      <trkpt lat="45.69008" lon="13.44589">
        <ele>3.379618</ele>
        <time>2026-07-15T12:33:38.000Z</time>
      </trkpt>
      <trkpt lat="45.68997" lon="13.44563">
        <ele>3.359385</ele>
        <time>2026-07-15T12:33:42.000Z</time>
      </trkpt>
      <trkpt lat="45.68977" lon="13.44518">
        <ele>3.223364</ele>
        <time>2026-07-15T12:33:49.000Z</time>
      </trkpt>
      <trkpt lat="45.68957" lon="13.44471">
        <ele>3.087061</ele>
        <time>2026-07-15T12:33:56.000Z</time>
      </trkpt>
      <trkpt lat="45.6893" lon="13.44408">
        <ele>2.900392</ele>
        <time>2026-07-15T12:34:06.000Z</time>
      </trkpt>
      <trkpt lat="45.68904" lon="13.44354">
        <ele>2.743809</ele>
        <time>2026-07-15T12:34:14.000Z</time>
      </trkpt>
      <trkpt lat="45.68881" lon="13.44301">
        <ele>2.625848</ele>
        <time>2026-07-15T12:34:22.000Z</time>
      </trkpt>
      <trkpt lat="45.68859" lon="13.44253">
        <ele>2.516775</ele>
        <time>2026-07-15T12:34:29.000Z</time>
      </trkpt>
      <trkpt lat="45.68856" lon="13.44246">
        <ele>2.501648</ele>
        <time>2026-07-15T12:34:30.000Z</time>
      </trkpt>
      <trkpt lat="45.68838" lon="13.44205">
        <ele>2.408226</ele>
        <time>2026-07-15T12:34:36.000Z</time>
      </trkpt>
      <trkpt lat="45.68815" lon="13.44148">
        <ele>2.28289</ele>
        <time>2026-07-15T12:34:44.000Z</time>
      </trkpt>
      <trkpt lat="45.68802" lon="13.44121">
        <ele>2.535263</ele>
        <time>2026-07-15T12:34:48.000Z</time>
      </trkpt>
      <trkpt lat="45.68796" lon="13.44108">
        <ele>2.660119</ele>
        <time>2026-07-15T12:34:50.000Z</time>
      </trkpt>
      <trkpt lat="45.68776" lon="13.44061">
        <ele>3.119195</ele>
        <time>2026-07-15T12:34:57.000Z</time>
      </trkpt>
      <trkpt lat="45.68758" lon="13.44018">
        <ele>3.533434</ele>
        <time>2026-07-15T12:35:03.000Z</time>
      </trkpt>
      <trkpt lat="45.68755" lon="13.44011">
        <ele>3.60124</ele>
        <time>2026-07-15T12:35:04.000Z</time>
      </trkpt>
      <trkpt lat="45.68732" lon="13.43962">
        <ele>4.088929</ele>
        <time>2026-07-15T12:35:12.000Z</time>
      </trkpt>
      <trkpt lat="45.68721" lon="13.43941">
        <ele>4.303997</ele>
        <time>2026-07-15T12:35:16.000Z</time>
      </trkpt>
      <trkpt lat="45.68716" lon="13.4393">
        <ele>4.410801</ele>
        <time>2026-07-15T12:35:18.000Z</time>
      </trkpt>
      <trkpt lat="45.68696" lon="13.43886">
        <ele>4.559422</ele>
        <time>2026-07-15T12:35:25.000Z</time>
      </trkpt>
      <trkpt lat="45.68663" lon="13.43822">
        <ele>4.785368</ele>
        <time>2026-07-15T12:35:35.000Z</time>
      </trkpt>
      <trkpt lat="45.68627" lon="13.43773">
        <ele>4.989268</ele>
        <time>2026-07-15T12:35:44.000Z</time>
      </trkpt>
      <trkpt lat="45.68605" lon="13.43749">
        <ele>5.101693</ele>
        <time>2026-07-15T12:35:49.000Z</time>
      </trkpt>
      <trkpt lat="45.68601" lon="13.43744">
        <ele>5.123421</ele>
        <time>2026-07-15T12:35:50.000Z</time>
      </trkpt>
      <trkpt lat="45.68593" lon="13.43733">
        <ele>5.155365</ele>
        <time>2026-07-15T12:35:52.000Z</time>
      </trkpt>
      <trkpt lat="45.68585" lon="13.43723">
        <ele>5.177347</ele>
        <time>2026-07-15T12:35:54.000Z</time>
      </trkpt>
      <trkpt lat="45.68565" lon="13.43697">
        <ele>5.232202</ele>
        <time>2026-07-15T12:35:59.000Z</time>
      </trkpt>
      <trkpt lat="45.68561" lon="13.43692">
        <ele>5.242545</ele>
        <time>2026-07-15T12:36:00.000Z</time>
      </trkpt>
      <trkpt lat="45.6853" lon="13.43659">
        <ele>5.321246</ele>
        <time>2026-07-15T12:36:07.000Z</time>
      </trkpt>
      <trkpt lat="45.68493" lon="13.43619">
        <ele>5.414027</ele>
        <time>2026-07-15T12:36:15.000Z</time>
      </trkpt>
      <trkpt lat="45.68456" lon="13.43566">
        <ele>5.448167</ele>
        <time>2026-07-15T12:36:24.000Z</time>
      </trkpt>
      <trkpt lat="45.6843" lon="13.43522">
        <ele>5.066847</ele>
        <time>2026-07-15T12:36:31.000Z</time>
      </trkpt>
      <trkpt lat="45.68404" lon="13.43466">
        <ele>4.626071</ele>
        <time>2026-07-15T12:36:39.000Z</time>
      </trkpt>
      <trkpt lat="45.684" lon="13.43459">
        <ele>4.567872</ele>
        <time>2026-07-15T12:36:40.000Z</time>
      </trkpt>
      <trkpt lat="45.68391" lon="13.43437">
        <ele>4.401912</ele>
        <time>2026-07-15T12:36:43.000Z</time>
      </trkpt>
      <trkpt lat="45.68368" lon="13.43387">
        <ele>4.008148</ele>
        <time>2026-07-15T12:36:50.000Z</time>
      </trkpt>
      <trkpt lat="45.68352" lon="13.43351">
        <ele>3.886942</ele>
        <time>2026-07-15T12:36:55.000Z</time>
      </trkpt>
      <trkpt lat="45.68349" lon="13.43345">
        <ele>3.92775</ele>
        <time>2026-07-15T12:36:56.000Z</time>
      </trkpt>
      <trkpt lat="45.68326" lon="13.43298">
        <ele>4.210202</ele>
        <time>2026-07-15T12:37:03.000Z</time>
      </trkpt>
      <trkpt lat="45.68315" lon="13.43278">
        <ele>4.333045</ele>
        <time>2026-07-15T12:37:06.000Z</time>
      </trkpt>
      <trkpt lat="45.68308" lon="13.43266">
        <ele>4.413977</ele>
        <time>2026-07-15T12:37:08.000Z</time>
      </trkpt>
      <trkpt lat="45.683" lon="13.43254">
        <ele>4.490675</ele>
        <time>2026-07-15T12:37:10.000Z</time>
      </trkpt>
      <trkpt lat="45.68287" lon="13.43231">
        <ele>4.637317</ele>
        <time>2026-07-15T12:37:14.000Z</time>
      </trkpt>
      <trkpt lat="45.68281" lon="13.43221">
        <ele>4.708247</ele>
        <time>2026-07-15T12:37:16.000Z</time>
      </trkpt>
      <trkpt lat="45.68265" lon="13.43194">
        <ele>4.87976</ele>
        <time>2026-07-15T12:37:21.000Z</time>
      </trkpt>
      <trkpt lat="45.68257" lon="13.43188">
        <ele>4.939395</ele>
        <time>2026-07-15T12:37:23.000Z</time>
      </trkpt>
      <trkpt lat="45.68249" lon="13.43187">
        <ele>4.998861</ele>
        <time>2026-07-15T12:37:25.000Z</time>
      </trkpt>
      <trkpt lat="45.68244" lon="13.43188">
        <ele>5.031067</ele>
        <time>2026-07-15T12:37:26.000Z</time>
      </trkpt>
      <trkpt lat="45.68235" lon="13.43191">
        <ele>5.087537</ele>
        <time>2026-07-15T12:37:28.000Z</time>
      </trkpt>
      <trkpt lat="45.68209" lon="13.43197">
        <ele>5.043406</ele>
        <time>2026-07-15T12:37:33.000Z</time>
      </trkpt>
      <trkpt lat="45.68205" lon="13.43197">
        <ele>5.035278</ele>
        <time>2026-07-15T12:37:34.000Z</time>
      </trkpt>
      <trkpt lat="45.68196" lon="13.43192">
        <ele>5.019324</ele>
        <time>2026-07-15T12:37:36.000Z</time>
      </trkpt>
      <trkpt lat="45.68184" lon="13.43187">
        <ele>4.998076</ele>
        <time>2026-07-15T12:37:39.000Z</time>
      </trkpt>
      <trkpt lat="45.68178" lon="13.43186">
        <ele>4.986127</ele>
        <time>2026-07-15T12:37:41.000Z</time>
      </trkpt>
      <trkpt lat="45.68156" lon="13.43191">
        <ele>4.947698</ele>
        <time>2026-07-15T12:37:47.000Z</time>
      </trkpt>
      <trkpt lat="45.68151" lon="13.43194">
        <ele>4.939582</ele>
        <time>2026-07-15T12:37:51.000Z</time>
      </trkpt>
      <trkpt lat="45.68156" lon="13.43192">
        <ele>4.930868</ele>
        <time>2026-07-15T12:38:49.000Z</time>
      </trkpt>
      <trkpt lat="45.68159" lon="13.43188">
        <ele>4.923975</ele>
        <time>2026-07-15T12:38:51.000Z</time>
      </trkpt>
      <trkpt lat="45.68161" lon="13.43168">
        <ele>4.90024</ele>
        <time>2026-07-15T12:38:55.000Z</time>
      </trkpt>
      <trkpt lat="45.68155" lon="13.43143">
        <ele>4.867793</ele>
        <time>2026-07-15T12:39:00.000Z</time>
      </trkpt>
      <trkpt lat="45.68145" lon="13.43113">
        <ele>4.827287</ele>
        <time>2026-07-15T12:39:07.000Z</time>
      </trkpt>
      <trkpt lat="45.68135" lon="13.43092">
        <ele>4.797035</ele>
        <time>2026-07-15T12:39:11.000Z</time>
      </trkpt>
      <trkpt lat="45.68133" lon="13.43086">
        <ele>4.788805</ele>
        <time>2026-07-15T12:39:12.000Z</time>
      </trkpt>
      <trkpt lat="45.68126" lon="13.43069">
        <ele>4.767414</ele>
        <time>2026-07-15T12:39:15.000Z</time>
      </trkpt>
      <trkpt lat="45.68122" lon="13.43057">
        <ele>4.753334</ele>
        <time>2026-07-15T12:39:17.000Z</time>
      </trkpt>
      <trkpt lat="45.6812" lon="13.43051">
        <ele>4.746101</ele>
        <time>2026-07-15T12:39:18.000Z</time>
      </trkpt>
      <trkpt lat="45.68116" lon="13.43038">
        <ele>4.731394</ele>
        <time>2026-07-15T12:39:20.000Z</time>
      </trkpt>
      <trkpt lat="45.68106" lon="13.43011">
        <ele>4.700046</ele>
        <time>2026-07-15T12:39:24.000Z</time>
      </trkpt>
      <trkpt lat="45.68096" lon="13.42984">
        <ele>4.668033</ele>
        <time>2026-07-15T12:39:28.000Z</time>
      </trkpt>
      <trkpt lat="45.68093" lon="13.42978">
        <ele>4.659971</ele>
        <time>2026-07-15T12:39:29.000Z</time>
      </trkpt>
      <trkpt lat="45.68076" lon="13.42938">
        <ele>4.611299</ele>
        <time>2026-07-15T12:39:35.000Z</time>
      </trkpt>
      <trkpt lat="45.68073" lon="13.42932">
        <ele>4.603539</ele>
        <time>2026-07-15T12:39:36.000Z</time>
      </trkpt>
      <trkpt lat="45.68061" lon="13.42907">
        <ele>4.571993</ele>
        <time>2026-07-15T12:39:40.000Z</time>
      </trkpt>
      <trkpt lat="45.68054" lon="13.42894">
        <ele>4.555343</ele>
        <time>2026-07-15T12:39:42.000Z</time>
      </trkpt>
      <trkpt lat="45.6804" lon="13.42863">
        <ele>4.517025</ele>
        <time>2026-07-15T12:39:47.000Z</time>
      </trkpt>
      <trkpt lat="45.68032" lon="13.42843">
        <ele>4.321866</ele>
        <time>2026-07-15T12:39:50.000Z</time>
      </trkpt>
      <trkpt lat="45.6801" lon="13.42789">
        <ele>3.660776</ele>
        <time>2026-07-15T12:39:58.000Z</time>
      </trkpt>
      <trkpt lat="45.67995" lon="13.42747">
        <ele>3.15283</ele>
        <time>2026-07-15T12:40:04.000Z</time>
      </trkpt>
      <trkpt lat="45.67979" lon="13.42702">
        <ele>2.617953</ele>
        <time>2026-07-15T12:40:10.000Z</time>
      </trkpt>
      <trkpt lat="45.67977" lon="13.42695">
        <ele>2.534545</ele>
        <time>2026-07-15T12:40:11.000Z</time>
      </trkpt>
      <trkpt lat="45.67968" lon="13.42667">
        <ele>2.216933</ele>
        <time>2026-07-15T12:40:15.000Z</time>
      </trkpt>
      <trkpt lat="45.67957" lon="13.42626">
        <ele>1.793543</ele>
        <time>2026-07-15T12:40:21.000Z</time>
      </trkpt>
      <trkpt lat="45.67948" lon="13.426">
        <ele>1.916953</ele>
        <time>2026-07-15T12:40:25.000Z</time>
      </trkpt>
      <trkpt lat="45.67945" lon="13.4258">
        <ele>2.000782</ele>
        <time>2026-07-15T12:40:28.000Z</time>
      </trkpt>
      <trkpt lat="45.67945" lon="13.42567">
        <ele>2.055805</ele>
        <time>2026-07-15T12:40:30.000Z</time>
      </trkpt>
      <trkpt lat="45.67948" lon="13.42554">
        <ele>2.114539</ele>
        <time>2026-07-15T12:40:32.000Z</time>
      </trkpt>
      <trkpt lat="45.67962" lon="13.42536">
        <ele>2.232771</ele>
        <time>2026-07-15T12:40:36.000Z</time>
      </trkpt>
      <trkpt lat="45.68" lon="13.425">
        <ele>2.506732</ele>
        <time>2026-07-15T12:40:45.000Z</time>
      </trkpt>
      <trkpt lat="45.68022" lon="13.42487">
        <ele>2.651731</ele>
        <time>2026-07-15T12:40:50.000Z</time>
      </trkpt>
      <trkpt lat="45.68029" lon="13.42477">
        <ele>2.709126</ele>
        <time>2026-07-15T12:40:52.000Z</time>
      </trkpt>
      <trkpt lat="45.68027" lon="13.42465">
        <ele>2.75947</ele>
        <time>2026-07-15T12:40:54.000Z</time>
      </trkpt>
      <trkpt lat="45.68026" lon="13.4246">
        <ele>2.782143</ele>
        <time>2026-07-15T12:40:55.000Z</time>
      </trkpt>
      <trkpt lat="45.68027" lon="13.42455">
        <ele>2.804732</ele>
        <time>2026-07-15T12:40:56.000Z</time>
      </trkpt>
      <trkpt lat="45.68033" lon="13.42446">
        <ele>2.85351</ele>
        <time>2026-07-15T12:40:58.000Z</time>
      </trkpt>
      <trkpt lat="45.68037" lon="13.42434">
        <ele>2.906938</ele>
        <time>2026-07-15T12:41:00.000Z</time>
      </trkpt>
      <trkpt lat="45.68038" lon="13.42426">
        <ele>2.935317</ele>
        <time>2026-07-15T12:41:01.000Z</time>
      </trkpt>
      <trkpt lat="45.68037" lon="13.42387">
        <ele>3.078469</ele>
        <time>2026-07-15T12:41:06.000Z</time>
      </trkpt>
      <trkpt lat="45.68038" lon="13.42323">
        <ele>3.309543</ele>
        <time>2026-07-15T12:41:14.000Z</time>
      </trkpt>
      <trkpt lat="45.6804" lon="13.4229">
        <ele>3.431215</ele>
        <time>2026-07-15T12:41:18.000Z</time>
      </trkpt>
      <trkpt lat="45.68043" lon="13.42256">
        <ele>3.55361</ele>
        <time>2026-07-15T12:41:22.000Z</time>
      </trkpt>
      <trkpt lat="45.68044" lon="13.4224">
        <ele>3.613272</ele>
        <time>2026-07-15T12:41:24.000Z</time>
      </trkpt>
      <trkpt lat="45.68055" lon="13.42185">
        <ele>3.815492</ele>
        <time>2026-07-15T12:41:31.000Z</time>
      </trkpt>
      <trkpt lat="45.68069" lon="13.4213">
        <ele>3.960504</ele>
        <time>2026-07-15T12:41:38.000Z</time>
      </trkpt>
      <trkpt lat="45.68089" lon="13.42058">
        <ele>4.154506</ele>
        <time>2026-07-15T12:41:47.000Z</time>
      </trkpt>
      <trkpt lat="45.68107" lon="13.41985">
        <ele>4.348262</ele>
        <time>2026-07-15T12:41:56.000Z</time>
      </trkpt>
      <trkpt lat="45.68124" lon="13.41928">
        <ele>4.524772</ele>
        <time>2026-07-15T12:42:03.000Z</time>
      </trkpt>
      <trkpt lat="45.68143" lon="13.41862">
        <ele>4.771765</ele>
        <time>2026-07-15T12:42:11.000Z</time>
      </trkpt>
      <trkpt lat="45.68158" lon="13.41803">
        <ele>4.991342</ele>
        <time>2026-07-15T12:42:18.000Z</time>
      </trkpt>
      <trkpt lat="45.6817" lon="13.41757">
        <ele>5.165429</ele>
        <time>2026-07-15T12:42:24.000Z</time>
      </trkpt>
      <trkpt lat="45.68169" lon="13.41749">
        <ele>5.191619</ele>
        <time>2026-07-15T12:42:25.000Z</time>
      </trkpt>
      <trkpt lat="45.68167" lon="13.41742">
        <ele>5.218808</ele>
        <time>2026-07-15T12:42:26.000Z</time>
      </trkpt>
      <trkpt lat="45.68161" lon="13.41729">
        <ele>5.271502</ele>
        <time>2026-07-15T12:42:28.000Z</time>
      </trkpt>
      <trkpt lat="45.68158" lon="13.41723">
        <ele>5.298225</ele>
        <time>2026-07-15T12:42:29.000Z</time>
      </trkpt>
      <trkpt lat="45.68154" lon="13.41718">
        <ele>5.325668</ele>
        <time>2026-07-15T12:42:30.000Z</time>
      </trkpt>
      <trkpt lat="45.68147" lon="13.41707">
        <ele>5.341525</ele>
        <time>2026-07-15T12:42:32.000Z</time>
      </trkpt>
      <trkpt lat="45.68145" lon="13.41701">
        <ele>5.339229</ele>
        <time>2026-07-15T12:42:33.000Z</time>
      </trkpt>
      <trkpt lat="45.68145" lon="13.41694">
        <ele>5.336844</ele>
        <time>2026-07-15T12:42:34.000Z</time>
      </trkpt>
      <trkpt lat="45.68151" lon="13.41683">
        <ele>5.332501</ele>
        <time>2026-07-15T12:42:36.000Z</time>
      </trkpt>
      <trkpt lat="45.6816" lon="13.41675">
        <ele>5.327281</ele>
        <time>2026-07-15T12:42:38.000Z</time>
      </trkpt>
      <trkpt lat="45.68177" lon="13.41664">
        <ele>5.318415</ele>
        <time>2026-07-15T12:42:41.000Z</time>
      </trkpt>
      <trkpt lat="45.68192" lon="13.41648">
        <ele>5.309575</ele>
        <time>2026-07-15T12:42:44.000Z</time>
      </trkpt>
      <trkpt lat="45.68196" lon="13.41642">
        <ele>5.30631</ele>
        <time>2026-07-15T12:42:45.000Z</time>
      </trkpt>
      <trkpt lat="45.68204" lon="13.41626">
        <ele>5.300012</ele>
        <time>2026-07-15T12:42:47.000Z</time>
      </trkpt>
      <trkpt lat="45.68209" lon="13.41609">
        <ele>5.293831</ele>
        <time>2026-07-15T12:42:49.000Z</time>
      </trkpt>
      <trkpt lat="45.68211" lon="13.416">
        <ele>5.29076</ele>
        <time>2026-07-15T12:42:50.000Z</time>
      </trkpt>
      <trkpt lat="45.68229" lon="13.41533">
        <ele>5.266742</ele>
        <time>2026-07-15T12:42:58.000Z</time>
      </trkpt>
      <trkpt lat="45.68231" lon="13.41525">
        <ele>5.263798</ele>
        <time>2026-07-15T12:42:59.000Z</time>
      </trkpt>
      <trkpt lat="45.68242" lon="13.41484">
        <ele>5.024895</ele>
        <time>2026-07-15T12:43:04.000Z</time>
      </trkpt>
      <trkpt lat="45.68255" lon="13.41434">
        <ele>4.569087</ele>
        <time>2026-07-15T12:43:10.000Z</time>
      </trkpt>
      <trkpt lat="45.68273" lon="13.41358">
        <ele>3.883817</ele>
        <time>2026-07-15T12:43:19.000Z</time>
      </trkpt>
      <trkpt lat="45.68275" lon="13.4135">
        <ele>3.80799</ele>
        <time>2026-07-15T12:43:20.000Z</time>
      </trkpt>
      <trkpt lat="45.68293" lon="13.41275">
        <ele>3.130403</ele>
        <time>2026-07-15T12:43:29.000Z</time>
      </trkpt>
      <trkpt lat="45.68311" lon="13.41201">
        <ele>2.776734</ele>
        <time>2026-07-15T12:43:38.000Z</time>
      </trkpt>
      <trkpt lat="45.68329" lon="13.41129">
        <ele>2.467404</ele>
        <time>2026-07-15T12:43:47.000Z</time>
      </trkpt>
      <trkpt lat="45.68342" lon="13.41067">
        <ele>2.209455</ele>
        <time>2026-07-15T12:43:54.000Z</time>
      </trkpt>
      <trkpt lat="45.6835" lon="13.40997">
        <ele>1.961712</ele>
        <time>2026-07-15T12:44:02.000Z</time>
      </trkpt>
      <trkpt lat="45.6835" lon="13.40935">
        <ele>1.806883</ele>
        <time>2026-07-15T12:44:09.000Z</time>
      </trkpt>
      <trkpt lat="45.68344" lon="13.40867">
        <ele>1.636667</ele>
        <time>2026-07-15T12:44:17.000Z</time>
      </trkpt>
      <trkpt lat="45.68342" lon="13.40859">
        <ele>1.615499</ele>
        <time>2026-07-15T12:44:18.000Z</time>
      </trkpt>
      <trkpt lat="45.68329" lon="13.40798">
        <ele>1.455575</ele>
        <time>2026-07-15T12:44:26.000Z</time>
      </trkpt>
      <trkpt lat="45.68313" lon="13.40746">
        <ele>1.426657</ele>
        <time>2026-07-15T12:44:33.000Z</time>
      </trkpt>
      <trkpt lat="45.68301" lon="13.40714">
        <ele>1.4883</ele>
        <time>2026-07-15T12:44:39.000Z</time>
      </trkpt>
      <trkpt lat="45.68297" lon="13.407">
        <ele>1.515322</ele>
        <time>2026-07-15T12:44:43.000Z</time>
      </trkpt>
      <trkpt lat="45.68298" lon="13.40696">
        <ele>1.521896</ele>
        <time>2026-07-15T12:44:44.000Z</time>
      </trkpt>
      <trkpt lat="45.68304" lon="13.40676">
        <ele>1.559091</ele>
        <time>2026-07-15T12:44:49.000Z</time>
      </trkpt>
      <trkpt lat="45.68301" lon="13.40662">
        <ele>1.583645</ele>
        <time>2026-07-15T12:44:52.000Z</time>
      </trkpt>
      <trkpt lat="45.68298" lon="13.40658">
        <ele>1.593855</ele>
        <time>2026-07-15T12:44:53.000Z</time>
      </trkpt>
      <trkpt lat="45.68294" lon="13.40655">
        <ele>1.604742</ele>
        <time>2026-07-15T12:44:54.000Z</time>
      </trkpt>
      <trkpt lat="45.68287" lon="13.40648">
        <ele>1.626427</ele>
        <time>2026-07-15T12:44:56.000Z</time>
      </trkpt>
      <trkpt lat="45.68284" lon="13.40643">
        <ele>1.637303</ele>
        <time>2026-07-15T12:44:57.000Z</time>
      </trkpt>
      <trkpt lat="45.68266" lon="13.40604">
        <ele>1.716678</ele>
        <time>2026-07-15T12:45:04.000Z</time>
      </trkpt>
      <trkpt lat="45.6824" lon="13.40544">
        <ele>1.830028</ele>
        <time>2026-07-15T12:45:14.000Z</time>
      </trkpt>
      <trkpt lat="45.6823" lon="13.40522">
        <ele>1.860003</ele>
        <time>2026-07-15T12:45:18.000Z</time>
      </trkpt>
      <trkpt lat="45.6821" lon="13.40479">
        <ele>1.918522</ele>
        <time>2026-07-15T12:45:25.000Z</time>
      </trkpt>
      <trkpt lat="45.6819" lon="13.40435">
        <ele>1.977687</ele>
        <time>2026-07-15T12:45:32.000Z</time>
      </trkpt>
      <trkpt lat="45.68165" lon="13.40381">
        <ele>2.05142</ele>
        <time>2026-07-15T12:45:41.000Z</time>
      </trkpt>
      <trkpt lat="45.68137" lon="13.40322">
        <ele>2.071741</ele>
        <time>2026-07-15T12:45:50.000Z</time>
      </trkpt>
      <trkpt lat="45.68113" lon="13.40267">
        <ele>1.940008</ele>
        <time>2026-07-15T12:45:58.000Z</time>
      </trkpt>
      <trkpt lat="45.68111" lon="13.40257">
        <ele>1.920022</ele>
        <time>2026-07-15T12:45:59.000Z</time>
      </trkpt>
      <trkpt lat="45.68107" lon="13.40224">
        <ele>1.851638</ele>
        <time>2026-07-15T12:46:03.000Z</time>
      </trkpt>
      <trkpt lat="45.68102" lon="13.40177">
        <ele>1.754727</ele>
        <time>2026-07-15T12:46:10.000Z</time>
      </trkpt>
      <trkpt lat="45.68095" lon="13.40126">
        <ele>1.650172</ele>
        <time>2026-07-15T12:46:17.000Z</time>
      </trkpt>
      <trkpt lat="45.68089" lon="13.40083">
        <ele>1.577103</ele>
        <time>2026-07-15T12:46:23.000Z</time>
      </trkpt>
      <trkpt lat="45.68081" lon="13.40015">
        <ele>1.519925</ele>
        <time>2026-07-15T12:46:32.000Z</time>
      </trkpt>
      <trkpt lat="45.68069" lon="13.39941">
        <ele>1.457104</ele>
        <time>2026-07-15T12:46:42.000Z</time>
      </trkpt>
      <trkpt lat="45.68067" lon="13.39934">
        <ele>1.451144</ele>
        <time>2026-07-15T12:46:43.000Z</time>
      </trkpt>
      <trkpt lat="45.68054" lon="13.39906">
        <ele>1.422818</ele>
        <time>2026-07-15T12:46:48.000Z</time>
      </trkpt>
      <trkpt lat="45.6804" lon="13.39876">
        <ele>1.393691</ele>
        <time>2026-07-15T12:46:54.000Z</time>
      </trkpt>
      <trkpt lat="45.68021" lon="13.39836">
        <ele>1.435078</ele>
        <time>2026-07-15T12:47:01.000Z</time>
      </trkpt>
      <trkpt lat="45.68016" lon="13.39824">
        <ele>1.465237</ele>
        <time>2026-07-15T12:47:03.000Z</time>
      </trkpt>
      <trkpt lat="45.68008" lon="13.39806">
        <ele>1.514038</ele>
        <time>2026-07-15T12:47:06.000Z</time>
      </trkpt>
      <trkpt lat="45.67998" lon="13.39789">
        <ele>1.563715</ele>
        <time>2026-07-15T12:47:09.000Z</time>
      </trkpt>
      <trkpt lat="45.67994" lon="13.39783">
        <ele>1.5819</ele>
        <time>2026-07-15T12:47:10.000Z</time>
      </trkpt>
      <trkpt lat="45.67991" lon="13.39779">
        <ele>1.597001</ele>
        <time>2026-07-15T12:47:11.000Z</time>
      </trkpt>
      <trkpt lat="45.6798" lon="13.3976">
        <ele>1.649932</ele>
        <time>2026-07-15T12:47:15.000Z</time>
      </trkpt>
      <trkpt lat="45.6796" lon="13.39719">
        <ele>1.762099</ele>
        <time>2026-07-15T12:47:23.000Z</time>
      </trkpt>
      <trkpt lat="45.67945" lon="13.39686">
        <ele>1.850487</ele>
        <time>2026-07-15T12:47:30.000Z</time>
      </trkpt>
      <trkpt lat="45.6793" lon="13.39658">
        <ele>1.928802</ele>
        <time>2026-07-15T12:47:36.000Z</time>
      </trkpt>
      <trkpt lat="45.6792" lon="13.39627">
        <ele>1.996053</ele>
        <time>2026-07-15T12:47:41.000Z</time>
      </trkpt>
      <trkpt lat="45.67916" lon="13.39614">
        <ele>2.024255</ele>
        <time>2026-07-15T12:47:43.000Z</time>
      </trkpt>
      <trkpt lat="45.67906" lon="13.39591">
        <ele>2.07582</ele>
        <time>2026-07-15T12:47:47.000Z</time>
      </trkpt>
      <trkpt lat="45.67895" lon="13.39562">
        <ele>2.139077</ele>
        <time>2026-07-15T12:47:52.000Z</time>
      </trkpt>
      <trkpt lat="45.67891" lon="13.39551">
        <ele>2.162987</ele>
        <time>2026-07-15T12:47:54.000Z</time>
      </trkpt>
      <trkpt lat="45.67883" lon="13.39526">
        <ele>2.217083</ele>
        <time>2026-07-15T12:47:59.000Z</time>
      </trkpt>
      <trkpt lat="45.6788" lon="13.39515">
        <ele>2.238305</ele>
        <time>2026-07-15T12:48:01.000Z</time>
      </trkpt>
      <trkpt lat="45.67868" lon="13.39477">
        <ele>2.31857</ele>
        <time>2026-07-15T12:48:09.000Z</time>
      </trkpt>
      <trkpt lat="45.67865" lon="13.39463">
        <ele>2.346578</ele>
        <time>2026-07-15T12:48:13.000Z</time>
      </trkpt>
      <trkpt lat="45.67863" lon="13.39434">
        <ele>2.402399</ele>
        <time>2026-07-15T12:48:20.000Z</time>
      </trkpt>
      <trkpt lat="45.67862" lon="13.39407">
        <ele>2.414948</ele>
        <time>2026-07-15T12:48:26.000Z</time>
      </trkpt>
      <trkpt lat="45.67859" lon="13.39377">
        <ele>2.260638</ele>
        <time>2026-07-15T12:48:33.000Z</time>
      </trkpt>
      <trkpt lat="45.67852" lon="13.3934">
        <ele>2.064011</ele>
        <time>2026-07-15T12:48:41.000Z</time>
      </trkpt>
      <trkpt lat="45.67849" lon="13.39313">
        <ele>1.925157</ele>
        <time>2026-07-15T12:48:46.000Z</time>
      </trkpt>
      <trkpt lat="45.67848" lon="13.39294">
        <ele>1.831496</ele>
        <time>2026-07-15T12:48:49.000Z</time>
      </trkpt>
      <trkpt lat="45.67844" lon="13.39258">
        <ele>1.643383</ele>
        <time>2026-07-15T12:48:55.000Z</time>
      </trkpt>
      <trkpt lat="45.6784" lon="13.39234">
        <ele>1.516136</ele>
        <time>2026-07-15T12:48:59.000Z</time>
      </trkpt>
      <trkpt lat="45.67832" lon="13.39181">
        <ele>1.239567</ele>
        <time>2026-07-15T12:49:08.000Z</time>
      </trkpt>
      <trkpt lat="45.67827" lon="13.39127">
        <ele>1.054741</ele>
        <time>2026-07-15T12:49:17.000Z</time>
      </trkpt>
      <trkpt lat="45.67822" lon="13.39083">
        <ele>0.951895</ele>
        <time>2026-07-15T12:49:24.000Z</time>
      </trkpt>
      <trkpt lat="45.67817" lon="13.39049">
        <ele>0.873394</ele>
        <time>2026-07-15T12:49:30.000Z</time>
      </trkpt>
      <trkpt lat="45.67816" lon="13.39033">
        <ele>0.836386</ele>
        <time>2026-07-15T12:49:33.000Z</time>
      </trkpt>
      <trkpt lat="45.6782" lon="13.38991">
        <ele>0.738636</ele>
        <time>2026-07-15T12:49:40.000Z</time>
      </trkpt>
      <trkpt lat="45.6783" lon="13.3895">
        <ele>0.63988</ele>
        <time>2026-07-15T12:49:47.000Z</time>
      </trkpt>
      <trkpt lat="45.67832" lon="13.38945">
        <ele>0.626512</ele>
        <time>2026-07-15T12:49:48.000Z</time>
      </trkpt>
      <trkpt lat="45.67855" lon="13.38911">
        <ele>0.673993</ele>
        <time>2026-07-15T12:49:56.000Z</time>
      </trkpt>
      <trkpt lat="45.67861" lon="13.38894">
        <ele>0.928881</ele>
        <time>2026-07-15T12:50:00.000Z</time>
      </trkpt>
      <trkpt lat="45.67866" lon="13.38881">
        <ele>1.139598</ele>
        <time>2026-07-15T12:50:04.000Z</time>
      </trkpt>
      <trkpt lat="45.67872" lon="13.3887">
        <ele>1.335482</ele>
        <time>2026-07-15T12:50:09.000Z</time>
      </trkpt>
      <trkpt lat="45.67879" lon="13.38866">
        <ele>1.482396</ele>
        <time>2026-07-15T12:50:14.000Z</time>
      </trkpt>
      <trkpt lat="45.67879" lon="13.38866">
        <ele>1.482396</ele>
        <time>2026-07-15T12:50:15.000Z</time>
      </trkpt>
      <trkpt lat="45.67882" lon="13.38858">
        <ele>1.606504</ele>
        <time>2026-07-15T12:54:29.000Z</time>
      </trkpt>
      <trkpt lat="45.67887" lon="13.3885">
        <ele>1.748583</ele>
        <time>2026-07-15T12:54:33.000Z</time>
      </trkpt>
      <trkpt lat="45.67899" lon="13.38832">
        <ele>2.091992</ele>
        <time>2026-07-15T12:54:39.000Z</time>
      </trkpt>
      <trkpt lat="45.67914" lon="13.38837">
        <ele>2.382265</ele>
        <time>2026-07-15T12:54:44.000Z</time>
      </trkpt>
      <trkpt lat="45.67923" lon="13.38849">
        <ele>2.619613</ele>
        <time>2026-07-15T12:54:50.000Z</time>
      </trkpt>
      <trkpt lat="45.67924" lon="13.38849">
        <ele>2.638501</ele>
        <time>2026-07-15T12:54:51.000Z</time>
      </trkpt>
      <trkpt lat="45.67925" lon="13.38849">
        <ele>2.660705</ele>
        <time>2026-07-15T12:54:52.000Z</time>
      </trkpt>
      <trkpt lat="45.67928" lon="13.38848">
        <ele>2.73558</ele>
        <time>2026-07-15T12:54:54.000Z</time>
      </trkpt>
      <trkpt lat="45.6793" lon="13.38846">
        <ele>2.775964</ele>
        <time>2026-07-15T12:54:55.000Z</time>
      </trkpt>
      <trkpt lat="45.67928" lon="13.38829">
        <ele>3.009352</ele>
        <time>2026-07-15T12:54:59.000Z</time>
      </trkpt>
      <trkpt lat="45.67933" lon="13.38814">
        <ele>3.235818</ele>
        <time>2026-07-15T12:55:03.000Z</time>
      </trkpt>
      <trkpt lat="45.67937" lon="13.38812">
        <ele>3.312723</ele>
        <time>2026-07-15T12:55:07.000Z</time>
      </trkpt>
      <trkpt lat="45.67944" lon="13.38816">
        <ele>3.463782</ele>
        <time>2026-07-15T12:55:14.000Z</time>
      </trkpt>
      <trkpt lat="45.67947" lon="13.38817">
        <ele>3.521319</ele>
        <time>2026-07-15T12:55:15.000Z</time>
      </trkpt>
      <trkpt lat="45.6795" lon="13.38818">
        <ele>3.575882</ele>
        <time>2026-07-15T12:55:16.000Z</time>
      </trkpt>
      <trkpt lat="45.67955" lon="13.38818">
        <ele>3.673942</ele>
        <time>2026-07-15T12:55:18.000Z</time>
      </trkpt>
      <trkpt lat="45.67959" lon="13.38816">
        <ele>3.75132</ele>
        <time>2026-07-15T12:55:20.000Z</time>
      </trkpt>
      <trkpt lat="45.67973" lon="13.38816">
        <ele>4.038917</ele>
        <time>2026-07-15T12:55:25.000Z</time>
      </trkpt>
      <trkpt lat="45.67988" lon="13.38816">
        <ele>3.954733</ele>
        <time>2026-07-15T12:55:29.000Z</time>
      </trkpt>
      <trkpt lat="45.67997" lon="13.38814">
        <ele>3.890847</ele>
        <time>2026-07-15T12:55:31.000Z</time>
      </trkpt>
      <trkpt lat="45.68001" lon="13.38812">
        <ele>3.858018</ele>
        <time>2026-07-15T12:55:32.000Z</time>
      </trkpt>
      <trkpt lat="45.68025" lon="13.38809">
        <ele>3.680615</ele>
        <time>2026-07-15T12:55:37.000Z</time>
      </trkpt>
      <trkpt lat="45.68038" lon="13.38808">
        <ele>3.5819</ele>
        <time>2026-07-15T12:55:40.000Z</time>
      </trkpt>
      <trkpt lat="45.68056" lon="13.38807">
        <ele>3.442924</ele>
        <time>2026-07-15T12:55:44.000Z</time>
      </trkpt>
      <trkpt lat="45.68075" lon="13.38807">
        <ele>3.301741</ele>
        <time>2026-07-15T12:55:48.000Z</time>
      </trkpt>
      <trkpt lat="45.6808" lon="13.38806">
        <ele>3.265749</ele>
        <time>2026-07-15T12:55:49.000Z</time>
      </trkpt>
      <trkpt lat="45.68094" lon="13.38804">
        <ele>3.161393</ele>
        <time>2026-07-15T12:55:52.000Z</time>
      </trkpt>
      <trkpt lat="45.68126" lon="13.38794">
        <ele>2.914423</ele>
        <time>2026-07-15T12:56:00.000Z</time>
      </trkpt>
      <trkpt lat="45.68133" lon="13.38787">
        <ele>2.851633</ele>
        <time>2026-07-15T12:56:02.000Z</time>
      </trkpt>
      <trkpt lat="45.68135" lon="13.38782">
        <ele>2.820828</ele>
        <time>2026-07-15T12:56:03.000Z</time>
      </trkpt>
      <trkpt lat="45.68145" lon="13.38755">
        <ele>2.811899</ele>
        <time>2026-07-15T12:56:08.000Z</time>
      </trkpt>
      <trkpt lat="45.68148" lon="13.38744">
        <ele>2.923367</ele>
        <time>2026-07-15T12:56:10.000Z</time>
      </trkpt>
      <trkpt lat="45.68151" lon="13.38736">
        <ele>3.022692</ele>
        <time>2026-07-15T12:56:12.000Z</time>
      </trkpt>
      <trkpt lat="45.68158" lon="13.3873">
        <ele>3.131131</ele>
        <time>2026-07-15T12:56:14.000Z</time>
      </trkpt>
      <trkpt lat="45.68179" lon="13.38725">
        <ele>3.428634</ele>
        <time>2026-07-15T12:56:19.000Z</time>
      </trkpt>
      <trkpt lat="45.68187" lon="13.38718">
        <ele>3.563393</ele>
        <time>2026-07-15T12:56:21.000Z</time>
      </trkpt>
      <trkpt lat="45.68192" lon="13.38709">
        <ele>3.680232</ele>
        <time>2026-07-15T12:56:23.000Z</time>
      </trkpt>
      <trkpt lat="45.68194" lon="13.38699">
        <ele>3.779046</ele>
        <time>2026-07-15T12:56:25.000Z</time>
      </trkpt>
      <trkpt lat="45.68197" lon="13.38694">
        <ele>3.849128</ele>
        <time>2026-07-15T12:56:27.000Z</time>
      </trkpt>
      <trkpt lat="45.68207" lon="13.38691">
        <ele>3.980085</ele>
        <time>2026-07-15T12:56:31.000Z</time>
      </trkpt>
      <trkpt lat="45.68211" lon="13.38688">
        <ele>4.048586</ele>
        <time>2026-07-15T12:56:33.000Z</time>
      </trkpt>
      <trkpt lat="45.68211" lon="13.38685">
        <ele>4.081708</ele>
        <time>2026-07-15T12:56:34.000Z</time>
      </trkpt>
      <trkpt lat="45.6821" lon="13.38683">
        <ele>4.107102</ele>
        <time>2026-07-15T12:56:35.000Z</time>
      </trkpt>
      <trkpt lat="45.68205" lon="13.38685">
        <ele>4.178486</ele>
        <time>2026-07-15T12:56:37.000Z</time>
      </trkpt>
      <trkpt lat="45.68193" lon="13.38697">
        <ele>4.387003</ele>
        <time>2026-07-15T12:56:42.000Z</time>
      </trkpt>
      <trkpt lat="45.68184" lon="13.3872">
        <ele>4.641826</ele>
        <time>2026-07-15T12:56:47.000Z</time>
      </trkpt>
      <trkpt lat="45.68167" lon="13.38728">
        <ele>4.89916</ele>
        <time>2026-07-15T12:56:52.000Z</time>
      </trkpt>
      <trkpt lat="45.68152" lon="13.38731">
        <ele>5.106996</ele>
        <time>2026-07-15T12:56:56.000Z</time>
      </trkpt>
      <trkpt lat="45.68149" lon="13.38734">
        <ele>5.155248</ele>
        <time>2026-07-15T12:56:57.000Z</time>
      </trkpt>
      <trkpt lat="45.68143" lon="13.38749">
        <ele>5.25109</ele>
        <time>2026-07-15T12:57:01.000Z</time>
      </trkpt>
      <trkpt lat="45.68139" lon="13.38764">
        <ele>5.269616</ele>
        <time>2026-07-15T12:57:04.000Z</time>
      </trkpt>
      <trkpt lat="45.68137" lon="13.38766">
        <ele>5.27367</ele>
        <time>2026-07-15T12:57:05.000Z</time>
      </trkpt>
      <trkpt lat="45.68136" lon="13.38766">
        <ele>5.276203</ele>
        <time>2026-07-15T12:57:06.000Z</time>
      </trkpt>
      <trkpt lat="45.68137" lon="13.38755">
        <ele>5.289198</ele>
        <time>2026-07-15T12:57:09.000Z</time>
      </trkpt>
      <trkpt lat="45.68146" lon="13.38726">
        <ele>5.326761</ele>
        <time>2026-07-15T12:57:14.000Z</time>
      </trkpt>
      <trkpt lat="45.68158" lon="13.38689">
        <ele>5.375542</ele>
        <time>2026-07-15T12:57:20.000Z</time>
      </trkpt>
      <trkpt lat="45.68163" lon="13.38678">
        <ele>5.390304</ele>
        <time>2026-07-15T12:57:22.000Z</time>
      </trkpt>
      <trkpt lat="45.6817" lon="13.38669">
        <ele>5.405926</ele>
        <time>2026-07-15T12:57:24.000Z</time>
      </trkpt>
      <trkpt lat="45.68175" lon="13.38667">
        <ele>5.414087</ele>
        <time>2026-07-15T12:57:25.000Z</time>
      </trkpt>
      <trkpt lat="45.68193" lon="13.38661">
        <ele>5.445878</ele>
        <time>2026-07-15T12:57:29.000Z</time>
      </trkpt>
      <trkpt lat="45.68202" lon="13.38659">
        <ele>5.461312</ele>
        <time>2026-07-15T12:57:31.000Z</time>
      </trkpt>
      <trkpt lat="45.68222" lon="13.38656">
        <ele>5.494669</ele>
        <time>2026-07-15T12:57:35.000Z</time>
      </trkpt>
      <trkpt lat="45.68243" lon="13.38653">
        <ele>5.529764</ele>
        <time>2026-07-15T12:57:39.000Z</time>
      </trkpt>
      <trkpt lat="45.68263" lon="13.38651">
        <ele>5.468622</ele>
        <time>2026-07-15T12:57:43.000Z</time>
      </trkpt>
      <trkpt lat="45.68288" lon="13.38648">
        <ele>5.323745</ele>
        <time>2026-07-15T12:57:48.000Z</time>
      </trkpt>
      <trkpt lat="45.68342" lon="13.38641">
        <ele>5.01289</ele>
        <time>2026-07-15T12:57:58.000Z</time>
      </trkpt>
      <trkpt lat="45.68397" lon="13.38633">
        <ele>4.694604</ele>
        <time>2026-07-15T12:58:08.000Z</time>
      </trkpt>
      <trkpt lat="45.68408" lon="13.38632">
        <ele>4.6291</ele>
        <time>2026-07-15T12:58:10.000Z</time>
      </trkpt>
      <trkpt lat="45.68465" lon="13.38625">
        <ele>3.939364</ele>
        <time>2026-07-15T12:58:20.000Z</time>
      </trkpt>
      <trkpt lat="45.68471" lon="13.38624">
        <ele>3.845159</ele>
        <time>2026-07-15T12:58:21.000Z</time>
      </trkpt>
      <trkpt lat="45.68514" lon="13.38619">
        <ele>3.14278</ele>
        <time>2026-07-15T12:58:28.000Z</time>
      </trkpt>
      <trkpt lat="45.68565" lon="13.3861">
        <ele>2.330424</ele>
        <time>2026-07-15T12:58:36.000Z</time>
      </trkpt>
      <trkpt lat="45.68571" lon="13.38606">
        <ele>2.227089</ele>
        <time>2026-07-15T12:58:37.000Z</time>
      </trkpt>
      <trkpt lat="45.68599" lon="13.38582">
        <ele>1.712037</ele>
        <time>2026-07-15T12:58:42.000Z</time>
      </trkpt>
      <trkpt lat="45.68604" lon="13.38577">
        <ele>1.6262</ele>
        <time>2026-07-15T12:58:43.000Z</time>
      </trkpt>
      <trkpt lat="45.68648" lon="13.38533">
        <ele>1.304599</ele>
        <time>2026-07-15T12:58:52.000Z</time>
      </trkpt>
      <trkpt lat="45.68664" lon="13.38516">
        <ele>1.182974</ele>
        <time>2026-07-15T12:58:56.000Z</time>
      </trkpt>
      <trkpt lat="45.68668" lon="13.38513">
        <ele>1.154279</ele>
        <time>2026-07-15T12:58:57.000Z</time>
      </trkpt>
      <trkpt lat="45.68673" lon="13.38512">
        <ele>1.128711</ele>
        <time>2026-07-15T12:58:58.000Z</time>
      </trkpt>
      <trkpt lat="45.68681" lon="13.38511">
        <ele>1.075328</ele>
        <time>2026-07-15T12:59:00.000Z</time>
      </trkpt>
      <trkpt lat="45.68686" lon="13.38508">
        <ele>1.044489</ele>
        <time>2026-07-15T12:59:01.000Z</time>
      </trkpt>
      <trkpt lat="45.6872" lon="13.38502">
        <ele>0.838923</ele>
        <time>2026-07-15T12:59:07.000Z</time>
      </trkpt>
      <trkpt lat="45.68767" lon="13.38495">
        <ele>0.556543</ele>
        <time>2026-07-15T12:59:15.000Z</time>
      </trkpt>
      <trkpt lat="45.68822" lon="13.38489">
        <ele>0.733939</ele>
        <time>2026-07-15T12:59:24.000Z</time>
      </trkpt>
      <trkpt lat="45.68834" lon="13.38488">
        <ele>0.773889</ele>
        <time>2026-07-15T12:59:26.000Z</time>
      </trkpt>
      <trkpt lat="45.6889" lon="13.38479">
        <ele>0.954944</ele>
        <time>2026-07-15T12:59:35.000Z</time>
      </trkpt>
      <trkpt lat="45.68946" lon="13.38472">
        <ele>1.139001</ele>
        <time>2026-07-15T12:59:44.000Z</time>
      </trkpt>
      <trkpt lat="45.68972" lon="13.38469">
        <ele>1.133515</ele>
        <time>2026-07-15T12:59:48.000Z</time>
      </trkpt>
      <trkpt lat="45.68992" lon="13.38466">
        <ele>1.129157</ele>
        <time>2026-07-15T12:59:51.000Z</time>
      </trkpt>
      <trkpt lat="45.69031" lon="13.38461">
        <ele>1.120552</ele>
        <time>2026-07-15T12:59:57.000Z</time>
      </trkpt>
      <trkpt lat="45.69091" lon="13.38452">
        <ele>1.107288</ele>
        <time>2026-07-15T13:00:06.000Z</time>
      </trkpt>
      <trkpt lat="45.69104" lon="13.3845">
        <ele>1.104313</ele>
        <time>2026-07-15T13:00:08.000Z</time>
      </trkpt>
      <trkpt lat="45.69159" lon="13.38443">
        <ele>1.27645</ele>
        <time>2026-07-15T13:00:16.000Z</time>
      </trkpt>
      <trkpt lat="45.69165" lon="13.38442">
        <ele>1.310722</ele>
        <time>2026-07-15T13:00:17.000Z</time>
      </trkpt>
      <trkpt lat="45.6922" lon="13.38435">
        <ele>1.600242</ele>
        <time>2026-07-15T13:00:25.000Z</time>
      </trkpt>
      <trkpt lat="45.69235" lon="13.38434">
        <ele>1.674771</ele>
        <time>2026-07-15T13:00:27.000Z</time>
      </trkpt>
      <trkpt lat="45.6929" lon="13.38426">
        <ele>1.967644</ele>
        <time>2026-07-15T13:00:35.000Z</time>
      </trkpt>
      <trkpt lat="45.69311" lon="13.38423">
        <ele>2.101542</ele>
        <time>2026-07-15T13:00:38.000Z</time>
      </trkpt>
      <trkpt lat="45.69367" lon="13.38417">
        <ele>2.570535</ele>
        <time>2026-07-15T13:00:46.000Z</time>
      </trkpt>
      <trkpt lat="45.69381" lon="13.38415">
        <ele>2.688441</ele>
        <time>2026-07-15T13:00:48.000Z</time>
      </trkpt>
      <trkpt lat="45.6943" lon="13.38411">
        <ele>3.103753</ele>
        <time>2026-07-15T13:00:55.000Z</time>
      </trkpt>
      <trkpt lat="45.69487" lon="13.38401">
        <ele>3.575878</ele>
        <time>2026-07-15T13:01:03.000Z</time>
      </trkpt>
      <trkpt lat="45.69494" lon="13.384">
        <ele>3.616073</ele>
        <time>2026-07-15T13:01:04.000Z</time>
      </trkpt>
      <trkpt lat="45.6955" lon="13.38392">
        <ele>3.940554</ele>
        <time>2026-07-15T13:01:12.000Z</time>
      </trkpt>
      <trkpt lat="45.69586" lon="13.38388">
        <ele>4.142342</ele>
        <time>2026-07-15T13:01:17.000Z</time>
      </trkpt>
      <trkpt lat="45.69642" lon="13.3838">
        <ele>4.465081</ele>
        <time>2026-07-15T13:01:25.000Z</time>
      </trkpt>
      <trkpt lat="45.69656" lon="13.38378">
        <ele>4.546486</ele>
        <time>2026-07-15T13:01:27.000Z</time>
      </trkpt>
      <trkpt lat="45.69714" lon="13.3837">
        <ele>4.708523</ele>
        <time>2026-07-15T13:01:35.000Z</time>
      </trkpt>
      <trkpt lat="45.69751" lon="13.38366">
        <ele>4.798128</ele>
        <time>2026-07-15T13:01:40.000Z</time>
      </trkpt>
      <trkpt lat="45.69809" lon="13.38358">
        <ele>4.940163</ele>
        <time>2026-07-15T13:01:48.000Z</time>
      </trkpt>
      <trkpt lat="45.69824" lon="13.38356">
        <ele>4.975977</ele>
        <time>2026-07-15T13:01:50.000Z</time>
      </trkpt>
      <trkpt lat="45.69882" lon="13.38348">
        <ele>5.110092</ele>
        <time>2026-07-15T13:01:58.000Z</time>
      </trkpt>
      <trkpt lat="45.69897" lon="13.38347">
        <ele>5.142682</ele>
        <time>2026-07-15T13:02:00.000Z</time>
      </trkpt>
      <trkpt lat="45.69919" lon="13.38346">
        <ele>5.191508</ele>
        <time>2026-07-15T13:02:03.000Z</time>
      </trkpt>
      <trkpt lat="45.69941" lon="13.38341">
        <ele>5.239675</ele>
        <time>2026-07-15T13:02:06.000Z</time>
      </trkpt>
      <trkpt lat="45.69999" lon="13.38332">
        <ele>5.36802</ele>
        <time>2026-07-15T13:02:14.000Z</time>
      </trkpt>
      <trkpt lat="45.70028" lon="13.38329">
        <ele>5.42803</ele>
        <time>2026-07-15T13:02:18.000Z</time>
      </trkpt>
      <trkpt lat="45.70085" lon="13.38321">
        <ele>5.529419</ele>
        <time>2026-07-15T13:02:26.000Z</time>
      </trkpt>
      <trkpt lat="45.70099" lon="13.38319">
        <ele>5.554571</ele>
        <time>2026-07-15T13:02:28.000Z</time>
      </trkpt>
      <trkpt lat="45.70155" lon="13.38312">
        <ele>5.654497</ele>
        <time>2026-07-15T13:02:36.000Z</time>
      </trkpt>
      <trkpt lat="45.70177" lon="13.38309">
        <ele>5.692247</ele>
        <time>2026-07-15T13:02:39.000Z</time>
      </trkpt>
      <trkpt lat="45.70234" lon="13.38301">
        <ele>5.582186</ele>
        <time>2026-07-15T13:02:47.000Z</time>
      </trkpt>
      <trkpt lat="45.70269" lon="13.38296">
        <ele>5.427406</ele>
        <time>2026-07-15T13:02:52.000Z</time>
      </trkpt>
      <trkpt lat="45.70326" lon="13.38289">
        <ele>5.178724</ele>
        <time>2026-07-15T13:03:00.000Z</time>
      </trkpt>
      <trkpt lat="45.70361" lon="13.38285">
        <ele>5.024517</ele>
        <time>2026-07-15T13:03:05.000Z</time>
      </trkpt>
      <trkpt lat="45.70368" lon="13.38284">
        <ele>4.992927</ele>
        <time>2026-07-15T13:03:06.000Z</time>
      </trkpt>
      <trkpt lat="45.70424" lon="13.38277">
        <ele>5.445863</ele>
        <time>2026-07-15T13:03:14.000Z</time>
      </trkpt>
      <trkpt lat="45.70452" lon="13.38272">
        <ele>5.760888</ele>
        <time>2026-07-15T13:03:18.000Z</time>
      </trkpt>
      <trkpt lat="45.7051" lon="13.38269">
        <ele>6.393439</ele>
        <time>2026-07-15T13:03:26.000Z</time>
      </trkpt>
      <trkpt lat="45.70531" lon="13.38268">
        <ele>6.626194</ele>
        <time>2026-07-15T13:03:29.000Z</time>
      </trkpt>
      <trkpt lat="45.70588" lon="13.38267">
        <ele>6.940691</ele>
        <time>2026-07-15T13:03:37.000Z</time>
      </trkpt>
      <trkpt lat="45.70595" lon="13.38267">
        <ele>6.94353</ele>
        <time>2026-07-15T13:03:38.000Z</time>
      </trkpt>
      <trkpt lat="45.70652" lon="13.38269">
        <ele>6.96551</ele>
        <time>2026-07-15T13:03:46.000Z</time>
      </trkpt>
      <trkpt lat="45.70666" lon="13.3827">
        <ele>6.970994</ele>
        <time>2026-07-15T13:03:48.000Z</time>
      </trkpt>
      <trkpt lat="45.70722" lon="13.38275">
        <ele>6.993018</ele>
        <time>2026-07-15T13:03:56.000Z</time>
      </trkpt>
      <trkpt lat="45.70736" lon="13.38278">
        <ele>6.998505</ele>
        <time>2026-07-15T13:03:58.000Z</time>
      </trkpt>
      <trkpt lat="45.70792" lon="13.38286">
        <ele>6.750757</ele>
        <time>2026-07-15T13:04:06.000Z</time>
      </trkpt>
      <trkpt lat="45.70812" lon="13.38291">
        <ele>6.654985</ele>
        <time>2026-07-15T13:04:09.000Z</time>
      </trkpt>
      <trkpt lat="45.70868" lon="13.38304">
        <ele>6.39311</ele>
        <time>2026-07-15T13:04:17.000Z</time>
      </trkpt>
      <trkpt lat="45.70904" lon="13.38313">
        <ele>6.228691</ele>
        <time>2026-07-15T13:04:22.000Z</time>
      </trkpt>
      <trkpt lat="45.70946" lon="13.38323">
        <ele>6.170752</ele>
        <time>2026-07-15T13:04:28.000Z</time>
      </trkpt>
      <trkpt lat="45.70989" lon="13.38334">
        <ele>6.168881</ele>
        <time>2026-07-15T13:04:34.000Z</time>
      </trkpt>
      <trkpt lat="45.71044" lon="13.38352">
        <ele>6.166427</ele>
        <time>2026-07-15T13:04:42.000Z</time>
      </trkpt>
      <trkpt lat="45.71087" lon="13.38358">
        <ele>6.164584</ele>
        <time>2026-07-15T13:04:48.000Z</time>
      </trkpt>
      <trkpt lat="45.71141" lon="13.38373">
        <ele>6.321455</ele>
        <time>2026-07-15T13:04:56.000Z</time>
      </trkpt>
      <trkpt lat="45.71152" lon="13.38376">
        <ele>6.355609</ele>
        <time>2026-07-15T13:04:58.000Z</time>
      </trkpt>
      <trkpt lat="45.71156" lon="13.38377">
        <ele>6.36853</ele>
        <time>2026-07-15T13:05:01.000Z</time>
      </trkpt>
      <trkpt lat="45.71161" lon="13.38378">
        <ele>6.386028</ele>
        <time>2026-07-15T13:05:06.000Z</time>
      </trkpt>
      <trkpt lat="45.71169" lon="13.38379">
        <ele>6.409078</ele>
        <time>2026-07-15T13:05:08.000Z</time>
      </trkpt>
      <trkpt lat="45.71189" lon="13.38384">
        <ele>6.474384</ele>
        <time>2026-07-15T13:05:12.000Z</time>
      </trkpt>
      <trkpt lat="45.71195" lon="13.38386">
        <ele>6.494057</ele>
        <time>2026-07-15T13:05:13.000Z</time>
      </trkpt>
      <trkpt lat="45.71236" lon="13.38396">
        <ele>6.625327</ele>
        <time>2026-07-15T13:05:19.000Z</time>
      </trkpt>
      <trkpt lat="45.71243" lon="13.38398">
        <ele>6.648636</ele>
        <time>2026-07-15T13:05:20.000Z</time>
      </trkpt>
      <trkpt lat="45.71301" lon="13.38412">
        <ele>6.7028</ele>
        <time>2026-07-15T13:05:28.000Z</time>
      </trkpt>
      <trkpt lat="45.71316" lon="13.38416">
        <ele>6.6883</ele>
        <time>2026-07-15T13:05:30.000Z</time>
      </trkpt>
      <trkpt lat="45.71345" lon="13.38422">
        <ele>6.658959</ele>
        <time>2026-07-15T13:05:34.000Z</time>
      </trkpt>
      <trkpt lat="45.71366" lon="13.38428">
        <ele>6.637149</ele>
        <time>2026-07-15T13:05:37.000Z</time>
      </trkpt>
      <trkpt lat="45.71401" lon="13.38437">
        <ele>6.601411</ele>
        <time>2026-07-15T13:05:42.000Z</time>
      </trkpt>
      <trkpt lat="45.71456" lon="13.38448">
        <ele>6.510007</ele>
        <time>2026-07-15T13:05:50.000Z</time>
      </trkpt>
      <trkpt lat="45.71468" lon="13.38452">
        <ele>6.44654</ele>
        <time>2026-07-15T13:05:52.000Z</time>
      </trkpt>
      <trkpt lat="45.71479" lon="13.38457">
        <ele>6.38525</ele>
        <time>2026-07-15T13:05:54.000Z</time>
      </trkpt>
      <trkpt lat="45.71489" lon="13.38463">
        <ele>6.330319</ele>
        <time>2026-07-15T13:05:56.000Z</time>
      </trkpt>
      <trkpt lat="45.71494" lon="13.38465">
        <ele>6.304008</ele>
        <time>2026-07-15T13:05:57.000Z</time>
      </trkpt>
      <trkpt lat="45.71499" lon="13.38466">
        <ele>6.27803</ele>
        <time>2026-07-15T13:05:58.000Z</time>
      </trkpt>
      <trkpt lat="45.71516" lon="13.38466">
        <ele>6.191726</ele>
        <time>2026-07-15T13:06:01.000Z</time>
      </trkpt>
      <trkpt lat="45.71543" lon="13.38473">
        <ele>6.051804</ele>
        <time>2026-07-15T13:06:05.000Z</time>
      </trkpt>
      <trkpt lat="45.7155" lon="13.38475">
        <ele>6.016657</ele>
        <time>2026-07-15T13:06:06.000Z</time>
      </trkpt>
      <trkpt lat="45.71605" lon="13.38488">
        <ele>5.727615</ele>
        <time>2026-07-15T13:06:14.000Z</time>
      </trkpt>
      <trkpt lat="45.71613" lon="13.38489">
        <ele>5.687754</ele>
        <time>2026-07-15T13:06:15.000Z</time>
      </trkpt>
      <trkpt lat="45.71636" lon="13.38495">
        <ele>5.631192</ele>
        <time>2026-07-15T13:06:18.000Z</time>
      </trkpt>
      <trkpt lat="45.71674" lon="13.38504">
        <ele>5.632171</ele>
        <time>2026-07-15T13:06:23.000Z</time>
      </trkpt>
      <trkpt lat="45.71733" lon="13.38519">
        <ele>5.633699</ele>
        <time>2026-07-15T13:06:31.000Z</time>
      </trkpt>
      <trkpt lat="45.71755" lon="13.38524">
        <ele>5.634286</ele>
        <time>2026-07-15T13:06:34.000Z</time>
      </trkpt>
      <trkpt lat="45.71816" lon="13.38535">
        <ele>5.534212</ele>
        <time>2026-07-15T13:06:42.000Z</time>
      </trkpt>
      <trkpt lat="45.71831" lon="13.38538">
        <ele>5.435695</ele>
        <time>2026-07-15T13:06:44.000Z</time>
      </trkpt>
      <trkpt lat="45.7189" lon="13.38546">
        <ele>5.043714</ele>
        <time>2026-07-15T13:06:52.000Z</time>
      </trkpt>
      <trkpt lat="45.71897" lon="13.38547">
        <ele>4.994786</ele>
        <time>2026-07-15T13:06:53.000Z</time>
      </trkpt>
      <trkpt lat="45.71956" lon="13.38554">
        <ele>4.599689</ele>
        <time>2026-07-15T13:07:01.000Z</time>
      </trkpt>
      <trkpt lat="45.71979" lon="13.38556">
        <ele>4.448886</ele>
        <time>2026-07-15T13:07:04.000Z</time>
      </trkpt>
      <trkpt lat="45.72038" lon="13.38565">
        <ele>4.39418</ele>
        <time>2026-07-15T13:07:12.000Z</time>
      </trkpt>
      <trkpt lat="45.7206" lon="13.38568">
        <ele>4.377201</ele>
        <time>2026-07-15T13:07:15.000Z</time>
      </trkpt>
      <trkpt lat="45.72115" lon="13.38576">
        <ele>4.333858</ele>
        <time>2026-07-15T13:07:23.000Z</time>
      </trkpt>
      <trkpt lat="45.72137" lon="13.38578">
        <ele>4.317384</ele>
        <time>2026-07-15T13:07:26.000Z</time>
      </trkpt>
      <trkpt lat="45.72192" lon="13.38588">
        <ele>4.450902</ele>
        <time>2026-07-15T13:07:34.000Z</time>
      </trkpt>
      <trkpt lat="45.72205" lon="13.3859">
        <ele>4.508864</ele>
        <time>2026-07-15T13:07:36.000Z</time>
      </trkpt>
      <trkpt lat="45.72259" lon="13.386">
        <ele>4.752908</ele>
        <time>2026-07-15T13:07:44.000Z</time>
      </trkpt>
      <trkpt lat="45.72317" lon="13.38609">
        <ele>5.016427</ele>
        <time>2026-07-15T13:07:52.000Z</time>
      </trkpt>
      <trkpt lat="45.72332" lon="13.38611">
        <ele>5.086454</ele>
        <time>2026-07-15T13:07:54.000Z</time>
      </trkpt>
      <trkpt lat="45.72392" lon="13.38621">
        <ele>5.267675</ele>
        <time>2026-07-15T13:08:02.000Z</time>
      </trkpt>
      <trkpt lat="45.72405" lon="13.38623">
        <ele>5.30702</ele>
        <time>2026-07-15T13:08:04.000Z</time>
      </trkpt>
      <trkpt lat="45.7245" lon="13.3863">
        <ele>5.43658</ele>
        <time>2026-07-15T13:08:11.000Z</time>
      </trkpt>
      <trkpt lat="45.72484" lon="13.38635">
        <ele>5.534139</ele>
        <time>2026-07-15T13:08:17.000Z</time>
      </trkpt>
      <trkpt lat="45.72513" lon="13.38639">
        <ele>5.617372</ele>
        <time>2026-07-15T13:08:23.000Z</time>
      </trkpt>
      <trkpt lat="45.72536" lon="13.38639">
        <ele>5.449964</ele>
        <time>2026-07-15T13:08:28.000Z</time>
      </trkpt>
      <trkpt lat="45.72544" lon="13.38639">
        <ele>5.379818</ele>
        <time>2026-07-15T13:08:30.000Z</time>
      </trkpt>
      <trkpt lat="45.72562" lon="13.38639">
        <ele>5.212245</ele>
        <time>2026-07-15T13:08:34.000Z</time>
      </trkpt>
      <trkpt lat="45.72567" lon="13.3864">
        <ele>5.172236</ele>
        <time>2026-07-15T13:08:35.000Z</time>
      </trkpt>
      <trkpt lat="45.72601" lon="13.3866">
        <ele>4.832082</ele>
        <time>2026-07-15T13:08:42.000Z</time>
      </trkpt>
      <trkpt lat="45.72638" lon="13.38681">
        <ele>4.473271</ele>
        <time>2026-07-15T13:08:49.000Z</time>
      </trkpt>
      <trkpt lat="45.72682" lon="13.38709">
        <ele>4.031801</ele>
        <time>2026-07-15T13:08:57.000Z</time>
      </trkpt>
      <trkpt lat="45.72726" lon="13.38734">
        <ele>4.062224</ele>
        <time>2026-07-15T13:09:04.000Z</time>
      </trkpt>
      <trkpt lat="45.72756" lon="13.38753">
        <ele>4.118941</ele>
        <time>2026-07-15T13:09:09.000Z</time>
      </trkpt>
      <trkpt lat="45.72768" lon="13.3876">
        <ele>4.141493</ele>
        <time>2026-07-15T13:09:11.000Z</time>
      </trkpt>
      <trkpt lat="45.7279" lon="13.38774">
        <ele>4.183049</ele>
        <time>2026-07-15T13:09:15.000Z</time>
      </trkpt>
      <trkpt lat="45.72796" lon="13.38778">
        <ele>4.193117</ele>
        <time>2026-07-15T13:09:16.000Z</time>
      </trkpt>
      <trkpt lat="45.72829" lon="13.38799">
        <ele>4.256151</ele>
        <time>2026-07-15T13:09:22.000Z</time>
      </trkpt>
      <trkpt lat="45.72875" lon="13.3882">
        <ele>4.48383</ele>
        <time>2026-07-15T13:09:29.000Z</time>
      </trkpt>
      <trkpt lat="45.72907" lon="13.38827">
        <ele>4.743778</ele>
        <time>2026-07-15T13:09:34.000Z</time>
      </trkpt>
      <trkpt lat="45.7295" lon="13.38839">
        <ele>5.09296</ele>
        <time>2026-07-15T13:09:41.000Z</time>
      </trkpt>
      <trkpt lat="45.72972" lon="13.38844">
        <ele>5.277247</ele>
        <time>2026-07-15T13:09:45.000Z</time>
      </trkpt>
      <trkpt lat="45.72984" lon="13.38847">
        <ele>5.371183</ele>
        <time>2026-07-15T13:09:47.000Z</time>
      </trkpt>
      <trkpt lat="45.73039" lon="13.38861">
        <ele>5.700681</ele>
        <time>2026-07-15T13:09:56.000Z</time>
      </trkpt>
      <trkpt lat="45.73045" lon="13.38863">
        <ele>5.676151</ele>
        <time>2026-07-15T13:09:57.000Z</time>
      </trkpt>
      <trkpt lat="45.73088" lon="13.3888">
        <ele>5.511912</ele>
        <time>2026-07-15T13:10:04.000Z</time>
      </trkpt>
      <trkpt lat="45.73121" lon="13.38893">
        <ele>5.381738</ele>
        <time>2026-07-15T13:10:10.000Z</time>
      </trkpt>
      <trkpt lat="45.73127" lon="13.38893">
        <ele>5.360736</ele>
        <time>2026-07-15T13:10:11.000Z</time>
      </trkpt>
      <trkpt lat="45.73167" lon="13.38895">
        <ele>5.21255</ele>
        <time>2026-07-15T13:10:18.000Z</time>
      </trkpt>
      <trkpt lat="45.73181" lon="13.38891">
        <ele>5.157063</ele>
        <time>2026-07-15T13:10:21.000Z</time>
      </trkpt>
      <trkpt lat="45.7319" lon="13.38887">
        <ele>5.121574</ele>
        <time>2026-07-15T13:10:23.000Z</time>
      </trkpt>
      <trkpt lat="45.7322" lon="13.38871">
        <ele>4.799352</ele>
        <time>2026-07-15T13:10:30.000Z</time>
      </trkpt>
      <trkpt lat="45.73253" lon="13.38854">
        <ele>4.26048</ele>
        <time>2026-07-15T13:10:36.000Z</time>
      </trkpt>
      <trkpt lat="45.7329" lon="13.38834">
        <ele>3.629848</ele>
        <time>2026-07-15T13:10:42.000Z</time>
      </trkpt>
      <trkpt lat="45.73297" lon="13.3883">
        <ele>3.52088</ele>
        <time>2026-07-15T13:10:43.000Z</time>
      </trkpt>
      <trkpt lat="45.73336" lon="13.3881">
        <ele>2.863489</ele>
        <time>2026-07-15T13:10:49.000Z</time>
      </trkpt>
      <trkpt lat="45.73356" lon="13.388">
        <ele>2.529991</ele>
        <time>2026-07-15T13:10:52.000Z</time>
      </trkpt>
      <trkpt lat="45.73409" lon="13.38772">
        <ele>2.147421</ele>
        <time>2026-07-15T13:11:00.000Z</time>
      </trkpt>
      <trkpt lat="45.73423" lon="13.38765">
        <ele>2.107202</ele>
        <time>2026-07-15T13:11:02.000Z</time>
      </trkpt>
      <trkpt lat="45.73477" lon="13.38737">
        <ele>1.950111</ele>
        <time>2026-07-15T13:11:10.000Z</time>
      </trkpt>
      <trkpt lat="45.7349" lon="13.3873">
        <ele>1.910871</ele>
        <time>2026-07-15T13:11:12.000Z</time>
      </trkpt>
      <trkpt lat="45.73544" lon="13.38702">
        <ele>1.757453</ele>
        <time>2026-07-15T13:11:20.000Z</time>
      </trkpt>
      <trkpt lat="45.73596" lon="13.38675">
        <ele>1.693746</ele>
        <time>2026-07-15T13:11:28.000Z</time>
      </trkpt>
      <trkpt lat="45.73622" lon="13.38662">
        <ele>1.66212</ele>
        <time>2026-07-15T13:11:32.000Z</time>
      </trkpt>
      <trkpt lat="45.73675" lon="13.38635">
        <ele>1.598228</ele>
        <time>2026-07-15T13:11:40.000Z</time>
      </trkpt>
      <trkpt lat="45.73706" lon="13.38619">
        <ele>1.56034</ele>
        <time>2026-07-15T13:11:45.000Z</time>
      </trkpt>
      <trkpt lat="45.73762" lon="13.38591">
        <ele>1.813531</ele>
        <time>2026-07-15T13:11:54.000Z</time>
      </trkpt>
      <trkpt lat="45.73775" lon="13.38585">
        <ele>1.878129</ele>
        <time>2026-07-15T13:11:56.000Z</time>
      </trkpt>
      <trkpt lat="45.73831" lon="13.38555">
        <ele>2.170042</ele>
        <time>2026-07-15T13:12:05.000Z</time>
      </trkpt>
      <trkpt lat="45.7385" lon="13.38545">
        <ele>2.270539</ele>
        <time>2026-07-15T13:12:08.000Z</time>
      </trkpt>
      <trkpt lat="45.73902" lon="13.38519">
        <ele>2.235959</ele>
        <time>2026-07-15T13:12:16.000Z</time>
      </trkpt>
      <trkpt lat="45.73914" lon="13.38513">
        <ele>2.118852</ele>
        <time>2026-07-15T13:12:18.000Z</time>
      </trkpt>
      <trkpt lat="45.7397" lon="13.38484">
        <ele>1.599535</ele>
        <time>2026-07-15T13:12:27.000Z</time>
      </trkpt>
      <trkpt lat="45.73977" lon="13.38481">
        <ele>1.540568</ele>
        <time>2026-07-15T13:12:28.000Z</time>
      </trkpt>
      <trkpt lat="45.74033" lon="13.38452">
        <ele>1.020825</ele>
        <time>2026-07-15T13:12:37.000Z</time>
      </trkpt>
      <trkpt lat="45.74081" lon="13.38428">
        <ele>0.705373</ele>
        <time>2026-07-15T13:12:45.000Z</time>
      </trkpt>
      <trkpt lat="45.74136" lon="13.384">
        <ele>0.428</ele>
        <time>2026-07-15T13:12:54.000Z</time>
      </trkpt>
      <trkpt lat="45.74142" lon="13.38397">
        <ele>0.39774</ele>
        <time>2026-07-15T13:12:55.000Z</time>
      </trkpt>
      <trkpt lat="45.74198" lon="13.38369">
        <ele>0.116133</ele>
        <time>2026-07-15T13:13:04.000Z</time>
      </trkpt>
      <trkpt lat="45.74217" lon="13.38359">
        <ele>0.020213</ele>
        <time>2026-07-15T13:13:07.000Z</time>
      </trkpt>
      <trkpt lat="45.74268" lon="13.38334">
        <ele>0.253078</ele>
        <time>2026-07-15T13:13:15.000Z</time>
      </trkpt>
      <trkpt lat="45.74281" lon="13.38327">
        <ele>0.318698</ele>
        <time>2026-07-15T13:13:17.000Z</time>
      </trkpt>
      <trkpt lat="45.74337" lon="13.38297">
        <ele>0.612217</ele>
        <time>2026-07-15T13:13:26.000Z</time>
      </trkpt>
      <trkpt lat="45.74343" lon="13.38293">
        <ele>0.644299</ele>
        <time>2026-07-15T13:13:27.000Z</time>
      </trkpt>
      <trkpt lat="45.74394" lon="13.38267">
        <ele>0.869713</ele>
        <time>2026-07-15T13:13:35.000Z</time>
      </trkpt>
      <trkpt lat="45.74413" lon="13.38257">
        <ele>0.824012</ele>
        <time>2026-07-15T13:13:38.000Z</time>
      </trkpt>
      <trkpt lat="45.74469" lon="13.38227">
        <ele>0.690322</ele>
        <time>2026-07-15T13:13:47.000Z</time>
      </trkpt>
      <trkpt lat="45.74475" lon="13.38224">
        <ele>0.675194</ele>
        <time>2026-07-15T13:13:48.000Z</time>
      </trkpt>
      <trkpt lat="45.74526" lon="13.38196">
        <ele>0.552414</ele>
        <time>2026-07-15T13:13:56.000Z</time>
      </trkpt>
      <trkpt lat="45.74532" lon="13.38193">
        <ele>0.537118</ele>
        <time>2026-07-15T13:13:57.000Z</time>
      </trkpt>
      <trkpt lat="45.74585" lon="13.38166">
        <ele>0.399188</ele>
        <time>2026-07-15T13:14:05.000Z</time>
      </trkpt>
      <trkpt lat="45.74611" lon="13.38152">
        <ele>0.323552</ele>
        <time>2026-07-15T13:14:09.000Z</time>
      </trkpt>
      <trkpt lat="45.74662" lon="13.38123">
        <ele>0.175276</ele>
        <time>2026-07-15T13:14:17.000Z</time>
      </trkpt>
      <trkpt lat="45.74688" lon="13.38109">
        <ele>0.100838</ele>
        <time>2026-07-15T13:14:21.000Z</time>
      </trkpt>
      <trkpt lat="45.74739" lon="13.38081">
        <ele>0.045929</ele>
        <time>2026-07-15T13:14:29.000Z</time>
      </trkpt>
      <trkpt lat="45.7479" lon="13.38054">
        <ele>0.258523</ele>
        <time>2026-07-15T13:14:37.000Z</time>
      </trkpt>
      <trkpt lat="45.74838" lon="13.38025">
        <ele>0.463152</ele>
        <time>2026-07-15T13:14:45.000Z</time>
      </trkpt>
      <trkpt lat="45.74875" lon="13.38005">
        <ele>0.618117</ele>
        <time>2026-07-15T13:14:51.000Z</time>
      </trkpt>
      <trkpt lat="45.74927" lon="13.3798">
        <ele>0.898145</ele>
        <time>2026-07-15T13:14:59.000Z</time>
      </trkpt>
      <trkpt lat="45.74947" lon="13.3797">
        <ele>1.018489</ele>
        <time>2026-07-15T13:15:02.000Z</time>
      </trkpt>
      <trkpt lat="45.74999" lon="13.37943">
        <ele>1.340966</ele>
        <time>2026-07-15T13:15:10.000Z</time>
      </trkpt>
      <trkpt lat="45.75005" lon="13.37939">
        <ele>1.379396</ele>
        <time>2026-07-15T13:15:11.000Z</time>
      </trkpt>
      <trkpt lat="45.75056" lon="13.37913">
        <ele>1.695026</ele>
        <time>2026-07-15T13:15:19.000Z</time>
      </trkpt>
      <trkpt lat="45.75062" lon="13.37909">
        <ele>1.734436</ele>
        <time>2026-07-15T13:15:20.000Z</time>
      </trkpt>
      <trkpt lat="45.75116" lon="13.37884">
        <ele>1.580663</ele>
        <time>2026-07-15T13:15:28.000Z</time>
      </trkpt>
      <trkpt lat="45.75169" lon="13.37859">
        <ele>1.420932</ele>
        <time>2026-07-15T13:15:36.000Z</time>
      </trkpt>
      <trkpt lat="45.75195" lon="13.37845">
        <ele>1.340145</ele>
        <time>2026-07-15T13:15:40.000Z</time>
      </trkpt>
      <trkpt lat="45.75223" lon="13.37833">
        <ele>1.258608</ele>
        <time>2026-07-15T13:15:44.000Z</time>
      </trkpt>
      <trkpt lat="45.75236" lon="13.37826">
        <ele>1.225276</ele>
        <time>2026-07-15T13:15:46.000Z</time>
      </trkpt>
      <trkpt lat="45.75271" lon="13.37809">
        <ele>1.221012</ele>
        <time>2026-07-15T13:15:51.000Z</time>
      </trkpt>
      <trkpt lat="45.75284" lon="13.37802">
        <ele>1.21934</ele>
        <time>2026-07-15T13:15:53.000Z</time>
      </trkpt>
      <trkpt lat="45.75338" lon="13.37775">
        <ele>1.212726</ele>
        <time>2026-07-15T13:16:01.000Z</time>
      </trkpt>
      <trkpt lat="45.75393" lon="13.37749">
        <ele>1.206018</ele>
        <time>2026-07-15T13:16:09.000Z</time>
      </trkpt>
      <trkpt lat="45.7542" lon="13.37736">
        <ele>1.119154</ele>
        <time>2026-07-15T13:16:13.000Z</time>
      </trkpt>
      <trkpt lat="45.75473" lon="13.37709">
        <ele>0.843078</ele>
        <time>2026-07-15T13:16:21.000Z</time>
      </trkpt>
      <trkpt lat="45.75506" lon="13.37691">
        <ele>0.669397</ele>
        <time>2026-07-15T13:16:26.000Z</time>
      </trkpt>
      <trkpt lat="45.75558" lon="13.3766">
        <ele>0.39302</ele>
        <time>2026-07-15T13:16:34.000Z</time>
      </trkpt>
      <trkpt lat="45.75584" lon="13.37644">
        <ele>0.368101</ele>
        <time>2026-07-15T13:16:38.000Z</time>
      </trkpt>
      <trkpt lat="45.75637" lon="13.37613">
        <ele>0.5606</ele>
        <time>2026-07-15T13:16:46.000Z</time>
      </trkpt>
      <trkpt lat="45.75689" lon="13.37582">
        <ele>0.751845</ele>
        <time>2026-07-15T13:16:54.000Z</time>
      </trkpt>
      <trkpt lat="45.75715" lon="13.37567">
        <ele>0.847422</ele>
        <time>2026-07-15T13:16:58.000Z</time>
      </trkpt>
      <trkpt lat="45.75767" lon="13.37536">
        <ele>0.874877</ele>
        <time>2026-07-15T13:17:06.000Z</time>
      </trkpt>
      <trkpt lat="45.75786" lon="13.37524">
        <ele>0.836663</ele>
        <time>2026-07-15T13:17:09.000Z</time>
      </trkpt>
      <trkpt lat="45.75837" lon="13.37494">
        <ele>0.736623</ele>
        <time>2026-07-15T13:17:17.000Z</time>
      </trkpt>
      <trkpt lat="45.75863" lon="13.37478">
        <ele>0.686005</ele>
        <time>2026-07-15T13:17:21.000Z</time>
      </trkpt>
      <trkpt lat="45.75914" lon="13.37447">
        <ele>0.552738</ele>
        <time>2026-07-15T13:17:29.000Z</time>
      </trkpt>
      <trkpt lat="45.75931" lon="13.37437">
        <ele>0.45924</ele>
        <time>2026-07-15T13:17:32.000Z</time>
      </trkpt>
      <trkpt lat="45.75979" lon="13.3741">
        <ele>0.203895</ele>
        <time>2026-07-15T13:17:40.000Z</time>
      </trkpt>
      <trkpt lat="45.76029" lon="13.3738">
        <ele>-0.064754</ele>
        <time>2026-07-15T13:17:48.000Z</time>
      </trkpt>
      <trkpt lat="45.76035" lon="13.37376">
        <ele>-0.099293</ele>
        <time>2026-07-15T13:17:49.000Z</time>
      </trkpt>
      <trkpt lat="45.76087" lon="13.37346">
        <ele>-0.310208</ele>
        <time>2026-07-15T13:17:57.000Z</time>
      </trkpt>
      <trkpt lat="45.76106" lon="13.37334">
        <ele>-0.33736</ele>
        <time>2026-07-15T13:18:00.000Z</time>
      </trkpt>
      <trkpt lat="45.76151" lon="13.37306">
        <ele>-0.400972</ele>
        <time>2026-07-15T13:18:07.000Z</time>
      </trkpt>
      <trkpt lat="45.76172" lon="13.37296">
        <ele>-0.428886</ele>
        <time>2026-07-15T13:18:10.000Z</time>
      </trkpt>
      <trkpt lat="45.76219" lon="13.37273">
        <ele>-0.493889</ele>
        <time>2026-07-15T13:18:17.000Z</time>
      </trkpt>
      <trkpt lat="45.76273" lon="13.37248">
        <ele>-0.364936</ele>
        <time>2026-07-15T13:18:25.000Z</time>
      </trkpt>
      <trkpt lat="45.76279" lon="13.37245">
        <ele>-0.335174</ele>
        <time>2026-07-15T13:18:26.000Z</time>
      </trkpt>
      <trkpt lat="45.76315" lon="13.37226">
        <ele>-0.173414</ele>
        <time>2026-07-15T13:18:32.000Z</time>
      </trkpt>
      <trkpt lat="45.76329" lon="13.37221">
        <ele>-0.113577</ele>
        <time>2026-07-15T13:18:35.000Z</time>
      </trkpt>
      <trkpt lat="45.76332" lon="13.37219">
        <ele>-0.097835</ele>
        <time>2026-07-15T13:18:36.000Z</time>
      </trkpt>
      <trkpt lat="45.76349" lon="13.37209">
        <ele>-0.022811</ele>
        <time>2026-07-15T13:18:41.000Z</time>
      </trkpt>
      <trkpt lat="45.76369" lon="13.37199">
        <ele>0.067003</ele>
        <time>2026-07-15T13:18:46.000Z</time>
      </trkpt>
      <trkpt lat="45.76377" lon="13.37195">
        <ele>0.105973</ele>
        <time>2026-07-15T13:18:48.000Z</time>
      </trkpt>
      <trkpt lat="45.76411" lon="13.37178">
        <ele>0.238195</ele>
        <time>2026-07-15T13:18:55.000Z</time>
      </trkpt>
      <trkpt lat="45.76462" lon="13.37154">
        <ele>0.165008</ele>
        <time>2026-07-15T13:19:04.000Z</time>
      </trkpt>
      <trkpt lat="45.76508" lon="13.37133">
        <ele>0.098709</ele>
        <time>2026-07-15T13:19:12.000Z</time>
      </trkpt>
      <trkpt lat="45.76561" lon="13.37108">
        <ele>0.021599</ele>
        <time>2026-07-15T13:19:21.000Z</time>
      </trkpt>
      <trkpt lat="45.76577" lon="13.37099">
        <ele>-0.002068</ele>
        <time>2026-07-15T13:19:24.000Z</time>
      </trkpt>
      <trkpt lat="45.76617" lon="13.3709">
        <ele>0.272915</ele>
        <time>2026-07-15T13:19:31.000Z</time>
      </trkpt>
      <trkpt lat="45.76645" lon="13.37091">
        <ele>0.481688</ele>
        <time>2026-07-15T13:19:36.000Z</time>
      </trkpt>
      <trkpt lat="45.76657" lon="13.37092">
        <ele>0.564104</ele>
        <time>2026-07-15T13:19:38.000Z</time>
      </trkpt>
      <trkpt lat="45.76668" lon="13.37095">
        <ele>0.645737</ele>
        <time>2026-07-15T13:19:40.000Z</time>
      </trkpt>
      <trkpt lat="45.76684" lon="13.37104">
        <ele>0.767035</ele>
        <time>2026-07-15T13:19:43.000Z</time>
      </trkpt>
      <trkpt lat="45.76711" lon="13.37125">
        <ele>0.994508</ele>
        <time>2026-07-15T13:19:48.000Z</time>
      </trkpt>
      <trkpt lat="45.76717" lon="13.3713">
        <ele>1.039851</ele>
        <time>2026-07-15T13:19:49.000Z</time>
      </trkpt>
      <trkpt lat="45.76749" lon="13.37161">
        <ele>1.286446</ele>
        <time>2026-07-15T13:19:55.000Z</time>
      </trkpt>
      <trkpt lat="45.76785" lon="13.37201">
        <ele>1.183545</ele>
        <time>2026-07-15T13:20:02.000Z</time>
      </trkpt>
      <trkpt lat="45.76826" lon="13.37244">
        <ele>1.069994</ele>
        <time>2026-07-15T13:20:10.000Z</time>
      </trkpt>
      <trkpt lat="45.76831" lon="13.37248">
        <ele>1.058001</ele>
        <time>2026-07-15T13:20:11.000Z</time>
      </trkpt>
      <trkpt lat="45.7684" lon="13.37255">
        <ele>1.033626</ele>
        <time>2026-07-15T13:20:13.000Z</time>
      </trkpt>
      <trkpt lat="45.76873" lon="13.37273">
        <ele>0.955611</ele>
        <time>2026-07-15T13:20:20.000Z</time>
      </trkpt>
      <trkpt lat="45.76893" lon="13.37278">
        <ele>0.911173</ele>
        <time>2026-07-15T13:20:25.000Z</time>
      </trkpt>
      <trkpt lat="45.76897" lon="13.37279">
        <ele>0.901046</ele>
        <time>2026-07-15T13:20:26.000Z</time>
      </trkpt>
      <trkpt lat="45.76932" lon="13.37279">
        <ele>0.827102</ele>
        <time>2026-07-15T13:20:33.000Z</time>
      </trkpt>
      <trkpt lat="45.76972" lon="13.37265">
        <ele>0.74036</ele>
        <time>2026-07-15T13:20:40.000Z</time>
      </trkpt>
      <trkpt lat="45.77012" lon="13.37236">
        <ele>0.644033</ele>
        <time>2026-07-15T13:20:48.000Z</time>
      </trkpt>
      <trkpt lat="45.77037" lon="13.37209">
        <ele>0.578109</ele>
        <time>2026-07-15T13:20:54.000Z</time>
      </trkpt>
      <trkpt lat="45.77062" lon="13.37168">
        <ele>0.529887</ele>
        <time>2026-07-15T13:21:01.000Z</time>
      </trkpt>
      <trkpt lat="45.77065" lon="13.37162">
        <ele>0.547596</ele>
        <time>2026-07-15T13:21:02.000Z</time>
      </trkpt>
      <trkpt lat="45.77088" lon="13.37115">
        <ele>0.673158</ele>
        <time>2026-07-15T13:21:10.000Z</time>
      </trkpt>
      <trkpt lat="45.77096" lon="13.37107">
        <ele>0.701622</ele>
        <time>2026-07-15T13:21:14.000Z</time>
      </trkpt>
      <trkpt lat="45.77096" lon="13.37107">
        <ele>0.701622</ele>
        <time>2026-07-15T13:21:16.000Z</time>
      </trkpt>
      <trkpt lat="45.77099" lon="13.37097">
        <ele>0.724692</ele>
        <time>2026-07-15T13:21:48.000Z</time>
      </trkpt>
      <trkpt lat="45.77109" lon="13.37082">
        <ele>0.771378</ele>
        <time>2026-07-15T13:21:53.000Z</time>
      </trkpt>
      <trkpt lat="45.77119" lon="13.37063">
        <ele>0.823339</ele>
        <time>2026-07-15T13:21:58.000Z</time>
      </trkpt>
      <trkpt lat="45.7712" lon="13.37059">
        <ele>0.831411</ele>
        <time>2026-07-15T13:21:59.000Z</time>
      </trkpt>
      <trkpt lat="45.77121" lon="13.37054">
        <ele>0.843481</ele>
        <time>2026-07-15T13:22:01.000Z</time>
      </trkpt>
      <trkpt lat="45.77119" lon="13.37052">
        <ele>0.851636</ele>
        <time>2026-07-15T13:22:03.000Z</time>
      </trkpt>
      <trkpt lat="45.77118" lon="13.37052">
        <ele>0.85728</ele>
        <time>2026-07-15T13:22:04.000Z</time>
      </trkpt>
      <trkpt lat="45.77112" lon="13.37056">
        <ele>0.876184</ele>
        <time>2026-07-15T13:22:07.000Z</time>
      </trkpt>
      <trkpt lat="45.77102" lon="13.37074">
        <ele>0.927439</ele>
        <time>2026-07-15T13:22:12.000Z</time>
      </trkpt>
      <trkpt lat="45.77085" lon="13.37108">
        <ele>1.017587</ele>
        <time>2026-07-15T13:22:19.000Z</time>
      </trkpt>
      <trkpt lat="45.77083" lon="13.37113">
        <ele>1.032257</ele>
        <time>2026-07-15T13:22:20.000Z</time>
      </trkpt>
      <trkpt lat="45.7708" lon="13.37118">
        <ele>1.04607</ele>
        <time>2026-07-15T13:22:21.000Z</time>
      </trkpt>
      <trkpt lat="45.77072" lon="13.37125">
        <ele>1.079086</ele>
        <time>2026-07-15T13:22:23.000Z</time>
      </trkpt>
      <trkpt lat="45.77068" lon="13.37128">
        <ele>1.12634</ele>
        <time>2026-07-15T13:22:24.000Z</time>
      </trkpt>
      <trkpt lat="45.77064" lon="13.37131">
        <ele>1.176359</ele>
        <time>2026-07-15T13:22:25.000Z</time>
      </trkpt>
      <trkpt lat="45.77047" lon="13.37144">
        <ele>1.369762</ele>
        <time>2026-07-15T13:22:29.000Z</time>
      </trkpt>
      <trkpt lat="45.77042" lon="13.37146">
        <ele>1.42195</ele>
        <time>2026-07-15T13:22:30.000Z</time>
      </trkpt>
      <trkpt lat="45.77023" lon="13.37155">
        <ele>1.625427</ele>
        <time>2026-07-15T13:22:34.000Z</time>
      </trkpt>
      <trkpt lat="45.77009" lon="13.37162">
        <ele>1.779816</ele>
        <time>2026-07-15T13:22:37.000Z</time>
      </trkpt>
      <trkpt lat="45.76975" lon="13.37179">
        <ele>2.15341</ele>
        <time>2026-07-15T13:22:44.000Z</time>
      </trkpt>
      <trkpt lat="45.76965" lon="13.37184">
        <ele>2.259134</ele>
        <time>2026-07-15T13:22:46.000Z</time>
      </trkpt>
      <trkpt lat="45.7696" lon="13.37187">
        <ele>2.311322</ele>
        <time>2026-07-15T13:22:47.000Z</time>
      </trkpt>
      <trkpt lat="45.76951" lon="13.37186">
        <ele>2.403816</ele>
        <time>2026-07-15T13:22:49.000Z</time>
      </trkpt>
      <trkpt lat="45.76948" lon="13.37184">
        <ele>2.440597</ele>
        <time>2026-07-15T13:22:50.000Z</time>
      </trkpt>
      <trkpt lat="45.76939" lon="13.37174">
        <ele>2.560433</ele>
        <time>2026-07-15T13:22:53.000Z</time>
      </trkpt>
      <trkpt lat="45.76937" lon="13.37169">
        <ele>2.602842</ele>
        <time>2026-07-15T13:22:54.000Z</time>
      </trkpt>
      <trkpt lat="45.76931" lon="13.37152">
        <ele>2.737687</ele>
        <time>2026-07-15T13:22:57.000Z</time>
      </trkpt>
      <trkpt lat="45.7693" lon="13.3714">
        <ele>2.821989</ele>
        <time>2026-07-15T13:22:59.000Z</time>
      </trkpt>
      <trkpt lat="45.7693" lon="13.37122">
        <ele>3.041168</ele>
        <time>2026-07-15T13:23:03.000Z</time>
      </trkpt>
      <trkpt lat="45.7693" lon="13.37108">
        <ele>3.414135</ele>
        <time>2026-07-15T13:23:07.000Z</time>
      </trkpt>
      <trkpt lat="45.76933" lon="13.37095">
        <ele>3.805444</ele>
        <time>2026-07-15T13:23:12.000Z</time>
      </trkpt>
      <trkpt lat="45.76931" lon="13.37084">
        <ele>4.092355</ele>
        <time>2026-07-15T13:23:15.000Z</time>
      </trkpt>
      <trkpt lat="45.76929" lon="13.37077">
        <ele>4.30693</ele>
        <time>2026-07-15T13:23:17.000Z</time>
      </trkpt>
      <trkpt lat="45.76927" lon="13.3706">
        <ele>4.799387</ele>
        <time>2026-07-15T13:23:21.000Z</time>
      </trkpt>
      <trkpt lat="45.76922" lon="13.3703">
        <ele>5.650057</ele>
        <time>2026-07-15T13:23:28.000Z</time>
      </trkpt>
      <trkpt lat="45.76921" lon="13.37016">
        <ele>6.034526</ele>
        <time>2026-07-15T13:23:32.000Z</time>
      </trkpt>
      <trkpt lat="45.76921" lon="13.37015">
        <ele>6.054112</ele>
        <time>2026-07-15T13:23:33.000Z</time>
      </trkpt>
      <trkpt lat="45.76921" lon="13.37015">
        <ele>6.054112</ele>
        <time>2026-07-15T13:23:34.000Z</time>
      </trkpt>
      <trkpt lat="45.76918" lon="13.37004">
        <ele>6.383901</ele>
        <time>2026-07-15T13:25:48.000Z</time>
      </trkpt>
      <trkpt lat="45.76918" lon="13.37004">
        <ele>6.392224</ele>
        <time>2026-07-15T13:25:49.000Z</time>
      </trkpt>
      <trkpt lat="45.76918" lon="13.37004">
        <ele>6.403599</ele>
        <time>2026-07-15T13:25:50.000Z</time>
      </trkpt>
      <trkpt lat="45.7692" lon="13.37006">
        <ele>6.510752</ele>
        <time>2026-07-15T13:30:34.000Z</time>
      </trkpt>
      <trkpt lat="45.7692" lon="13.37006">
        <ele>6.519075</ele>
        <time>2026-07-15T13:30:35.000Z</time>
      </trkpt>
      <trkpt lat="45.7692" lon="13.37006">
        <ele>6.534793</ele>
        <time>2026-07-15T13:30:36.000Z</time>
      </trkpt>
      <trkpt lat="45.7691" lon="13.36999">
        <ele>6.940163</ele>
        <time>2026-07-15T13:36:15.000Z</time>
      </trkpt>
      <trkpt lat="45.76911" lon="13.37">
        <ele>6.969606</ele>
        <time>2026-07-15T13:36:16.000Z</time>
      </trkpt>
      <trkpt lat="45.76911" lon="13.37001">
        <ele>7.006061</ele>
        <time>2026-07-15T13:36:17.000Z</time>
      </trkpt>
      <trkpt lat="45.76911" lon="13.37001">
        <ele>7.009991</ele>
        <time>2026-07-15T13:36:20.000Z</time>
      </trkpt>
      <trkpt lat="45.76915" lon="13.37">
        <ele>7.165215</ele>
        <time>2026-07-15T13:36:55.000Z</time>
      </trkpt>
      <trkpt lat="45.76915" lon="13.37002">
        <ele>7.201065</ele>
        <time>2026-07-15T13:36:57.000Z</time>
      </trkpt>
      <trkpt lat="45.76916" lon="13.37005">
        <ele>7.289737</ele>
        <time>2026-07-15T13:38:09.000Z</time>
      </trkpt>
      <trkpt lat="45.76915" lon="13.37003">
        <ele>7.366698</ele>
        <time>2026-07-15T13:38:11.000Z</time>
      </trkpt>
      <trkpt lat="45.76915" lon="13.37002">
        <ele>7.386933</ele>
        <time>2026-07-15T13:38:12.000Z</time>
      </trkpt>
      <trkpt lat="45.76915" lon="13.36996">
        <ele>7.556877</ele>
        <time>2026-07-15T13:42:44.000Z</time>
      </trkpt>
      <trkpt lat="45.76915" lon="13.36995">
        <ele>7.565991</ele>
        <time>2026-07-15T13:42:46.000Z</time>
      </trkpt>
      <trkpt lat="45.76911" lon="13.37001">
        <ele>7.75558</ele>
        <time>2026-07-15T13:45:38.000Z</time>
      </trkpt>
      <trkpt lat="45.76911" lon="13.37003">
        <ele>7.816284</ele>
        <time>2026-07-15T13:46:42.000Z</time>
      </trkpt>
      <trkpt lat="45.76911" lon="13.37003">
        <ele>7.816284</ele>
        <time>2026-07-15T13:46:44.000Z</time>
      </trkpt>
      <trkpt lat="45.76916" lon="13.37012">
        <ele>8.154823</ele>
        <time>2026-07-15T13:50:06.000Z</time>
      </trkpt>
      <trkpt lat="45.76917" lon="13.37013">
        <ele>8.213709</ele>
        <time>2026-07-15T13:50:07.000Z</time>
      </trkpt>
      <trkpt lat="45.76919" lon="13.37014">
        <ele>8.259957</ele>
        <time>2026-07-15T13:50:08.000Z</time>
      </trkpt>
      <trkpt lat="45.76919" lon="13.37014">
        <ele>8.276056</ele>
        <time>2026-07-15T13:50:09.000Z</time>
      </trkpt>
      <trkpt lat="45.76919" lon="13.37014">
        <ele>8.282801</ele>
        <time>2026-07-15T13:50:28.000Z</time>
      </trkpt>
      <trkpt lat="45.76918" lon="13.37013">
        <ele>8.320729</ele>
        <time>2026-07-15T13:50:29.000Z</time>
      </trkpt>
      <trkpt lat="45.76917" lon="13.37012">
        <ele>8.381525</ele>
        <time>2026-07-15T13:50:31.000Z</time>
      </trkpt>
      <trkpt lat="45.76915" lon="13.37006">
        <ele>8.565529</ele>
        <time>2026-07-15T13:51:14.000Z</time>
      </trkpt>
      <trkpt lat="45.76915" lon="13.37006">
        <ele>8.574643</ele>
        <time>2026-07-15T13:51:16.000Z</time>
      </trkpt>
      <trkpt lat="45.7692" lon="13.37014">
        <ele>8.859011</ele>
        <time>2026-07-15T13:52:29.000Z</time>
      </trkpt>
      <trkpt lat="45.7692" lon="13.37019">
        <ele>8.998076</ele>
        <time>2026-07-15T13:52:31.000Z</time>
      </trkpt>
      <trkpt lat="45.76922" lon="13.37031">
        <ele>9.3372</ele>
        <time>2026-07-15T13:52:36.000Z</time>
      </trkpt>
      <trkpt lat="45.76923" lon="13.37033">
        <ele>9.399403</ele>
        <time>2026-07-15T13:52:37.000Z</time>
      </trkpt>
      <trkpt lat="45.76931" lon="13.37052">
        <ele>9.982965</ele>
        <time>2026-07-15T13:52:43.000Z</time>
      </trkpt>
      <trkpt lat="45.76937" lon="13.37073">
        <ele>9.862654</ele>
        <time>2026-07-15T13:52:48.000Z</time>
      </trkpt>
      <trkpt lat="45.76938" lon="13.37077">
        <ele>9.840416</ele>
        <time>2026-07-15T13:52:49.000Z</time>
      </trkpt>
      <trkpt lat="45.76944" lon="13.371">
        <ele>9.707248</ele>
        <time>2026-07-15T13:52:54.000Z</time>
      </trkpt>
      <trkpt lat="45.76946" lon="13.37109">
        <ele>9.659342</ele>
        <time>2026-07-15T13:52:56.000Z</time>
      </trkpt>
      <trkpt lat="45.76944" lon="13.37113">
        <ele>9.636078</ele>
        <time>2026-07-15T13:52:57.000Z</time>
      </trkpt>
      <trkpt lat="45.76942" lon="13.37115">
        <ele>9.615754</ele>
        <time>2026-07-15T13:52:58.000Z</time>
      </trkpt>
      <trkpt lat="45.76936" lon="13.37117">
        <ele>9.567079</ele>
        <time>2026-07-15T13:53:00.000Z</time>
      </trkpt>
      <trkpt lat="45.7693" lon="13.37123">
        <ele>9.512242</ele>
        <time>2026-07-15T13:53:02.000Z</time>
      </trkpt>
      <trkpt lat="45.76928" lon="13.37134">
        <ele>9.45213</ele>
        <time>2026-07-15T13:53:04.000Z</time>
      </trkpt>
      <trkpt lat="45.76931" lon="13.37151">
        <ele>9.357588</ele>
        <time>2026-07-15T13:53:07.000Z</time>
      </trkpt>
      <trkpt lat="45.76935" lon="13.37161">
        <ele>9.294862</ele>
        <time>2026-07-15T13:53:09.000Z</time>
      </trkpt>
      <trkpt lat="45.76948" lon="13.37185">
        <ele>9.133407</ele>
        <time>2026-07-15T13:53:14.000Z</time>
      </trkpt>
      <trkpt lat="45.76952" lon="13.37189">
        <ele>9.096198</ele>
        <time>2026-07-15T13:53:15.000Z</time>
      </trkpt>
      <trkpt lat="45.76956" lon="13.37191">
        <ele>9.058883</ele>
        <time>2026-07-15T13:53:16.000Z</time>
      </trkpt>
      <trkpt lat="45.76966" lon="13.3719">
        <ele>8.982988</ele>
        <time>2026-07-15T13:53:18.000Z</time>
      </trkpt>
      <trkpt lat="45.76971" lon="13.37188">
        <ele>8.94249</ele>
        <time>2026-07-15T13:53:19.000Z</time>
      </trkpt>
      <trkpt lat="45.7698" lon="13.37184">
        <ele>8.875429</ele>
        <time>2026-07-15T13:53:21.000Z</time>
      </trkpt>
      <trkpt lat="45.7699" lon="13.37178">
        <ele>8.788183</ele>
        <time>2026-07-15T13:53:23.000Z</time>
      </trkpt>
      <trkpt lat="45.76994" lon="13.37176">
        <ele>8.755012</ele>
        <time>2026-07-15T13:53:24.000Z</time>
      </trkpt>
      <trkpt lat="45.77022" lon="13.37162">
        <ele>8.268653</ele>
        <time>2026-07-15T13:53:29.000Z</time>
      </trkpt>
      <trkpt lat="45.77026" lon="13.37158">
        <ele>8.099651</ele>
        <time>2026-07-15T13:53:30.000Z</time>
      </trkpt>
      <trkpt lat="45.77034" lon="13.37153">
        <ele>7.799545</ele>
        <time>2026-07-15T13:53:32.000Z</time>
      </trkpt>
      <trkpt lat="45.77058" lon="13.37136">
        <ele>6.878724</ele>
        <time>2026-07-15T13:53:37.000Z</time>
      </trkpt>
      <trkpt lat="45.7709" lon="13.37112">
        <ele>5.679561</ele>
        <time>2026-07-15T13:53:44.000Z</time>
      </trkpt>
      <trkpt lat="45.77094" lon="13.37107">
        <ele>5.494701</ele>
        <time>2026-07-15T13:53:45.000Z</time>
      </trkpt>
      <trkpt lat="45.771" lon="13.37095">
        <ele>5.123148</ele>
        <time>2026-07-15T13:53:47.000Z</time>
      </trkpt>
      <trkpt lat="45.77114" lon="13.37071">
        <ele>4.399348</ele>
        <time>2026-07-15T13:53:51.000Z</time>
      </trkpt>
      <trkpt lat="45.77117" lon="13.37065">
        <ele>4.215017</ele>
        <time>2026-07-15T13:53:52.000Z</time>
      </trkpt>
      <trkpt lat="45.77124" lon="13.37053">
        <ele>3.866979</ele>
        <time>2026-07-15T13:53:54.000Z</time>
      </trkpt>
      <trkpt lat="45.77136" lon="13.3703">
        <ele>3.163847</ele>
        <time>2026-07-15T13:53:58.000Z</time>
      </trkpt>
      <trkpt lat="45.77139" lon="13.37023">
        <ele>2.981097</ele>
        <time>2026-07-15T13:53:59.000Z</time>
      </trkpt>
      <trkpt lat="45.77146" lon="13.37012">
        <ele>2.621182</ele>
        <time>2026-07-15T13:54:01.000Z</time>
      </trkpt>
      <trkpt lat="45.77169" lon="13.36964">
        <ele>2.397232</ele>
        <time>2026-07-15T13:54:09.000Z</time>
      </trkpt>
      <trkpt lat="45.77174" lon="13.36954">
        <ele>2.3713</ele>
        <time>2026-07-15T13:54:11.000Z</time>
      </trkpt>
      <trkpt lat="45.77176" lon="13.36949">
        <ele>2.358503</ele>
        <time>2026-07-15T13:54:12.000Z</time>
      </trkpt>
      <trkpt lat="45.77188" lon="13.36928">
        <ele>2.304763</ele>
        <time>2026-07-15T13:54:16.000Z</time>
      </trkpt>
      <trkpt lat="45.77199" lon="13.36904">
        <ele>2.245689</ele>
        <time>2026-07-15T13:54:20.000Z</time>
      </trkpt>
      <trkpt lat="45.77211" lon="13.36879">
        <ele>2.183251</ele>
        <time>2026-07-15T13:54:24.000Z</time>
      </trkpt>
      <trkpt lat="45.77235" lon="13.36826">
        <ele>2.053518</ele>
        <time>2026-07-15T13:54:32.000Z</time>
      </trkpt>
      <trkpt lat="45.77238" lon="13.36819">
        <ele>2.037138</ele>
        <time>2026-07-15T13:54:33.000Z</time>
      </trkpt>
      <trkpt lat="45.77246" lon="13.36798">
        <ele>1.987495</ele>
        <time>2026-07-15T13:54:36.000Z</time>
      </trkpt>
      <trkpt lat="45.7726" lon="13.36772">
        <ele>1.926113</ele>
        <time>2026-07-15T13:54:40.000Z</time>
      </trkpt>
      <trkpt lat="45.77291" lon="13.36723">
        <ele>1.801763</ele>
        <time>2026-07-15T13:54:48.000Z</time>
      </trkpt>
      <trkpt lat="45.773" lon="13.36714">
        <ele>1.772447</ele>
        <time>2026-07-15T13:54:50.000Z</time>
      </trkpt>
      <trkpt lat="45.77313" lon="13.367">
        <ele>1.730797</ele>
        <time>2026-07-15T13:54:53.000Z</time>
      </trkpt>
      <trkpt lat="45.77334" lon="13.36685">
        <ele>1.667475</ele>
        <time>2026-07-15T13:54:57.000Z</time>
      </trkpt>
      <trkpt lat="45.77357" lon="13.36673">
        <ele>1.601153</ele>
        <time>2026-07-15T13:55:01.000Z</time>
      </trkpt>
      <trkpt lat="45.77394" lon="13.36657">
        <ele>1.499756</ele>
        <time>2026-07-15T13:55:07.000Z</time>
      </trkpt>
      <trkpt lat="45.77418" lon="13.36646">
        <ele>1.392951</ele>
        <time>2026-07-15T13:55:11.000Z</time>
      </trkpt>
      <trkpt lat="45.77429" lon="13.36639">
        <ele>1.342274</ele>
        <time>2026-07-15T13:55:13.000Z</time>
      </trkpt>
      <trkpt lat="45.77452" lon="13.36628">
        <ele>1.237517</ele>
        <time>2026-07-15T13:55:18.000Z</time>
      </trkpt>
      <trkpt lat="45.77473" lon="13.36615">
        <ele>1.139757</ele>
        <time>2026-07-15T13:55:23.000Z</time>
      </trkpt>
      <trkpt lat="45.77478" lon="13.36612">
        <ele>1.117238</ele>
        <time>2026-07-15T13:55:24.000Z</time>
      </trkpt>
      <trkpt lat="45.77503" lon="13.36595">
        <ele>1.001963</ele>
        <time>2026-07-15T13:55:29.000Z</time>
      </trkpt>
      <trkpt lat="45.77508" lon="13.36591">
        <ele>0.977749</ele>
        <time>2026-07-15T13:55:30.000Z</time>
      </trkpt>
      <trkpt lat="45.77512" lon="13.36587">
        <ele>0.953154</ele>
        <time>2026-07-15T13:55:31.000Z</time>
      </trkpt>
      <trkpt lat="45.77543" lon="13.36562">
        <ele>0.806351</ele>
        <time>2026-07-15T13:55:38.000Z</time>
      </trkpt>
      <trkpt lat="45.77544" lon="13.36561">
        <ele>0.798154</ele>
        <time>2026-07-15T13:55:39.000Z</time>
      </trkpt>
      <trkpt lat="45.77551" lon="13.36557">
        <ele>0.768844</ele>
        <time>2026-07-15T13:55:42.000Z</time>
      </trkpt>
      <trkpt lat="45.77566" lon="13.36544">
        <ele>0.639563</ele>
        <time>2026-07-15T13:55:46.000Z</time>
      </trkpt>
      <trkpt lat="45.77598" lon="13.36514">
        <ele>0.254256</ele>
        <time>2026-07-15T13:55:53.000Z</time>
      </trkpt>
      <trkpt lat="45.77633" lon="13.36478">
        <ele>-0.180306</ele>
        <time>2026-07-15T13:56:01.000Z</time>
      </trkpt>
      <trkpt lat="45.77638" lon="13.36474">
        <ele>-0.234217</ele>
        <time>2026-07-15T13:56:02.000Z</time>
      </trkpt>
      <trkpt lat="45.77678" lon="13.36437">
        <ele>-0.716382</ele>
        <time>2026-07-15T13:56:10.000Z</time>
      </trkpt>
      <trkpt lat="45.77712" lon="13.36412">
        <ele>-1.084732</ele>
        <time>2026-07-15T13:56:16.000Z</time>
      </trkpt>
      <trkpt lat="45.7774" lon="13.36392">
        <ele>-1.245817</ele>
        <time>2026-07-15T13:56:21.000Z</time>
      </trkpt>
      <trkpt lat="45.77763" lon="13.36378">
        <ele>-1.373043</ele>
        <time>2026-07-15T13:56:25.000Z</time>
      </trkpt>
      <trkpt lat="45.77801" lon="13.36359">
        <ele>-1.579562</ele>
        <time>2026-07-15T13:56:32.000Z</time>
      </trkpt>
      <trkpt lat="45.77844" lon="13.36335">
        <ele>-1.813214</ele>
        <time>2026-07-15T13:56:39.000Z</time>
      </trkpt>
      <trkpt lat="45.77876" lon="13.36319">
        <ele>-1.986164</ele>
        <time>2026-07-15T13:56:44.000Z</time>
      </trkpt>
      <trkpt lat="45.77902" lon="13.36305">
        <ele>-1.846317</ele>
        <time>2026-07-15T13:56:48.000Z</time>
      </trkpt>
      <trkpt lat="45.77953" lon="13.36276">
        <ele>-1.536078</ele>
        <time>2026-07-15T13:56:56.000Z</time>
      </trkpt>
      <trkpt lat="45.77973" lon="13.36265">
        <ele>-1.417377</ele>
        <time>2026-07-15T13:56:59.000Z</time>
      </trkpt>
      <trkpt lat="45.78025" lon="13.36237">
        <ele>-1.104265</ele>
        <time>2026-07-15T13:57:07.000Z</time>
      </trkpt>
      <trkpt lat="45.78044" lon="13.36226">
        <ele>-0.986588</ele>
        <time>2026-07-15T13:57:10.000Z</time>
      </trkpt>
      <trkpt lat="45.78096" lon="13.36197">
        <ele>-0.836611</ele>
        <time>2026-07-15T13:57:18.000Z</time>
      </trkpt>
      <trkpt lat="45.78109" lon="13.36189">
        <ele>-0.79986</ele>
        <time>2026-07-15T13:57:20.000Z</time>
      </trkpt>
      <trkpt lat="45.78161" lon="13.36159">
        <ele>-0.650759</ele>
        <time>2026-07-15T13:57:28.000Z</time>
      </trkpt>
      <trkpt lat="45.78188" lon="13.36143">
        <ele>-0.574844</ele>
        <time>2026-07-15T13:57:32.000Z</time>
      </trkpt>
      <trkpt lat="45.78241" lon="13.36111">
        <ele>-0.731739</ele>
        <time>2026-07-15T13:57:40.000Z</time>
      </trkpt>
      <trkpt lat="45.78287" lon="13.36086">
        <ele>-1.084839</ele>
        <time>2026-07-15T13:57:47.000Z</time>
      </trkpt>
      <trkpt lat="45.78325" lon="13.36063">
        <ele>-1.38774</ele>
        <time>2026-07-15T13:57:53.000Z</time>
      </trkpt>
      <trkpt lat="45.78377" lon="13.36033">
        <ele>-1.79028</ele>
        <time>2026-07-15T13:58:01.000Z</time>
      </trkpt>
      <trkpt lat="45.7839" lon="13.36026">
        <ele>-1.866155</ele>
        <time>2026-07-15T13:58:03.000Z</time>
      </trkpt>
      <trkpt lat="45.78442" lon="13.35998">
        <ele>-2.160569</ele>
        <time>2026-07-15T13:58:11.000Z</time>
      </trkpt>
      <trkpt lat="45.78455" lon="13.35991">
        <ele>-2.234683</ele>
        <time>2026-07-15T13:58:13.000Z</time>
      </trkpt>
      <trkpt lat="45.78507" lon="13.35961">
        <ele>-2.53081</ele>
        <time>2026-07-15T13:58:21.000Z</time>
      </trkpt>
      <trkpt lat="45.78532" lon="13.35947">
        <ele>-2.674023</ele>
        <time>2026-07-15T13:58:25.000Z</time>
      </trkpt>
      <trkpt lat="45.78577" lon="13.3592">
        <ele>-2.594827</ele>
        <time>2026-07-15T13:58:33.000Z</time>
      </trkpt>
      <trkpt lat="45.78595" lon="13.35909">
        <ele>-2.505281</ele>
        <time>2026-07-15T13:58:36.000Z</time>
      </trkpt>
      <trkpt lat="45.78625" lon="13.35892">
        <ele>-2.354441</ele>
        <time>2026-07-15T13:58:41.000Z</time>
      </trkpt>
      <trkpt lat="45.78643" lon="13.35883">
        <ele>-2.263583</ele>
        <time>2026-07-15T13:58:44.000Z</time>
      </trkpt>
      <trkpt lat="45.78681" lon="13.35866">
        <ele>-2.077255</ele>
        <time>2026-07-15T13:58:50.000Z</time>
      </trkpt>
      <trkpt lat="45.78725" lon="13.35838">
        <ele>-1.8448</ele>
        <time>2026-07-15T13:58:57.000Z</time>
      </trkpt>
      <trkpt lat="45.78744" lon="13.35825">
        <ele>-1.729661</ele>
        <time>2026-07-15T13:59:00.000Z</time>
      </trkpt>
      <trkpt lat="45.78763" lon="13.35817">
        <ele>-1.623779</ele>
        <time>2026-07-15T13:59:03.000Z</time>
      </trkpt>
      <trkpt lat="45.78819" lon="13.35789">
        <ele>-1.300593</ele>
        <time>2026-07-15T13:59:11.000Z</time>
      </trkpt>
      <trkpt lat="45.78826" lon="13.35785">
        <ele>-1.262521</ele>
        <time>2026-07-15T13:59:12.000Z</time>
      </trkpt>
      <trkpt lat="45.78881" lon="13.35756">
        <ele>-0.946815</ele>
        <time>2026-07-15T13:59:20.000Z</time>
      </trkpt>
      <trkpt lat="45.78887" lon="13.35752">
        <ele>-0.941583</ele>
        <time>2026-07-15T13:59:21.000Z</time>
      </trkpt>
      <trkpt lat="45.7894" lon="13.35722">
        <ele>-0.955954</ele>
        <time>2026-07-15T13:59:29.000Z</time>
      </trkpt>
      <trkpt lat="45.78995" lon="13.3569">
        <ele>-0.970797</ele>
        <time>2026-07-15T13:59:37.000Z</time>
      </trkpt>
      <trkpt lat="45.79009" lon="13.35682">
        <ele>-0.974447</ele>
        <time>2026-07-15T13:59:39.000Z</time>
      </trkpt>
      <trkpt lat="45.79064" lon="13.3565">
        <ele>-0.830831</ele>
        <time>2026-07-15T13:59:48.000Z</time>
      </trkpt>
      <trkpt lat="45.79113" lon="13.35624">
        <ele>-0.329599</ele>
        <time>2026-07-15T13:59:56.000Z</time>
      </trkpt>
      <trkpt lat="45.7914" lon="13.35608">
        <ele>-0.044253</ele>
        <time>2026-07-15T14:00:01.000Z</time>
      </trkpt>
      <trkpt lat="45.79185" lon="13.35582">
        <ele>0.416127</ele>
        <time>2026-07-15T14:00:08.000Z</time>
      </trkpt>
      <trkpt lat="45.7923" lon="13.35555">
        <ele>0.637983</ele>
        <time>2026-07-15T14:00:15.000Z</time>
      </trkpt>
      <trkpt lat="45.79282" lon="13.35526">
        <ele>0.242247</ele>
        <time>2026-07-15T14:00:23.000Z</time>
      </trkpt>
      <trkpt lat="45.79338" lon="13.35496">
        <ele>-0.174507</ele>
        <time>2026-07-15T14:00:31.000Z</time>
      </trkpt>
      <trkpt lat="45.79345" lon="13.35492">
        <ele>-0.22678</ele>
        <time>2026-07-15T14:00:32.000Z</time>
      </trkpt>
      <trkpt lat="45.79392" lon="13.35465">
        <ele>-0.57285</ele>
        <time>2026-07-15T14:00:39.000Z</time>
      </trkpt>
      <trkpt lat="45.79446" lon="13.35434">
        <ele>-0.911807</ele>
        <time>2026-07-15T14:00:47.000Z</time>
      </trkpt>
      <trkpt lat="45.79477" lon="13.35416">
        <ele>-1.103913</ele>
        <time>2026-07-15T14:00:51.000Z</time>
      </trkpt>
      <trkpt lat="45.79528" lon="13.35388">
        <ele>-1.422299</ele>
        <time>2026-07-15T14:00:58.000Z</time>
      </trkpt>
      <trkpt lat="45.79549" lon="13.35376">
        <ele>-1.553603</ele>
        <time>2026-07-15T14:01:01.000Z</time>
      </trkpt>
      <trkpt lat="45.796" lon="13.35346">
        <ele>-1.35272</ele>
        <time>2026-07-15T14:01:08.000Z</time>
      </trkpt>
      <trkpt lat="45.79607" lon="13.35341">
        <ele>-1.321119</ele>
        <time>2026-07-15T14:01:09.000Z</time>
      </trkpt>
      <trkpt lat="45.79652" lon="13.35318">
        <ele>-1.12881</ele>
        <time>2026-07-15T14:01:16.000Z</time>
      </trkpt>
      <trkpt lat="45.79673" lon="13.35306">
        <ele>-1.03796</ele>
        <time>2026-07-15T14:01:20.000Z</time>
      </trkpt>
      <trkpt lat="45.79683" lon="13.35299">
        <ele>-0.99198</ele>
        <time>2026-07-15T14:01:22.000Z</time>
      </trkpt>
      <trkpt lat="45.79687" lon="13.35294">
        <ele>-0.969906</ele>
        <time>2026-07-15T14:01:23.000Z</time>
      </trkpt>
      <trkpt lat="45.79691" lon="13.35289">
        <ele>-0.948774</ele>
        <time>2026-07-15T14:01:24.000Z</time>
      </trkpt>
      <trkpt lat="45.79699" lon="13.3528">
        <ele>-0.907058</ele>
        <time>2026-07-15T14:01:26.000Z</time>
      </trkpt>
      <trkpt lat="45.79704" lon="13.35277">
        <ele>-0.887209</ele>
        <time>2026-07-15T14:01:27.000Z</time>
      </trkpt>
      <trkpt lat="45.79718" lon="13.35269">
        <ele>-0.829324</ele>
        <time>2026-07-15T14:01:31.000Z</time>
      </trkpt>
      <trkpt lat="45.79729" lon="13.35262">
        <ele>-0.787197</ele>
        <time>2026-07-15T14:01:36.000Z</time>
      </trkpt>
      <trkpt lat="45.79733" lon="13.35258">
        <ele>-0.771481</ele>
        <time>2026-07-15T14:01:39.000Z</time>
      </trkpt>
      <trkpt lat="45.79732" lon="13.35255">
        <ele>-0.764137</ele>
        <time>2026-07-15T14:01:40.000Z</time>
      </trkpt>
      <trkpt lat="45.79723" lon="13.35235">
        <ele>-0.707804</ele>
        <time>2026-07-15T14:01:44.000Z</time>
      </trkpt>
      <trkpt lat="45.79719" lon="13.35222">
        <ele>-0.674543</ele>
        <time>2026-07-15T14:01:46.000Z</time>
      </trkpt>
      <trkpt lat="45.79719" lon="13.3521">
        <ele>-0.645732</ele>
        <time>2026-07-15T14:01:48.000Z</time>
      </trkpt>
      <trkpt lat="45.79727" lon="13.35203">
        <ele>-0.615972</ele>
        <time>2026-07-15T14:01:50.000Z</time>
      </trkpt>
      <trkpt lat="45.79733" lon="13.35201">
        <ele>-0.595654</ele>
        <time>2026-07-15T14:01:51.000Z</time>
      </trkpt>
      <trkpt lat="45.79772" lon="13.3518">
        <ele>-0.451687</ele>
        <time>2026-07-15T14:01:58.000Z</time>
      </trkpt>
      <trkpt lat="45.79809" lon="13.35147">
        <ele>-0.30455</ele>
        <time>2026-07-15T14:02:05.000Z</time>
      </trkpt>
      <trkpt lat="45.79833" lon="13.3511">
        <ele>-0.04243</ele>
        <time>2026-07-15T14:02:11.000Z</time>
      </trkpt>
      <trkpt lat="45.79838" lon="13.35105">
        <ele>0.04359</ele>
        <time>2026-07-15T14:02:12.000Z</time>
      </trkpt>
      <trkpt lat="45.79862" lon="13.35082">
        <ele>0.443463</ele>
        <time>2026-07-15T14:02:17.000Z</time>
      </trkpt>
      <trkpt lat="45.79871" lon="13.35076">
        <ele>0.576398</ele>
        <time>2026-07-15T14:02:19.000Z</time>
      </trkpt>
      <trkpt lat="45.79874" lon="13.35073">
        <ele>0.625823</ele>
        <time>2026-07-15T14:02:20.000Z</time>
      </trkpt>
      <trkpt lat="45.7988" lon="13.35071">
        <ele>0.714333</ele>
        <time>2026-07-15T14:02:23.000Z</time>
      </trkpt>
      <trkpt lat="45.79886" lon="13.3507">
        <ele>0.801345</ele>
        <time>2026-07-15T14:02:26.000Z</time>
      </trkpt>
      <trkpt lat="45.79887" lon="13.35064">
        <ele>0.865144</ele>
        <time>2026-07-15T14:02:28.000Z</time>
      </trkpt>
      <trkpt lat="45.79885" lon="13.3504">
        <ele>1.099069</ele>
        <time>2026-07-15T14:02:33.000Z</time>
      </trkpt>
      <trkpt lat="45.79886" lon="13.35036">
        <ele>1.138695</ele>
        <time>2026-07-15T14:02:34.000Z</time>
      </trkpt>
      <trkpt lat="45.79893" lon="13.35032">
        <ele>1.241328</ele>
        <time>2026-07-15T14:02:36.000Z</time>
      </trkpt>
      <trkpt lat="45.79915" lon="13.35026">
        <ele>1.560811</ele>
        <time>2026-07-15T14:02:40.000Z</time>
      </trkpt>
      <trkpt lat="45.79954" lon="13.35012">
        <ele>2.110592</ele>
        <time>2026-07-15T14:02:46.000Z</time>
      </trkpt>
      <trkpt lat="45.7996" lon="13.3501">
        <ele>2.204075</ele>
        <time>2026-07-15T14:02:47.000Z</time>
      </trkpt>
      <trkpt lat="45.8" lon="13.34984">
        <ele>2.044082</ele>
        <time>2026-07-15T14:02:53.000Z</time>
      </trkpt>
      <trkpt lat="45.80035" lon="13.34941">
        <ele>1.76881</ele>
        <time>2026-07-15T14:02:59.000Z</time>
      </trkpt>
      <trkpt lat="45.80071" lon="13.34898">
        <ele>1.491544</ele>
        <time>2026-07-15T14:03:05.000Z</time>
      </trkpt>
      <trkpt lat="45.80087" lon="13.34876">
        <ele>1.35544</ele>
        <time>2026-07-15T14:03:08.000Z</time>
      </trkpt>
      <trkpt lat="45.80098" lon="13.34862">
        <ele>1.266712</ele>
        <time>2026-07-15T14:03:10.000Z</time>
      </trkpt>
      <trkpt lat="45.80134" lon="13.34814">
        <ele>0.986552</ele>
        <time>2026-07-15T14:03:17.000Z</time>
      </trkpt>
      <trkpt lat="45.80159" lon="13.34785">
        <ele>0.809366</ele>
        <time>2026-07-15T14:03:22.000Z</time>
      </trkpt>
      <trkpt lat="45.80162" lon="13.34779">
        <ele>0.777814</ele>
        <time>2026-07-15T14:03:23.000Z</time>
      </trkpt>
      <trkpt lat="45.80168" lon="13.34767">
        <ele>0.720879</ele>
        <time>2026-07-15T14:03:25.000Z</time>
      </trkpt>
      <trkpt lat="45.80175" lon="13.34758">
        <ele>0.669466</ele>
        <time>2026-07-15T14:03:27.000Z</time>
      </trkpt>
      <trkpt lat="45.80178" lon="13.34754">
        <ele>0.643185</ele>
        <time>2026-07-15T14:03:28.000Z</time>
      </trkpt>
      <trkpt lat="45.80185" lon="13.34746">
        <ele>0.591345</ele>
        <time>2026-07-15T14:03:30.000Z</time>
      </trkpt>
      <trkpt lat="45.80189" lon="13.34741">
        <ele>0.5646</ele>
        <time>2026-07-15T14:03:31.000Z</time>
      </trkpt>
      <trkpt lat="45.80211" lon="13.34721">
        <ele>0.417299</ele>
        <time>2026-07-15T14:03:35.000Z</time>
      </trkpt>
      <trkpt lat="45.80256" lon="13.34667">
        <ele>0.114292</ele>
        <time>2026-07-15T14:03:43.000Z</time>
      </trkpt>
      <trkpt lat="45.80298" lon="13.34615">
        <ele>-0.121323</ele>
        <time>2026-07-15T14:03:51.000Z</time>
      </trkpt>
      <trkpt lat="45.80314" lon="13.34596">
        <ele>-0.209815</ele>
        <time>2026-07-15T14:03:54.000Z</time>
      </trkpt>
      <trkpt lat="45.80345" lon="13.34558">
        <ele>-0.381882</ele>
        <time>2026-07-15T14:04:00.000Z</time>
      </trkpt>
      <trkpt lat="45.80376" lon="13.34523">
        <ele>-0.547325</ele>
        <time>2026-07-15T14:04:06.000Z</time>
      </trkpt>
      <trkpt lat="45.8041" lon="13.34491">
        <ele>-0.360719</ele>
        <time>2026-07-15T14:04:12.000Z</time>
      </trkpt>
      <trkpt lat="45.80458" lon="13.34454">
        <ele>-0.028661</ele>
        <time>2026-07-15T14:04:20.000Z</time>
      </trkpt>
      <trkpt lat="45.80511" lon="13.34417">
        <ele>0.326067</ele>
        <time>2026-07-15T14:04:29.000Z</time>
      </trkpt>
      <trkpt lat="45.80546" lon="13.34402">
        <ele>0.710996</ele>
        <time>2026-07-15T14:04:35.000Z</time>
      </trkpt>
      <trkpt lat="45.80561" lon="13.34391">
        <ele>1.297876</ele>
        <time>2026-07-15T14:04:38.000Z</time>
      </trkpt>
      <trkpt lat="45.80566" lon="13.34388">
        <ele>1.47577</ele>
        <time>2026-07-15T14:04:39.000Z</time>
      </trkpt>
      <trkpt lat="45.80571" lon="13.34385">
        <ele>1.667153</ele>
        <time>2026-07-15T14:04:40.000Z</time>
      </trkpt>
      <trkpt lat="45.80599" lon="13.34375">
        <ele>2.661626</ele>
        <time>2026-07-15T14:04:45.000Z</time>
      </trkpt>
      <trkpt lat="45.80635" lon="13.34366">
        <ele>3.933903</ele>
        <time>2026-07-15T14:04:52.000Z</time>
      </trkpt>
      <trkpt lat="45.80639" lon="13.34366">
        <ele>4.080796</ele>
        <time>2026-07-15T14:04:53.000Z</time>
      </trkpt>
      <trkpt lat="45.80648" lon="13.34368">
        <ele>4.392241</ele>
        <time>2026-07-15T14:04:56.000Z</time>
      </trkpt>
      <trkpt lat="45.80648" lon="13.3437">
        <ele>4.440858</ele>
        <time>2026-07-15T14:04:57.000Z</time>
      </trkpt>
      <trkpt lat="45.80648" lon="13.3437">
        <ele>4.45885</ele>
        <time>2026-07-15T14:04:59.000Z</time>
      </trkpt>
      <trkpt lat="45.80648" lon="13.34379">
        <ele>4.668667</ele>
        <time>2026-07-15T14:05:35.000Z</time>
      </trkpt>
      <trkpt lat="45.8065" lon="13.34383">
        <ele>4.780839</ele>
        <time>2026-07-15T14:05:36.000Z</time>
      </trkpt>
      <trkpt lat="45.80657" lon="13.34384">
        <ele>5.029868</ele>
        <time>2026-07-15T14:05:38.000Z</time>
      </trkpt>
      <trkpt lat="45.8068" lon="13.34378">
        <ele>5.834136</ele>
        <time>2026-07-15T14:05:43.000Z</time>
      </trkpt>
      <trkpt lat="45.80715" lon="13.34366">
        <ele>6.781846</ele>
        <time>2026-07-15T14:05:49.000Z</time>
      </trkpt>
      <trkpt lat="45.80734" lon="13.3436">
        <ele>6.735296</ele>
        <time>2026-07-15T14:05:52.000Z</time>
      </trkpt>
      <trkpt lat="45.80747" lon="13.34356">
        <ele>6.703249</ele>
        <time>2026-07-15T14:05:54.000Z</time>
      </trkpt>
      <trkpt lat="45.80784" lon="13.34345">
        <ele>6.612168</ele>
        <time>2026-07-15T14:06:00.000Z</time>
      </trkpt>
      <trkpt lat="45.80837" lon="13.34329">
        <ele>6.481639</ele>
        <time>2026-07-15T14:06:08.000Z</time>
      </trkpt>
      <trkpt lat="45.80844" lon="13.34327">
        <ele>6.466001</ele>
        <time>2026-07-15T14:06:09.000Z</time>
      </trkpt>
      <trkpt lat="45.80882" lon="13.34316">
        <ele>6.372944</ele>
        <time>2026-07-15T14:06:15.000Z</time>
      </trkpt>
      <trkpt lat="45.80888" lon="13.34314">
        <ele>6.289138</ele>
        <time>2026-07-15T14:06:16.000Z</time>
      </trkpt>
      <trkpt lat="45.80911" lon="13.3431">
        <ele>5.932119</ele>
        <time>2026-07-15T14:06:20.000Z</time>
      </trkpt>
      <trkpt lat="45.80931" lon="13.34308">
        <ele>5.623908</ele>
        <time>2026-07-15T14:06:23.000Z</time>
      </trkpt>
      <trkpt lat="45.80943" lon="13.34312">
        <ele>5.432062</ele>
        <time>2026-07-15T14:06:25.000Z</time>
      </trkpt>
      <trkpt lat="45.80948" lon="13.34317">
        <ele>5.335288</ele>
        <time>2026-07-15T14:06:26.000Z</time>
      </trkpt>
      <trkpt lat="45.80954" lon="13.34321">
        <ele>5.240017</ele>
        <time>2026-07-15T14:06:27.000Z</time>
      </trkpt>
      <trkpt lat="45.80966" lon="13.34324">
        <ele>5.053343</ele>
        <time>2026-07-15T14:06:29.000Z</time>
      </trkpt>
      <trkpt lat="45.80972" lon="13.34321">
        <ele>4.948407</ele>
        <time>2026-07-15T14:06:30.000Z</time>
      </trkpt>
      <trkpt lat="45.80978" lon="13.34317">
        <ele>4.846163</ele>
        <time>2026-07-15T14:06:31.000Z</time>
      </trkpt>
      <trkpt lat="45.80988" lon="13.34304">
        <ele>4.642941</ele>
        <time>2026-07-15T14:06:33.000Z</time>
      </trkpt>
      <trkpt lat="45.80996" lon="13.3429">
        <ele>4.445182</ele>
        <time>2026-07-15T14:06:35.000Z</time>
      </trkpt>
      <trkpt lat="45.81006" lon="13.34282">
        <ele>4.27013</ele>
        <time>2026-07-15T14:06:37.000Z</time>
      </trkpt>
      <trkpt lat="45.81054" lon="13.34254">
        <ele>3.527726</ele>
        <time>2026-07-15T14:06:45.000Z</time>
      </trkpt>
      <trkpt lat="45.81094" lon="13.34232">
        <ele>3.192326</ele>
        <time>2026-07-15T14:06:51.000Z</time>
      </trkpt>
      <trkpt lat="45.81147" lon="13.34203">
        <ele>2.751188</ele>
        <time>2026-07-15T14:06:59.000Z</time>
      </trkpt>
      <trkpt lat="45.81173" lon="13.34188">
        <ele>2.539057</ele>
        <time>2026-07-15T14:07:03.000Z</time>
      </trkpt>
      <trkpt lat="45.81191" lon="13.34177">
        <ele>2.383848</ele>
        <time>2026-07-15T14:07:06.000Z</time>
      </trkpt>
      <trkpt lat="45.81235" lon="13.3415">
        <ele>1.964547</ele>
        <time>2026-07-15T14:07:13.000Z</time>
      </trkpt>
      <trkpt lat="45.81287" lon="13.3412">
        <ele>1.417091</ele>
        <time>2026-07-15T14:07:21.000Z</time>
      </trkpt>
      <trkpt lat="45.81335" lon="13.34092">
        <ele>0.920539</ele>
        <time>2026-07-15T14:07:28.000Z</time>
      </trkpt>
      <trkpt lat="45.8138" lon="13.34065">
        <ele>0.445002</ele>
        <time>2026-07-15T14:07:35.000Z</time>
      </trkpt>
      <trkpt lat="45.81435" lon="13.34032">
        <ele>0.603809</ele>
        <time>2026-07-15T14:07:44.000Z</time>
      </trkpt>
      <trkpt lat="45.81472" lon="13.34012">
        <ele>0.710712</ele>
        <time>2026-07-15T14:07:50.000Z</time>
      </trkpt>
      <trkpt lat="45.81523" lon="13.33982">
        <ele>0.859415</ele>
        <time>2026-07-15T14:07:58.000Z</time>
      </trkpt>
      <trkpt lat="45.81579" lon="13.3395">
        <ele>1.354317</ele>
        <time>2026-07-15T14:08:07.000Z</time>
      </trkpt>
      <trkpt lat="45.81616" lon="13.33927">
        <ele>1.860457</ele>
        <time>2026-07-15T14:08:13.000Z</time>
      </trkpt>
      <trkpt lat="45.81628" lon="13.3392">
        <ele>2.022452</ele>
        <time>2026-07-15T14:08:15.000Z</time>
      </trkpt>
      <trkpt lat="45.81671" lon="13.33896">
        <ele>2.588655</ele>
        <time>2026-07-15T14:08:22.000Z</time>
      </trkpt>
      <trkpt lat="45.81713" lon="13.33871">
        <ele>3.155082</ele>
        <time>2026-07-15T14:08:29.000Z</time>
      </trkpt>
      <trkpt lat="45.81754" lon="13.33847">
        <ele>2.631844</ele>
        <time>2026-07-15T14:08:37.000Z</time>
      </trkpt>
      <trkpt lat="45.81761" lon="13.33845">
        <ele>2.549247</ele>
        <time>2026-07-15T14:08:39.000Z</time>
      </trkpt>
      <trkpt lat="45.81764" lon="13.33848">
        <ele>2.506946</ele>
        <time>2026-07-15T14:08:40.000Z</time>
      </trkpt>
      <trkpt lat="45.81772" lon="13.33878">
        <ele>2.237686</ele>
        <time>2026-07-15T14:08:44.000Z</time>
      </trkpt>
      <trkpt lat="45.81785" lon="13.33922">
        <ele>1.840947</ele>
        <time>2026-07-15T14:08:49.000Z</time>
      </trkpt>
      <trkpt lat="45.81802" lon="13.33976">
        <ele>1.343746</ele>
        <time>2026-07-15T14:08:55.000Z</time>
      </trkpt>
      <trkpt lat="45.81807" lon="13.33994">
        <ele>1.181319</ele>
        <time>2026-07-15T14:08:57.000Z</time>
      </trkpt>
      <trkpt lat="45.81818" lon="13.3402">
        <ele>1.067187</ele>
        <time>2026-07-15T14:09:00.000Z</time>
      </trkpt>
      <trkpt lat="45.81839" lon="13.34089">
        <ele>1.498731</ele>
        <time>2026-07-15T14:09:08.000Z</time>
      </trkpt>
      <trkpt lat="45.81858" lon="13.34149">
        <ele>1.878642</ele>
        <time>2026-07-15T14:09:15.000Z</time>
      </trkpt>
      <trkpt lat="45.81879" lon="13.3421">
        <ele>2.271342</ele>
        <time>2026-07-15T14:09:23.000Z</time>
      </trkpt>
      <trkpt lat="45.81894" lon="13.34249">
        <ele>2.501113</ele>
        <time>2026-07-15T14:09:29.000Z</time>
      </trkpt>
      <trkpt lat="45.81898" lon="13.34259">
        <ele>2.505444</ele>
        <time>2026-07-15T14:09:32.000Z</time>
      </trkpt>
      <trkpt lat="45.81901" lon="13.3426">
        <ele>2.507349</ele>
        <time>2026-07-15T14:09:33.000Z</time>
      </trkpt>
      <trkpt lat="45.8191" lon="13.34259">
        <ele>2.511986</ele>
        <time>2026-07-15T14:09:35.000Z</time>
      </trkpt>
      <trkpt lat="45.81921" lon="13.34256">
        <ele>2.517837</ele>
        <time>2026-07-15T14:09:37.000Z</time>
      </trkpt>
      <trkpt lat="45.81952" lon="13.34247">
        <ele>2.534323</ele>
        <time>2026-07-15T14:09:42.000Z</time>
      </trkpt>
      <trkpt lat="45.81957" lon="13.34245">
        <ele>2.537325</ele>
        <time>2026-07-15T14:09:43.000Z</time>
      </trkpt>
      <trkpt lat="45.81981" lon="13.34239">
        <ele>2.549735</ele>
        <time>2026-07-15T14:09:47.000Z</time>
      </trkpt>
      <trkpt lat="45.81999" lon="13.34234">
        <ele>2.559274</ele>
        <time>2026-07-15T14:09:50.000Z</time>
      </trkpt>
      <trkpt lat="45.82009" lon="13.34234">
        <ele>2.564889</ele>
        <time>2026-07-15T14:09:52.000Z</time>
      </trkpt>
      <trkpt lat="45.82016" lon="13.34242">
        <ele>2.569468</ele>
        <time>2026-07-15T14:09:54.000Z</time>
      </trkpt>
      <trkpt lat="45.82018" lon="13.34249">
        <ele>2.572078</ele>
        <time>2026-07-15T14:09:55.000Z</time>
      </trkpt>
      <trkpt lat="45.82019" lon="13.34257">
        <ele>2.575085</ele>
        <time>2026-07-15T14:09:58.000Z</time>
      </trkpt>
      <trkpt lat="45.82019" lon="13.34257">
        <ele>2.575085</ele>
        <time>2026-07-15T14:09:59.000Z</time>
      </trkpt>
      <trkpt lat="45.82025" lon="13.34259">
        <ele>2.578648</ele>
        <time>2026-07-15T14:10:15.000Z</time>
      </trkpt>
      <trkpt lat="45.82029" lon="13.34257">
        <ele>2.580513</ele>
        <time>2026-07-15T14:10:16.000Z</time>
      </trkpt>
      <trkpt lat="45.82045" lon="13.34246">
        <ele>2.590008</ele>
        <time>2026-07-15T14:10:20.000Z</time>
      </trkpt>
      <trkpt lat="45.8206" lon="13.3424">
        <ele>2.770682</ele>
        <time>2026-07-15T14:10:23.000Z</time>
      </trkpt>
      <trkpt lat="45.82071" lon="13.34233">
        <ele>2.994467</ele>
        <time>2026-07-15T14:10:25.000Z</time>
      </trkpt>
      <trkpt lat="45.82109" lon="13.34211">
        <ele>3.818749</ele>
        <time>2026-07-15T14:10:32.000Z</time>
      </trkpt>
      <trkpt lat="45.82142" lon="13.34194">
        <ele>4.520205</ele>
        <time>2026-07-15T14:10:37.000Z</time>
      </trkpt>
      <trkpt lat="45.82184" lon="13.34174">
        <ele>5.415594</ele>
        <time>2026-07-15T14:10:43.000Z</time>
      </trkpt>
      <trkpt lat="45.82228" lon="13.34152">
        <ele>6.171684</ele>
        <time>2026-07-15T14:10:49.000Z</time>
      </trkpt>
      <trkpt lat="45.82235" lon="13.34147">
        <ele>6.150436</ele>
        <time>2026-07-15T14:10:50.000Z</time>
      </trkpt>
      <trkpt lat="45.82276" lon="13.34128">
        <ele>6.035067</ele>
        <time>2026-07-15T14:10:56.000Z</time>
      </trkpt>
      <trkpt lat="45.82322" lon="13.34103">
        <ele>5.901542</ele>
        <time>2026-07-15T14:11:03.000Z</time>
      </trkpt>
      <trkpt lat="45.82328" lon="13.34099">
        <ele>5.883507</ele>
        <time>2026-07-15T14:11:04.000Z</time>
      </trkpt>
      <trkpt lat="45.8234" lon="13.34092">
        <ele>5.849288</ele>
        <time>2026-07-15T14:11:06.000Z</time>
      </trkpt>
      <trkpt lat="45.82344" lon="13.34091">
        <ele>5.838512</ele>
        <time>2026-07-15T14:11:07.000Z</time>
      </trkpt>
      <trkpt lat="45.82349" lon="13.34088">
        <ele>5.823553</ele>
        <time>2026-07-15T14:11:08.000Z</time>
      </trkpt>
      <trkpt lat="45.82358" lon="13.34085">
        <ele>5.798242</ele>
        <time>2026-07-15T14:11:10.000Z</time>
      </trkpt>
      <trkpt lat="45.82361" lon="13.34084">
        <ele>5.788902</ele>
        <time>2026-07-15T14:11:11.000Z</time>
      </trkpt>
      <trkpt lat="45.82364" lon="13.34084">
        <ele>5.781855</ele>
        <time>2026-07-15T14:11:12.000Z</time>
      </trkpt>
      <trkpt lat="45.82368" lon="13.34091">
        <ele>5.765068</ele>
        <time>2026-07-15T14:11:14.000Z</time>
      </trkpt>
      <trkpt lat="45.82375" lon="13.34123">
        <ele>5.750281</ele>
        <time>2026-07-15T14:11:19.000Z</time>
      </trkpt>
      <trkpt lat="45.82377" lon="13.34136">
        <ele>5.996488</ele>
        <time>2026-07-15T14:11:21.000Z</time>
      </trkpt>
      <trkpt lat="45.82376" lon="13.34169">
        <ele>6.594145</ele>
        <time>2026-07-15T14:11:25.000Z</time>
      </trkpt>
      <trkpt lat="45.82375" lon="13.34184">
        <ele>6.880877</ele>
        <time>2026-07-15T14:11:27.000Z</time>
      </trkpt>
      <trkpt lat="45.82368" lon="13.34211">
        <ele>7.402507</ele>
        <time>2026-07-15T14:11:31.000Z</time>
      </trkpt>
      <trkpt lat="45.82366" lon="13.34217">
        <ele>7.537198</ele>
        <time>2026-07-15T14:11:32.000Z</time>
      </trkpt>
      <trkpt lat="45.8236" lon="13.3423">
        <ele>7.812581</ele>
        <time>2026-07-15T14:11:34.000Z</time>
      </trkpt>
      <trkpt lat="45.82357" lon="13.34237">
        <ele>7.959267</ele>
        <time>2026-07-15T14:11:35.000Z</time>
      </trkpt>
      <trkpt lat="45.8235" lon="13.34264">
        <ele>8.489684</ele>
        <time>2026-07-15T14:11:39.000Z</time>
      </trkpt>
      <trkpt lat="45.82351" lon="13.34268">
        <ele>8.578825</ele>
        <time>2026-07-15T14:11:40.000Z</time>
      </trkpt>
      <trkpt lat="45.82353" lon="13.34274">
        <ele>8.708933</ele>
        <time>2026-07-15T14:11:42.000Z</time>
      </trkpt>
      <trkpt lat="45.82355" lon="13.34276">
        <ele>8.76496</ele>
        <time>2026-07-15T14:11:43.000Z</time>
      </trkpt>
      <trkpt lat="45.82358" lon="13.34287">
        <ele>8.980894</ele>
        <time>2026-07-15T14:11:47.000Z</time>
      </trkpt>
      <trkpt lat="45.82357" lon="13.34291">
        <ele>9.065359</ele>
        <time>2026-07-15T14:11:48.000Z</time>
      </trkpt>
      <trkpt lat="45.82351" lon="13.34315">
        <ele>9.535615</ele>
        <time>2026-07-15T14:11:53.000Z</time>
      </trkpt>
      <trkpt lat="45.8235" lon="13.34319">
        <ele>9.602209</ele>
        <time>2026-07-15T14:11:54.000Z</time>
      </trkpt>
      <trkpt lat="45.82353" lon="13.34322">
        <ele>9.697923</ele>
        <time>2026-07-15T14:11:56.000Z</time>
      </trkpt>
      <trkpt lat="45.82355" lon="13.34321">
        <ele>9.739304</ele>
        <time>2026-07-15T14:11:58.000Z</time>
      </trkpt>
      <trkpt lat="45.82354" lon="13.3432">
        <ele>9.752204</ele>
        <time>2026-07-15T14:11:59.000Z</time>
      </trkpt>
      <trkpt lat="45.82355" lon="13.34321">
        <ele>9.769624</ele>
        <time>2026-07-15T14:12:01.000Z</time>
      </trkpt>
      <trkpt lat="45.82357" lon="13.34323">
        <ele>9.840578</ele>
        <time>2026-07-15T14:12:03.000Z</time>
      </trkpt>
      <trkpt lat="45.82358" lon="13.34323">
        <ele>9.864677</ele>
        <time>2026-07-15T14:12:04.000Z</time>
      </trkpt>
      <trkpt lat="45.82358" lon="13.34323">
        <ele>9.87343</ele>
        <time>2026-07-15T14:12:06.000Z</time>
      </trkpt>
      <trkpt lat="45.82379" lon="13.34331">
        <ele>10.45209</ele>
        <time>2026-07-15T14:14:04.000Z</time>
      </trkpt>
      <trkpt lat="45.82379" lon="13.3433">
        <ele>10.456629</ele>
        <time>2026-07-15T14:14:05.000Z</time>
      </trkpt>
      <trkpt lat="45.82372" lon="13.34346">
        <ele>10.465455</ele>
        <time>2026-07-15T14:14:12.000Z</time>
      </trkpt>
      <trkpt lat="45.8237" lon="13.3435">
        <ele>10.465455</ele>
        <time>2026-07-15T14:14:14.000Z</time>
      </trkpt>
      <trkpt lat="45.8237" lon="13.34346">
        <ele>10.465455</ele>
        <time>2026-07-15T14:14:19.000Z</time>
      </trkpt>
      <trkpt lat="45.82369" lon="13.34341">
        <ele>10.465455</ele>
        <time>2026-07-15T14:14:24.000Z</time>
      </trkpt>
      <trkpt lat="45.82355" lon="13.34323">
        <ele>10.465455</ele>
        <time>2026-07-15T14:14:39.000Z</time>
      </trkpt>
      <trkpt lat="45.82363" lon="13.34312">
        <ele>10.465455</ele>
        <time>2026-07-15T14:14:40.000Z</time>
      </trkpt>
      <trkpt lat="45.82362" lon="13.343">
        <ele>10.465455</ele>
        <time>2026-07-15T14:14:41.000Z</time>
      </trkpt>
      <trkpt lat="45.8236" lon="13.34323">
        <ele>10.465455</ele>
        <time>2026-07-15T14:14:42.000Z</time>
      </trkpt>
      <trkpt lat="45.82365" lon="13.3433">
        <ele>10.465455</ele>
        <time>2026-07-15T14:14:43.000Z</time>
      </trkpt>
      <trkpt lat="45.82371" lon="13.34331">
        <ele>10.465455</ele>
        <time>2026-07-15T14:14:44.000Z</time>
      </trkpt>
      <trkpt lat="45.82377" lon="13.34332">
        <ele>10.465455</ele>
        <time>2026-07-15T14:14:45.000Z</time>
      </trkpt>
    </trkseg>
  </trk>
</gpx>